<?xml version="1.0" encoding="UTF-8" standalone="no" ?>
<gpx xmlns="http://www.topografix.com/GPX/1/1" xmlns:xsi="http://www.w3.org/2001/XMLSchema-instance" xsi:schemaLocation="http://www.topografix.com/GPX/1/1 http://www.topografix.com/GPX/1/1/gpx.xsd" version="1.1" creator="VisuGPX - https://www.visugpx.com">
  <metadata>
    <name>VELO ROUTE 53 KM</name>
  </metadata>
  <trk>
    <name><![CDATA[27062024Vrte52,5KmPour29092024BM]]></name>
    <trkseg>
      <trkpt lat="45.56673" lon="5.26262">
        <ele>445.2</ele>
        <time>2024-06-27T16:27:36.000Z</time>
      </trkpt>
      <trkpt lat="45.56672" lon="5.26258">
        <ele>445.3</ele>
        <time>2024-06-27T16:27:36.001Z</time>
      </trkpt>
      <trkpt lat="45.56662" lon="5.26234">
        <ele>446.7</ele>
        <time>2024-06-27T16:27:36.005Z</time>
      </trkpt>
      <trkpt lat="45.5666" lon="5.2623">
        <ele>447</ele>
        <time>2024-06-27T16:27:36.010Z</time>
      </trkpt>
      <trkpt lat="45.56651" lon="5.26203">
        <ele>448.5</ele>
        <time>2024-06-27T16:27:36.019Z</time>
      </trkpt>
      <trkpt lat="45.56644" lon="5.26179">
        <ele>448.9</ele>
        <time>2024-06-27T16:27:36.032Z</time>
      </trkpt>
      <trkpt lat="45.56643" lon="5.26174">
        <ele>448.9</ele>
        <time>2024-06-27T16:27:36.045Z</time>
      </trkpt>
      <trkpt lat="45.56629" lon="5.26126">
        <ele>449.6</ele>
        <time>2024-06-27T16:27:36.065Z</time>
      </trkpt>
      <trkpt lat="45.56623" lon="5.26099">
        <ele>450.1</ele>
        <time>2024-06-27T16:27:36.089Z</time>
      </trkpt>
      <trkpt lat="45.56616" lon="5.26076">
        <ele>451.7</ele>
        <time>2024-06-27T16:27:36.117Z</time>
      </trkpt>
      <trkpt lat="45.56609" lon="5.26056">
        <ele>452</ele>
        <time>2024-06-27T16:27:36.148Z</time>
      </trkpt>
      <trkpt lat="45.56605" lon="5.26049">
        <ele>452</ele>
        <time>2024-06-27T16:27:36.180Z</time>
      </trkpt>
      <trkpt lat="45.56594" lon="5.26018">
        <ele>452</ele>
        <time>2024-06-27T16:27:36.217Z</time>
      </trkpt>
      <trkpt lat="45.56581" lon="5.25981">
        <ele>452.6</ele>
        <time>2024-06-27T16:27:36.259Z</time>
      </trkpt>
      <trkpt lat="45.56579" lon="5.25976">
        <ele>452.8</ele>
        <time>2024-06-27T16:27:36.302Z</time>
      </trkpt>
      <trkpt lat="45.56569" lon="5.25944">
        <ele>454.2</ele>
        <time>2024-06-27T16:27:36.350Z</time>
      </trkpt>
      <trkpt lat="45.56568" lon="5.25939">
        <ele>454.2</ele>
        <time>2024-06-27T16:27:36.399Z</time>
      </trkpt>
      <trkpt lat="45.56563" lon="5.25913">
        <ele>454.6</ele>
        <time>2024-06-27T16:27:36.451Z</time>
      </trkpt>
      <trkpt lat="45.5656" lon="5.25897">
        <ele>454.3</ele>
        <time>2024-06-27T16:27:36.506Z</time>
      </trkpt>
      <trkpt lat="45.56551" lon="5.25849">
        <ele>453.8</ele>
        <time>2024-06-27T16:27:36.567Z</time>
      </trkpt>
      <trkpt lat="45.56541" lon="5.25801">
        <ele>453.7</ele>
        <time>2024-06-27T16:27:36.635Z</time>
      </trkpt>
      <trkpt lat="45.56537" lon="5.25781">
        <ele>454.2</ele>
        <time>2024-06-27T16:27:36.706Z</time>
      </trkpt>
      <trkpt lat="45.56531" lon="5.25751">
        <ele>454.8</ele>
        <time>2024-06-27T16:27:36.781Z</time>
      </trkpt>
      <trkpt lat="45.56521" lon="5.25696">
        <ele>456.1</ele>
        <time>2024-06-27T16:27:36.864Z</time>
      </trkpt>
      <trkpt lat="45.5652" lon="5.2569">
        <ele>456.2</ele>
        <time>2024-06-27T16:27:36.948Z</time>
      </trkpt>
      <trkpt lat="45.56514" lon="5.2565">
        <ele>456.8</ele>
        <time>2024-06-27T16:27:37.037Z</time>
      </trkpt>
      <trkpt lat="45.5651" lon="5.25627">
        <ele>457.3</ele>
        <time>2024-06-27T16:27:37.129Z</time>
      </trkpt>
      <trkpt lat="45.56505" lon="5.25574">
        <ele>457.1</ele>
        <time>2024-06-27T16:27:37.229Z</time>
      </trkpt>
      <trkpt lat="45.56505" lon="5.25549">
        <ele>457.1</ele>
        <time>2024-06-27T16:27:37.332Z</time>
      </trkpt>
      <trkpt lat="45.56505" lon="5.2551">
        <ele>458.4</ele>
        <time>2024-06-27T16:27:37.440Z</time>
      </trkpt>
      <trkpt lat="45.56507" lon="5.25446">
        <ele>460</ele>
        <time>2024-06-27T16:27:37.557Z</time>
      </trkpt>
      <trkpt lat="45.56508" lon="5.2542">
        <ele>459.4</ele>
        <time>2024-06-27T16:27:37.678Z</time>
      </trkpt>
      <trkpt lat="45.56508" lon="5.25374">
        <ele>459.2</ele>
        <time>2024-06-27T16:27:37.805Z</time>
      </trkpt>
      <trkpt lat="45.56509" lon="5.25342">
        <ele>460</ele>
        <time>2024-06-27T16:27:37.936Z</time>
      </trkpt>
      <trkpt lat="45.56509" lon="5.25323">
        <ele>460.3</ele>
        <time>2024-06-27T16:27:38.070Z</time>
      </trkpt>
      <trkpt lat="45.56511" lon="5.25291">
        <ele>460.3</ele>
        <time>2024-06-27T16:27:38.208Z</time>
      </trkpt>
      <trkpt lat="45.56514" lon="5.25267">
        <ele>460.3</ele>
        <time>2024-06-27T16:27:38.350Z</time>
      </trkpt>
      <trkpt lat="45.56518" lon="5.25235">
        <ele>459.3</ele>
        <time>2024-06-27T16:27:38.496Z</time>
      </trkpt>
      <trkpt lat="45.56525" lon="5.25187">
        <ele>458.8</ele>
        <time>2024-06-27T16:27:38.649Z</time>
      </trkpt>
      <trkpt lat="45.56529" lon="5.25152">
        <ele>460</ele>
        <time>2024-06-27T16:27:38.807Z</time>
      </trkpt>
      <trkpt lat="45.56533" lon="5.25123">
        <ele>460.1</ele>
        <time>2024-06-27T16:27:38.968Z</time>
      </trkpt>
      <trkpt lat="45.56538" lon="5.25071">
        <ele>459.8</ele>
        <time>2024-06-27T16:27:39.137Z</time>
      </trkpt>
      <trkpt lat="45.56539" lon="5.25063">
        <ele>459.5</ele>
        <time>2024-06-27T16:27:39.307Z</time>
      </trkpt>
      <trkpt lat="45.56539" lon="5.25021">
        <ele>459.3</ele>
        <time>2024-06-27T16:27:39.482Z</time>
      </trkpt>
      <trkpt lat="45.56537" lon="5.24995">
        <ele>459.1</ele>
        <time>2024-06-27T16:27:39.661Z</time>
      </trkpt>
      <trkpt lat="45.56536" lon="5.24987">
        <ele>458.8</ele>
        <time>2024-06-27T16:27:39.841Z</time>
      </trkpt>
      <trkpt lat="45.56533" lon="5.24951">
        <ele>458</ele>
        <time>2024-06-27T16:27:40.026Z</time>
      </trkpt>
      <trkpt lat="45.56528" lon="5.24924">
        <ele>458</ele>
        <time>2024-06-27T16:27:40.215Z</time>
      </trkpt>
      <trkpt lat="45.56523" lon="5.24896">
        <ele>457.7</ele>
        <time>2024-06-27T16:27:40.408Z</time>
      </trkpt>
      <trkpt lat="45.56516" lon="5.24862">
        <ele>456.3</ele>
        <time>2024-06-27T16:27:40.606Z</time>
      </trkpt>
      <trkpt lat="45.56514" lon="5.24854">
        <ele>456</ele>
        <time>2024-06-27T16:27:40.805Z</time>
      </trkpt>
      <trkpt lat="45.56513" lon="5.24845">
        <ele>455.7</ele>
        <time>2024-06-27T16:27:41.005Z</time>
      </trkpt>
      <trkpt lat="45.56508" lon="5.2482">
        <ele>454.8</ele>
        <time>2024-06-27T16:27:41.209Z</time>
      </trkpt>
      <trkpt lat="45.56506" lon="5.24811">
        <ele>454.4</ele>
        <time>2024-06-27T16:27:41.414Z</time>
      </trkpt>
      <trkpt lat="45.56498" lon="5.24776">
        <ele>454.3</ele>
        <time>2024-06-27T16:27:41.624Z</time>
      </trkpt>
      <trkpt lat="45.56489" lon="5.24744">
        <ele>455.4</ele>
        <time>2024-06-27T16:27:41.839Z</time>
      </trkpt>
      <trkpt lat="45.56477" lon="5.24713">
        <ele>455</ele>
        <time>2024-06-27T16:27:42.058Z</time>
      </trkpt>
      <trkpt lat="45.56463" lon="5.24683">
        <ele>455.6</ele>
        <time>2024-06-27T16:27:42.282Z</time>
      </trkpt>
      <trkpt lat="45.56447" lon="5.24638">
        <ele>457.8</ele>
        <time>2024-06-27T16:27:42.513Z</time>
      </trkpt>
      <trkpt lat="45.5644" lon="5.24608">
        <ele>457.1</ele>
        <time>2024-06-27T16:27:42.748Z</time>
      </trkpt>
      <trkpt lat="45.56433" lon="5.24579">
        <ele>456.6</ele>
        <time>2024-06-27T16:27:42.988Z</time>
      </trkpt>
      <trkpt lat="45.56419" lon="5.24508">
        <ele>456</ele>
        <time>2024-06-27T16:27:43.238Z</time>
      </trkpt>
      <trkpt lat="45.56405" lon="5.24437">
        <ele>456.5</ele>
        <time>2024-06-27T16:27:43.498Z</time>
      </trkpt>
      <trkpt lat="45.56399" lon="5.24407">
        <ele>456.2</ele>
        <time>2024-06-27T16:27:43.762Z</time>
      </trkpt>
      <trkpt lat="45.56394" lon="5.24385">
        <ele>455.2</ele>
        <time>2024-06-27T16:27:44.029Z</time>
      </trkpt>
      <trkpt lat="45.56392" lon="5.24371">
        <ele>455.1</ele>
        <time>2024-06-27T16:27:44.298Z</time>
      </trkpt>
      <trkpt lat="45.56379" lon="5.2431">
        <ele>455.7</ele>
        <time>2024-06-27T16:27:44.576Z</time>
      </trkpt>
      <trkpt lat="45.56378" lon="5.24301">
        <ele>456</ele>
        <time>2024-06-27T16:27:44.855Z</time>
      </trkpt>
      <trkpt lat="45.56372" lon="5.24274">
        <ele>455</ele>
        <time>2024-06-27T16:27:45.138Z</time>
      </trkpt>
      <trkpt lat="45.56368" lon="5.24254">
        <ele>454</ele>
        <time>2024-06-27T16:27:45.424Z</time>
      </trkpt>
      <trkpt lat="45.56365" lon="5.24243">
        <ele>453.2</ele>
        <time>2024-06-27T16:27:45.711Z</time>
      </trkpt>
      <trkpt lat="45.5636" lon="5.24222">
        <ele>452.1</ele>
        <time>2024-06-27T16:27:46.001Z</time>
      </trkpt>
      <trkpt lat="45.56353" lon="5.24192">
        <ele>452</ele>
        <time>2024-06-27T16:27:46.295Z</time>
      </trkpt>
      <trkpt lat="45.56351" lon="5.24183">
        <ele>452.3</ele>
        <time>2024-06-27T16:27:46.591Z</time>
      </trkpt>
      <trkpt lat="45.56342" lon="5.24139">
        <ele>454.5</ele>
        <time>2024-06-27T16:27:46.893Z</time>
      </trkpt>
      <trkpt lat="45.5634" lon="5.24131">
        <ele>455</ele>
        <time>2024-06-27T16:27:47.196Z</time>
      </trkpt>
      <trkpt lat="45.56337" lon="5.24116">
        <ele>455.6</ele>
        <time>2024-06-27T16:27:47.501Z</time>
      </trkpt>
      <trkpt lat="45.56335" lon="5.24109">
        <ele>455.8</ele>
        <time>2024-06-27T16:27:47.807Z</time>
      </trkpt>
      <trkpt lat="45.56332" lon="5.24095">
        <ele>456.2</ele>
        <time>2024-06-27T16:27:48.115Z</time>
      </trkpt>
      <trkpt lat="45.56327" lon="5.24076">
        <ele>456.7</ele>
        <time>2024-06-27T16:27:48.426Z</time>
      </trkpt>
      <trkpt lat="45.56326" lon="5.2407">
        <ele>456.7</ele>
        <time>2024-06-27T16:27:48.738Z</time>
      </trkpt>
      <trkpt lat="45.5632" lon="5.24046">
        <ele>456.5</ele>
        <time>2024-06-27T16:27:49.053Z</time>
      </trkpt>
      <trkpt lat="45.56316" lon="5.24033">
        <ele>456.9</ele>
        <time>2024-06-27T16:27:49.370Z</time>
      </trkpt>
      <trkpt lat="45.5631" lon="5.24015">
        <ele>457</ele>
        <time>2024-06-27T16:27:49.690Z</time>
      </trkpt>
      <trkpt lat="45.56293" lon="5.2396">
        <ele>457.2</ele>
        <time>2024-06-27T16:27:50.018Z</time>
      </trkpt>
      <trkpt lat="45.56288" lon="5.2394">
        <ele>457.9</ele>
        <time>2024-06-27T16:27:50.349Z</time>
      </trkpt>
      <trkpt lat="45.56282" lon="5.23913">
        <ele>458</ele>
        <time>2024-06-27T16:27:50.684Z</time>
      </trkpt>
      <trkpt lat="45.56279" lon="5.23893">
        <ele>458</ele>
        <time>2024-06-27T16:27:51.022Z</time>
      </trkpt>
      <trkpt lat="45.56275" lon="5.23858">
        <ele>458.2</ele>
        <time>2024-06-27T16:27:51.365Z</time>
      </trkpt>
      <trkpt lat="45.56274" lon="5.23829">
        <ele>459.1</ele>
        <time>2024-06-27T16:27:51.711Z</time>
      </trkpt>
      <trkpt lat="45.56276" lon="5.23807">
        <ele>459.7</ele>
        <time>2024-06-27T16:27:52.060Z</time>
      </trkpt>
      <trkpt lat="45.56281" lon="5.23779">
        <ele>459.9</ele>
        <time>2024-06-27T16:27:52.413Z</time>
      </trkpt>
      <trkpt lat="45.56298" lon="5.23715">
        <ele>459.3</ele>
        <time>2024-06-27T16:27:52.776Z</time>
      </trkpt>
      <trkpt lat="45.56323" lon="5.23663">
        <ele>459.4</ele>
        <time>2024-06-27T16:27:53.147Z</time>
      </trkpt>
      <trkpt lat="45.56333" lon="5.23646">
        <ele>459.5</ele>
        <time>2024-06-27T16:27:53.521Z</time>
      </trkpt>
      <trkpt lat="45.56336" lon="5.2364">
        <ele>459.7</ele>
        <time>2024-06-27T16:27:53.896Z</time>
      </trkpt>
      <trkpt lat="45.56347" lon="5.23612">
        <ele>460.6</ele>
        <time>2024-06-27T16:27:54.276Z</time>
      </trkpt>
      <trkpt lat="45.56355" lon="5.23588">
        <ele>461.7</ele>
        <time>2024-06-27T16:27:54.659Z</time>
      </trkpt>
      <trkpt lat="45.56362" lon="5.23563">
        <ele>461.5</ele>
        <time>2024-06-27T16:27:55.046Z</time>
      </trkpt>
      <trkpt lat="45.56366" lon="5.23547">
        <ele>461.2</ele>
        <time>2024-06-27T16:27:55.435Z</time>
      </trkpt>
      <trkpt lat="45.56371" lon="5.23522">
        <ele>461.6</ele>
        <time>2024-06-27T16:27:55.828Z</time>
      </trkpt>
      <trkpt lat="45.56373" lon="5.23515">
        <ele>461.9</ele>
        <time>2024-06-27T16:27:56.222Z</time>
      </trkpt>
      <trkpt lat="45.56377" lon="5.23492">
        <ele>463</ele>
        <time>2024-06-27T16:27:56.619Z</time>
      </trkpt>
      <trkpt lat="45.56379" lon="5.23486">
        <ele>463.2</ele>
        <time>2024-06-27T16:27:57.017Z</time>
      </trkpt>
      <trkpt lat="45.56381" lon="5.23479">
        <ele>463.4</ele>
        <time>2024-06-27T16:27:57.416Z</time>
      </trkpt>
      <trkpt lat="45.56387" lon="5.2345">
        <ele>464.2</ele>
        <time>2024-06-27T16:27:57.819Z</time>
      </trkpt>
      <trkpt lat="45.56393" lon="5.23426">
        <ele>463.8</ele>
        <time>2024-06-27T16:27:58.226Z</time>
      </trkpt>
      <trkpt lat="45.56396" lon="5.23413">
        <ele>463.5</ele>
        <time>2024-06-27T16:27:58.634Z</time>
      </trkpt>
      <trkpt lat="45.56404" lon="5.23393">
        <ele>462.9</ele>
        <time>2024-06-27T16:27:59.046Z</time>
      </trkpt>
      <trkpt lat="45.56414" lon="5.23372">
        <ele>462.3</ele>
        <time>2024-06-27T16:27:59.461Z</time>
      </trkpt>
      <trkpt lat="45.56426" lon="5.23352">
        <ele>461.2</ele>
        <time>2024-06-27T16:27:59.880Z</time>
      </trkpt>
      <trkpt lat="45.5644" lon="5.23325">
        <ele>461.5</ele>
        <time>2024-06-27T16:28:00.303Z</time>
      </trkpt>
      <trkpt lat="45.56451" lon="5.23286">
        <ele>460.6</ele>
        <time>2024-06-27T16:28:00.732Z</time>
      </trkpt>
      <trkpt lat="45.56459" lon="5.2324">
        <ele>459.9</ele>
        <time>2024-06-27T16:28:01.167Z</time>
      </trkpt>
      <trkpt lat="45.56461" lon="5.23233">
        <ele>460.1</ele>
        <time>2024-06-27T16:28:01.603Z</time>
      </trkpt>
      <trkpt lat="45.56463" lon="5.23227">
        <ele>460.4</ele>
        <time>2024-06-27T16:28:02.040Z</time>
      </trkpt>
      <trkpt lat="45.56469" lon="5.2319">
        <ele>461.5</ele>
        <time>2024-06-27T16:28:02.482Z</time>
      </trkpt>
      <trkpt lat="45.56471" lon="5.23175">
        <ele>462.1</ele>
        <time>2024-06-27T16:28:02.926Z</time>
      </trkpt>
      <trkpt lat="45.56471" lon="5.2316">
        <ele>462.6</ele>
        <time>2024-06-27T16:28:03.372Z</time>
      </trkpt>
      <trkpt lat="45.56472" lon="5.23145">
        <ele>462.3</ele>
        <time>2024-06-27T16:28:03.821Z</time>
      </trkpt>
      <trkpt lat="45.56471" lon="5.23116">
        <ele>461.8</ele>
        <time>2024-06-27T16:28:04.273Z</time>
      </trkpt>
      <trkpt lat="45.5647" lon="5.2308">
        <ele>461.7</ele>
        <time>2024-06-27T16:28:04.730Z</time>
      </trkpt>
      <trkpt lat="45.5647" lon="5.23072">
        <ele>461.7</ele>
        <time>2024-06-27T16:28:05.188Z</time>
      </trkpt>
      <trkpt lat="45.5647" lon="5.23059">
        <ele>462.2</ele>
        <time>2024-06-27T16:28:05.648Z</time>
      </trkpt>
      <trkpt lat="45.56469" lon="5.23038">
        <ele>462.6</ele>
        <time>2024-06-27T16:28:06.111Z</time>
      </trkpt>
      <trkpt lat="45.56469" lon="5.23022">
        <ele>462.6</ele>
        <time>2024-06-27T16:28:06.576Z</time>
      </trkpt>
      <trkpt lat="45.56464" lon="5.2299">
        <ele>462.6</ele>
        <time>2024-06-27T16:28:07.046Z</time>
      </trkpt>
      <trkpt lat="45.56463" lon="5.22981">
        <ele>462.6</ele>
        <time>2024-06-27T16:28:07.517Z</time>
      </trkpt>
      <trkpt lat="45.56461" lon="5.22973">
        <ele>462.8</ele>
        <time>2024-06-27T16:28:07.989Z</time>
      </trkpt>
      <trkpt lat="45.56454" lon="5.22947">
        <ele>463.2</ele>
        <time>2024-06-27T16:28:08.465Z</time>
      </trkpt>
      <trkpt lat="45.56446" lon="5.22922">
        <ele>463.5</ele>
        <time>2024-06-27T16:28:08.945Z</time>
      </trkpt>
      <trkpt lat="45.56435" lon="5.22889">
        <ele>463.5</ele>
        <time>2024-06-27T16:28:09.430Z</time>
      </trkpt>
      <trkpt lat="45.56432" lon="5.22882">
        <ele>463.4</ele>
        <time>2024-06-27T16:28:09.916Z</time>
      </trkpt>
      <trkpt lat="45.56425" lon="5.22859">
        <ele>462</ele>
        <time>2024-06-27T16:28:10.405Z</time>
      </trkpt>
      <trkpt lat="45.56422" lon="5.22851">
        <ele>461.7</ele>
        <time>2024-06-27T16:28:10.895Z</time>
      </trkpt>
      <trkpt lat="45.5641" lon="5.22823">
        <ele>461.4</ele>
        <time>2024-06-27T16:28:11.390Z</time>
      </trkpt>
      <trkpt lat="45.56381" lon="5.22768">
        <ele>462.7</ele>
        <time>2024-06-27T16:28:11.894Z</time>
      </trkpt>
      <trkpt lat="45.56374" lon="5.22744">
        <ele>462.9</ele>
        <time>2024-06-27T16:28:12.402Z</time>
      </trkpt>
      <trkpt lat="45.56371" lon="5.22725">
        <ele>463.1</ele>
        <time>2024-06-27T16:28:12.912Z</time>
      </trkpt>
      <trkpt lat="45.56369" lon="5.22705">
        <ele>463.8</ele>
        <time>2024-06-27T16:28:13.425Z</time>
      </trkpt>
      <trkpt lat="45.56368" lon="5.22694">
        <ele>464.4</ele>
        <time>2024-06-27T16:28:13.940Z</time>
      </trkpt>
      <trkpt lat="45.56366" lon="5.22672">
        <ele>464.4</ele>
        <time>2024-06-27T16:28:14.458Z</time>
      </trkpt>
      <trkpt lat="45.56363" lon="5.22661">
        <ele>464</ele>
        <time>2024-06-27T16:28:14.977Z</time>
      </trkpt>
      <trkpt lat="45.56356" lon="5.22642">
        <ele>462.4</ele>
        <time>2024-06-27T16:28:15.499Z</time>
      </trkpt>
      <trkpt lat="45.56343" lon="5.22618">
        <ele>460.6</ele>
        <time>2024-06-27T16:28:16.025Z</time>
      </trkpt>
      <trkpt lat="45.56338" lon="5.22612">
        <ele>460.1</ele>
        <time>2024-06-27T16:28:16.552Z</time>
      </trkpt>
      <trkpt lat="45.56334" lon="5.22605">
        <ele>460</ele>
        <time>2024-06-27T16:28:17.081Z</time>
      </trkpt>
      <trkpt lat="45.56326" lon="5.22594">
        <ele>461.4</ele>
        <time>2024-06-27T16:28:17.612Z</time>
      </trkpt>
      <trkpt lat="45.56322" lon="5.22589">
        <ele>462.1</ele>
        <time>2024-06-27T16:28:18.144Z</time>
      </trkpt>
      <trkpt lat="45.56319" lon="5.22584">
        <ele>462.8</ele>
        <time>2024-06-27T16:28:18.677Z</time>
      </trkpt>
      <trkpt lat="45.56313" lon="5.22575">
        <ele>464.1</ele>
        <time>2024-06-27T16:28:19.211Z</time>
      </trkpt>
      <trkpt lat="45.56308" lon="5.22568">
        <ele>464.6</ele>
        <time>2024-06-27T16:28:19.747Z</time>
      </trkpt>
      <trkpt lat="45.56305" lon="5.22564">
        <ele>464.8</ele>
        <time>2024-06-27T16:28:20.284Z</time>
      </trkpt>
      <trkpt lat="45.563" lon="5.22557">
        <ele>465.1</ele>
        <time>2024-06-27T16:28:20.822Z</time>
      </trkpt>
      <trkpt lat="45.56297" lon="5.22553">
        <ele>465.3</ele>
        <time>2024-06-27T16:28:21.361Z</time>
      </trkpt>
      <trkpt lat="45.56293" lon="5.22546">
        <ele>465.6</ele>
        <time>2024-06-27T16:28:21.901Z</time>
      </trkpt>
      <trkpt lat="45.56288" lon="5.2254">
        <ele>465.9</ele>
        <time>2024-06-27T16:28:22.442Z</time>
      </trkpt>
      <trkpt lat="45.56284" lon="5.22533">
        <ele>466.2</ele>
        <time>2024-06-27T16:28:22.985Z</time>
      </trkpt>
      <trkpt lat="45.56282" lon="5.2253">
        <ele>466.4</ele>
        <time>2024-06-27T16:28:23.528Z</time>
      </trkpt>
      <trkpt lat="45.56279" lon="5.22527">
        <ele>466.5</ele>
        <time>2024-06-27T16:28:24.072Z</time>
      </trkpt>
      <trkpt lat="45.56273" lon="5.22518">
        <ele>467.2</ele>
        <time>2024-06-27T16:28:24.618Z</time>
      </trkpt>
      <trkpt lat="45.56271" lon="5.22514">
        <ele>467.7</ele>
        <time>2024-06-27T16:28:25.164Z</time>
      </trkpt>
      <trkpt lat="45.56266" lon="5.22504">
        <ele>468.7</ele>
        <time>2024-06-27T16:28:25.712Z</time>
      </trkpt>
      <trkpt lat="45.56264" lon="5.22501">
        <ele>469.1</ele>
        <time>2024-06-27T16:28:26.260Z</time>
      </trkpt>
      <trkpt lat="45.56261" lon="5.22495">
        <ele>469.7</ele>
        <time>2024-06-27T16:28:26.809Z</time>
      </trkpt>
      <trkpt lat="45.56257" lon="5.2248">
        <ele>470.9</ele>
        <time>2024-06-27T16:28:27.361Z</time>
      </trkpt>
      <trkpt lat="45.56255" lon="5.22476">
        <ele>471.2</ele>
        <time>2024-06-27T16:28:27.913Z</time>
      </trkpt>
      <trkpt lat="45.56252" lon="5.22458">
        <ele>472</ele>
        <time>2024-06-27T16:28:28.468Z</time>
      </trkpt>
      <trkpt lat="45.56252" lon="5.22453">
        <ele>472</ele>
        <time>2024-06-27T16:28:29.023Z</time>
      </trkpt>
      <trkpt lat="45.56244" lon="5.22425">
        <ele>472</ele>
        <time>2024-06-27T16:28:29.582Z</time>
      </trkpt>
      <trkpt lat="45.56235" lon="5.22401">
        <ele>472.5</ele>
        <time>2024-06-27T16:28:30.145Z</time>
      </trkpt>
      <trkpt lat="45.56232" lon="5.22392">
        <ele>472.5</ele>
        <time>2024-06-27T16:28:30.710Z</time>
      </trkpt>
      <trkpt lat="45.5622" lon="5.22359">
        <ele>473.5</ele>
        <time>2024-06-27T16:28:31.280Z</time>
      </trkpt>
      <trkpt lat="45.56219" lon="5.22355">
        <ele>473.7</ele>
        <time>2024-06-27T16:28:31.850Z</time>
      </trkpt>
      <trkpt lat="45.56213" lon="5.22341">
        <ele>474.4</ele>
        <time>2024-06-27T16:28:32.422Z</time>
      </trkpt>
      <trkpt lat="45.56204" lon="5.22316">
        <ele>475.7</ele>
        <time>2024-06-27T16:28:32.998Z</time>
      </trkpt>
      <trkpt lat="45.56194" lon="5.22291">
        <ele>477</ele>
        <time>2024-06-27T16:28:33.578Z</time>
      </trkpt>
      <trkpt lat="45.56186" lon="5.22268">
        <ele>476.9</ele>
        <time>2024-06-27T16:28:34.162Z</time>
      </trkpt>
      <trkpt lat="45.56181" lon="5.22257">
        <ele>476.5</ele>
        <time>2024-06-27T16:28:34.747Z</time>
      </trkpt>
      <trkpt lat="45.56175" lon="5.22245">
        <ele>476.2</ele>
        <time>2024-06-27T16:28:35.334Z</time>
      </trkpt>
      <trkpt lat="45.56162" lon="5.22217">
        <ele>474.9</ele>
        <time>2024-06-27T16:28:35.926Z</time>
      </trkpt>
      <trkpt lat="45.56156" lon="5.22203">
        <ele>474.6</ele>
        <time>2024-06-27T16:28:36.520Z</time>
      </trkpt>
      <trkpt lat="45.5614" lon="5.22177">
        <ele>474</ele>
        <time>2024-06-27T16:28:37.119Z</time>
      </trkpt>
      <trkpt lat="45.56128" lon="5.22159">
        <ele>474.5</ele>
        <time>2024-06-27T16:28:37.721Z</time>
      </trkpt>
      <trkpt lat="45.56115" lon="5.22144">
        <ele>474.9</ele>
        <time>2024-06-27T16:28:38.326Z</time>
      </trkpt>
      <trkpt lat="45.56111" lon="5.22139">
        <ele>474.9</ele>
        <time>2024-06-27T16:28:38.932Z</time>
      </trkpt>
      <trkpt lat="45.56103" lon="5.2213">
        <ele>474.7</ele>
        <time>2024-06-27T16:28:39.540Z</time>
      </trkpt>
      <trkpt lat="45.56092" lon="5.22116">
        <ele>474.8</ele>
        <time>2024-06-27T16:28:40.151Z</time>
      </trkpt>
      <trkpt lat="45.56085" lon="5.22107">
        <ele>474.9</ele>
        <time>2024-06-27T16:28:40.764Z</time>
      </trkpt>
      <trkpt lat="45.56081" lon="5.22103">
        <ele>474.7</ele>
        <time>2024-06-27T16:28:41.378Z</time>
      </trkpt>
      <trkpt lat="45.56062" lon="5.22078">
        <ele>474.2</ele>
        <time>2024-06-27T16:28:41.997Z</time>
      </trkpt>
      <trkpt lat="45.56054" lon="5.22068">
        <ele>474.4</ele>
        <time>2024-06-27T16:28:42.618Z</time>
      </trkpt>
      <trkpt lat="45.56036" lon="5.22041">
        <ele>475.5</ele>
        <time>2024-06-27T16:28:43.244Z</time>
      </trkpt>
      <trkpt lat="45.5603" lon="5.2203">
        <ele>475.7</ele>
        <time>2024-06-27T16:28:43.872Z</time>
      </trkpt>
      <trkpt lat="45.56019" lon="5.22005">
        <ele>475.4</ele>
        <time>2024-06-27T16:28:44.504Z</time>
      </trkpt>
      <trkpt lat="45.56007" lon="5.21974">
        <ele>475.2</ele>
        <time>2024-06-27T16:28:45.141Z</time>
      </trkpt>
      <trkpt lat="45.55993" lon="5.21922">
        <ele>475.6</ele>
        <time>2024-06-27T16:28:45.786Z</time>
      </trkpt>
      <trkpt lat="45.55985" lon="5.2189">
        <ele>476.5</ele>
        <time>2024-06-27T16:28:46.435Z</time>
      </trkpt>
      <trkpt lat="45.55979" lon="5.21873">
        <ele>476.7</ele>
        <time>2024-06-27T16:28:47.087Z</time>
      </trkpt>
      <trkpt lat="45.55974" lon="5.21861">
        <ele>476.7</ele>
        <time>2024-06-27T16:28:47.741Z</time>
      </trkpt>
      <trkpt lat="45.55956" lon="5.2182">
        <ele>476.5</ele>
        <time>2024-06-27T16:28:48.401Z</time>
      </trkpt>
      <trkpt lat="45.55953" lon="5.21814">
        <ele>476.6</ele>
        <time>2024-06-27T16:28:49.062Z</time>
      </trkpt>
      <trkpt lat="45.55938" lon="5.2179">
        <ele>477</ele>
        <time>2024-06-27T16:28:49.728Z</time>
      </trkpt>
      <trkpt lat="45.55932" lon="5.21781">
        <ele>477.2</ele>
        <time>2024-06-27T16:28:50.395Z</time>
      </trkpt>
      <trkpt lat="45.5592" lon="5.21769">
        <ele>477.2</ele>
        <time>2024-06-27T16:28:51.065Z</time>
      </trkpt>
      <trkpt lat="45.55906" lon="5.21758">
        <ele>477</ele>
        <time>2024-06-27T16:28:51.738Z</time>
      </trkpt>
      <trkpt lat="45.55895" lon="5.2175">
        <ele>476.8</ele>
        <time>2024-06-27T16:28:52.414Z</time>
      </trkpt>
      <trkpt lat="45.55884" lon="5.21742">
        <ele>476.1</ele>
        <time>2024-06-27T16:28:53.092Z</time>
      </trkpt>
      <trkpt lat="45.55867" lon="5.21729">
        <ele>474.6</ele>
        <time>2024-06-27T16:28:53.774Z</time>
      </trkpt>
      <trkpt lat="45.55855" lon="5.2172">
        <ele>473.5</ele>
        <time>2024-06-27T16:28:54.458Z</time>
      </trkpt>
      <trkpt lat="45.55843" lon="5.21711">
        <ele>472.2</ele>
        <time>2024-06-27T16:28:55.145Z</time>
      </trkpt>
      <trkpt lat="45.55832" lon="5.21701">
        <ele>471.1</ele>
        <time>2024-06-27T16:28:55.835Z</time>
      </trkpt>
      <trkpt lat="45.55823" lon="5.21691">
        <ele>471.4</ele>
        <time>2024-06-27T16:28:56.527Z</time>
      </trkpt>
      <trkpt lat="45.55792" lon="5.21656">
        <ele>473.7</ele>
        <time>2024-06-27T16:28:57.226Z</time>
      </trkpt>
      <trkpt lat="45.55788" lon="5.21652">
        <ele>474.2</ele>
        <time>2024-06-27T16:28:57.926Z</time>
      </trkpt>
      <trkpt lat="45.5578" lon="5.21642">
        <ele>475.2</ele>
        <time>2024-06-27T16:28:58.628Z</time>
      </trkpt>
      <trkpt lat="45.55772" lon="5.21633">
        <ele>475.6</ele>
        <time>2024-06-27T16:28:59.332Z</time>
      </trkpt>
      <trkpt lat="45.55746" lon="5.21603">
        <ele>474.4</ele>
        <time>2024-06-27T16:29:00.043Z</time>
      </trkpt>
      <trkpt lat="45.55742" lon="5.21598">
        <ele>474.3</ele>
        <time>2024-06-27T16:29:00.755Z</time>
      </trkpt>
      <trkpt lat="45.55724" lon="5.21578">
        <ele>473.8</ele>
        <time>2024-06-27T16:29:01.471Z</time>
      </trkpt>
      <trkpt lat="45.55708" lon="5.21564">
        <ele>473.9</ele>
        <time>2024-06-27T16:29:02.191Z</time>
      </trkpt>
      <trkpt lat="45.55689" lon="5.21551">
        <ele>473.5</ele>
        <time>2024-06-27T16:29:02.915Z</time>
      </trkpt>
      <trkpt lat="45.55682" lon="5.21546">
        <ele>473</ele>
        <time>2024-06-27T16:29:03.641Z</time>
      </trkpt>
      <trkpt lat="45.55668" lon="5.21536">
        <ele>471.4</ele>
        <time>2024-06-27T16:29:04.370Z</time>
      </trkpt>
      <trkpt lat="45.55642" lon="5.2151">
        <ele>469.9</ele>
        <time>2024-06-27T16:29:05.105Z</time>
      </trkpt>
      <trkpt lat="45.55632" lon="5.21495">
        <ele>469.9</ele>
        <time>2024-06-27T16:29:05.843Z</time>
      </trkpt>
      <trkpt lat="45.55622" lon="5.2148">
        <ele>469.9</ele>
        <time>2024-06-27T16:29:06.583Z</time>
      </trkpt>
      <trkpt lat="45.55612" lon="5.21466">
        <ele>469.8</ele>
        <time>2024-06-27T16:29:07.326Z</time>
      </trkpt>
      <trkpt lat="45.55602" lon="5.21454">
        <ele>469.2</ele>
        <time>2024-06-27T16:29:08.072Z</time>
      </trkpt>
      <trkpt lat="45.55597" lon="5.21449">
        <ele>468.9</ele>
        <time>2024-06-27T16:29:08.819Z</time>
      </trkpt>
      <trkpt lat="45.55591" lon="5.21444">
        <ele>468.4</ele>
        <time>2024-06-27T16:29:09.567Z</time>
      </trkpt>
      <trkpt lat="45.5558" lon="5.21434">
        <ele>467.6</ele>
        <time>2024-06-27T16:29:10.318Z</time>
      </trkpt>
      <trkpt lat="45.55568" lon="5.21425">
        <ele>466.8</ele>
        <time>2024-06-27T16:29:11.071Z</time>
      </trkpt>
      <trkpt lat="45.55561" lon="5.2142">
        <ele>466.3</ele>
        <time>2024-06-27T16:29:11.826Z</time>
      </trkpt>
      <trkpt lat="45.55533" lon="5.21406">
        <ele>464.8</ele>
        <time>2024-06-27T16:29:12.587Z</time>
      </trkpt>
      <trkpt lat="45.55525" lon="5.21404">
        <ele>464.2</ele>
        <time>2024-06-27T16:29:13.349Z</time>
      </trkpt>
      <trkpt lat="45.55509" lon="5.21404">
        <ele>463</ele>
        <time>2024-06-27T16:29:14.114Z</time>
      </trkpt>
      <trkpt lat="45.55501" lon="5.21406">
        <ele>462.2</ele>
        <time>2024-06-27T16:29:14.881Z</time>
      </trkpt>
      <trkpt lat="45.55485" lon="5.21412">
        <ele>461.1</ele>
        <time>2024-06-27T16:29:15.651Z</time>
      </trkpt>
      <trkpt lat="45.5547" lon="5.2142">
        <ele>460.1</ele>
        <time>2024-06-27T16:29:16.424Z</time>
      </trkpt>
      <trkpt lat="45.55464" lon="5.21424">
        <ele>459.6</ele>
        <time>2024-06-27T16:29:17.198Z</time>
      </trkpt>
      <trkpt lat="45.5545" lon="5.21424">
        <ele>459.9</ele>
        <time>2024-06-27T16:29:17.975Z</time>
      </trkpt>
      <trkpt lat="45.5543" lon="5.21418">
        <ele>460</ele>
        <time>2024-06-27T16:29:18.756Z</time>
      </trkpt>
      <trkpt lat="45.55424" lon="5.21415">
        <ele>460</ele>
        <time>2024-06-27T16:29:19.538Z</time>
      </trkpt>
      <trkpt lat="45.55413" lon="5.21408">
        <ele>460.2</ele>
        <time>2024-06-27T16:29:20.323Z</time>
      </trkpt>
      <trkpt lat="45.55403" lon="5.21401">
        <ele>460.5</ele>
        <time>2024-06-27T16:29:21.110Z</time>
      </trkpt>
      <trkpt lat="45.55389" lon="5.21387">
        <ele>461</ele>
        <time>2024-06-27T16:29:21.900Z</time>
      </trkpt>
      <trkpt lat="45.55384" lon="5.21382">
        <ele>461</ele>
        <time>2024-06-27T16:29:22.691Z</time>
      </trkpt>
      <trkpt lat="45.5538" lon="5.21377">
        <ele>461</ele>
        <time>2024-06-27T16:29:23.483Z</time>
      </trkpt>
      <trkpt lat="45.55364" lon="5.21357">
        <ele>461</ele>
        <time>2024-06-27T16:29:24.279Z</time>
      </trkpt>
      <trkpt lat="45.5536" lon="5.21352">
        <ele>460.9</ele>
        <time>2024-06-27T16:29:25.076Z</time>
      </trkpt>
      <trkpt lat="45.55356" lon="5.21347">
        <ele>461</ele>
        <time>2024-06-27T16:29:25.875Z</time>
      </trkpt>
      <trkpt lat="45.55352" lon="5.21341">
        <ele>461</ele>
        <time>2024-06-27T16:29:26.675Z</time>
      </trkpt>
      <trkpt lat="45.55343" lon="5.21332">
        <ele>461</ele>
        <time>2024-06-27T16:29:27.477Z</time>
      </trkpt>
      <trkpt lat="45.55334" lon="5.21324">
        <ele>461.1</ele>
        <time>2024-06-27T16:29:28.281Z</time>
      </trkpt>
      <trkpt lat="45.55329" lon="5.21322">
        <ele>461.5</ele>
        <time>2024-06-27T16:29:29.086Z</time>
      </trkpt>
      <trkpt lat="45.55323" lon="5.2132">
        <ele>461.8</ele>
        <time>2024-06-27T16:29:29.892Z</time>
      </trkpt>
      <trkpt lat="45.55302" lon="5.21319">
        <ele>462.3</ele>
        <time>2024-06-27T16:29:30.702Z</time>
      </trkpt>
      <trkpt lat="45.55291" lon="5.2132">
        <ele>461.8</ele>
        <time>2024-06-27T16:29:31.514Z</time>
      </trkpt>
      <trkpt lat="45.55285" lon="5.21319">
        <ele>461.7</ele>
        <time>2024-06-27T16:29:32.327Z</time>
      </trkpt>
      <trkpt lat="45.55268" lon="5.21315">
        <ele>460.6</ele>
        <time>2024-06-27T16:29:33.144Z</time>
      </trkpt>
      <trkpt lat="45.55262" lon="5.21314">
        <ele>460.2</ele>
        <time>2024-06-27T16:29:33.962Z</time>
      </trkpt>
      <trkpt lat="45.55244" lon="5.21305">
        <ele>458.9</ele>
        <time>2024-06-27T16:29:34.784Z</time>
      </trkpt>
      <trkpt lat="45.5523" lon="5.21297">
        <ele>457.7</ele>
        <time>2024-06-27T16:29:35.608Z</time>
      </trkpt>
      <trkpt lat="45.55218" lon="5.21289">
        <ele>456.4</ele>
        <time>2024-06-27T16:29:36.435Z</time>
      </trkpt>
      <trkpt lat="45.55202" lon="5.21275">
        <ele>454.7</ele>
        <time>2024-06-27T16:29:37.266Z</time>
      </trkpt>
      <trkpt lat="45.55192" lon="5.21266">
        <ele>454</ele>
        <time>2024-06-27T16:29:38.099Z</time>
      </trkpt>
      <trkpt lat="45.55186" lon="5.21256">
        <ele>454.1</ele>
        <time>2024-06-27T16:29:38.934Z</time>
      </trkpt>
      <trkpt lat="45.55183" lon="5.21242">
        <ele>454.5</ele>
        <time>2024-06-27T16:29:39.771Z</time>
      </trkpt>
      <trkpt lat="45.55182" lon="5.21227">
        <ele>455</ele>
        <time>2024-06-27T16:29:40.610Z</time>
      </trkpt>
      <trkpt lat="45.55178" lon="5.21213">
        <ele>455</ele>
        <time>2024-06-27T16:29:41.451Z</time>
      </trkpt>
      <trkpt lat="45.55171" lon="5.21191">
        <ele>455.8</ele>
        <time>2024-06-27T16:29:42.295Z</time>
      </trkpt>
      <trkpt lat="45.55162" lon="5.21164">
        <ele>455.8</ele>
        <time>2024-06-27T16:29:43.143Z</time>
      </trkpt>
      <trkpt lat="45.55151" lon="5.21135">
        <ele>454.5</ele>
        <time>2024-06-27T16:29:43.996Z</time>
      </trkpt>
      <trkpt lat="45.55135" lon="5.21089">
        <ele>453.8</ele>
        <time>2024-06-27T16:29:44.856Z</time>
      </trkpt>
      <trkpt lat="45.55128" lon="5.21064">
        <ele>453.6</ele>
        <time>2024-06-27T16:29:45.719Z</time>
      </trkpt>
      <trkpt lat="45.55119" lon="5.21023">
        <ele>454.6</ele>
        <time>2024-06-27T16:29:46.588Z</time>
      </trkpt>
      <trkpt lat="45.55116" lon="5.21007">
        <ele>455.3</ele>
        <time>2024-06-27T16:29:47.459Z</time>
      </trkpt>
      <trkpt lat="45.55108" lon="5.20966">
        <ele>455.3</ele>
        <time>2024-06-27T16:29:48.336Z</time>
      </trkpt>
      <trkpt lat="45.55104" lon="5.20942">
        <ele>454.8</ele>
        <time>2024-06-27T16:29:49.217Z</time>
      </trkpt>
      <trkpt lat="45.55098" lon="5.2091">
        <ele>453.9</ele>
        <time>2024-06-27T16:29:50.102Z</time>
      </trkpt>
      <trkpt lat="45.55094" lon="5.20884">
        <ele>453.3</ele>
        <time>2024-06-27T16:29:50.991Z</time>
      </trkpt>
      <trkpt lat="45.55091" lon="5.20867">
        <ele>452.4</ele>
        <time>2024-06-27T16:29:51.882Z</time>
      </trkpt>
      <trkpt lat="45.55086" lon="5.20823">
        <ele>452.1</ele>
        <time>2024-06-27T16:29:52.779Z</time>
      </trkpt>
      <trkpt lat="45.55085" lon="5.20805">
        <ele>452</ele>
        <time>2024-06-27T16:29:53.679Z</time>
      </trkpt>
      <trkpt lat="45.55082" lon="5.20764">
        <ele>453.9</ele>
        <time>2024-06-27T16:29:54.584Z</time>
      </trkpt>
      <trkpt lat="45.5508" lon="5.2074">
        <ele>454.4</ele>
        <time>2024-06-27T16:29:55.493Z</time>
      </trkpt>
      <trkpt lat="45.55078" lon="5.20717">
        <ele>454</ele>
        <time>2024-06-27T16:29:56.405Z</time>
      </trkpt>
      <trkpt lat="45.55076" lon="5.20695">
        <ele>453.7</ele>
        <time>2024-06-27T16:29:57.320Z</time>
      </trkpt>
      <trkpt lat="45.55075" lon="5.20688">
        <ele>453.6</ele>
        <time>2024-06-27T16:29:58.236Z</time>
      </trkpt>
      <trkpt lat="45.55073" lon="5.2068">
        <ele>453.5</ele>
        <time>2024-06-27T16:29:59.153Z</time>
      </trkpt>
      <trkpt lat="45.55067" lon="5.20668">
        <ele>453.1</ele>
        <time>2024-06-27T16:30:00.072Z</time>
      </trkpt>
      <trkpt lat="45.55063" lon="5.20662">
        <ele>452.7</ele>
        <time>2024-06-27T16:30:00.992Z</time>
      </trkpt>
      <trkpt lat="45.55039" lon="5.20635">
        <ele>452.8</ele>
        <time>2024-06-27T16:30:01.918Z</time>
      </trkpt>
      <trkpt lat="45.55028" lon="5.20624">
        <ele>453.1</ele>
        <time>2024-06-27T16:30:02.846Z</time>
      </trkpt>
      <trkpt lat="45.55023" lon="5.20618">
        <ele>452.8</ele>
        <time>2024-06-27T16:30:03.776Z</time>
      </trkpt>
      <trkpt lat="45.5501" lon="5.20602">
        <ele>452</ele>
        <time>2024-06-27T16:30:04.709Z</time>
      </trkpt>
      <trkpt lat="45.54991" lon="5.2058">
        <ele>451.1</ele>
        <time>2024-06-27T16:30:05.647Z</time>
      </trkpt>
      <trkpt lat="45.54982" lon="5.20569">
        <ele>450.8</ele>
        <time>2024-06-27T16:30:06.587Z</time>
      </trkpt>
      <trkpt lat="45.54963" lon="5.20547">
        <ele>450.6</ele>
        <time>2024-06-27T16:30:07.532Z</time>
      </trkpt>
      <trkpt lat="45.54959" lon="5.20541">
        <ele>450.5</ele>
        <time>2024-06-27T16:30:08.478Z</time>
      </trkpt>
      <trkpt lat="45.54928" lon="5.20496">
        <ele>449.6</ele>
        <time>2024-06-27T16:30:09.432Z</time>
      </trkpt>
      <trkpt lat="45.54924" lon="5.2049">
        <ele>449.6</ele>
        <time>2024-06-27T16:30:10.388Z</time>
      </trkpt>
      <trkpt lat="45.54912" lon="5.20473">
        <ele>450.1</ele>
        <time>2024-06-27T16:30:11.347Z</time>
      </trkpt>
      <trkpt lat="45.54908" lon="5.20467">
        <ele>450.4</ele>
        <time>2024-06-27T16:30:12.307Z</time>
      </trkpt>
      <trkpt lat="45.54895" lon="5.20449">
        <ele>451.3</ele>
        <time>2024-06-27T16:30:13.271Z</time>
      </trkpt>
      <trkpt lat="45.5488" lon="5.20426">
        <ele>452.4</ele>
        <time>2024-06-27T16:30:14.239Z</time>
      </trkpt>
      <trkpt lat="45.5487" lon="5.20409">
        <ele>453.2</ele>
        <time>2024-06-27T16:30:15.210Z</time>
      </trkpt>
      <trkpt lat="45.54866" lon="5.20397">
        <ele>453.1</ele>
        <time>2024-06-27T16:30:16.183Z</time>
      </trkpt>
      <trkpt lat="45.54865" lon="5.2039">
        <ele>453.1</ele>
        <time>2024-06-27T16:30:17.157Z</time>
      </trkpt>
      <trkpt lat="45.54864" lon="5.20384">
        <ele>453.1</ele>
        <time>2024-06-27T16:30:18.132Z</time>
      </trkpt>
      <trkpt lat="45.54864" lon="5.20377">
        <ele>453.1</ele>
        <time>2024-06-27T16:30:19.107Z</time>
      </trkpt>
      <trkpt lat="45.54866" lon="5.20365">
        <ele>453.1</ele>
        <time>2024-06-27T16:30:20.084Z</time>
      </trkpt>
      <trkpt lat="45.54868" lon="5.20353">
        <ele>453.2</ele>
        <time>2024-06-27T16:30:21.063Z</time>
      </trkpt>
      <trkpt lat="45.54869" lon="5.2034">
        <ele>452.8</ele>
        <time>2024-06-27T16:30:22.044Z</time>
      </trkpt>
      <trkpt lat="45.54867" lon="5.20317">
        <ele>452.2</ele>
        <time>2024-06-27T16:30:23.028Z</time>
      </trkpt>
      <trkpt lat="45.54861" lon="5.20284">
        <ele>451.5</ele>
        <time>2024-06-27T16:30:24.016Z</time>
      </trkpt>
      <trkpt lat="45.54854" lon="5.2024">
        <ele>450.7</ele>
        <time>2024-06-27T16:30:25.011Z</time>
      </trkpt>
      <trkpt lat="45.5485" lon="5.20214">
        <ele>450.6</ele>
        <time>2024-06-27T16:30:26.009Z</time>
      </trkpt>
      <trkpt lat="45.54844" lon="5.20191">
        <ele>450.3</ele>
        <time>2024-06-27T16:30:27.010Z</time>
      </trkpt>
      <trkpt lat="45.54842" lon="5.20184">
        <ele>450.3</ele>
        <time>2024-06-27T16:30:28.013Z</time>
      </trkpt>
      <trkpt lat="45.54825" lon="5.20132">
        <ele>451.6</ele>
        <time>2024-06-27T16:30:29.023Z</time>
      </trkpt>
      <trkpt lat="45.54818" lon="5.20105">
        <ele>452.6</ele>
        <time>2024-06-27T16:30:30.037Z</time>
      </trkpt>
      <trkpt lat="45.54815" lon="5.20085">
        <ele>453.2</ele>
        <time>2024-06-27T16:30:31.054Z</time>
      </trkpt>
      <trkpt lat="45.54811" lon="5.2006">
        <ele>454</ele>
        <time>2024-06-27T16:30:32.075Z</time>
      </trkpt>
      <trkpt lat="45.54807" lon="5.20033">
        <ele>454</ele>
        <time>2024-06-27T16:30:33.099Z</time>
      </trkpt>
      <trkpt lat="45.54806" lon="5.20019">
        <ele>454</ele>
        <time>2024-06-27T16:30:34.125Z</time>
      </trkpt>
      <trkpt lat="45.54804" lon="5.1998">
        <ele>454.9</ele>
        <time>2024-06-27T16:30:35.157Z</time>
      </trkpt>
      <trkpt lat="45.54803" lon="5.19962">
        <ele>454.9</ele>
        <time>2024-06-27T16:30:36.191Z</time>
      </trkpt>
      <trkpt lat="45.54803" lon="5.19944">
        <ele>455.4</ele>
        <time>2024-06-27T16:30:37.227Z</time>
      </trkpt>
      <trkpt lat="45.54802" lon="5.1993">
        <ele>455.9</ele>
        <time>2024-06-27T16:30:38.265Z</time>
      </trkpt>
      <trkpt lat="45.54801" lon="5.19915">
        <ele>456.3</ele>
        <time>2024-06-27T16:30:39.305Z</time>
      </trkpt>
      <trkpt lat="45.548" lon="5.19908">
        <ele>456.5</ele>
        <time>2024-06-27T16:30:40.346Z</time>
      </trkpt>
      <trkpt lat="45.54792" lon="5.19876">
        <ele>457.7</ele>
        <time>2024-06-27T16:30:41.392Z</time>
      </trkpt>
      <trkpt lat="45.5479" lon="5.19869">
        <ele>458</ele>
        <time>2024-06-27T16:30:42.439Z</time>
      </trkpt>
      <trkpt lat="45.54787" lon="5.19861">
        <ele>458.3</ele>
        <time>2024-06-27T16:30:43.487Z</time>
      </trkpt>
      <trkpt lat="45.54774" lon="5.19833">
        <ele>457.3</ele>
        <time>2024-06-27T16:30:44.540Z</time>
      </trkpt>
      <trkpt lat="45.54772" lon="5.19827">
        <ele>457</ele>
        <time>2024-06-27T16:30:45.594Z</time>
      </trkpt>
      <trkpt lat="45.54763" lon="5.198">
        <ele>456.3</ele>
        <time>2024-06-27T16:30:46.652Z</time>
      </trkpt>
      <trkpt lat="45.5476" lon="5.19786">
        <ele>456.3</ele>
        <time>2024-06-27T16:30:47.712Z</time>
      </trkpt>
      <trkpt lat="45.54759" lon="5.19779">
        <ele>456.5</ele>
        <time>2024-06-27T16:30:48.773Z</time>
      </trkpt>
      <trkpt lat="45.54756" lon="5.19765">
        <ele>457</ele>
        <time>2024-06-27T16:30:49.836Z</time>
      </trkpt>
      <trkpt lat="45.54749" lon="5.19733">
        <ele>458.3</ele>
        <time>2024-06-27T16:30:50.903Z</time>
      </trkpt>
      <trkpt lat="45.54748" lon="5.19726">
        <ele>458.6</ele>
        <time>2024-06-27T16:30:51.971Z</time>
      </trkpt>
      <trkpt lat="45.54746" lon="5.19721">
        <ele>458.7</ele>
        <time>2024-06-27T16:30:53.040Z</time>
      </trkpt>
      <trkpt lat="45.5474" lon="5.19696">
        <ele>459</ele>
        <time>2024-06-27T16:30:54.113Z</time>
      </trkpt>
      <trkpt lat="45.54739" lon="5.1969">
        <ele>459.1</ele>
        <time>2024-06-27T16:30:55.186Z</time>
      </trkpt>
      <trkpt lat="45.54736" lon="5.19678">
        <ele>458.8</ele>
        <time>2024-06-27T16:30:56.261Z</time>
      </trkpt>
      <trkpt lat="45.54732" lon="5.1966">
        <ele>458.2</ele>
        <time>2024-06-27T16:30:57.339Z</time>
      </trkpt>
      <trkpt lat="45.5473" lon="5.19648">
        <ele>458.3</ele>
        <time>2024-06-27T16:30:58.418Z</time>
      </trkpt>
      <trkpt lat="45.54728" lon="5.19635">
        <ele>458.5</ele>
        <time>2024-06-27T16:30:59.499Z</time>
      </trkpt>
      <trkpt lat="45.54725" lon="5.19591">
        <ele>460.3</ele>
        <time>2024-06-27T16:31:00.586Z</time>
      </trkpt>
      <trkpt lat="45.54728" lon="5.19567">
        <ele>461.2</ele>
        <time>2024-06-27T16:31:01.677Z</time>
      </trkpt>
      <trkpt lat="45.54731" lon="5.19555">
        <ele>462.3</ele>
        <time>2024-06-27T16:31:02.769Z</time>
      </trkpt>
      <trkpt lat="45.54732" lon="5.19549">
        <ele>462.5</ele>
        <time>2024-06-27T16:31:03.862Z</time>
      </trkpt>
      <trkpt lat="45.54737" lon="5.19531">
        <ele>462.9</ele>
        <time>2024-06-27T16:31:04.958Z</time>
      </trkpt>
      <trkpt lat="45.5474" lon="5.19519">
        <ele>463.6</ele>
        <time>2024-06-27T16:31:06.056Z</time>
      </trkpt>
      <trkpt lat="45.54743" lon="5.19506">
        <ele>464.3</ele>
        <time>2024-06-27T16:31:07.155Z</time>
      </trkpt>
      <trkpt lat="45.54743" lon="5.195">
        <ele>464.1</ele>
        <time>2024-06-27T16:31:08.255Z</time>
      </trkpt>
      <trkpt lat="45.54748" lon="5.19459">
        <ele>462.5</ele>
        <time>2024-06-27T16:31:09.361Z</time>
      </trkpt>
      <trkpt lat="45.5475" lon="5.19425">
        <ele>460.6</ele>
        <time>2024-06-27T16:31:10.472Z</time>
      </trkpt>
      <trkpt lat="45.54752" lon="5.19411">
        <ele>460.2</ele>
        <time>2024-06-27T16:31:11.584Z</time>
      </trkpt>
      <trkpt lat="45.54758" lon="5.19348">
        <ele>460.2</ele>
        <time>2024-06-27T16:31:12.705Z</time>
      </trkpt>
      <trkpt lat="45.5476" lon="5.19333">
        <ele>460.3</ele>
        <time>2024-06-27T16:31:13.828Z</time>
      </trkpt>
      <trkpt lat="45.54761" lon="5.19326">
        <ele>460.7</ele>
        <time>2024-06-27T16:31:14.952Z</time>
      </trkpt>
      <trkpt lat="45.54768" lon="5.1928">
        <ele>463</ele>
        <time>2024-06-27T16:31:16.083Z</time>
      </trkpt>
      <trkpt lat="45.54769" lon="5.19272">
        <ele>463.7</ele>
        <time>2024-06-27T16:31:17.215Z</time>
      </trkpt>
      <trkpt lat="45.5477" lon="5.19263">
        <ele>464.2</ele>
        <time>2024-06-27T16:31:18.348Z</time>
      </trkpt>
      <trkpt lat="45.54774" lon="5.19231">
        <ele>465.8</ele>
        <time>2024-06-27T16:31:19.485Z</time>
      </trkpt>
      <trkpt lat="45.54777" lon="5.19207">
        <ele>466.9</ele>
        <time>2024-06-27T16:31:20.626Z</time>
      </trkpt>
      <trkpt lat="45.54783" lon="5.19155">
        <ele>468.7</ele>
        <time>2024-06-27T16:31:21.774Z</time>
      </trkpt>
      <trkpt lat="45.54784" lon="5.19105">
        <ele>467.4</ele>
        <time>2024-06-27T16:31:22.929Z</time>
      </trkpt>
      <trkpt lat="45.54784" lon="5.19089">
        <ele>467.4</ele>
        <time>2024-06-27T16:31:24.086Z</time>
      </trkpt>
      <trkpt lat="45.54785" lon="5.19066">
        <ele>467.4</ele>
        <time>2024-06-27T16:31:25.246Z</time>
      </trkpt>
      <trkpt lat="45.54786" lon="5.19042">
        <ele>466.7</ele>
        <time>2024-06-27T16:31:26.409Z</time>
      </trkpt>
      <trkpt lat="45.54788" lon="5.19034">
        <ele>467.2</ele>
        <time>2024-06-27T16:31:27.573Z</time>
      </trkpt>
      <trkpt lat="45.54795" lon="5.19005">
        <ele>467.6</ele>
        <time>2024-06-27T16:31:28.741Z</time>
      </trkpt>
      <trkpt lat="45.54797" lon="5.18992">
        <ele>467.3</ele>
        <time>2024-06-27T16:31:29.911Z</time>
      </trkpt>
      <trkpt lat="45.54799" lon="5.18985">
        <ele>467.7</ele>
        <time>2024-06-27T16:31:31.082Z</time>
      </trkpt>
      <trkpt lat="45.54802" lon="5.18972">
        <ele>468.3</ele>
        <time>2024-06-27T16:31:32.255Z</time>
      </trkpt>
      <trkpt lat="45.54804" lon="5.18959">
        <ele>468.8</ele>
        <time>2024-06-27T16:31:33.430Z</time>
      </trkpt>
      <trkpt lat="45.54808" lon="5.18948">
        <ele>469.2</ele>
        <time>2024-06-27T16:31:34.607Z</time>
      </trkpt>
      <trkpt lat="45.54811" lon="5.18935">
        <ele>469.5</ele>
        <time>2024-06-27T16:31:35.786Z</time>
      </trkpt>
      <trkpt lat="45.54816" lon="5.18917">
        <ele>469</ele>
        <time>2024-06-27T16:31:36.967Z</time>
      </trkpt>
      <trkpt lat="45.54817" lon="5.18911">
        <ele>468.7</ele>
        <time>2024-06-27T16:31:38.149Z</time>
      </trkpt>
      <trkpt lat="45.54822" lon="5.1889">
        <ele>468.3</ele>
        <time>2024-06-27T16:31:39.334Z</time>
      </trkpt>
      <trkpt lat="45.54822" lon="5.18883">
        <ele>467.8</ele>
        <time>2024-06-27T16:31:40.520Z</time>
      </trkpt>
      <trkpt lat="45.54825" lon="5.18836">
        <ele>466.7</ele>
        <time>2024-06-27T16:31:41.712Z</time>
      </trkpt>
      <trkpt lat="45.54827" lon="5.18795">
        <ele>467</ele>
        <time>2024-06-27T16:31:42.910Z</time>
      </trkpt>
      <trkpt lat="45.5483" lon="5.18772">
        <ele>466.3</ele>
        <time>2024-06-27T16:31:44.111Z</time>
      </trkpt>
      <trkpt lat="45.54832" lon="5.18755">
        <ele>466</ele>
        <time>2024-06-27T16:31:45.314Z</time>
      </trkpt>
      <trkpt lat="45.54835" lon="5.18722">
        <ele>466</ele>
        <time>2024-06-27T16:31:46.522Z</time>
      </trkpt>
      <trkpt lat="45.54837" lon="5.18705">
        <ele>465.7</ele>
        <time>2024-06-27T16:31:47.732Z</time>
      </trkpt>
      <trkpt lat="45.54841" lon="5.18679">
        <ele>465.2</ele>
        <time>2024-06-27T16:31:48.946Z</time>
      </trkpt>
      <trkpt lat="45.54844" lon="5.18663">
        <ele>465.3</ele>
        <time>2024-06-27T16:31:50.162Z</time>
      </trkpt>
      <trkpt lat="45.54847" lon="5.18646">
        <ele>465.4</ele>
        <time>2024-06-27T16:31:51.381Z</time>
      </trkpt>
      <trkpt lat="45.54852" lon="5.1862">
        <ele>465.7</ele>
        <time>2024-06-27T16:31:52.603Z</time>
      </trkpt>
      <trkpt lat="45.54854" lon="5.18611">
        <ele>465.6</ele>
        <time>2024-06-27T16:31:53.827Z</time>
      </trkpt>
      <trkpt lat="45.54855" lon="5.18603">
        <ele>465.5</ele>
        <time>2024-06-27T16:31:55.052Z</time>
      </trkpt>
      <trkpt lat="45.5486" lon="5.18577">
        <ele>465.2</ele>
        <time>2024-06-27T16:31:56.280Z</time>
      </trkpt>
      <trkpt lat="45.54865" lon="5.18552">
        <ele>464.8</ele>
        <time>2024-06-27T16:31:57.512Z</time>
      </trkpt>
      <trkpt lat="45.54869" lon="5.18506">
        <ele>465</ele>
        <time>2024-06-27T16:31:58.750Z</time>
      </trkpt>
      <trkpt lat="45.54869" lon="5.18477">
        <ele>464.8</ele>
        <time>2024-06-27T16:31:59.992Z</time>
      </trkpt>
      <trkpt lat="45.54868" lon="5.18438">
        <ele>462.8</ele>
        <time>2024-06-27T16:32:01.240Z</time>
      </trkpt>
      <trkpt lat="45.54867" lon="5.18419">
        <ele>462.2</ele>
        <time>2024-06-27T16:32:02.490Z</time>
      </trkpt>
      <trkpt lat="45.54868" lon="5.18371">
        <ele>461.8</ele>
        <time>2024-06-27T16:32:03.747Z</time>
      </trkpt>
      <trkpt lat="45.54868" lon="5.18362">
        <ele>461.8</ele>
        <time>2024-06-27T16:32:05.005Z</time>
      </trkpt>
      <trkpt lat="45.54867" lon="5.18335">
        <ele>463.1</ele>
        <time>2024-06-27T16:32:06.267Z</time>
      </trkpt>
      <trkpt lat="45.54867" lon="5.18325">
        <ele>463.5</ele>
        <time>2024-06-27T16:32:07.530Z</time>
      </trkpt>
      <trkpt lat="45.54867" lon="5.18297">
        <ele>463.4</ele>
        <time>2024-06-27T16:32:08.797Z</time>
      </trkpt>
      <trkpt lat="45.54867" lon="5.18288">
        <ele>463.3</ele>
        <time>2024-06-27T16:32:10.065Z</time>
      </trkpt>
      <trkpt lat="45.54868" lon="5.18261">
        <ele>463.5</ele>
        <time>2024-06-27T16:32:11.337Z</time>
      </trkpt>
      <trkpt lat="45.54868" lon="5.18252">
        <ele>463.8</ele>
        <time>2024-06-27T16:32:12.610Z</time>
      </trkpt>
      <trkpt lat="45.54868" lon="5.18243">
        <ele>464.1</ele>
        <time>2024-06-27T16:32:13.884Z</time>
      </trkpt>
      <trkpt lat="45.54867" lon="5.18234">
        <ele>464.1</ele>
        <time>2024-06-27T16:32:15.159Z</time>
      </trkpt>
      <trkpt lat="45.54867" lon="5.18225">
        <ele>463.8</ele>
        <time>2024-06-27T16:32:16.436Z</time>
      </trkpt>
      <trkpt lat="45.54864" lon="5.18197">
        <ele>463.2</ele>
        <time>2024-06-27T16:32:17.716Z</time>
      </trkpt>
      <trkpt lat="45.54861" lon="5.1817">
        <ele>462.8</ele>
        <time>2024-06-27T16:32:19.000Z</time>
      </trkpt>
      <trkpt lat="45.5486" lon="5.18162">
        <ele>462.8</ele>
        <time>2024-06-27T16:32:20.285Z</time>
      </trkpt>
      <trkpt lat="45.54856" lon="5.18135">
        <ele>461.8</ele>
        <time>2024-06-27T16:32:21.574Z</time>
      </trkpt>
      <trkpt lat="45.54855" lon="5.18126">
        <ele>461.2</ele>
        <time>2024-06-27T16:32:22.864Z</time>
      </trkpt>
      <trkpt lat="45.54849" lon="5.181">
        <ele>460.2</ele>
        <time>2024-06-27T16:32:24.158Z</time>
      </trkpt>
      <trkpt lat="45.54844" lon="5.18074">
        <ele>458.6</ele>
        <time>2024-06-27T16:32:25.456Z</time>
      </trkpt>
      <trkpt lat="45.54838" lon="5.18046">
        <ele>457.6</ele>
        <time>2024-06-27T16:32:26.757Z</time>
      </trkpt>
      <trkpt lat="45.54836" lon="5.18029">
        <ele>457.2</ele>
        <time>2024-06-27T16:32:28.061Z</time>
      </trkpt>
      <trkpt lat="45.54833" lon="5.18011">
        <ele>456.7</ele>
        <time>2024-06-27T16:32:29.367Z</time>
      </trkpt>
      <trkpt lat="45.54829" lon="5.17994">
        <ele>456</ele>
        <time>2024-06-27T16:32:30.676Z</time>
      </trkpt>
      <trkpt lat="45.54828" lon="5.17985">
        <ele>455.5</ele>
        <time>2024-06-27T16:32:31.986Z</time>
      </trkpt>
      <trkpt lat="45.54826" lon="5.17976">
        <ele>455.6</ele>
        <time>2024-06-27T16:32:33.297Z</time>
      </trkpt>
      <trkpt lat="45.54818" lon="5.1794">
        <ele>456.2</ele>
        <time>2024-06-27T16:32:34.613Z</time>
      </trkpt>
      <trkpt lat="45.54814" lon="5.17922">
        <ele>456</ele>
        <time>2024-06-27T16:32:35.932Z</time>
      </trkpt>
      <trkpt lat="45.5481" lon="5.17903">
        <ele>456</ele>
        <time>2024-06-27T16:32:37.254Z</time>
      </trkpt>
      <trkpt lat="45.54808" lon="5.17893">
        <ele>456</ele>
        <time>2024-06-27T16:32:38.577Z</time>
      </trkpt>
      <trkpt lat="45.54795" lon="5.17848">
        <ele>456.3</ele>
        <time>2024-06-27T16:32:39.907Z</time>
      </trkpt>
      <trkpt lat="45.54792" lon="5.17839">
        <ele>456.1</ele>
        <time>2024-06-27T16:32:41.238Z</time>
      </trkpt>
      <trkpt lat="45.5479" lon="5.17831">
        <ele>455.8</ele>
        <time>2024-06-27T16:32:42.570Z</time>
      </trkpt>
      <trkpt lat="45.54787" lon="5.17822">
        <ele>455.6</ele>
        <time>2024-06-27T16:32:43.904Z</time>
      </trkpt>
      <trkpt lat="45.54778" lon="5.17789">
        <ele>455</ele>
        <time>2024-06-27T16:32:45.242Z</time>
      </trkpt>
      <trkpt lat="45.54775" lon="5.17781">
        <ele>455.1</ele>
        <time>2024-06-27T16:32:46.582Z</time>
      </trkpt>
      <trkpt lat="45.54766" lon="5.17755">
        <ele>455</ele>
        <time>2024-06-27T16:32:47.926Z</time>
      </trkpt>
      <trkpt lat="45.54753" lon="5.1772">
        <ele>454.2</ele>
        <time>2024-06-27T16:32:49.275Z</time>
      </trkpt>
      <trkpt lat="45.5475" lon="5.17711">
        <ele>453.9</ele>
        <time>2024-06-27T16:32:50.625Z</time>
      </trkpt>
      <trkpt lat="45.54743" lon="5.17694">
        <ele>453.2</ele>
        <time>2024-06-27T16:32:51.978Z</time>
      </trkpt>
      <trkpt lat="45.54736" lon="5.17678">
        <ele>452.8</ele>
        <time>2024-06-27T16:32:53.334Z</time>
      </trkpt>
      <trkpt lat="45.54733" lon="5.17669">
        <ele>452.7</ele>
        <time>2024-06-27T16:32:54.691Z</time>
      </trkpt>
      <trkpt lat="45.54726" lon="5.17654">
        <ele>452.8</ele>
        <time>2024-06-27T16:32:56.050Z</time>
      </trkpt>
      <trkpt lat="45.54723" lon="5.17646">
        <ele>452.6</ele>
        <time>2024-06-27T16:32:57.411Z</time>
      </trkpt>
      <trkpt lat="45.54713" lon="5.17622">
        <ele>452.3</ele>
        <time>2024-06-27T16:32:58.775Z</time>
      </trkpt>
      <trkpt lat="45.54707" lon="5.17606">
        <ele>451.7</ele>
        <time>2024-06-27T16:33:00.142Z</time>
      </trkpt>
      <trkpt lat="45.54705" lon="5.17597">
        <ele>451.5</ele>
        <time>2024-06-27T16:33:01.510Z</time>
      </trkpt>
      <trkpt lat="45.54697" lon="5.17572">
        <ele>451.1</ele>
        <time>2024-06-27T16:33:02.882Z</time>
      </trkpt>
      <trkpt lat="45.54687" lon="5.17531">
        <ele>451.7</ele>
        <time>2024-06-27T16:33:04.260Z</time>
      </trkpt>
      <trkpt lat="45.54685" lon="5.17523">
        <ele>451.6</ele>
        <time>2024-06-27T16:33:05.639Z</time>
      </trkpt>
      <trkpt lat="45.5468" lon="5.17506">
        <ele>451.4</ele>
        <time>2024-06-27T16:33:07.020Z</time>
      </trkpt>
      <trkpt lat="45.54676" lon="5.17491">
        <ele>451.6</ele>
        <time>2024-06-27T16:33:08.404Z</time>
      </trkpt>
      <trkpt lat="45.54669" lon="5.17468">
        <ele>451.1</ele>
        <time>2024-06-27T16:33:09.791Z</time>
      </trkpt>
      <trkpt lat="45.54667" lon="5.17461">
        <ele>450.9</ele>
        <time>2024-06-27T16:33:11.179Z</time>
      </trkpt>
      <trkpt lat="45.54664" lon="5.17446">
        <ele>450.7</ele>
        <time>2024-06-27T16:33:12.569Z</time>
      </trkpt>
      <trkpt lat="45.54661" lon="5.1743">
        <ele>450.7</ele>
        <time>2024-06-27T16:33:13.961Z</time>
      </trkpt>
      <trkpt lat="45.54658" lon="5.17413">
        <ele>450.6</ele>
        <time>2024-06-27T16:33:15.356Z</time>
      </trkpt>
      <trkpt lat="45.54656" lon="5.17405">
        <ele>450.7</ele>
        <time>2024-06-27T16:33:16.752Z</time>
      </trkpt>
      <trkpt lat="45.54652" lon="5.17389">
        <ele>451</ele>
        <time>2024-06-27T16:33:18.150Z</time>
      </trkpt>
      <trkpt lat="45.5465" lon="5.17381">
        <ele>451</ele>
        <time>2024-06-27T16:33:19.550Z</time>
      </trkpt>
      <trkpt lat="45.54648" lon="5.17372">
        <ele>451.3</ele>
        <time>2024-06-27T16:33:20.951Z</time>
      </trkpt>
      <trkpt lat="45.5464" lon="5.17349">
        <ele>452</ele>
        <time>2024-06-27T16:33:22.355Z</time>
      </trkpt>
      <trkpt lat="45.54637" lon="5.17342">
        <ele>451.9</ele>
        <time>2024-06-27T16:33:23.760Z</time>
      </trkpt>
      <trkpt lat="45.54633" lon="5.17328">
        <ele>451.7</ele>
        <time>2024-06-27T16:33:25.167Z</time>
      </trkpt>
      <trkpt lat="45.54631" lon="5.17321">
        <ele>451.7</ele>
        <time>2024-06-27T16:33:26.575Z</time>
      </trkpt>
      <trkpt lat="45.54627" lon="5.17307">
        <ele>451.5</ele>
        <time>2024-06-27T16:33:27.986Z</time>
      </trkpt>
      <trkpt lat="45.5462" lon="5.17276">
        <ele>450.5</ele>
        <time>2024-06-27T16:33:29.401Z</time>
      </trkpt>
      <trkpt lat="45.54614" lon="5.17242">
        <ele>448.2</ele>
        <time>2024-06-27T16:33:30.821Z</time>
      </trkpt>
      <trkpt lat="45.54607" lon="5.17207">
        <ele>447.6</ele>
        <time>2024-06-27T16:33:32.246Z</time>
      </trkpt>
      <trkpt lat="45.54592" lon="5.17129">
        <ele>445.5</ele>
        <time>2024-06-27T16:33:33.682Z</time>
      </trkpt>
      <trkpt lat="45.5459" lon="5.17119">
        <ele>445.4</ele>
        <time>2024-06-27T16:33:35.119Z</time>
      </trkpt>
      <trkpt lat="45.54587" lon="5.171">
        <ele>445.1</ele>
        <time>2024-06-27T16:33:36.559Z</time>
      </trkpt>
      <trkpt lat="45.54584" lon="5.17081">
        <ele>444.2</ele>
        <time>2024-06-27T16:33:38.001Z</time>
      </trkpt>
      <trkpt lat="45.5458" lon="5.17053">
        <ele>443.7</ele>
        <time>2024-06-27T16:33:39.447Z</time>
      </trkpt>
      <trkpt lat="45.54578" lon="5.17044">
        <ele>443.5</ele>
        <time>2024-06-27T16:33:40.895Z</time>
      </trkpt>
      <trkpt lat="45.54572" lon="5.17017">
        <ele>443.2</ele>
        <time>2024-06-27T16:33:42.346Z</time>
      </trkpt>
      <trkpt lat="45.54563" lon="5.16972">
        <ele>444.1</ele>
        <time>2024-06-27T16:33:43.804Z</time>
      </trkpt>
      <trkpt lat="45.5456" lon="5.16955">
        <ele>443.8</ele>
        <time>2024-06-27T16:33:45.264Z</time>
      </trkpt>
      <trkpt lat="45.54554" lon="5.1692">
        <ele>442.8</ele>
        <time>2024-06-27T16:33:46.729Z</time>
      </trkpt>
      <trkpt lat="45.54551" lon="5.16893">
        <ele>442.6</ele>
        <time>2024-06-27T16:33:48.198Z</time>
      </trkpt>
      <trkpt lat="45.5455" lon="5.16865">
        <ele>442.3</ele>
        <time>2024-06-27T16:33:49.671Z</time>
      </trkpt>
      <trkpt lat="45.54551" lon="5.16838">
        <ele>442.1</ele>
        <time>2024-06-27T16:33:51.147Z</time>
      </trkpt>
      <trkpt lat="45.54557" lon="5.16784">
        <ele>441</ele>
        <time>2024-06-27T16:33:52.631Z</time>
      </trkpt>
      <trkpt lat="45.54559" lon="5.16766">
        <ele>441.3</ele>
        <time>2024-06-27T16:33:54.117Z</time>
      </trkpt>
      <trkpt lat="45.5456" lon="5.16758">
        <ele>441.7</ele>
        <time>2024-06-27T16:33:55.604Z</time>
      </trkpt>
      <trkpt lat="45.54564" lon="5.16714">
        <ele>442.3</ele>
        <time>2024-06-27T16:33:57.097Z</time>
      </trkpt>
      <trkpt lat="45.54566" lon="5.16679">
        <ele>442.3</ele>
        <time>2024-06-27T16:33:58.595Z</time>
      </trkpt>
      <trkpt lat="45.54571" lon="5.16635">
        <ele>442.3</ele>
        <time>2024-06-27T16:34:00.099Z</time>
      </trkpt>
      <trkpt lat="45.54575" lon="5.16591">
        <ele>442.6</ele>
        <time>2024-06-27T16:34:01.609Z</time>
      </trkpt>
      <trkpt lat="45.54579" lon="5.16557">
        <ele>442</ele>
        <time>2024-06-27T16:34:03.124Z</time>
      </trkpt>
      <trkpt lat="45.54582" lon="5.16532">
        <ele>441.5</ele>
        <time>2024-06-27T16:34:04.642Z</time>
      </trkpt>
      <trkpt lat="45.54587" lon="5.16499">
        <ele>440.5</ele>
        <time>2024-06-27T16:34:06.165Z</time>
      </trkpt>
      <trkpt lat="45.54592" lon="5.16468">
        <ele>440.4</ele>
        <time>2024-06-27T16:34:07.692Z</time>
      </trkpt>
      <trkpt lat="45.54594" lon="5.16457">
        <ele>440.3</ele>
        <time>2024-06-27T16:34:09.221Z</time>
      </trkpt>
      <trkpt lat="45.54596" lon="5.16449">
        <ele>440.4</ele>
        <time>2024-06-27T16:34:10.751Z</time>
      </trkpt>
      <trkpt lat="45.54597" lon="5.16435">
        <ele>440</ele>
        <time>2024-06-27T16:34:12.283Z</time>
      </trkpt>
      <trkpt lat="45.54598" lon="5.1643">
        <ele>439.8</ele>
        <time>2024-06-27T16:34:13.816Z</time>
      </trkpt>
      <trkpt lat="45.54601" lon="5.16417">
        <ele>439.3</ele>
        <time>2024-06-27T16:34:15.350Z</time>
      </trkpt>
      <trkpt lat="45.54603" lon="5.16411">
        <ele>439.1</ele>
        <time>2024-06-27T16:34:16.885Z</time>
      </trkpt>
      <trkpt lat="45.54609" lon="5.16399">
        <ele>439.3</ele>
        <time>2024-06-27T16:34:18.422Z</time>
      </trkpt>
      <trkpt lat="45.54612" lon="5.16393">
        <ele>439.5</ele>
        <time>2024-06-27T16:34:19.960Z</time>
      </trkpt>
      <trkpt lat="45.54621" lon="5.16374">
        <ele>440</ele>
        <time>2024-06-27T16:34:21.501Z</time>
      </trkpt>
      <trkpt lat="45.54623" lon="5.16367">
        <ele>440</ele>
        <time>2024-06-27T16:34:23.043Z</time>
      </trkpt>
      <trkpt lat="45.54626" lon="5.16361">
        <ele>440</ele>
        <time>2024-06-27T16:34:24.587Z</time>
      </trkpt>
      <trkpt lat="45.54632" lon="5.16347">
        <ele>439.8</ele>
        <time>2024-06-27T16:34:26.133Z</time>
      </trkpt>
      <trkpt lat="45.5464" lon="5.16327">
        <ele>439.1</ele>
        <time>2024-06-27T16:34:27.682Z</time>
      </trkpt>
      <trkpt lat="45.54647" lon="5.16305">
        <ele>439.2</ele>
        <time>2024-06-27T16:34:29.234Z</time>
      </trkpt>
      <trkpt lat="45.54656" lon="5.16276">
        <ele>438.9</ele>
        <time>2024-06-27T16:34:30.790Z</time>
      </trkpt>
      <trkpt lat="45.54661" lon="5.16261">
        <ele>439.5</ele>
        <time>2024-06-27T16:34:32.349Z</time>
      </trkpt>
      <trkpt lat="45.54685" lon="5.16213">
        <ele>439.4</ele>
        <time>2024-06-27T16:34:33.916Z</time>
      </trkpt>
      <trkpt lat="45.54703" lon="5.16179">
        <ele>438</ele>
        <time>2024-06-27T16:34:35.488Z</time>
      </trkpt>
      <trkpt lat="45.54718" lon="5.16152">
        <ele>438</ele>
        <time>2024-06-27T16:34:37.065Z</time>
      </trkpt>
      <trkpt lat="45.54744" lon="5.16094">
        <ele>438.7</ele>
        <time>2024-06-27T16:34:38.652Z</time>
      </trkpt>
      <trkpt lat="45.5477" lon="5.16026">
        <ele>438.3</ele>
        <time>2024-06-27T16:34:40.249Z</time>
      </trkpt>
      <trkpt lat="45.54794" lon="5.15974">
        <ele>437.5</ele>
        <time>2024-06-27T16:34:41.855Z</time>
      </trkpt>
      <trkpt lat="45.54798" lon="5.15967">
        <ele>437.3</ele>
        <time>2024-06-27T16:34:43.462Z</time>
      </trkpt>
      <trkpt lat="45.54829" lon="5.15925">
        <ele>438.4</ele>
        <time>2024-06-27T16:34:45.077Z</time>
      </trkpt>
      <trkpt lat="45.54848" lon="5.15903">
        <ele>439</ele>
        <time>2024-06-27T16:34:46.697Z</time>
      </trkpt>
      <trkpt lat="45.54856" lon="5.15888">
        <ele>438.5</ele>
        <time>2024-06-27T16:34:48.319Z</time>
      </trkpt>
      <trkpt lat="45.54858" lon="5.1588">
        <ele>438.2</ele>
        <time>2024-06-27T16:34:49.943Z</time>
      </trkpt>
      <trkpt lat="45.5486" lon="5.15871">
        <ele>438</ele>
        <time>2024-06-27T16:34:51.568Z</time>
      </trkpt>
      <trkpt lat="45.54861" lon="5.15862">
        <ele>438</ele>
        <time>2024-06-27T16:34:53.194Z</time>
      </trkpt>
      <trkpt lat="45.54862" lon="5.15853">
        <ele>438</ele>
        <time>2024-06-27T16:34:54.821Z</time>
      </trkpt>
      <trkpt lat="45.54865" lon="5.15789">
        <ele>438.7</ele>
        <time>2024-06-27T16:34:56.457Z</time>
      </trkpt>
      <trkpt lat="45.54866" lon="5.15761">
        <ele>437.9</ele>
        <time>2024-06-27T16:34:58.097Z</time>
      </trkpt>
      <trkpt lat="45.54868" lon="5.15723">
        <ele>436.6</ele>
        <time>2024-06-27T16:34:59.742Z</time>
      </trkpt>
      <trkpt lat="45.54868" lon="5.15713">
        <ele>436.2</ele>
        <time>2024-06-27T16:35:01.388Z</time>
      </trkpt>
      <trkpt lat="45.54869" lon="5.15694">
        <ele>435.6</ele>
        <time>2024-06-27T16:35:03.037Z</time>
      </trkpt>
      <trkpt lat="45.54871" lon="5.15657">
        <ele>434.3</ele>
        <time>2024-06-27T16:35:04.691Z</time>
      </trkpt>
      <trkpt lat="45.5488" lon="5.15591">
        <ele>434.3</ele>
        <time>2024-06-27T16:35:06.354Z</time>
      </trkpt>
      <trkpt lat="45.54882" lon="5.15581">
        <ele>434.4</ele>
        <time>2024-06-27T16:35:08.019Z</time>
      </trkpt>
      <trkpt lat="45.54889" lon="5.15554">
        <ele>435.6</ele>
        <time>2024-06-27T16:35:09.688Z</time>
      </trkpt>
      <trkpt lat="45.54891" lon="5.15544">
        <ele>436</ele>
        <time>2024-06-27T16:35:11.358Z</time>
      </trkpt>
      <trkpt lat="45.54898" lon="5.15516">
        <ele>435.6</ele>
        <time>2024-06-27T16:35:13.032Z</time>
      </trkpt>
      <trkpt lat="45.54899" lon="5.15506">
        <ele>435.2</ele>
        <time>2024-06-27T16:35:14.707Z</time>
      </trkpt>
      <trkpt lat="45.54907" lon="5.15436">
        <ele>433.4</ele>
        <time>2024-06-27T16:35:16.392Z</time>
      </trkpt>
      <trkpt lat="45.54908" lon="5.15406">
        <ele>432.4</ele>
        <time>2024-06-27T16:35:18.081Z</time>
      </trkpt>
      <trkpt lat="45.54909" lon="5.15366">
        <ele>432.7</ele>
        <time>2024-06-27T16:35:19.776Z</time>
      </trkpt>
      <trkpt lat="45.5491" lon="5.15347">
        <ele>432.6</ele>
        <time>2024-06-27T16:35:21.473Z</time>
      </trkpt>
      <trkpt lat="45.5491" lon="5.15337">
        <ele>432.6</ele>
        <time>2024-06-27T16:35:23.172Z</time>
      </trkpt>
      <trkpt lat="45.54915" lon="5.15297">
        <ele>432.2</ele>
        <time>2024-06-27T16:35:24.876Z</time>
      </trkpt>
      <trkpt lat="45.54919" lon="5.15277">
        <ele>431.9</ele>
        <time>2024-06-27T16:35:26.583Z</time>
      </trkpt>
      <trkpt lat="45.54921" lon="5.15267">
        <ele>431.6</ele>
        <time>2024-06-27T16:35:28.291Z</time>
      </trkpt>
      <trkpt lat="45.54931" lon="5.15227">
        <ele>428.6</ele>
        <time>2024-06-27T16:35:30.005Z</time>
      </trkpt>
      <trkpt lat="45.54942" lon="5.15187">
        <ele>427.1</ele>
        <time>2024-06-27T16:35:31.725Z</time>
      </trkpt>
      <trkpt lat="45.54945" lon="5.15177">
        <ele>426.7</ele>
        <time>2024-06-27T16:35:33.446Z</time>
      </trkpt>
      <trkpt lat="45.54955" lon="5.15144">
        <ele>425.3</ele>
        <time>2024-06-27T16:35:35.172Z</time>
      </trkpt>
      <trkpt lat="45.54961" lon="5.15121">
        <ele>424.6</ele>
        <time>2024-06-27T16:35:36.902Z</time>
      </trkpt>
      <trkpt lat="45.54968" lon="5.15098">
        <ele>424.3</ele>
        <time>2024-06-27T16:35:38.635Z</time>
      </trkpt>
      <trkpt lat="45.54979" lon="5.15064">
        <ele>425</ele>
        <time>2024-06-27T16:35:40.373Z</time>
      </trkpt>
      <trkpt lat="45.54989" lon="5.15033">
        <ele>424.9</ele>
        <time>2024-06-27T16:35:42.116Z</time>
      </trkpt>
      <trkpt lat="45.54992" lon="5.15023">
        <ele>425.2</ele>
        <time>2024-06-27T16:35:43.860Z</time>
      </trkpt>
      <trkpt lat="45.55007" lon="5.14981">
        <ele>424.6</ele>
        <time>2024-06-27T16:35:45.611Z</time>
      </trkpt>
      <trkpt lat="45.5502" lon="5.14951">
        <ele>423.4</ele>
        <time>2024-06-27T16:35:47.366Z</time>
      </trkpt>
      <trkpt lat="45.55029" lon="5.14926">
        <ele>423.7</ele>
        <time>2024-06-27T16:35:49.125Z</time>
      </trkpt>
      <trkpt lat="45.55032" lon="5.14917">
        <ele>423.4</ele>
        <time>2024-06-27T16:35:50.886Z</time>
      </trkpt>
      <trkpt lat="45.5505" lon="5.1485">
        <ele>423.7</ele>
        <time>2024-06-27T16:35:52.656Z</time>
      </trkpt>
      <trkpt lat="45.55054" lon="5.14833">
        <ele>423.9</ele>
        <time>2024-06-27T16:35:54.429Z</time>
      </trkpt>
      <trkpt lat="45.55058" lon="5.14808">
        <ele>424.1</ele>
        <time>2024-06-27T16:35:56.205Z</time>
      </trkpt>
      <trkpt lat="45.55059" lon="5.14799">
        <ele>424.1</ele>
        <time>2024-06-27T16:35:57.983Z</time>
      </trkpt>
      <trkpt lat="45.55064" lon="5.14761">
        <ele>423.3</ele>
        <time>2024-06-27T16:35:59.766Z</time>
      </trkpt>
      <trkpt lat="45.55068" lon="5.14724">
        <ele>422.8</ele>
        <time>2024-06-27T16:36:01.554Z</time>
      </trkpt>
      <trkpt lat="45.55067" lon="5.14667">
        <ele>422</ele>
        <time>2024-06-27T16:36:03.350Z</time>
      </trkpt>
      <trkpt lat="45.55058" lon="5.1461">
        <ele>421</ele>
        <time>2024-06-27T16:36:05.154Z</time>
      </trkpt>
      <trkpt lat="45.55056" lon="5.146">
        <ele>421</ele>
        <time>2024-06-27T16:36:06.959Z</time>
      </trkpt>
      <trkpt lat="45.55052" lon="5.14582">
        <ele>420.5</ele>
        <time>2024-06-27T16:36:08.767Z</time>
      </trkpt>
      <trkpt lat="45.55042" lon="5.14528">
        <ele>418.4</ele>
        <time>2024-06-27T16:36:10.582Z</time>
      </trkpt>
      <trkpt lat="45.55031" lon="5.14474">
        <ele>418.9</ele>
        <time>2024-06-27T16:36:12.405Z</time>
      </trkpt>
      <trkpt lat="45.55026" lon="5.14449">
        <ele>419.4</ele>
        <time>2024-06-27T16:36:14.231Z</time>
      </trkpt>
      <trkpt lat="45.55025" lon="5.1444">
        <ele>419.7</ele>
        <time>2024-06-27T16:36:16.059Z</time>
      </trkpt>
      <trkpt lat="45.55013" lon="5.14372">
        <ele>417.7</ele>
        <time>2024-06-27T16:36:17.896Z</time>
      </trkpt>
      <trkpt lat="45.55012" lon="5.14363">
        <ele>417.4</ele>
        <time>2024-06-27T16:36:19.734Z</time>
      </trkpt>
      <trkpt lat="45.55011" lon="5.14354">
        <ele>416.9</ele>
        <time>2024-06-27T16:36:21.574Z</time>
      </trkpt>
      <trkpt lat="45.5501" lon="5.14327">
        <ele>415.6</ele>
        <time>2024-06-27T16:36:23.417Z</time>
      </trkpt>
      <trkpt lat="45.55008" lon="5.1431">
        <ele>415.5</ele>
        <time>2024-06-27T16:36:25.263Z</time>
      </trkpt>
      <trkpt lat="45.55006" lon="5.14294">
        <ele>416.1</ele>
        <time>2024-06-27T16:36:27.111Z</time>
      </trkpt>
      <trkpt lat="45.55004" lon="5.14286">
        <ele>416.3</ele>
        <time>2024-06-27T16:36:28.960Z</time>
      </trkpt>
      <trkpt lat="45.54996" lon="5.14263">
        <ele>416.7</ele>
        <time>2024-06-27T16:36:30.813Z</time>
      </trkpt>
      <trkpt lat="45.54986" lon="5.14241">
        <ele>415.5</ele>
        <time>2024-06-27T16:36:32.669Z</time>
      </trkpt>
      <trkpt lat="45.54965" lon="5.14197">
        <ele>413.7</ele>
        <time>2024-06-27T16:36:34.532Z</time>
      </trkpt>
      <trkpt lat="45.54962" lon="5.1419">
        <ele>413.6</ele>
        <time>2024-06-27T16:36:36.397Z</time>
      </trkpt>
      <trkpt lat="45.54951" lon="5.14167">
        <ele>413.8</ele>
        <time>2024-06-27T16:36:38.265Z</time>
      </trkpt>
      <trkpt lat="45.54944" lon="5.14151">
        <ele>414.1</ele>
        <time>2024-06-27T16:36:40.136Z</time>
      </trkpt>
      <trkpt lat="45.54937" lon="5.14135">
        <ele>414.1</ele>
        <time>2024-06-27T16:36:42.009Z</time>
      </trkpt>
      <trkpt lat="45.54926" lon="5.14111">
        <ele>413.6</ele>
        <time>2024-06-27T16:36:43.886Z</time>
      </trkpt>
      <trkpt lat="45.54897" lon="5.14049">
        <ele>413.1</ele>
        <time>2024-06-27T16:36:45.773Z</time>
      </trkpt>
      <trkpt lat="45.54893" lon="5.14043">
        <ele>413.2</ele>
        <time>2024-06-27T16:36:47.662Z</time>
      </trkpt>
      <trkpt lat="45.54879" lon="5.14024">
        <ele>413.8</ele>
        <time>2024-06-27T16:36:49.554Z</time>
      </trkpt>
      <trkpt lat="45.54874" lon="5.14019">
        <ele>414</ele>
        <time>2024-06-27T16:36:51.448Z</time>
      </trkpt>
      <trkpt lat="45.5486" lon="5.14002">
        <ele>413.9</ele>
        <time>2024-06-27T16:36:53.345Z</time>
      </trkpt>
      <trkpt lat="45.54856" lon="5.13996">
        <ele>413.8</ele>
        <time>2024-06-27T16:36:55.243Z</time>
      </trkpt>
      <trkpt lat="45.54847" lon="5.13985">
        <ele>413.3</ele>
        <time>2024-06-27T16:36:57.143Z</time>
      </trkpt>
      <trkpt lat="45.54836" lon="5.13971">
        <ele>412.4</ele>
        <time>2024-06-27T16:36:59.046Z</time>
      </trkpt>
      <trkpt lat="45.54828" lon="5.13957">
        <ele>411.8</ele>
        <time>2024-06-27T16:37:00.952Z</time>
      </trkpt>
      <trkpt lat="45.54821" lon="5.13938">
        <ele>411.5</ele>
        <time>2024-06-27T16:37:02.861Z</time>
      </trkpt>
      <trkpt lat="45.54817" lon="5.13927">
        <ele>411.1</ele>
        <time>2024-06-27T16:37:04.771Z</time>
      </trkpt>
      <trkpt lat="45.54802" lon="5.1388">
        <ele>408.9</ele>
        <time>2024-06-27T16:37:06.688Z</time>
      </trkpt>
      <trkpt lat="45.54788" lon="5.13844">
        <ele>407.9</ele>
        <time>2024-06-27T16:37:08.611Z</time>
      </trkpt>
      <trkpt lat="45.54784" lon="5.1384">
        <ele>407.8</ele>
        <time>2024-06-27T16:37:10.535Z</time>
      </trkpt>
      <trkpt lat="45.5478" lon="5.13836">
        <ele>407.6</ele>
        <time>2024-06-27T16:37:12.460Z</time>
      </trkpt>
      <trkpt lat="45.54764" lon="5.13828">
        <ele>407.8</ele>
        <time>2024-06-27T16:37:14.388Z</time>
      </trkpt>
      <trkpt lat="45.54759" lon="5.13826">
        <ele>407.9</ele>
        <time>2024-06-27T16:37:16.317Z</time>
      </trkpt>
      <trkpt lat="45.54747" lon="5.13822">
        <ele>408.1</ele>
        <time>2024-06-27T16:37:18.249Z</time>
      </trkpt>
      <trkpt lat="45.54742" lon="5.13821">
        <ele>408.2</ele>
        <time>2024-06-27T16:37:20.182Z</time>
      </trkpt>
      <trkpt lat="45.54718" lon="5.13815">
        <ele>408.2</ele>
        <time>2024-06-27T16:37:22.119Z</time>
      </trkpt>
      <trkpt lat="45.54706" lon="5.13812">
        <ele>407.3</ele>
        <time>2024-06-27T16:37:24.059Z</time>
      </trkpt>
      <trkpt lat="45.54694" lon="5.13809">
        <ele>406.4</ele>
        <time>2024-06-27T16:37:26.001Z</time>
      </trkpt>
      <trkpt lat="45.54689" lon="5.13809">
        <ele>406.2</ele>
        <time>2024-06-27T16:37:27.944Z</time>
      </trkpt>
      <trkpt lat="45.54683" lon="5.13808">
        <ele>406</ele>
        <time>2024-06-27T16:37:29.888Z</time>
      </trkpt>
      <trkpt lat="45.54676" lon="5.13808">
        <ele>405.9</ele>
        <time>2024-06-27T16:37:31.833Z</time>
      </trkpt>
      <trkpt lat="45.54652" lon="5.13805">
        <ele>406.3</ele>
        <time>2024-06-27T16:37:33.783Z</time>
      </trkpt>
      <trkpt lat="45.54633" lon="5.138">
        <ele>406.2</ele>
        <time>2024-06-27T16:37:35.737Z</time>
      </trkpt>
      <trkpt lat="45.54627" lon="5.13798">
        <ele>406.1</ele>
        <time>2024-06-27T16:37:37.692Z</time>
      </trkpt>
      <trkpt lat="45.54574" lon="5.13775">
        <ele>405.6</ele>
        <time>2024-06-27T16:37:39.658Z</time>
      </trkpt>
      <trkpt lat="45.54568" lon="5.13773">
        <ele>405.4</ele>
        <time>2024-06-27T16:37:41.625Z</time>
      </trkpt>
      <trkpt lat="45.54545" lon="5.13761">
        <ele>404.6</ele>
        <time>2024-06-27T16:37:43.597Z</time>
      </trkpt>
      <trkpt lat="45.54522" lon="5.13749">
        <ele>403.7</ele>
        <time>2024-06-27T16:37:45.573Z</time>
      </trkpt>
      <trkpt lat="45.54511" lon="5.13743">
        <ele>403.4</ele>
        <time>2024-06-27T16:37:47.552Z</time>
      </trkpt>
      <trkpt lat="45.54505" lon="5.1374">
        <ele>403.1</ele>
        <time>2024-06-27T16:37:49.532Z</time>
      </trkpt>
      <trkpt lat="45.5448" lon="5.1373">
        <ele>401.1</ele>
        <time>2024-06-27T16:37:51.517Z</time>
      </trkpt>
      <trkpt lat="45.54459" lon="5.13726">
        <ele>399</ele>
        <time>2024-06-27T16:37:53.506Z</time>
      </trkpt>
      <trkpt lat="45.54451" lon="5.13726">
        <ele>398.4</ele>
        <time>2024-06-27T16:37:55.497Z</time>
      </trkpt>
      <trkpt lat="45.54437" lon="5.13728">
        <ele>397.1</ele>
        <time>2024-06-27T16:37:57.490Z</time>
      </trkpt>
      <trkpt lat="45.54422" lon="5.13731">
        <ele>396</ele>
        <time>2024-06-27T16:37:59.486Z</time>
      </trkpt>
      <trkpt lat="45.54408" lon="5.13734">
        <ele>395.5</ele>
        <time>2024-06-27T16:38:01.485Z</time>
      </trkpt>
      <trkpt lat="45.54367" lon="5.13743">
        <ele>394.9</ele>
        <time>2024-06-27T16:38:03.492Z</time>
      </trkpt>
      <trkpt lat="45.54361" lon="5.13743">
        <ele>395.1</ele>
        <time>2024-06-27T16:38:05.500Z</time>
      </trkpt>
      <trkpt lat="45.54348" lon="5.13741">
        <ele>396.5</ele>
        <time>2024-06-27T16:38:07.511Z</time>
      </trkpt>
      <trkpt lat="45.54342" lon="5.13738">
        <ele>397.2</ele>
        <time>2024-06-27T16:38:09.523Z</time>
      </trkpt>
      <trkpt lat="45.54337" lon="5.13734">
        <ele>397.7</ele>
        <time>2024-06-27T16:38:11.536Z</time>
      </trkpt>
      <trkpt lat="45.54315" lon="5.13712">
        <ele>398.7</ele>
        <time>2024-06-27T16:38:13.554Z</time>
      </trkpt>
      <trkpt lat="45.54277" lon="5.13661">
        <ele>399</ele>
        <time>2024-06-27T16:38:15.583Z</time>
      </trkpt>
      <trkpt lat="45.54267" lon="5.13648">
        <ele>398.7</ele>
        <time>2024-06-27T16:38:17.614Z</time>
      </trkpt>
      <trkpt lat="45.54263" lon="5.13642">
        <ele>398.5</ele>
        <time>2024-06-27T16:38:19.646Z</time>
      </trkpt>
      <trkpt lat="45.54237" lon="5.13602">
        <ele>398</ele>
        <time>2024-06-27T16:38:21.686Z</time>
      </trkpt>
      <trkpt lat="45.54226" lon="5.1358">
        <ele>397.2</ele>
        <time>2024-06-27T16:38:23.729Z</time>
      </trkpt>
      <trkpt lat="45.54222" lon="5.13573">
        <ele>396.9</ele>
        <time>2024-06-27T16:38:25.774Z</time>
      </trkpt>
      <trkpt lat="45.54205" lon="5.13536">
        <ele>395.7</ele>
        <time>2024-06-27T16:38:27.825Z</time>
      </trkpt>
      <trkpt lat="45.54177" lon="5.13485">
        <ele>393.8</ele>
        <time>2024-06-27T16:38:29.884Z</time>
      </trkpt>
      <trkpt lat="45.54164" lon="5.13463">
        <ele>393.3</ele>
        <time>2024-06-27T16:38:31.947Z</time>
      </trkpt>
      <trkpt lat="45.54156" lon="5.13448">
        <ele>393.4</ele>
        <time>2024-06-27T16:38:34.013Z</time>
      </trkpt>
      <trkpt lat="45.54143" lon="5.13427">
        <ele>393.4</ele>
        <time>2024-06-27T16:38:36.083Z</time>
      </trkpt>
      <trkpt lat="45.54126" lon="5.134">
        <ele>392</ele>
        <time>2024-06-27T16:38:38.158Z</time>
      </trkpt>
      <trkpt lat="45.54108" lon="5.13374">
        <ele>392.2</ele>
        <time>2024-06-27T16:38:40.238Z</time>
      </trkpt>
      <trkpt lat="45.54084" lon="5.13343">
        <ele>393</ele>
        <time>2024-06-27T16:38:42.324Z</time>
      </trkpt>
      <trkpt lat="45.54047" lon="5.133">
        <ele>393</ele>
        <time>2024-06-27T16:38:44.419Z</time>
      </trkpt>
      <trkpt lat="45.54029" lon="5.13283">
        <ele>393</ele>
        <time>2024-06-27T16:38:46.518Z</time>
      </trkpt>
      <trkpt lat="45.54009" lon="5.13261">
        <ele>391.8</ele>
        <time>2024-06-27T16:38:48.622Z</time>
      </trkpt>
      <trkpt lat="45.53982" lon="5.13226">
        <ele>392.5</ele>
        <time>2024-06-27T16:38:50.733Z</time>
      </trkpt>
      <trkpt lat="45.5394" lon="5.13173">
        <ele>392.4</ele>
        <time>2024-06-27T16:38:52.855Z</time>
      </trkpt>
      <trkpt lat="45.5391" lon="5.1314">
        <ele>391</ele>
        <time>2024-06-27T16:38:54.984Z</time>
      </trkpt>
      <trkpt lat="45.53901" lon="5.1313">
        <ele>391</ele>
        <time>2024-06-27T16:38:57.116Z</time>
      </trkpt>
      <trkpt lat="45.53892" lon="5.13121">
        <ele>391</ele>
        <time>2024-06-27T16:38:59.250Z</time>
      </trkpt>
      <trkpt lat="45.53884" lon="5.1311">
        <ele>391</ele>
        <time>2024-06-27T16:39:01.386Z</time>
      </trkpt>
      <trkpt lat="45.53871" lon="5.13095">
        <ele>391</ele>
        <time>2024-06-27T16:39:03.525Z</time>
      </trkpt>
      <trkpt lat="45.53867" lon="5.1309">
        <ele>391</ele>
        <time>2024-06-27T16:39:05.665Z</time>
      </trkpt>
      <trkpt lat="45.53863" lon="5.13085">
        <ele>391</ele>
        <time>2024-06-27T16:39:07.806Z</time>
      </trkpt>
      <trkpt lat="45.53843" lon="5.1306">
        <ele>390.3</ele>
        <time>2024-06-27T16:39:09.952Z</time>
      </trkpt>
      <trkpt lat="45.53829" lon="5.13044">
        <ele>389.7</ele>
        <time>2024-06-27T16:39:12.102Z</time>
      </trkpt>
      <trkpt lat="45.53824" lon="5.13039">
        <ele>389.5</ele>
        <time>2024-06-27T16:39:14.253Z</time>
      </trkpt>
      <trkpt lat="45.53814" lon="5.13027">
        <ele>389.2</ele>
        <time>2024-06-27T16:39:16.407Z</time>
      </trkpt>
      <trkpt lat="45.53809" lon="5.13022">
        <ele>389</ele>
        <time>2024-06-27T16:39:18.562Z</time>
      </trkpt>
      <trkpt lat="45.5379" lon="5.13007">
        <ele>387.8</ele>
        <time>2024-06-27T16:39:20.721Z</time>
      </trkpt>
      <trkpt lat="45.53777" lon="5.12999">
        <ele>386.9</ele>
        <time>2024-06-27T16:39:22.883Z</time>
      </trkpt>
      <trkpt lat="45.53762" lon="5.12993">
        <ele>386.4</ele>
        <time>2024-06-27T16:39:25.048Z</time>
      </trkpt>
      <trkpt lat="45.53754" lon="5.12991">
        <ele>386.1</ele>
        <time>2024-06-27T16:39:27.214Z</time>
      </trkpt>
      <trkpt lat="45.53746" lon="5.12989">
        <ele>385.5</ele>
        <time>2024-06-27T16:39:29.382Z</time>
      </trkpt>
      <trkpt lat="45.53737" lon="5.12989">
        <ele>384.5</ele>
        <time>2024-06-27T16:39:31.552Z</time>
      </trkpt>
      <trkpt lat="45.53729" lon="5.1299">
        <ele>383.6</ele>
        <time>2024-06-27T16:39:33.723Z</time>
      </trkpt>
      <trkpt lat="45.5372" lon="5.12992">
        <ele>382.6</ele>
        <time>2024-06-27T16:39:35.896Z</time>
      </trkpt>
      <trkpt lat="45.53711" lon="5.12996">
        <ele>381.5</ele>
        <time>2024-06-27T16:39:38.071Z</time>
      </trkpt>
      <trkpt lat="45.53686" lon="5.13005">
        <ele>379.7</ele>
        <time>2024-06-27T16:39:40.251Z</time>
      </trkpt>
      <trkpt lat="45.53671" lon="5.13005">
        <ele>379.1</ele>
        <time>2024-06-27T16:39:42.434Z</time>
      </trkpt>
      <trkpt lat="45.53657" lon="5.12998">
        <ele>379</ele>
        <time>2024-06-27T16:39:44.620Z</time>
      </trkpt>
      <trkpt lat="45.53651" lon="5.12993">
        <ele>379</ele>
        <time>2024-06-27T16:39:46.807Z</time>
      </trkpt>
      <trkpt lat="45.53635" lon="5.12975">
        <ele>378.8</ele>
        <time>2024-06-27T16:39:48.998Z</time>
      </trkpt>
      <trkpt lat="45.53626" lon="5.12962">
        <ele>378.5</ele>
        <time>2024-06-27T16:39:51.191Z</time>
      </trkpt>
      <trkpt lat="45.53618" lon="5.12948">
        <ele>377.7</ele>
        <time>2024-06-27T16:39:53.387Z</time>
      </trkpt>
      <trkpt lat="45.53614" lon="5.12941">
        <ele>377.3</ele>
        <time>2024-06-27T16:39:55.584Z</time>
      </trkpt>
      <trkpt lat="45.536" lon="5.12924">
        <ele>376.2</ele>
        <time>2024-06-27T16:39:57.785Z</time>
      </trkpt>
      <trkpt lat="45.53595" lon="5.12919">
        <ele>375.8</ele>
        <time>2024-06-27T16:39:59.987Z</time>
      </trkpt>
      <trkpt lat="45.5359" lon="5.12915">
        <ele>375.5</ele>
        <time>2024-06-27T16:40:02.190Z</time>
      </trkpt>
      <trkpt lat="45.53585" lon="5.12912">
        <ele>375.2</ele>
        <time>2024-06-27T16:40:04.394Z</time>
      </trkpt>
      <trkpt lat="45.5358" lon="5.12909">
        <ele>375.4</ele>
        <time>2024-06-27T16:40:06.599Z</time>
      </trkpt>
      <trkpt lat="45.53574" lon="5.12906">
        <ele>375.7</ele>
        <time>2024-06-27T16:40:08.805Z</time>
      </trkpt>
      <trkpt lat="45.53569" lon="5.12904">
        <ele>376.1</ele>
        <time>2024-06-27T16:40:11.012Z</time>
      </trkpt>
      <trkpt lat="45.5356" lon="5.129">
        <ele>376.8</ele>
        <time>2024-06-27T16:40:13.221Z</time>
      </trkpt>
      <trkpt lat="45.53556" lon="5.129">
        <ele>377</ele>
        <time>2024-06-27T16:40:15.431Z</time>
      </trkpt>
      <trkpt lat="45.53552" lon="5.12899">
        <ele>377.3</ele>
        <time>2024-06-27T16:40:17.642Z</time>
      </trkpt>
      <trkpt lat="45.53545" lon="5.12893">
        <ele>377.8</ele>
        <time>2024-06-27T16:40:19.854Z</time>
      </trkpt>
      <trkpt lat="45.53543" lon="5.12888">
        <ele>378</ele>
        <time>2024-06-27T16:40:22.067Z</time>
      </trkpt>
      <trkpt lat="45.53541" lon="5.12882">
        <ele>378.1</ele>
        <time>2024-06-27T16:40:24.281Z</time>
      </trkpt>
      <trkpt lat="45.5354" lon="5.12876">
        <ele>378.1</ele>
        <time>2024-06-27T16:40:26.496Z</time>
      </trkpt>
      <trkpt lat="45.53537" lon="5.12862">
        <ele>377.8</ele>
        <time>2024-06-27T16:40:28.713Z</time>
      </trkpt>
      <trkpt lat="45.53535" lon="5.12856">
        <ele>377.8</ele>
        <time>2024-06-27T16:40:30.931Z</time>
      </trkpt>
      <trkpt lat="45.53533" lon="5.12849">
        <ele>377.8</ele>
        <time>2024-06-27T16:40:33.150Z</time>
      </trkpt>
      <trkpt lat="45.53521" lon="5.12809">
        <ele>377.8</ele>
        <time>2024-06-27T16:40:35.374Z</time>
      </trkpt>
      <trkpt lat="45.53495" lon="5.12758">
        <ele>377.7</ele>
        <time>2024-06-27T16:40:37.607Z</time>
      </trkpt>
      <trkpt lat="45.53465" lon="5.12701">
        <ele>376.9</ele>
        <time>2024-06-27T16:40:39.850Z</time>
      </trkpt>
      <trkpt lat="45.53461" lon="5.12695">
        <ele>376.8</ele>
        <time>2024-06-27T16:40:42.094Z</time>
      </trkpt>
      <trkpt lat="45.53443" lon="5.12662">
        <ele>376.2</ele>
        <time>2024-06-27T16:40:44.344Z</time>
      </trkpt>
      <trkpt lat="45.53431" lon="5.12643">
        <ele>376</ele>
        <time>2024-06-27T16:40:46.597Z</time>
      </trkpt>
      <trkpt lat="45.53427" lon="5.12637">
        <ele>376</ele>
        <time>2024-06-27T16:40:48.851Z</time>
      </trkpt>
      <trkpt lat="45.53423" lon="5.12631">
        <ele>376</ele>
        <time>2024-06-27T16:40:51.106Z</time>
      </trkpt>
      <trkpt lat="45.53407" lon="5.12607">
        <ele>375.6</ele>
        <time>2024-06-27T16:40:53.366Z</time>
      </trkpt>
      <trkpt lat="45.53389" lon="5.12584">
        <ele>375</ele>
        <time>2024-06-27T16:40:55.630Z</time>
      </trkpt>
      <trkpt lat="45.53371" lon="5.12561">
        <ele>375</ele>
        <time>2024-06-27T16:40:57.899Z</time>
      </trkpt>
      <trkpt lat="45.53358" lon="5.12544">
        <ele>374.9</ele>
        <time>2024-06-27T16:41:00.172Z</time>
      </trkpt>
      <trkpt lat="45.53349" lon="5.12532">
        <ele>374.5</ele>
        <time>2024-06-27T16:41:02.447Z</time>
      </trkpt>
      <trkpt lat="45.53345" lon="5.12526">
        <ele>374.4</ele>
        <time>2024-06-27T16:41:04.723Z</time>
      </trkpt>
      <trkpt lat="45.53317" lon="5.12479">
        <ele>373</ele>
        <time>2024-06-27T16:41:07.007Z</time>
      </trkpt>
      <trkpt lat="45.53314" lon="5.12471">
        <ele>372.6</ele>
        <time>2024-06-27T16:41:09.293Z</time>
      </trkpt>
      <trkpt lat="45.53302" lon="5.12429">
        <ele>371.7</ele>
        <time>2024-06-27T16:41:11.585Z</time>
      </trkpt>
      <trkpt lat="45.53296" lon="5.12392">
        <ele>370.5</ele>
        <time>2024-06-27T16:41:13.882Z</time>
      </trkpt>
      <trkpt lat="45.53294" lon="5.12374">
        <ele>370.2</ele>
        <time>2024-06-27T16:41:16.182Z</time>
      </trkpt>
      <trkpt lat="45.53292" lon="5.12354">
        <ele>370.9</ele>
        <time>2024-06-27T16:41:18.484Z</time>
      </trkpt>
      <trkpt lat="45.53292" lon="5.12335">
        <ele>371.6</ele>
        <time>2024-06-27T16:41:20.789Z</time>
      </trkpt>
      <trkpt lat="45.53293" lon="5.12326">
        <ele>371.9</ele>
        <time>2024-06-27T16:41:23.095Z</time>
      </trkpt>
      <trkpt lat="45.53294" lon="5.12316">
        <ele>372.2</ele>
        <time>2024-06-27T16:41:25.402Z</time>
      </trkpt>
      <trkpt lat="45.53298" lon="5.1228">
        <ele>372.4</ele>
        <time>2024-06-27T16:41:27.714Z</time>
      </trkpt>
      <trkpt lat="45.533" lon="5.12271">
        <ele>371.8</ele>
        <time>2024-06-27T16:41:30.028Z</time>
      </trkpt>
      <trkpt lat="45.53302" lon="5.12253">
        <ele>371.5</ele>
        <time>2024-06-27T16:41:32.344Z</time>
      </trkpt>
      <trkpt lat="45.53307" lon="5.12217">
        <ele>371</ele>
        <time>2024-06-27T16:41:34.665Z</time>
      </trkpt>
      <trkpt lat="45.53314" lon="5.12171">
        <ele>371.5</ele>
        <time>2024-06-27T16:41:36.993Z</time>
      </trkpt>
      <trkpt lat="45.53331" lon="5.12129">
        <ele>371</ele>
        <time>2024-06-27T16:41:39.327Z</time>
      </trkpt>
      <trkpt lat="45.53345" lon="5.12098">
        <ele>372.5</ele>
        <time>2024-06-27T16:41:41.666Z</time>
      </trkpt>
      <trkpt lat="45.53347" lon="5.1209">
        <ele>372.5</ele>
        <time>2024-06-27T16:41:44.006Z</time>
      </trkpt>
      <trkpt lat="45.5335" lon="5.12081">
        <ele>372.8</ele>
        <time>2024-06-27T16:41:46.348Z</time>
      </trkpt>
      <trkpt lat="45.53352" lon="5.12073">
        <ele>373.2</ele>
        <time>2024-06-27T16:41:48.691Z</time>
      </trkpt>
      <trkpt lat="45.53354" lon="5.12065">
        <ele>373.6</ele>
        <time>2024-06-27T16:41:51.035Z</time>
      </trkpt>
      <trkpt lat="45.53358" lon="5.1204">
        <ele>374.1</ele>
        <time>2024-06-27T16:41:53.382Z</time>
      </trkpt>
      <trkpt lat="45.53358" lon="5.12032">
        <ele>374.1</ele>
        <time>2024-06-27T16:41:55.731Z</time>
      </trkpt>
      <trkpt lat="45.53361" lon="5.12">
        <ele>373.6</ele>
        <time>2024-06-27T16:41:58.084Z</time>
      </trkpt>
      <trkpt lat="45.5336" lon="5.11992">
        <ele>372.9</ele>
        <time>2024-06-27T16:42:00.438Z</time>
      </trkpt>
      <trkpt lat="45.53356" lon="5.11968">
        <ele>371.4</ele>
        <time>2024-06-27T16:42:02.795Z</time>
      </trkpt>
      <trkpt lat="45.53356" lon="5.11951">
        <ele>371.1</ele>
        <time>2024-06-27T16:42:05.155Z</time>
      </trkpt>
      <trkpt lat="45.53353" lon="5.11916">
        <ele>370.7</ele>
        <time>2024-06-27T16:42:07.520Z</time>
      </trkpt>
      <trkpt lat="45.5335" lon="5.1189">
        <ele>370.8</ele>
        <time>2024-06-27T16:42:09.888Z</time>
      </trkpt>
      <trkpt lat="45.53338" lon="5.11813">
        <ele>370.5</ele>
        <time>2024-06-27T16:42:12.267Z</time>
      </trkpt>
      <trkpt lat="45.53328" lon="5.11743">
        <ele>369.9</ele>
        <time>2024-06-27T16:42:14.656Z</time>
      </trkpt>
      <trkpt lat="45.53312" lon="5.11694">
        <ele>370.8</ele>
        <time>2024-06-27T16:42:17.052Z</time>
      </trkpt>
      <trkpt lat="45.53308" lon="5.11686">
        <ele>371</ele>
        <time>2024-06-27T16:42:19.449Z</time>
      </trkpt>
      <trkpt lat="45.53298" lon="5.11663">
        <ele>371.1</ele>
        <time>2024-06-27T16:42:21.850Z</time>
      </trkpt>
      <trkpt lat="45.53276" lon="5.11617">
        <ele>370.9</ele>
        <time>2024-06-27T16:42:24.259Z</time>
      </trkpt>
      <trkpt lat="45.53257" lon="5.11576">
        <ele>370.2</ele>
        <time>2024-06-27T16:42:26.674Z</time>
      </trkpt>
      <trkpt lat="45.53251" lon="5.11557">
        <ele>370</ele>
        <time>2024-06-27T16:42:29.092Z</time>
      </trkpt>
      <trkpt lat="45.53246" lon="5.11539">
        <ele>369.6</ele>
        <time>2024-06-27T16:42:31.513Z</time>
      </trkpt>
      <trkpt lat="45.53237" lon="5.11493">
        <ele>369.4</ele>
        <time>2024-06-27T16:42:33.940Z</time>
      </trkpt>
      <trkpt lat="45.53223" lon="5.11411">
        <ele>368.2</ele>
        <time>2024-06-27T16:42:36.379Z</time>
      </trkpt>
      <trkpt lat="45.53221" lon="5.11402">
        <ele>367.9</ele>
        <time>2024-06-27T16:42:38.819Z</time>
      </trkpt>
      <trkpt lat="45.5322" lon="5.11393">
        <ele>367.6</ele>
        <time>2024-06-27T16:42:41.260Z</time>
      </trkpt>
      <trkpt lat="45.53217" lon="5.11364">
        <ele>367.5</ele>
        <time>2024-06-27T16:42:43.705Z</time>
      </trkpt>
      <trkpt lat="45.53214" lon="5.11336">
        <ele>368.5</ele>
        <time>2024-06-27T16:42:46.154Z</time>
      </trkpt>
      <trkpt lat="45.53214" lon="5.11267">
        <ele>370.3</ele>
        <time>2024-06-27T16:42:48.612Z</time>
      </trkpt>
      <trkpt lat="45.53214" lon="5.11205">
        <ele>368.3</ele>
        <time>2024-06-27T16:42:51.079Z</time>
      </trkpt>
      <trkpt lat="45.53213" lon="5.1119">
        <ele>367.9</ele>
        <time>2024-06-27T16:42:53.548Z</time>
      </trkpt>
      <trkpt lat="45.53212" lon="5.11175">
        <ele>367.6</ele>
        <time>2024-06-27T16:42:56.019Z</time>
      </trkpt>
      <trkpt lat="45.53208" lon="5.11143">
        <ele>368.4</ele>
        <time>2024-06-27T16:42:58.494Z</time>
      </trkpt>
      <trkpt lat="45.532" lon="5.11092">
        <ele>368.6</ele>
        <time>2024-06-27T16:43:00.976Z</time>
      </trkpt>
      <trkpt lat="45.53198" lon="5.11075">
        <ele>369.1</ele>
        <time>2024-06-27T16:43:03.461Z</time>
      </trkpt>
      <trkpt lat="45.53196" lon="5.11058">
        <ele>369</ele>
        <time>2024-06-27T16:43:05.948Z</time>
      </trkpt>
      <trkpt lat="45.53192" lon="5.11006">
        <ele>368.9</ele>
        <time>2024-06-27T16:43:08.442Z</time>
      </trkpt>
      <trkpt lat="45.53187" lon="5.1096">
        <ele>369</ele>
        <time>2024-06-27T16:43:10.943Z</time>
      </trkpt>
      <trkpt lat="45.53186" lon="5.10942">
        <ele>369</ele>
        <time>2024-06-27T16:43:13.446Z</time>
      </trkpt>
      <trkpt lat="45.53183" lon="5.10915">
        <ele>368.6</ele>
        <time>2024-06-27T16:43:15.953Z</time>
      </trkpt>
      <trkpt lat="45.53179" lon="5.10869">
        <ele>368.1</ele>
        <time>2024-06-27T16:43:18.466Z</time>
      </trkpt>
      <trkpt lat="45.53176" lon="5.1084">
        <ele>367.3</ele>
        <time>2024-06-27T16:43:20.983Z</time>
      </trkpt>
      <trkpt lat="45.53176" lon="5.10831">
        <ele>367.3</ele>
        <time>2024-06-27T16:43:23.501Z</time>
      </trkpt>
      <trkpt lat="45.53174" lon="5.10811">
        <ele>366.8</ele>
        <time>2024-06-27T16:43:26.022Z</time>
      </trkpt>
      <trkpt lat="45.53173" lon="5.108">
        <ele>366.4</ele>
        <time>2024-06-27T16:43:28.545Z</time>
      </trkpt>
      <trkpt lat="45.53171" lon="5.10767">
        <ele>365.3</ele>
        <time>2024-06-27T16:43:31.072Z</time>
      </trkpt>
      <trkpt lat="45.53171" lon="5.10755">
        <ele>364.8</ele>
        <time>2024-06-27T16:43:33.601Z</time>
      </trkpt>
      <trkpt lat="45.53169" lon="5.10706">
        <ele>362.1</ele>
        <time>2024-06-27T16:43:36.136Z</time>
      </trkpt>
      <trkpt lat="45.53169" lon="5.10693">
        <ele>362.1</ele>
        <time>2024-06-27T16:43:38.673Z</time>
      </trkpt>
      <trkpt lat="45.5317" lon="5.10679">
        <ele>361.9</ele>
        <time>2024-06-27T16:43:41.212Z</time>
      </trkpt>
      <trkpt lat="45.53173" lon="5.10637">
        <ele>360.7</ele>
        <time>2024-06-27T16:43:43.757Z</time>
      </trkpt>
      <trkpt lat="45.53175" lon="5.10624">
        <ele>359.8</ele>
        <time>2024-06-27T16:43:46.304Z</time>
      </trkpt>
      <trkpt lat="45.53186" lon="5.10568">
        <ele>356.2</ele>
        <time>2024-06-27T16:43:48.859Z</time>
      </trkpt>
      <trkpt lat="45.53189" lon="5.10554">
        <ele>356.3</ele>
        <time>2024-06-27T16:43:51.415Z</time>
      </trkpt>
      <trkpt lat="45.53192" lon="5.10541">
        <ele>356.8</ele>
        <time>2024-06-27T16:43:53.973Z</time>
      </trkpt>
      <trkpt lat="45.53196" lon="5.10528">
        <ele>356.4</ele>
        <time>2024-06-27T16:43:56.533Z</time>
      </trkpt>
      <trkpt lat="45.53199" lon="5.10515">
        <ele>356.3</ele>
        <time>2024-06-27T16:43:59.095Z</time>
      </trkpt>
      <trkpt lat="45.53208" lon="5.10491">
        <ele>356.5</ele>
        <time>2024-06-27T16:44:01.661Z</time>
      </trkpt>
      <trkpt lat="45.53214" lon="5.1048">
        <ele>356.7</ele>
        <time>2024-06-27T16:44:04.229Z</time>
      </trkpt>
      <trkpt lat="45.53243" lon="5.10435">
        <ele>356.1</ele>
        <time>2024-06-27T16:44:06.805Z</time>
      </trkpt>
      <trkpt lat="45.53278" lon="5.10393">
        <ele>355.5</ele>
        <time>2024-06-27T16:44:09.390Z</time>
      </trkpt>
      <trkpt lat="45.53301" lon="5.10372">
        <ele>356.6</ele>
        <time>2024-06-27T16:44:11.980Z</time>
      </trkpt>
      <trkpt lat="45.53313" lon="5.10357">
        <ele>357.2</ele>
        <time>2024-06-27T16:44:14.573Z</time>
      </trkpt>
      <trkpt lat="45.53319" lon="5.10347">
        <ele>357.5</ele>
        <time>2024-06-27T16:44:17.168Z</time>
      </trkpt>
      <trkpt lat="45.53319" lon="5.10343">
        <ele>357.5</ele>
        <time>2024-06-27T16:44:19.764Z</time>
      </trkpt>
      <trkpt lat="45.53315" lon="5.10336">
        <ele>357.3</ele>
        <time>2024-06-27T16:44:22.361Z</time>
      </trkpt>
      <trkpt lat="45.53301" lon="5.10327">
        <ele>356.6</ele>
        <time>2024-06-27T16:44:24.961Z</time>
      </trkpt>
      <trkpt lat="45.53297" lon="5.10325">
        <ele>356.3</ele>
        <time>2024-06-27T16:44:27.562Z</time>
      </trkpt>
      <trkpt lat="45.53288" lon="5.10319">
        <ele>355.7</ele>
        <time>2024-06-27T16:44:30.165Z</time>
      </trkpt>
      <trkpt lat="45.53278" lon="5.10312">
        <ele>355</ele>
        <time>2024-06-27T16:44:32.770Z</time>
      </trkpt>
      <trkpt lat="45.53264" lon="5.10301">
        <ele>354.5</ele>
        <time>2024-06-27T16:44:35.378Z</time>
      </trkpt>
      <trkpt lat="45.53241" lon="5.10278">
        <ele>355</ele>
        <time>2024-06-27T16:44:37.991Z</time>
      </trkpt>
      <trkpt lat="45.53238" lon="5.10272">
        <ele>355.3</ele>
        <time>2024-06-27T16:44:40.605Z</time>
      </trkpt>
      <trkpt lat="45.53235" lon="5.10265">
        <ele>355.6</ele>
        <time>2024-06-27T16:44:43.220Z</time>
      </trkpt>
      <trkpt lat="45.53232" lon="5.10242">
        <ele>356.4</ele>
        <time>2024-06-27T16:44:45.839Z</time>
      </trkpt>
      <trkpt lat="45.53228" lon="5.10212">
        <ele>357.6</ele>
        <time>2024-06-27T16:44:48.462Z</time>
      </trkpt>
      <trkpt lat="45.53225" lon="5.10181">
        <ele>358.8</ele>
        <time>2024-06-27T16:44:51.089Z</time>
      </trkpt>
      <trkpt lat="45.53221" lon="5.10157">
        <ele>358.1</ele>
        <time>2024-06-27T16:44:53.719Z</time>
      </trkpt>
      <trkpt lat="45.53214" lon="5.10123">
        <ele>357.8</ele>
        <time>2024-06-27T16:44:56.354Z</time>
      </trkpt>
      <trkpt lat="45.532" lon="5.10071">
        <ele>355.8</ele>
        <time>2024-06-27T16:44:58.997Z</time>
      </trkpt>
      <trkpt lat="45.53192" lon="5.10044">
        <ele>355.1</ele>
        <time>2024-06-27T16:45:01.644Z</time>
      </trkpt>
      <trkpt lat="45.53182" lon="5.1001">
        <ele>355.5</ele>
        <time>2024-06-27T16:45:04.296Z</time>
      </trkpt>
      <trkpt lat="45.53177" lon="5.09994">
        <ele>355.7</ele>
        <time>2024-06-27T16:45:06.950Z</time>
      </trkpt>
      <trkpt lat="45.53165" lon="5.09957">
        <ele>356.1</ele>
        <time>2024-06-27T16:45:09.610Z</time>
      </trkpt>
      <trkpt lat="45.53162" lon="5.09951">
        <ele>356.4</ele>
        <time>2024-06-27T16:45:12.271Z</time>
      </trkpt>
      <trkpt lat="45.53158" lon="5.09947">
        <ele>356.5</ele>
        <time>2024-06-27T16:45:14.933Z</time>
      </trkpt>
      <trkpt lat="45.53152" lon="5.09941">
        <ele>356.7</ele>
        <time>2024-06-27T16:45:17.596Z</time>
      </trkpt>
      <trkpt lat="45.5315" lon="5.09938">
        <ele>356.8</ele>
        <time>2024-06-27T16:45:20.260Z</time>
      </trkpt>
      <trkpt lat="45.53147" lon="5.09934">
        <ele>357</ele>
        <time>2024-06-27T16:45:22.924Z</time>
      </trkpt>
      <trkpt lat="45.53143" lon="5.09926">
        <ele>357</ele>
        <time>2024-06-27T16:45:25.590Z</time>
      </trkpt>
      <trkpt lat="45.5314" lon="5.0992">
        <ele>357</ele>
        <time>2024-06-27T16:45:28.257Z</time>
      </trkpt>
      <trkpt lat="45.53135" lon="5.09907">
        <ele>356.8</ele>
        <time>2024-06-27T16:45:30.926Z</time>
      </trkpt>
      <trkpt lat="45.53131" lon="5.09896">
        <ele>356.3</ele>
        <time>2024-06-27T16:45:33.596Z</time>
      </trkpt>
      <trkpt lat="45.53126" lon="5.09884">
        <ele>355.5</ele>
        <time>2024-06-27T16:45:36.268Z</time>
      </trkpt>
      <trkpt lat="45.53118" lon="5.09865">
        <ele>354.5</ele>
        <time>2024-06-27T16:45:38.943Z</time>
      </trkpt>
      <trkpt lat="45.53116" lon="5.09858">
        <ele>354.3</ele>
        <time>2024-06-27T16:45:41.619Z</time>
      </trkpt>
      <trkpt lat="45.53107" lon="5.0983">
        <ele>353.5</ele>
        <time>2024-06-27T16:45:44.300Z</time>
      </trkpt>
      <trkpt lat="45.53098" lon="5.09801">
        <ele>352.7</ele>
        <time>2024-06-27T16:45:46.985Z</time>
      </trkpt>
      <trkpt lat="45.53096" lon="5.09794">
        <ele>352.6</ele>
        <time>2024-06-27T16:45:49.671Z</time>
      </trkpt>
      <trkpt lat="45.53079" lon="5.09732">
        <ele>353.4</ele>
        <time>2024-06-27T16:45:52.366Z</time>
      </trkpt>
      <trkpt lat="45.5307" lon="5.09692">
        <ele>353.3</ele>
        <time>2024-06-27T16:45:55.067Z</time>
      </trkpt>
      <trkpt lat="45.53064" lon="5.09666">
        <ele>352.8</ele>
        <time>2024-06-27T16:45:57.771Z</time>
      </trkpt>
      <trkpt lat="45.53057" lon="5.09633">
        <ele>352.1</ele>
        <time>2024-06-27T16:46:00.480Z</time>
      </trkpt>
      <trkpt lat="45.53051" lon="5.09602">
        <ele>351.3</ele>
        <time>2024-06-27T16:46:03.193Z</time>
      </trkpt>
      <trkpt lat="45.53049" lon="5.09594">
        <ele>351.1</ele>
        <time>2024-06-27T16:46:05.908Z</time>
      </trkpt>
      <trkpt lat="45.53038" lon="5.09532">
        <ele>349.7</ele>
        <time>2024-06-27T16:46:08.631Z</time>
      </trkpt>
      <trkpt lat="45.53034" lon="5.09473">
        <ele>349.8</ele>
        <time>2024-06-27T16:46:11.362Z</time>
      </trkpt>
      <trkpt lat="45.53033" lon="5.09456">
        <ele>349.7</ele>
        <time>2024-06-27T16:46:14.096Z</time>
      </trkpt>
      <trkpt lat="45.53033" lon="5.09439">
        <ele>349.7</ele>
        <time>2024-06-27T16:46:16.832Z</time>
      </trkpt>
      <trkpt lat="45.53028" lon="5.09396">
        <ele>349</ele>
        <time>2024-06-27T16:46:19.574Z</time>
      </trkpt>
      <trkpt lat="45.53023" lon="5.09361">
        <ele>348.8</ele>
        <time>2024-06-27T16:46:22.321Z</time>
      </trkpt>
      <trkpt lat="45.53022" lon="5.09353">
        <ele>348.6</ele>
        <time>2024-06-27T16:46:25.069Z</time>
      </trkpt>
      <trkpt lat="45.53016" lon="5.09329">
        <ele>347.4</ele>
        <time>2024-06-27T16:46:27.820Z</time>
      </trkpt>
      <trkpt lat="45.53005" lon="5.09299">
        <ele>346.9</ele>
        <time>2024-06-27T16:46:30.576Z</time>
      </trkpt>
      <trkpt lat="45.53002" lon="5.09292">
        <ele>347</ele>
        <time>2024-06-27T16:46:33.333Z</time>
      </trkpt>
      <trkpt lat="45.52995" lon="5.09278">
        <ele>348</ele>
        <time>2024-06-27T16:46:36.092Z</time>
      </trkpt>
      <trkpt lat="45.52979" lon="5.09252">
        <ele>349.6</ele>
        <time>2024-06-27T16:46:38.856Z</time>
      </trkpt>
      <trkpt lat="45.52972" lon="5.09238">
        <ele>350</ele>
        <time>2024-06-27T16:46:41.622Z</time>
      </trkpt>
      <trkpt lat="45.52968" lon="5.09231">
        <ele>350</ele>
        <time>2024-06-27T16:46:44.390Z</time>
      </trkpt>
      <trkpt lat="45.52961" lon="5.09217">
        <ele>350</ele>
        <time>2024-06-27T16:46:47.160Z</time>
      </trkpt>
      <trkpt lat="45.52929" lon="5.09164">
        <ele>349.3</ele>
        <time>2024-06-27T16:46:49.940Z</time>
      </trkpt>
      <trkpt lat="45.52925" lon="5.09157">
        <ele>349.1</ele>
        <time>2024-06-27T16:46:52.721Z</time>
      </trkpt>
      <trkpt lat="45.529" lon="5.09119">
        <ele>347.1</ele>
        <time>2024-06-27T16:46:55.509Z</time>
      </trkpt>
      <trkpt lat="45.52888" lon="5.091">
        <ele>346</ele>
        <time>2024-06-27T16:46:58.300Z</time>
      </trkpt>
      <trkpt lat="45.5285" lon="5.09034">
        <ele>345.4</ele>
        <time>2024-06-27T16:47:01.103Z</time>
      </trkpt>
      <trkpt lat="45.52829" lon="5.08983">
        <ele>345.6</ele>
        <time>2024-06-27T16:47:03.914Z</time>
      </trkpt>
      <trkpt lat="45.52826" lon="5.08975">
        <ele>345</ele>
        <time>2024-06-27T16:47:06.726Z</time>
      </trkpt>
      <trkpt lat="45.5281" lon="5.08931">
        <ele>343.9</ele>
        <time>2024-06-27T16:47:09.545Z</time>
      </trkpt>
      <trkpt lat="45.528" lon="5.08912">
        <ele>344.5</ele>
        <time>2024-06-27T16:47:12.367Z</time>
      </trkpt>
      <trkpt lat="45.52792" lon="5.08903">
        <ele>345</ele>
        <time>2024-06-27T16:47:15.191Z</time>
      </trkpt>
      <trkpt lat="45.52782" lon="5.08898">
        <ele>345.5</ele>
        <time>2024-06-27T16:47:18.017Z</time>
      </trkpt>
      <trkpt lat="45.52748" lon="5.08887">
        <ele>346.3</ele>
        <time>2024-06-27T16:47:20.850Z</time>
      </trkpt>
      <trkpt lat="45.52743" lon="5.08886">
        <ele>346.3</ele>
        <time>2024-06-27T16:47:23.684Z</time>
      </trkpt>
      <trkpt lat="45.52738" lon="5.08884">
        <ele>346.2</ele>
        <time>2024-06-27T16:47:26.519Z</time>
      </trkpt>
      <trkpt lat="45.52706" lon="5.08872">
        <ele>346.6</ele>
        <time>2024-06-27T16:47:29.360Z</time>
      </trkpt>
      <trkpt lat="45.52683" lon="5.08857">
        <ele>348.3</ele>
        <time>2024-06-27T16:47:32.206Z</time>
      </trkpt>
      <trkpt lat="45.52679" lon="5.08855">
        <ele>348.7</ele>
        <time>2024-06-27T16:47:35.053Z</time>
      </trkpt>
      <trkpt lat="45.52668" lon="5.08847">
        <ele>349.8</ele>
        <time>2024-06-27T16:47:37.902Z</time>
      </trkpt>
      <trkpt lat="45.52654" lon="5.08838">
        <ele>350.5</ele>
        <time>2024-06-27T16:47:40.755Z</time>
      </trkpt>
      <trkpt lat="45.52647" lon="5.08833">
        <ele>350.7</ele>
        <time>2024-06-27T16:47:43.609Z</time>
      </trkpt>
      <trkpt lat="45.52633" lon="5.08825">
        <ele>351</ele>
        <time>2024-06-27T16:47:46.466Z</time>
      </trkpt>
      <trkpt lat="45.5263" lon="5.08823">
        <ele>351</ele>
        <time>2024-06-27T16:47:49.323Z</time>
      </trkpt>
      <trkpt lat="45.5262" lon="5.08817">
        <ele>351</ele>
        <time>2024-06-27T16:47:52.183Z</time>
      </trkpt>
      <trkpt lat="45.52609" lon="5.08811">
        <ele>351.2</ele>
        <time>2024-06-27T16:47:55.045Z</time>
      </trkpt>
      <trkpt lat="45.52603" lon="5.08805">
        <ele>351.6</ele>
        <time>2024-06-27T16:47:57.908Z</time>
      </trkpt>
      <trkpt lat="45.526" lon="5.08802">
        <ele>351.9</ele>
        <time>2024-06-27T16:48:00.772Z</time>
      </trkpt>
      <trkpt lat="45.52597" lon="5.08798">
        <ele>352.1</ele>
        <time>2024-06-27T16:48:03.637Z</time>
      </trkpt>
      <trkpt lat="45.52589" lon="5.08785">
        <ele>352.3</ele>
        <time>2024-06-27T16:48:06.504Z</time>
      </trkpt>
      <trkpt lat="45.52583" lon="5.08771">
        <ele>352.2</ele>
        <time>2024-06-27T16:48:09.373Z</time>
      </trkpt>
      <trkpt lat="45.52582" lon="5.08765">
        <ele>352.1</ele>
        <time>2024-06-27T16:48:12.243Z</time>
      </trkpt>
      <trkpt lat="45.5258" lon="5.08759">
        <ele>352.3</ele>
        <time>2024-06-27T16:48:15.114Z</time>
      </trkpt>
      <trkpt lat="45.52569" lon="5.08711">
        <ele>352.1</ele>
        <time>2024-06-27T16:48:17.992Z</time>
      </trkpt>
      <trkpt lat="45.52566" lon="5.08697">
        <ele>351.8</ele>
        <time>2024-06-27T16:48:20.872Z</time>
      </trkpt>
      <trkpt lat="45.52559" lon="5.08675">
        <ele>351.1</ele>
        <time>2024-06-27T16:48:23.755Z</time>
      </trkpt>
      <trkpt lat="45.52555" lon="5.0866">
        <ele>350.4</ele>
        <time>2024-06-27T16:48:26.640Z</time>
      </trkpt>
      <trkpt lat="45.52552" lon="5.08652">
        <ele>350.1</ele>
        <time>2024-06-27T16:48:29.527Z</time>
      </trkpt>
      <trkpt lat="45.52547" lon="5.08637">
        <ele>349.4</ele>
        <time>2024-06-27T16:48:32.416Z</time>
      </trkpt>
      <trkpt lat="45.52541" lon="5.08622">
        <ele>348.5</ele>
        <time>2024-06-27T16:48:35.307Z</time>
      </trkpt>
      <trkpt lat="45.52538" lon="5.08614">
        <ele>347.9</ele>
        <time>2024-06-27T16:48:38.200Z</time>
      </trkpt>
      <trkpt lat="45.52532" lon="5.08598">
        <ele>346.8</ele>
        <time>2024-06-27T16:48:41.095Z</time>
      </trkpt>
      <trkpt lat="45.52526" lon="5.08581">
        <ele>346.4</ele>
        <time>2024-06-27T16:48:43.993Z</time>
      </trkpt>
      <trkpt lat="45.52521" lon="5.08563">
        <ele>345.4</ele>
        <time>2024-06-27T16:48:46.893Z</time>
      </trkpt>
      <trkpt lat="45.52519" lon="5.08554">
        <ele>344.7</ele>
        <time>2024-06-27T16:48:49.795Z</time>
      </trkpt>
      <trkpt lat="45.52516" lon="5.08545">
        <ele>344.1</ele>
        <time>2024-06-27T16:48:52.698Z</time>
      </trkpt>
      <trkpt lat="45.5251" lon="5.08519">
        <ele>342.4</ele>
        <time>2024-06-27T16:48:55.605Z</time>
      </trkpt>
      <trkpt lat="45.52502" lon="5.08494">
        <ele>342</ele>
        <time>2024-06-27T16:48:58.515Z</time>
      </trkpt>
      <trkpt lat="45.52494" lon="5.08473">
        <ele>342.2</ele>
        <time>2024-06-27T16:49:01.429Z</time>
      </trkpt>
      <trkpt lat="45.52492" lon="5.08468">
        <ele>342.3</ele>
        <time>2024-06-27T16:49:04.343Z</time>
      </trkpt>
      <trkpt lat="45.52491" lon="5.08464">
        <ele>342.3</ele>
        <time>2024-06-27T16:49:07.258Z</time>
      </trkpt>
      <trkpt lat="45.52486" lon="5.08449">
        <ele>341.7</ele>
        <time>2024-06-27T16:49:10.175Z</time>
      </trkpt>
      <trkpt lat="45.52486" lon="5.08443">
        <ele>341.5</ele>
        <time>2024-06-27T16:49:13.093Z</time>
      </trkpt>
      <trkpt lat="45.52485" lon="5.0843">
        <ele>341.3</ele>
        <time>2024-06-27T16:49:16.013Z</time>
      </trkpt>
      <trkpt lat="45.52479" lon="5.08415">
        <ele>340.6</ele>
        <time>2024-06-27T16:49:18.935Z</time>
      </trkpt>
      <trkpt lat="45.52475" lon="5.08404">
        <ele>340</ele>
        <time>2024-06-27T16:49:21.859Z</time>
      </trkpt>
      <trkpt lat="45.52466" lon="5.08378">
        <ele>338.3</ele>
        <time>2024-06-27T16:49:24.787Z</time>
      </trkpt>
      <trkpt lat="45.52457" lon="5.08349">
        <ele>338.6</ele>
        <time>2024-06-27T16:49:27.719Z</time>
      </trkpt>
      <trkpt lat="45.52449" lon="5.08326">
        <ele>338.9</ele>
        <time>2024-06-27T16:49:30.655Z</time>
      </trkpt>
      <trkpt lat="45.52437" lon="5.08298">
        <ele>339.3</ele>
        <time>2024-06-27T16:49:33.595Z</time>
      </trkpt>
      <trkpt lat="45.52427" lon="5.08278">
        <ele>339.1</ele>
        <time>2024-06-27T16:49:36.538Z</time>
      </trkpt>
      <trkpt lat="45.52416" lon="5.08255">
        <ele>338.6</ele>
        <time>2024-06-27T16:49:39.485Z</time>
      </trkpt>
      <trkpt lat="45.52409" lon="5.0824">
        <ele>338.1</ele>
        <time>2024-06-27T16:49:42.435Z</time>
      </trkpt>
      <trkpt lat="45.52398" lon="5.08218">
        <ele>337.3</ele>
        <time>2024-06-27T16:49:45.388Z</time>
      </trkpt>
      <trkpt lat="45.52392" lon="5.08202">
        <ele>336.8</ele>
        <time>2024-06-27T16:49:48.344Z</time>
      </trkpt>
      <trkpt lat="45.52386" lon="5.08185">
        <ele>336.1</ele>
        <time>2024-06-27T16:49:51.302Z</time>
      </trkpt>
      <trkpt lat="45.52384" lon="5.08177">
        <ele>335.8</ele>
        <time>2024-06-27T16:49:54.262Z</time>
      </trkpt>
      <trkpt lat="45.52377" lon="5.08142">
        <ele>335</ele>
        <time>2024-06-27T16:49:57.226Z</time>
      </trkpt>
      <trkpt lat="45.52373" lon="5.08125">
        <ele>334.6</ele>
        <time>2024-06-27T16:50:00.193Z</time>
      </trkpt>
      <trkpt lat="45.52363" lon="5.08071">
        <ele>335.9</ele>
        <time>2024-06-27T16:50:03.167Z</time>
      </trkpt>
      <trkpt lat="45.52357" lon="5.08044">
        <ele>335.2</ele>
        <time>2024-06-27T16:50:06.145Z</time>
      </trkpt>
      <trkpt lat="45.52353" lon="5.08026">
        <ele>335.3</ele>
        <time>2024-06-27T16:50:09.126Z</time>
      </trkpt>
      <trkpt lat="45.52339" lon="5.07963">
        <ele>336.2</ele>
        <time>2024-06-27T16:50:12.116Z</time>
      </trkpt>
      <trkpt lat="45.5233" lon="5.07918">
        <ele>335.5</ele>
        <time>2024-06-27T16:50:15.112Z</time>
      </trkpt>
      <trkpt lat="45.52326" lon="5.07891">
        <ele>334.5</ele>
        <time>2024-06-27T16:50:18.112Z</time>
      </trkpt>
      <trkpt lat="45.52322" lon="5.07854">
        <ele>333.2</ele>
        <time>2024-06-27T16:50:21.117Z</time>
      </trkpt>
      <trkpt lat="45.52319" lon="5.07808">
        <ele>331.5</ele>
        <time>2024-06-27T16:50:24.128Z</time>
      </trkpt>
      <trkpt lat="45.52314" lon="5.07742">
        <ele>332.1</ele>
        <time>2024-06-27T16:50:27.148Z</time>
      </trkpt>
      <trkpt lat="45.52309" lon="5.07723">
        <ele>331.5</ele>
        <time>2024-06-27T16:50:30.171Z</time>
      </trkpt>
      <trkpt lat="45.52303" lon="5.07705">
        <ele>331.1</ele>
        <time>2024-06-27T16:50:33.197Z</time>
      </trkpt>
      <trkpt lat="45.5229" lon="5.07681">
        <ele>331.5</ele>
        <time>2024-06-27T16:50:36.227Z</time>
      </trkpt>
      <trkpt lat="45.52285" lon="5.07674">
        <ele>331.4</ele>
        <time>2024-06-27T16:50:39.258Z</time>
      </trkpt>
      <trkpt lat="45.52281" lon="5.07668">
        <ele>331.4</ele>
        <time>2024-06-27T16:50:42.291Z</time>
      </trkpt>
      <trkpt lat="45.52266" lon="5.07651">
        <ele>331.3</ele>
        <time>2024-06-27T16:50:45.327Z</time>
      </trkpt>
      <trkpt lat="45.52255" lon="5.07642">
        <ele>331.4</ele>
        <time>2024-06-27T16:50:48.366Z</time>
      </trkpt>
      <trkpt lat="45.5225" lon="5.07638">
        <ele>331.4</ele>
        <time>2024-06-27T16:50:51.406Z</time>
      </trkpt>
      <trkpt lat="45.52207" lon="5.07611">
        <ele>329.4</ele>
        <time>2024-06-27T16:50:54.455Z</time>
      </trkpt>
      <trkpt lat="45.5217" lon="5.07588">
        <ele>328.5</ele>
        <time>2024-06-27T16:50:57.512Z</time>
      </trkpt>
      <trkpt lat="45.52157" lon="5.07581">
        <ele>328.3</ele>
        <time>2024-06-27T16:51:00.571Z</time>
      </trkpt>
      <trkpt lat="45.52151" lon="5.07577">
        <ele>328.2</ele>
        <time>2024-06-27T16:51:03.632Z</time>
      </trkpt>
      <trkpt lat="45.52099" lon="5.07544">
        <ele>327.9</ele>
        <time>2024-06-27T16:51:06.704Z</time>
      </trkpt>
      <trkpt lat="45.52087" lon="5.07536">
        <ele>328.2</ele>
        <time>2024-06-27T16:51:09.778Z</time>
      </trkpt>
      <trkpt lat="45.52051" lon="5.07513">
        <ele>327</ele>
        <time>2024-06-27T16:51:12.860Z</time>
      </trkpt>
      <trkpt lat="45.52021" lon="5.07493">
        <ele>327</ele>
        <time>2024-06-27T16:51:15.948Z</time>
      </trkpt>
      <trkpt lat="45.51972" lon="5.07462">
        <ele>326.1</ele>
        <time>2024-06-27T16:51:19.047Z</time>
      </trkpt>
      <trkpt lat="45.51959" lon="5.07455">
        <ele>325.8</ele>
        <time>2024-06-27T16:51:22.148Z</time>
      </trkpt>
      <trkpt lat="45.51934" lon="5.07439">
        <ele>326.4</ele>
        <time>2024-06-27T16:51:25.255Z</time>
      </trkpt>
      <trkpt lat="45.51903" lon="5.07422">
        <ele>328.5</ele>
        <time>2024-06-27T16:51:28.368Z</time>
      </trkpt>
      <trkpt lat="45.51852" lon="5.07392">
        <ele>328.9</ele>
        <time>2024-06-27T16:51:31.492Z</time>
      </trkpt>
      <trkpt lat="45.51833" lon="5.07382">
        <ele>329</ele>
        <time>2024-06-27T16:51:34.620Z</time>
      </trkpt>
      <trkpt lat="45.51814" lon="5.07372">
        <ele>328.1</ele>
        <time>2024-06-27T16:51:37.752Z</time>
      </trkpt>
      <trkpt lat="45.51768" lon="5.07351">
        <ele>326.6</ele>
        <time>2024-06-27T16:51:40.893Z</time>
      </trkpt>
      <trkpt lat="45.51723" lon="5.07345">
        <ele>325</ele>
        <time>2024-06-27T16:51:44.043Z</time>
      </trkpt>
      <trkpt lat="45.5171" lon="5.07344">
        <ele>325</ele>
        <time>2024-06-27T16:51:47.195Z</time>
      </trkpt>
      <trkpt lat="45.51664" lon="5.07346">
        <ele>324.9</ele>
        <time>2024-06-27T16:51:50.356Z</time>
      </trkpt>
      <trkpt lat="45.5161" lon="5.07347">
        <ele>324</ele>
        <time>2024-06-27T16:51:53.528Z</time>
      </trkpt>
      <trkpt lat="45.51583" lon="5.0734">
        <ele>324.7</ele>
        <time>2024-06-27T16:51:56.705Z</time>
      </trkpt>
      <trkpt lat="45.5155" lon="5.0733">
        <ele>324</ele>
        <time>2024-06-27T16:51:59.889Z</time>
      </trkpt>
      <trkpt lat="45.51496" lon="5.07316">
        <ele>320</ele>
        <time>2024-06-27T16:52:03.083Z</time>
      </trkpt>
      <trkpt lat="45.51489" lon="5.07314">
        <ele>319.9</ele>
        <time>2024-06-27T16:52:06.279Z</time>
      </trkpt>
      <trkpt lat="45.51476" lon="5.07311">
        <ele>319.5</ele>
        <time>2024-06-27T16:52:09.477Z</time>
      </trkpt>
      <trkpt lat="45.51443" lon="5.07301">
        <ele>319</ele>
        <time>2024-06-27T16:52:12.682Z</time>
      </trkpt>
      <trkpt lat="45.51416" lon="5.0729">
        <ele>319</ele>
        <time>2024-06-27T16:52:15.892Z</time>
      </trkpt>
      <trkpt lat="45.51384" lon="5.07273">
        <ele>320</ele>
        <time>2024-06-27T16:52:19.109Z</time>
      </trkpt>
      <trkpt lat="45.51372" lon="5.07266">
        <ele>320</ele>
        <time>2024-06-27T16:52:22.328Z</time>
      </trkpt>
      <trkpt lat="45.51365" lon="5.07262">
        <ele>319.9</ele>
        <time>2024-06-27T16:52:25.549Z</time>
      </trkpt>
      <trkpt lat="45.51359" lon="5.07259">
        <ele>319.8</ele>
        <time>2024-06-27T16:52:28.771Z</time>
      </trkpt>
      <trkpt lat="45.51352" lon="5.07256">
        <ele>319.6</ele>
        <time>2024-06-27T16:52:31.994Z</time>
      </trkpt>
      <trkpt lat="45.51309" lon="5.07237">
        <ele>318.1</ele>
        <time>2024-06-27T16:52:35.226Z</time>
      </trkpt>
      <trkpt lat="45.51295" lon="5.07231">
        <ele>318.4</ele>
        <time>2024-06-27T16:52:38.461Z</time>
      </trkpt>
      <trkpt lat="45.51252" lon="5.07206">
        <ele>319.8</ele>
        <time>2024-06-27T16:52:41.705Z</time>
      </trkpt>
      <trkpt lat="45.51208" lon="5.07167">
        <ele>317.9</ele>
        <time>2024-06-27T16:52:44.959Z</time>
      </trkpt>
      <trkpt lat="45.51196" lon="5.07156">
        <ele>317.1</ele>
        <time>2024-06-27T16:52:48.216Z</time>
      </trkpt>
      <trkpt lat="45.5116" lon="5.07122">
        <ele>316.8</ele>
        <time>2024-06-27T16:52:51.481Z</time>
      </trkpt>
      <trkpt lat="45.51154" lon="5.07117">
        <ele>316.6</ele>
        <time>2024-06-27T16:52:54.748Z</time>
      </trkpt>
      <trkpt lat="45.51142" lon="5.07105">
        <ele>316.2</ele>
        <time>2024-06-27T16:52:58.017Z</time>
      </trkpt>
      <trkpt lat="45.51098" lon="5.07054">
        <ele>316</ele>
        <time>2024-06-27T16:53:01.297Z</time>
      </trkpt>
      <trkpt lat="45.51059" lon="5.06998">
        <ele>314.2</ele>
        <time>2024-06-27T16:53:04.588Z</time>
      </trkpt>
      <trkpt lat="45.51054" lon="5.06991">
        <ele>313.9</ele>
        <time>2024-06-27T16:53:07.880Z</time>
      </trkpt>
      <trkpt lat="45.51044" lon="5.06977">
        <ele>313.2</ele>
        <time>2024-06-27T16:53:11.175Z</time>
      </trkpt>
      <trkpt lat="45.51004" lon="5.06914">
        <ele>312</ele>
        <time>2024-06-27T16:53:14.482Z</time>
      </trkpt>
      <trkpt lat="45.5098" lon="5.06872">
        <ele>312.7</ele>
        <time>2024-06-27T16:53:17.796Z</time>
      </trkpt>
      <trkpt lat="45.50955" lon="5.06831">
        <ele>313.6</ele>
        <time>2024-06-27T16:53:21.117Z</time>
      </trkpt>
      <trkpt lat="45.5095" lon="5.06824">
        <ele>313.8</ele>
        <time>2024-06-27T16:53:24.440Z</time>
      </trkpt>
      <trkpt lat="45.5093" lon="5.06796">
        <ele>313.1</ele>
        <time>2024-06-27T16:53:27.768Z</time>
      </trkpt>
      <trkpt lat="45.50917" lon="5.06778">
        <ele>313</ele>
        <time>2024-06-27T16:53:31.100Z</time>
      </trkpt>
      <trkpt lat="45.50909" lon="5.06767">
        <ele>312.7</ele>
        <time>2024-06-27T16:53:34.434Z</time>
      </trkpt>
      <trkpt lat="45.50901" lon="5.06756">
        <ele>312.8</ele>
        <time>2024-06-27T16:53:37.770Z</time>
      </trkpt>
      <trkpt lat="45.50893" lon="5.06746">
        <ele>312.9</ele>
        <time>2024-06-27T16:53:41.108Z</time>
      </trkpt>
      <trkpt lat="45.50886" lon="5.06735">
        <ele>313</ele>
        <time>2024-06-27T16:53:44.448Z</time>
      </trkpt>
      <trkpt lat="45.50878" lon="5.06724">
        <ele>313</ele>
        <time>2024-06-27T16:53:47.790Z</time>
      </trkpt>
      <trkpt lat="45.50871" lon="5.06713">
        <ele>313</ele>
        <time>2024-06-27T16:53:51.134Z</time>
      </trkpt>
      <trkpt lat="45.50857" lon="5.0669">
        <ele>312.8</ele>
        <time>2024-06-27T16:53:54.482Z</time>
      </trkpt>
      <trkpt lat="45.5085" lon="5.06678">
        <ele>312.8</ele>
        <time>2024-06-27T16:53:57.833Z</time>
      </trkpt>
      <trkpt lat="45.50834" lon="5.06653">
        <ele>313.1</ele>
        <time>2024-06-27T16:54:01.188Z</time>
      </trkpt>
      <trkpt lat="45.50823" lon="5.06634">
        <ele>313.4</ele>
        <time>2024-06-27T16:54:04.547Z</time>
      </trkpt>
      <trkpt lat="45.50815" lon="5.06621">
        <ele>313.5</ele>
        <time>2024-06-27T16:54:07.908Z</time>
      </trkpt>
      <trkpt lat="45.50802" lon="5.06601">
        <ele>313.7</ele>
        <time>2024-06-27T16:54:11.273Z</time>
      </trkpt>
      <trkpt lat="45.50777" lon="5.0656">
        <ele>312</ele>
        <time>2024-06-27T16:54:14.645Z</time>
      </trkpt>
      <trkpt lat="45.50755" lon="5.06523">
        <ele>312.8</ele>
        <time>2024-06-27T16:54:18.024Z</time>
      </trkpt>
      <trkpt lat="45.50746" lon="5.06507">
        <ele>312.8</ele>
        <time>2024-06-27T16:54:21.405Z</time>
      </trkpt>
      <trkpt lat="45.50741" lon="5.06499">
        <ele>312.7</ele>
        <time>2024-06-27T16:54:24.788Z</time>
      </trkpt>
      <trkpt lat="45.50731" lon="5.06483">
        <ele>312.5</ele>
        <time>2024-06-27T16:54:28.174Z</time>
      </trkpt>
      <trkpt lat="45.50715" lon="5.06458">
        <ele>311.7</ele>
        <time>2024-06-27T16:54:31.564Z</time>
      </trkpt>
      <trkpt lat="45.50704" lon="5.0644">
        <ele>311.3</ele>
        <time>2024-06-27T16:54:34.958Z</time>
      </trkpt>
      <trkpt lat="45.50698" lon="5.06431">
        <ele>311</ele>
        <time>2024-06-27T16:54:38.353Z</time>
      </trkpt>
      <trkpt lat="45.50685" lon="5.06414">
        <ele>309.3</ele>
        <time>2024-06-27T16:54:41.752Z</time>
      </trkpt>
      <trkpt lat="45.50679" lon="5.06406">
        <ele>308.5</ele>
        <time>2024-06-27T16:54:45.152Z</time>
      </trkpt>
      <trkpt lat="45.50671" lon="5.06397">
        <ele>308.1</ele>
        <time>2024-06-27T16:54:48.554Z</time>
      </trkpt>
      <trkpt lat="45.50657" lon="5.0638">
        <ele>308</ele>
        <time>2024-06-27T16:54:51.960Z</time>
      </trkpt>
      <trkpt lat="45.50642" lon="5.06365">
        <ele>308</ele>
        <time>2024-06-27T16:54:55.369Z</time>
      </trkpt>
      <trkpt lat="45.50627" lon="5.06351">
        <ele>307.6</ele>
        <time>2024-06-27T16:54:58.782Z</time>
      </trkpt>
      <trkpt lat="45.50613" lon="5.06338">
        <ele>306.7</ele>
        <time>2024-06-27T16:55:02.198Z</time>
      </trkpt>
      <trkpt lat="45.50597" lon="5.06327">
        <ele>306.7</ele>
        <time>2024-06-27T16:55:05.617Z</time>
      </trkpt>
      <trkpt lat="45.50561" lon="5.06299">
        <ele>305.4</ele>
        <time>2024-06-27T16:55:09.045Z</time>
      </trkpt>
      <trkpt lat="45.50546" lon="5.06288">
        <ele>304.8</ele>
        <time>2024-06-27T16:55:12.476Z</time>
      </trkpt>
      <trkpt lat="45.50505" lon="5.06253">
        <ele>304</ele>
        <time>2024-06-27T16:55:15.916Z</time>
      </trkpt>
      <trkpt lat="45.50462" lon="5.06207">
        <ele>303</ele>
        <time>2024-06-27T16:55:19.366Z</time>
      </trkpt>
      <trkpt lat="45.50414" lon="5.06154">
        <ele>304.1</ele>
        <time>2024-06-27T16:55:22.828Z</time>
      </trkpt>
      <trkpt lat="45.50402" lon="5.06141">
        <ele>304</ele>
        <time>2024-06-27T16:55:26.293Z</time>
      </trkpt>
      <trkpt lat="45.50389" lon="5.0613">
        <ele>304.1</ele>
        <time>2024-06-27T16:55:29.761Z</time>
      </trkpt>
      <trkpt lat="45.50362" lon="5.06112">
        <ele>303.9</ele>
        <time>2024-06-27T16:55:33.235Z</time>
      </trkpt>
      <trkpt lat="45.50336" lon="5.06094">
        <ele>302.6</ele>
        <time>2024-06-27T16:55:36.714Z</time>
      </trkpt>
      <trkpt lat="45.50325" lon="5.06081">
        <ele>302</ele>
        <time>2024-06-27T16:55:40.196Z</time>
      </trkpt>
      <trkpt lat="45.5031" lon="5.0606">
        <ele>301.4</ele>
        <time>2024-06-27T16:55:43.682Z</time>
      </trkpt>
      <trkpt lat="45.50284" lon="5.06022">
        <ele>301</ele>
        <time>2024-06-27T16:55:47.175Z</time>
      </trkpt>
      <trkpt lat="45.50261" lon="5.05973">
        <ele>300.1</ele>
        <time>2024-06-27T16:55:50.677Z</time>
      </trkpt>
      <trkpt lat="45.50258" lon="5.05965">
        <ele>300</ele>
        <time>2024-06-27T16:55:54.180Z</time>
      </trkpt>
      <trkpt lat="45.50233" lon="5.05894">
        <ele>300</ele>
        <time>2024-06-27T16:55:57.694Z</time>
      </trkpt>
      <trkpt lat="45.5023" lon="5.05886">
        <ele>300</ele>
        <time>2024-06-27T16:56:01.209Z</time>
      </trkpt>
      <trkpt lat="45.50217" lon="5.05849">
        <ele>299.4</ele>
        <time>2024-06-27T16:56:04.729Z</time>
      </trkpt>
      <trkpt lat="45.50202" lon="5.05803">
        <ele>299.1</ele>
        <time>2024-06-27T16:56:08.256Z</time>
      </trkpt>
      <trkpt lat="45.50174" lon="5.05729">
        <ele>299.3</ele>
        <time>2024-06-27T16:56:11.795Z</time>
      </trkpt>
      <trkpt lat="45.50169" lon="5.0572">
        <ele>299.6</ele>
        <time>2024-06-27T16:56:15.335Z</time>
      </trkpt>
      <trkpt lat="45.50165" lon="5.05711">
        <ele>300</ele>
        <time>2024-06-27T16:56:18.877Z</time>
      </trkpt>
      <trkpt lat="45.50132" lon="5.05656">
        <ele>299.1</ele>
        <time>2024-06-27T16:56:22.429Z</time>
      </trkpt>
      <trkpt lat="45.50122" lon="5.0564">
        <ele>299</ele>
        <time>2024-06-27T16:56:25.983Z</time>
      </trkpt>
      <trkpt lat="45.50086" lon="5.05577">
        <ele>299</ele>
        <time>2024-06-27T16:56:29.549Z</time>
      </trkpt>
      <trkpt lat="45.50081" lon="5.05569">
        <ele>299</ele>
        <time>2024-06-27T16:56:33.116Z</time>
      </trkpt>
      <trkpt lat="45.50047" lon="5.05503">
        <ele>300.1</ele>
        <time>2024-06-27T16:56:36.694Z</time>
      </trkpt>
      <trkpt lat="45.50039" lon="5.05487">
        <ele>300.4</ele>
        <time>2024-06-27T16:56:40.275Z</time>
      </trkpt>
      <trkpt lat="45.50009" lon="5.05422">
        <ele>297.6</ele>
        <time>2024-06-27T16:56:43.867Z</time>
      </trkpt>
      <trkpt lat="45.50005" lon="5.05414">
        <ele>297.3</ele>
        <time>2024-06-27T16:56:47.460Z</time>
      </trkpt>
      <trkpt lat="45.49974" lon="5.05347">
        <ele>297.9</ele>
        <time>2024-06-27T16:56:51.064Z</time>
      </trkpt>
      <trkpt lat="45.49971" lon="5.05338">
        <ele>297.7</ele>
        <time>2024-06-27T16:56:54.669Z</time>
      </trkpt>
      <trkpt lat="45.49954" lon="5.05271">
        <ele>296.9</ele>
        <time>2024-06-27T16:56:58.284Z</time>
      </trkpt>
      <trkpt lat="45.49948" lon="5.05242">
        <ele>295.2</ele>
        <time>2024-06-27T16:57:01.903Z</time>
      </trkpt>
      <trkpt lat="45.49936" lon="5.05193">
        <ele>294</ele>
        <time>2024-06-27T16:57:05.529Z</time>
      </trkpt>
      <trkpt lat="45.49918" lon="5.05136">
        <ele>295.7</ele>
        <time>2024-06-27T16:57:09.164Z</time>
      </trkpt>
      <trkpt lat="45.49912" lon="5.05117">
        <ele>296.2</ele>
        <time>2024-06-27T16:57:12.801Z</time>
      </trkpt>
      <trkpt lat="45.499" lon="5.05081">
        <ele>296.4</ele>
        <time>2024-06-27T16:57:16.444Z</time>
      </trkpt>
      <trkpt lat="45.49875" lon="5.05006">
        <ele>294.5</ele>
        <time>2024-06-27T16:57:20.098Z</time>
      </trkpt>
      <trkpt lat="45.49869" lon="5.04987">
        <ele>294</ele>
        <time>2024-06-27T16:57:23.755Z</time>
      </trkpt>
      <trkpt lat="45.49862" lon="5.04967">
        <ele>294.7</ele>
        <time>2024-06-27T16:57:27.415Z</time>
      </trkpt>
      <trkpt lat="45.4984" lon="5.04901">
        <ele>294.9</ele>
        <time>2024-06-27T16:57:31.085Z</time>
      </trkpt>
      <trkpt lat="45.49833" lon="5.04883">
        <ele>294.2</ele>
        <time>2024-06-27T16:57:34.758Z</time>
      </trkpt>
      <trkpt lat="45.49809" lon="5.04819">
        <ele>292.9</ele>
        <time>2024-06-27T16:57:38.441Z</time>
      </trkpt>
      <trkpt lat="45.49802" lon="5.048">
        <ele>292.3</ele>
        <time>2024-06-27T16:57:42.126Z</time>
      </trkpt>
      <trkpt lat="45.49774" lon="5.04729">
        <ele>292</ele>
        <time>2024-06-27T16:57:45.823Z</time>
      </trkpt>
      <trkpt lat="45.49767" lon="5.0471">
        <ele>292</ele>
        <time>2024-06-27T16:57:49.522Z</time>
      </trkpt>
      <trkpt lat="45.49757" lon="5.04683">
        <ele>291.3</ele>
        <time>2024-06-27T16:57:53.226Z</time>
      </trkpt>
      <trkpt lat="45.49738" lon="5.04638">
        <ele>289.6</ele>
        <time>2024-06-27T16:57:56.937Z</time>
      </trkpt>
      <trkpt lat="45.49711" lon="5.04566">
        <ele>289.4</ele>
        <time>2024-06-27T16:58:00.659Z</time>
      </trkpt>
      <trkpt lat="45.49694" lon="5.04522">
        <ele>290</ele>
        <time>2024-06-27T16:58:04.388Z</time>
      </trkpt>
      <trkpt lat="45.49688" lon="5.04506">
        <ele>290.2</ele>
        <time>2024-06-27T16:58:08.119Z</time>
      </trkpt>
      <trkpt lat="45.49683" lon="5.045">
        <ele>290.4</ele>
        <time>2024-06-27T16:58:11.851Z</time>
      </trkpt>
      <trkpt lat="45.49673" lon="5.04503">
        <ele>290.4</ele>
        <time>2024-06-27T16:58:15.586Z</time>
      </trkpt>
      <trkpt lat="45.49644" lon="5.0452">
        <ele>290.8</ele>
        <time>2024-06-27T16:58:19.327Z</time>
      </trkpt>
      <trkpt lat="45.49632" lon="5.04526">
        <ele>291</ele>
        <time>2024-06-27T16:58:23.070Z</time>
      </trkpt>
      <trkpt lat="45.49625" lon="5.0453">
        <ele>291</ele>
        <time>2024-06-27T16:58:26.815Z</time>
      </trkpt>
      <trkpt lat="45.49618" lon="5.04535">
        <ele>291</ele>
        <time>2024-06-27T16:58:30.561Z</time>
      </trkpt>
      <trkpt lat="45.49606" lon="5.04541">
        <ele>291.1</ele>
        <time>2024-06-27T16:58:34.309Z</time>
      </trkpt>
      <trkpt lat="45.49598" lon="5.04546">
        <ele>291.6</ele>
        <time>2024-06-27T16:58:38.059Z</time>
      </trkpt>
      <trkpt lat="45.4959" lon="5.0455">
        <ele>292</ele>
        <time>2024-06-27T16:58:41.811Z</time>
      </trkpt>
      <trkpt lat="45.49581" lon="5.04554">
        <ele>292</ele>
        <time>2024-06-27T16:58:45.565Z</time>
      </trkpt>
      <trkpt lat="45.49563" lon="5.04563">
        <ele>292.4</ele>
        <time>2024-06-27T16:58:49.322Z</time>
      </trkpt>
      <trkpt lat="45.49558" lon="5.04565">
        <ele>292.7</ele>
        <time>2024-06-27T16:58:53.080Z</time>
      </trkpt>
      <trkpt lat="45.49549" lon="5.0457">
        <ele>292.8</ele>
        <time>2024-06-27T16:58:56.840Z</time>
      </trkpt>
      <trkpt lat="45.4953" lon="5.04579">
        <ele>292.1</ele>
        <time>2024-06-27T16:59:00.604Z</time>
      </trkpt>
      <trkpt lat="45.49522" lon="5.04583">
        <ele>291.8</ele>
        <time>2024-06-27T16:59:04.370Z</time>
      </trkpt>
      <trkpt lat="45.49515" lon="5.04586">
        <ele>291.5</ele>
        <time>2024-06-27T16:59:08.137Z</time>
      </trkpt>
      <trkpt lat="45.49509" lon="5.04591">
        <ele>291.3</ele>
        <time>2024-06-27T16:59:11.906Z</time>
      </trkpt>
      <trkpt lat="45.49501" lon="5.04594">
        <ele>291</ele>
        <time>2024-06-27T16:59:15.676Z</time>
      </trkpt>
      <trkpt lat="45.49484" lon="5.04602">
        <ele>291</ele>
        <time>2024-06-27T16:59:19.450Z</time>
      </trkpt>
      <trkpt lat="45.49449" lon="5.04619">
        <ele>291.3</ele>
        <time>2024-06-27T16:59:23.231Z</time>
      </trkpt>
      <trkpt lat="45.49444" lon="5.04621">
        <ele>291.2</ele>
        <time>2024-06-27T16:59:27.013Z</time>
      </trkpt>
      <trkpt lat="45.49434" lon="5.04626">
        <ele>290.6</ele>
        <time>2024-06-27T16:59:30.797Z</time>
      </trkpt>
      <trkpt lat="45.49413" lon="5.04637">
        <ele>289.9</ele>
        <time>2024-06-27T16:59:34.585Z</time>
      </trkpt>
      <trkpt lat="45.49403" lon="5.04642">
        <ele>289.5</ele>
        <time>2024-06-27T16:59:38.375Z</time>
      </trkpt>
      <trkpt lat="45.49397" lon="5.04645">
        <ele>289.3</ele>
        <time>2024-06-27T16:59:42.166Z</time>
      </trkpt>
      <trkpt lat="45.49392" lon="5.04647">
        <ele>289.1</ele>
        <time>2024-06-27T16:59:45.958Z</time>
      </trkpt>
      <trkpt lat="45.49357" lon="5.04664">
        <ele>288.9</ele>
        <time>2024-06-27T16:59:49.758Z</time>
      </trkpt>
      <trkpt lat="45.49346" lon="5.04668">
        <ele>288.5</ele>
        <time>2024-06-27T16:59:53.560Z</time>
      </trkpt>
      <trkpt lat="45.49344" lon="5.04668">
        <ele>288.5</ele>
        <time>2024-06-27T16:59:57.362Z</time>
      </trkpt>
      <trkpt lat="45.49341" lon="5.04668">
        <ele>288.5</ele>
        <time>2024-06-27T17:00:01.165Z</time>
      </trkpt>
      <trkpt lat="45.4934" lon="5.04668">
        <ele>288.5</ele>
        <time>2024-06-27T17:00:04.968Z</time>
      </trkpt>
      <trkpt lat="45.49332" lon="5.04674">
        <ele>288.7</ele>
        <time>2024-06-27T17:00:08.773Z</time>
      </trkpt>
      <trkpt lat="45.49323" lon="5.0468">
        <ele>288.9</ele>
        <time>2024-06-27T17:00:12.580Z</time>
      </trkpt>
      <trkpt lat="45.49314" lon="5.04683">
        <ele>289.1</ele>
        <time>2024-06-27T17:00:16.388Z</time>
      </trkpt>
      <trkpt lat="45.49291" lon="5.0469">
        <ele>289.8</ele>
        <time>2024-06-27T17:00:20.201Z</time>
      </trkpt>
      <trkpt lat="45.4928" lon="5.04694">
        <ele>290</ele>
        <time>2024-06-27T17:00:24.016Z</time>
      </trkpt>
      <trkpt lat="45.49241" lon="5.04707">
        <ele>290.9</ele>
        <time>2024-06-27T17:00:27.839Z</time>
      </trkpt>
      <trkpt lat="45.49212" lon="5.04716">
        <ele>290.9</ele>
        <time>2024-06-27T17:00:31.668Z</time>
      </trkpt>
      <trkpt lat="45.492" lon="5.04721">
        <ele>290.4</ele>
        <time>2024-06-27T17:00:35.499Z</time>
      </trkpt>
      <trkpt lat="45.49153" lon="5.04735">
        <ele>288.9</ele>
        <time>2024-06-27T17:00:39.339Z</time>
      </trkpt>
      <trkpt lat="45.49143" lon="5.0474">
        <ele>289.1</ele>
        <time>2024-06-27T17:00:43.182Z</time>
      </trkpt>
      <trkpt lat="45.49122" lon="5.04747">
        <ele>289.9</ele>
        <time>2024-06-27T17:00:47.029Z</time>
      </trkpt>
      <trkpt lat="45.49107" lon="5.04752">
        <ele>290.7</ele>
        <time>2024-06-27T17:00:50.879Z</time>
      </trkpt>
      <trkpt lat="45.49086" lon="5.04759">
        <ele>291.7</ele>
        <time>2024-06-27T17:00:54.733Z</time>
      </trkpt>
      <trkpt lat="45.49081" lon="5.0476">
        <ele>291.8</ele>
        <time>2024-06-27T17:00:58.588Z</time>
      </trkpt>
      <trkpt lat="45.49076" lon="5.04762">
        <ele>291.7</ele>
        <time>2024-06-27T17:01:02.444Z</time>
      </trkpt>
      <trkpt lat="45.4907" lon="5.04764">
        <ele>291.5</ele>
        <time>2024-06-27T17:01:06.301Z</time>
      </trkpt>
      <trkpt lat="45.49054" lon="5.04768">
        <ele>291</ele>
        <time>2024-06-27T17:01:10.161Z</time>
      </trkpt>
      <trkpt lat="45.49049" lon="5.0477">
        <ele>290.8</ele>
        <time>2024-06-27T17:01:14.022Z</time>
      </trkpt>
      <trkpt lat="45.49038" lon="5.04773">
        <ele>290.4</ele>
        <time>2024-06-27T17:01:17.885Z</time>
      </trkpt>
      <trkpt lat="45.49022" lon="5.04777">
        <ele>290</ele>
        <time>2024-06-27T17:01:21.751Z</time>
      </trkpt>
      <trkpt lat="45.49017" lon="5.04779">
        <ele>290</ele>
        <time>2024-06-27T17:01:25.619Z</time>
      </trkpt>
      <trkpt lat="45.49006" lon="5.04782">
        <ele>290</ele>
        <time>2024-06-27T17:01:29.489Z</time>
      </trkpt>
      <trkpt lat="45.48981" lon="5.04791">
        <ele>290.7</ele>
        <time>2024-06-27T17:01:33.364Z</time>
      </trkpt>
      <trkpt lat="45.48971" lon="5.04794">
        <ele>291</ele>
        <time>2024-06-27T17:01:37.241Z</time>
      </trkpt>
      <trkpt lat="45.48951" lon="5.048">
        <ele>290.7</ele>
        <time>2024-06-27T17:01:41.121Z</time>
      </trkpt>
      <trkpt lat="45.48946" lon="5.04802">
        <ele>290.7</ele>
        <time>2024-06-27T17:01:45.003Z</time>
      </trkpt>
      <trkpt lat="45.4893" lon="5.04807">
        <ele>290.5</ele>
        <time>2024-06-27T17:01:48.888Z</time>
      </trkpt>
      <trkpt lat="45.48925" lon="5.04808">
        <ele>290.7</ele>
        <time>2024-06-27T17:01:52.774Z</time>
      </trkpt>
      <trkpt lat="45.48909" lon="5.04813">
        <ele>290.7</ele>
        <time>2024-06-27T17:01:56.663Z</time>
      </trkpt>
      <trkpt lat="45.48871" lon="5.04826">
        <ele>290.2</ele>
        <time>2024-06-27T17:02:00.559Z</time>
      </trkpt>
      <trkpt lat="45.48865" lon="5.04828">
        <ele>290.3</ele>
        <time>2024-06-27T17:02:04.457Z</time>
      </trkpt>
      <trkpt lat="45.48822" lon="5.04844">
        <ele>290.8</ele>
        <time>2024-06-27T17:02:08.363Z</time>
      </trkpt>
      <trkpt lat="45.48811" lon="5.04847">
        <ele>290.9</ele>
        <time>2024-06-27T17:02:12.271Z</time>
      </trkpt>
      <trkpt lat="45.48761" lon="5.04866">
        <ele>290.6</ele>
        <time>2024-06-27T17:02:16.189Z</time>
      </trkpt>
      <trkpt lat="45.4874" lon="5.04873">
        <ele>291.1</ele>
        <time>2024-06-27T17:02:20.112Z</time>
      </trkpt>
      <trkpt lat="45.48735" lon="5.04875">
        <ele>291</ele>
        <time>2024-06-27T17:02:24.036Z</time>
      </trkpt>
      <trkpt lat="45.48715" lon="5.04882">
        <ele>291.5</ele>
        <time>2024-06-27T17:02:27.964Z</time>
      </trkpt>
      <trkpt lat="45.48699" lon="5.04888">
        <ele>292.2</ele>
        <time>2024-06-27T17:02:31.895Z</time>
      </trkpt>
      <trkpt lat="45.48694" lon="5.04889">
        <ele>292.5</ele>
        <time>2024-06-27T17:02:35.827Z</time>
      </trkpt>
      <trkpt lat="45.48684" lon="5.04893">
        <ele>292.6</ele>
        <time>2024-06-27T17:02:39.761Z</time>
      </trkpt>
      <trkpt lat="45.48672" lon="5.04896">
        <ele>292.7</ele>
        <time>2024-06-27T17:02:43.697Z</time>
      </trkpt>
      <trkpt lat="45.48667" lon="5.04898">
        <ele>292.8</ele>
        <time>2024-06-27T17:02:47.634Z</time>
      </trkpt>
      <trkpt lat="45.48661" lon="5.049">
        <ele>292.8</ele>
        <time>2024-06-27T17:02:51.572Z</time>
      </trkpt>
      <trkpt lat="45.48656" lon="5.04902">
        <ele>292.6</ele>
        <time>2024-06-27T17:02:55.511Z</time>
      </trkpt>
      <trkpt lat="45.48645" lon="5.04906">
        <ele>292.2</ele>
        <time>2024-06-27T17:02:59.453Z</time>
      </trkpt>
      <trkpt lat="45.48623" lon="5.04915">
        <ele>292</ele>
        <time>2024-06-27T17:03:03.399Z</time>
      </trkpt>
      <trkpt lat="45.48587" lon="5.04928">
        <ele>292.6</ele>
        <time>2024-06-27T17:03:07.352Z</time>
      </trkpt>
      <trkpt lat="45.48581" lon="5.0493">
        <ele>293</ele>
        <time>2024-06-27T17:03:11.306Z</time>
      </trkpt>
      <trkpt lat="45.48557" lon="5.04938">
        <ele>294.2</ele>
        <time>2024-06-27T17:03:15.265Z</time>
      </trkpt>
      <trkpt lat="45.48553" lon="5.04941">
        <ele>295</ele>
        <time>2024-06-27T17:03:19.225Z</time>
      </trkpt>
      <trkpt lat="45.4855" lon="5.04944">
        <ele>295.8</ele>
        <time>2024-06-27T17:03:23.186Z</time>
      </trkpt>
      <trkpt lat="45.48548" lon="5.04949">
        <ele>296.5</ele>
        <time>2024-06-27T17:03:27.147Z</time>
      </trkpt>
      <trkpt lat="45.48548" lon="5.04954">
        <ele>296.9</ele>
        <time>2024-06-27T17:03:31.109Z</time>
      </trkpt>
      <trkpt lat="45.4855" lon="5.04977">
        <ele>297.5</ele>
        <time>2024-06-27T17:03:35.074Z</time>
      </trkpt>
      <trkpt lat="45.4855" lon="5.04989">
        <ele>298.6</ele>
        <time>2024-06-27T17:03:39.041Z</time>
      </trkpt>
      <trkpt lat="45.48556" lon="5.05029">
        <ele>301.3</ele>
        <time>2024-06-27T17:03:43.013Z</time>
      </trkpt>
      <trkpt lat="45.48557" lon="5.05034">
        <ele>301.6</ele>
        <time>2024-06-27T17:03:46.986Z</time>
      </trkpt>
      <trkpt lat="45.48572" lon="5.05066">
        <ele>301.7</ele>
        <time>2024-06-27T17:03:50.965Z</time>
      </trkpt>
      <trkpt lat="45.48579" lon="5.05077">
        <ele>301.6</ele>
        <time>2024-06-27T17:03:54.945Z</time>
      </trkpt>
      <trkpt lat="45.48596" lon="5.05104">
        <ele>304.1</ele>
        <time>2024-06-27T17:03:58.930Z</time>
      </trkpt>
      <trkpt lat="45.48607" lon="5.05129">
        <ele>306.5</ele>
        <time>2024-06-27T17:04:02.919Z</time>
      </trkpt>
      <trkpt lat="45.48608" lon="5.05136">
        <ele>306.6</ele>
        <time>2024-06-27T17:04:06.909Z</time>
      </trkpt>
      <trkpt lat="45.48609" lon="5.05143">
        <ele>306.8</ele>
        <time>2024-06-27T17:04:10.900Z</time>
      </trkpt>
      <trkpt lat="45.48609" lon="5.05151">
        <ele>307.1</ele>
        <time>2024-06-27T17:04:14.892Z</time>
      </trkpt>
      <trkpt lat="45.48608" lon="5.05158">
        <ele>306.7</ele>
        <time>2024-06-27T17:04:18.885Z</time>
      </trkpt>
      <trkpt lat="45.48607" lon="5.05164">
        <ele>305.9</ele>
        <time>2024-06-27T17:04:22.879Z</time>
      </trkpt>
      <trkpt lat="45.48605" lon="5.0517">
        <ele>305.1</ele>
        <time>2024-06-27T17:04:26.874Z</time>
      </trkpt>
      <trkpt lat="45.48601" lon="5.05181">
        <ele>303.5</ele>
        <time>2024-06-27T17:04:30.871Z</time>
      </trkpt>
      <trkpt lat="45.48601" lon="5.05186">
        <ele>302.9</ele>
        <time>2024-06-27T17:04:34.869Z</time>
      </trkpt>
      <trkpt lat="45.48602" lon="5.05191">
        <ele>302.3</ele>
        <time>2024-06-27T17:04:38.867Z</time>
      </trkpt>
      <trkpt lat="45.48607" lon="5.05202">
        <ele>301</ele>
        <time>2024-06-27T17:04:42.867Z</time>
      </trkpt>
      <trkpt lat="45.48625" lon="5.05238">
        <ele>299</ele>
        <time>2024-06-27T17:04:46.873Z</time>
      </trkpt>
      <trkpt lat="45.48641" lon="5.05257">
        <ele>298.4</ele>
        <time>2024-06-27T17:04:50.883Z</time>
      </trkpt>
      <trkpt lat="45.48654" lon="5.05271">
        <ele>298.4</ele>
        <time>2024-06-27T17:04:54.896Z</time>
      </trkpt>
      <trkpt lat="45.48658" lon="5.05276">
        <ele>298.3</ele>
        <time>2024-06-27T17:04:58.910Z</time>
      </trkpt>
      <trkpt lat="45.48664" lon="5.05287">
        <ele>298.1</ele>
        <time>2024-06-27T17:05:02.926Z</time>
      </trkpt>
      <trkpt lat="45.48667" lon="5.05294">
        <ele>298</ele>
        <time>2024-06-27T17:05:06.943Z</time>
      </trkpt>
      <trkpt lat="45.48669" lon="5.053">
        <ele>297.8</ele>
        <time>2024-06-27T17:05:10.961Z</time>
      </trkpt>
      <trkpt lat="45.48677" lon="5.05353">
        <ele>296</ele>
        <time>2024-06-27T17:05:14.987Z</time>
      </trkpt>
      <trkpt lat="45.48681" lon="5.05388">
        <ele>296.9</ele>
        <time>2024-06-27T17:05:19.017Z</time>
      </trkpt>
      <trkpt lat="45.48683" lon="5.05401">
        <ele>297.3</ele>
        <time>2024-06-27T17:05:23.049Z</time>
      </trkpt>
      <trkpt lat="45.48684" lon="5.05409">
        <ele>297.4</ele>
        <time>2024-06-27T17:05:27.082Z</time>
      </trkpt>
      <trkpt lat="45.48688" lon="5.05443">
        <ele>297.8</ele>
        <time>2024-06-27T17:05:31.120Z</time>
      </trkpt>
      <trkpt lat="45.4869" lon="5.05457">
        <ele>298.2</ele>
        <time>2024-06-27T17:05:35.160Z</time>
      </trkpt>
      <trkpt lat="45.4869" lon="5.05464">
        <ele>298.3</ele>
        <time>2024-06-27T17:05:39.201Z</time>
      </trkpt>
      <trkpt lat="45.48696" lon="5.05516">
        <ele>297.9</ele>
        <time>2024-06-27T17:05:43.249Z</time>
      </trkpt>
      <trkpt lat="45.48706" lon="5.05595">
        <ele>300</ele>
        <time>2024-06-27T17:05:47.308Z</time>
      </trkpt>
      <trkpt lat="45.48714" lon="5.05671">
        <ele>299.3</ele>
        <time>2024-06-27T17:05:51.378Z</time>
      </trkpt>
      <trkpt lat="45.48715" lon="5.05678">
        <ele>298.8</ele>
        <time>2024-06-27T17:05:55.449Z</time>
      </trkpt>
      <trkpt lat="45.4872" lon="5.05725">
        <ele>297.8</ele>
        <time>2024-06-27T17:05:59.526Z</time>
      </trkpt>
      <trkpt lat="45.48721" lon="5.05732">
        <ele>297.9</ele>
        <time>2024-06-27T17:06:03.604Z</time>
      </trkpt>
      <trkpt lat="45.48728" lon="5.05799">
        <ele>300.2</ele>
        <time>2024-06-27T17:06:07.691Z</time>
      </trkpt>
      <trkpt lat="45.48733" lon="5.0584">
        <ele>302.5</ele>
        <time>2024-06-27T17:06:11.784Z</time>
      </trkpt>
      <trkpt lat="45.48734" lon="5.05846">
        <ele>302.6</ele>
        <time>2024-06-27T17:06:15.878Z</time>
      </trkpt>
      <trkpt lat="45.48734" lon="5.05853">
        <ele>302.5</ele>
        <time>2024-06-27T17:06:19.973Z</time>
      </trkpt>
      <trkpt lat="45.48736" lon="5.05866">
        <ele>302.2</ele>
        <time>2024-06-27T17:06:24.069Z</time>
      </trkpt>
      <trkpt lat="45.48739" lon="5.05886">
        <ele>302.3</ele>
        <time>2024-06-27T17:06:28.168Z</time>
      </trkpt>
      <trkpt lat="45.4874" lon="5.05892">
        <ele>302.1</ele>
        <time>2024-06-27T17:06:32.268Z</time>
      </trkpt>
      <trkpt lat="45.48749" lon="5.05951">
        <ele>301.8</ele>
        <time>2024-06-27T17:06:36.376Z</time>
      </trkpt>
      <trkpt lat="45.4875" lon="5.05958">
        <ele>301.9</ele>
        <time>2024-06-27T17:06:40.485Z</time>
      </trkpt>
      <trkpt lat="45.4876" lon="5.06024">
        <ele>303.8</ele>
        <time>2024-06-27T17:06:44.603Z</time>
      </trkpt>
      <trkpt lat="45.48764" lon="5.0605">
        <ele>304.9</ele>
        <time>2024-06-27T17:06:48.725Z</time>
      </trkpt>
      <trkpt lat="45.4877" lon="5.06095">
        <ele>307.8</ele>
        <time>2024-06-27T17:06:52.853Z</time>
      </trkpt>
      <trkpt lat="45.48772" lon="5.06119">
        <ele>309.2</ele>
        <time>2024-06-27T17:06:56.985Z</time>
      </trkpt>
      <trkpt lat="45.48773" lon="5.06126">
        <ele>309.7</ele>
        <time>2024-06-27T17:07:01.118Z</time>
      </trkpt>
      <trkpt lat="45.48775" lon="5.06138">
        <ele>309.8</ele>
        <time>2024-06-27T17:07:05.252Z</time>
      </trkpt>
      <trkpt lat="45.48776" lon="5.06144">
        <ele>309.8</ele>
        <time>2024-06-27T17:07:09.387Z</time>
      </trkpt>
      <trkpt lat="45.48779" lon="5.06169">
        <ele>310.2</ele>
        <time>2024-06-27T17:07:13.526Z</time>
      </trkpt>
      <trkpt lat="45.48781" lon="5.06189">
        <ele>310.1</ele>
        <time>2024-06-27T17:07:17.667Z</time>
      </trkpt>
      <trkpt lat="45.48783" lon="5.06202">
        <ele>309.6</ele>
        <time>2024-06-27T17:07:21.810Z</time>
      </trkpt>
      <trkpt lat="45.48784" lon="5.06216">
        <ele>309.3</ele>
        <time>2024-06-27T17:07:25.955Z</time>
      </trkpt>
      <trkpt lat="45.48789" lon="5.06263">
        <ele>309.7</ele>
        <time>2024-06-27T17:07:30.107Z</time>
      </trkpt>
      <trkpt lat="45.48791" lon="5.06294">
        <ele>314.1</ele>
        <time>2024-06-27T17:07:34.263Z</time>
      </trkpt>
      <trkpt lat="45.48794" lon="5.06325">
        <ele>315.4</ele>
        <time>2024-06-27T17:07:38.423Z</time>
      </trkpt>
      <trkpt lat="45.48798" lon="5.0637">
        <ele>315.1</ele>
        <time>2024-06-27T17:07:42.589Z</time>
      </trkpt>
      <trkpt lat="45.48802" lon="5.06396">
        <ele>315</ele>
        <time>2024-06-27T17:07:46.759Z</time>
      </trkpt>
      <trkpt lat="45.48805" lon="5.06427">
        <ele>314.9</ele>
        <time>2024-06-27T17:07:50.933Z</time>
      </trkpt>
      <trkpt lat="45.48809" lon="5.06449">
        <ele>315.1</ele>
        <time>2024-06-27T17:07:55.110Z</time>
      </trkpt>
      <trkpt lat="45.48813" lon="5.06459">
        <ele>314.7</ele>
        <time>2024-06-27T17:07:59.289Z</time>
      </trkpt>
      <trkpt lat="45.48818" lon="5.06483">
        <ele>314.6</ele>
        <time>2024-06-27T17:08:03.471Z</time>
      </trkpt>
      <trkpt lat="45.4882" lon="5.06503">
        <ele>314.3</ele>
        <time>2024-06-27T17:08:07.656Z</time>
      </trkpt>
      <trkpt lat="45.48825" lon="5.06524">
        <ele>313.9</ele>
        <time>2024-06-27T17:08:11.844Z</time>
      </trkpt>
      <trkpt lat="45.4883" lon="5.06557">
        <ele>314.2</ele>
        <time>2024-06-27T17:08:16.036Z</time>
      </trkpt>
      <trkpt lat="45.48832" lon="5.06568">
        <ele>314.1</ele>
        <time>2024-06-27T17:08:20.230Z</time>
      </trkpt>
      <trkpt lat="45.48835" lon="5.0659">
        <ele>313.8</ele>
        <time>2024-06-27T17:08:24.427Z</time>
      </trkpt>
      <trkpt lat="45.48836" lon="5.06601">
        <ele>313.7</ele>
        <time>2024-06-27T17:08:28.626Z</time>
      </trkpt>
      <trkpt lat="45.48839" lon="5.06612">
        <ele>313.1</ele>
        <time>2024-06-27T17:08:32.826Z</time>
      </trkpt>
      <trkpt lat="45.48855" lon="5.06662">
        <ele>311.9</ele>
        <time>2024-06-27T17:08:37.034Z</time>
      </trkpt>
      <trkpt lat="45.48863" lon="5.06699">
        <ele>313.4</ele>
        <time>2024-06-27T17:08:41.247Z</time>
      </trkpt>
      <trkpt lat="45.48864" lon="5.06714">
        <ele>313.8</ele>
        <time>2024-06-27T17:08:45.462Z</time>
      </trkpt>
      <trkpt lat="45.48866" lon="5.0674">
        <ele>313.6</ele>
        <time>2024-06-27T17:08:49.681Z</time>
      </trkpt>
      <trkpt lat="45.48867" lon="5.0675">
        <ele>313.8</ele>
        <time>2024-06-27T17:08:53.901Z</time>
      </trkpt>
      <trkpt lat="45.48869" lon="5.06769">
        <ele>314.3</ele>
        <time>2024-06-27T17:08:58.124Z</time>
      </trkpt>
      <trkpt lat="45.48871" lon="5.06788">
        <ele>315.1</ele>
        <time>2024-06-27T17:09:02.349Z</time>
      </trkpt>
      <trkpt lat="45.48872" lon="5.06798">
        <ele>315.5</ele>
        <time>2024-06-27T17:09:06.576Z</time>
      </trkpt>
      <trkpt lat="45.48876" lon="5.06819">
        <ele>316.4</ele>
        <time>2024-06-27T17:09:10.805Z</time>
      </trkpt>
      <trkpt lat="45.48877" lon="5.06824">
        <ele>316.5</ele>
        <time>2024-06-27T17:09:15.035Z</time>
      </trkpt>
      <trkpt lat="45.4888" lon="5.06841">
        <ele>317</ele>
        <time>2024-06-27T17:09:19.268Z</time>
      </trkpt>
      <trkpt lat="45.48881" lon="5.06847">
        <ele>317.2</ele>
        <time>2024-06-27T17:09:23.501Z</time>
      </trkpt>
      <trkpt lat="45.48882" lon="5.06853">
        <ele>317.4</ele>
        <time>2024-06-27T17:09:27.735Z</time>
      </trkpt>
      <trkpt lat="45.48885" lon="5.06878">
        <ele>318.1</ele>
        <time>2024-06-27T17:09:31.973Z</time>
      </trkpt>
      <trkpt lat="45.48886" lon="5.06887">
        <ele>318.1</ele>
        <time>2024-06-27T17:09:36.212Z</time>
      </trkpt>
      <trkpt lat="45.48886" lon="5.06887">
        <ele>318.1</ele>
        <time>2024-06-27T17:09:40.451Z</time>
      </trkpt>
      <trkpt lat="45.48888" lon="5.06909">
        <ele>318.2</ele>
        <time>2024-06-27T17:09:44.693Z</time>
      </trkpt>
      <trkpt lat="45.48888" lon="5.06911">
        <ele>318.3</ele>
        <time>2024-06-27T17:09:48.935Z</time>
      </trkpt>
      <trkpt lat="45.4889" lon="5.06934">
        <ele>318.8</ele>
        <time>2024-06-27T17:09:53.180Z</time>
      </trkpt>
      <trkpt lat="45.48892" lon="5.06969">
        <ele>317.2</ele>
        <time>2024-06-27T17:09:57.430Z</time>
      </trkpt>
      <trkpt lat="45.48894" lon="5.06981">
        <ele>317.6</ele>
        <time>2024-06-27T17:10:01.682Z</time>
      </trkpt>
      <trkpt lat="45.48896" lon="5.06997">
        <ele>318.6</ele>
        <time>2024-06-27T17:10:05.936Z</time>
      </trkpt>
      <trkpt lat="45.48896" lon="5.07003">
        <ele>319.1</ele>
        <time>2024-06-27T17:10:10.191Z</time>
      </trkpt>
      <trkpt lat="45.48897" lon="5.07019">
        <ele>320.2</ele>
        <time>2024-06-27T17:10:14.448Z</time>
      </trkpt>
      <trkpt lat="45.48899" lon="5.0703">
        <ele>321</ele>
        <time>2024-06-27T17:10:18.707Z</time>
      </trkpt>
      <trkpt lat="45.489" lon="5.07041">
        <ele>321.8</ele>
        <time>2024-06-27T17:10:22.967Z</time>
      </trkpt>
      <trkpt lat="45.48905" lon="5.07069">
        <ele>323.2</ele>
        <time>2024-06-27T17:10:27.231Z</time>
      </trkpt>
      <trkpt lat="45.48906" lon="5.07074">
        <ele>323.5</ele>
        <time>2024-06-27T17:10:31.496Z</time>
      </trkpt>
      <trkpt lat="45.48911" lon="5.07106">
        <ele>324.2</ele>
        <time>2024-06-27T17:10:35.765Z</time>
      </trkpt>
      <trkpt lat="45.48913" lon="5.07117">
        <ele>324.1</ele>
        <time>2024-06-27T17:10:40.036Z</time>
      </trkpt>
      <trkpt lat="45.48918" lon="5.0714">
        <ele>323.9</ele>
        <time>2024-06-27T17:10:44.310Z</time>
      </trkpt>
      <trkpt lat="45.48923" lon="5.07169">
        <ele>324.3</ele>
        <time>2024-06-27T17:10:48.588Z</time>
      </trkpt>
      <trkpt lat="45.48923" lon="5.07175">
        <ele>324.7</ele>
        <time>2024-06-27T17:10:52.867Z</time>
      </trkpt>
      <trkpt lat="45.48928" lon="5.07206">
        <ele>326.4</ele>
        <time>2024-06-27T17:10:57.150Z</time>
      </trkpt>
      <trkpt lat="45.48929" lon="5.07213">
        <ele>326.6</ele>
        <time>2024-06-27T17:11:01.434Z</time>
      </trkpt>
      <trkpt lat="45.4893" lon="5.0722">
        <ele>326.9</ele>
        <time>2024-06-27T17:11:05.719Z</time>
      </trkpt>
      <trkpt lat="45.48931" lon="5.07226">
        <ele>327</ele>
        <time>2024-06-27T17:11:10.005Z</time>
      </trkpt>
      <trkpt lat="45.48935" lon="5.07245">
        <ele>327.6</ele>
        <time>2024-06-27T17:11:14.294Z</time>
      </trkpt>
      <trkpt lat="45.48937" lon="5.07251">
        <ele>327.7</ele>
        <time>2024-06-27T17:11:18.584Z</time>
      </trkpt>
      <trkpt lat="45.48939" lon="5.07256">
        <ele>327.8</ele>
        <time>2024-06-27T17:11:22.874Z</time>
      </trkpt>
      <trkpt lat="45.4894" lon="5.07261">
        <ele>328</ele>
        <time>2024-06-27T17:11:27.165Z</time>
      </trkpt>
      <trkpt lat="45.48943" lon="5.07286">
        <ele>328</ele>
        <time>2024-06-27T17:11:31.460Z</time>
      </trkpt>
      <trkpt lat="45.48945" lon="5.07305">
        <ele>328.3</ele>
        <time>2024-06-27T17:11:35.757Z</time>
      </trkpt>
      <trkpt lat="45.48947" lon="5.07318">
        <ele>328.7</ele>
        <time>2024-06-27T17:11:40.056Z</time>
      </trkpt>
      <trkpt lat="45.48949" lon="5.07327">
        <ele>329</ele>
        <time>2024-06-27T17:11:44.356Z</time>
      </trkpt>
      <trkpt lat="45.48953" lon="5.07345">
        <ele>329.5</ele>
        <time>2024-06-27T17:11:48.659Z</time>
      </trkpt>
      <trkpt lat="45.48958" lon="5.07365">
        <ele>330.1</ele>
        <time>2024-06-27T17:11:52.965Z</time>
      </trkpt>
      <trkpt lat="45.48964" lon="5.07386">
        <ele>331.2</ele>
        <time>2024-06-27T17:11:57.274Z</time>
      </trkpt>
      <trkpt lat="45.48969" lon="5.07403">
        <ele>332.1</ele>
        <time>2024-06-27T17:12:01.585Z</time>
      </trkpt>
      <trkpt lat="45.48978" lon="5.07429">
        <ele>331.8</ele>
        <time>2024-06-27T17:12:05.900Z</time>
      </trkpt>
      <trkpt lat="45.48981" lon="5.07442">
        <ele>331.7</ele>
        <time>2024-06-27T17:12:10.217Z</time>
      </trkpt>
      <trkpt lat="45.4899" lon="5.07478">
        <ele>332</ele>
        <time>2024-06-27T17:12:14.539Z</time>
      </trkpt>
      <trkpt lat="45.48999" lon="5.0752">
        <ele>332.2</ele>
        <time>2024-06-27T17:12:18.867Z</time>
      </trkpt>
      <trkpt lat="45.49006" lon="5.07553">
        <ele>331.2</ele>
        <time>2024-06-27T17:12:23.200Z</time>
      </trkpt>
      <trkpt lat="45.4901" lon="5.07572">
        <ele>330.3</ele>
        <time>2024-06-27T17:12:27.536Z</time>
      </trkpt>
      <trkpt lat="45.49014" lon="5.0759">
        <ele>330.6</ele>
        <time>2024-06-27T17:12:31.874Z</time>
      </trkpt>
      <trkpt lat="45.49018" lon="5.07606">
        <ele>330.9</ele>
        <time>2024-06-27T17:12:36.215Z</time>
      </trkpt>
      <trkpt lat="45.4902" lon="5.07615">
        <ele>331.1</ele>
        <time>2024-06-27T17:12:40.557Z</time>
      </trkpt>
      <trkpt lat="45.49024" lon="5.07625">
        <ele>331.2</ele>
        <time>2024-06-27T17:12:44.901Z</time>
      </trkpt>
      <trkpt lat="45.4903" lon="5.07639">
        <ele>331.3</ele>
        <time>2024-06-27T17:12:49.247Z</time>
      </trkpt>
      <trkpt lat="45.49032" lon="5.07647">
        <ele>331.5</ele>
        <time>2024-06-27T17:12:53.594Z</time>
      </trkpt>
      <trkpt lat="45.49038" lon="5.07665">
        <ele>330.7</ele>
        <time>2024-06-27T17:12:57.944Z</time>
      </trkpt>
      <trkpt lat="45.49042" lon="5.07683">
        <ele>330.8</ele>
        <time>2024-06-27T17:13:02.296Z</time>
      </trkpt>
      <trkpt lat="45.49046" lon="5.07702">
        <ele>329.8</ele>
        <time>2024-06-27T17:13:06.651Z</time>
      </trkpt>
      <trkpt lat="45.49051" lon="5.07722">
        <ele>329.7</ele>
        <time>2024-06-27T17:13:11.009Z</time>
      </trkpt>
      <trkpt lat="45.49055" lon="5.07733">
        <ele>328.7</ele>
        <time>2024-06-27T17:13:15.368Z</time>
      </trkpt>
      <trkpt lat="45.49058" lon="5.07744">
        <ele>328.1</ele>
        <time>2024-06-27T17:13:19.729Z</time>
      </trkpt>
      <trkpt lat="45.49062" lon="5.07755">
        <ele>326.9</ele>
        <time>2024-06-27T17:13:24.092Z</time>
      </trkpt>
      <trkpt lat="45.49074" lon="5.0779">
        <ele>323.5</ele>
        <time>2024-06-27T17:13:28.460Z</time>
      </trkpt>
      <trkpt lat="45.49078" lon="5.07802">
        <ele>323.2</ele>
        <time>2024-06-27T17:13:32.830Z</time>
      </trkpt>
      <trkpt lat="45.49088" lon="5.07825">
        <ele>323.4</ele>
        <time>2024-06-27T17:13:37.203Z</time>
      </trkpt>
      <trkpt lat="45.49105" lon="5.07855">
        <ele>322</ele>
        <time>2024-06-27T17:13:41.582Z</time>
      </trkpt>
      <trkpt lat="45.4912" lon="5.07882">
        <ele>321.5</ele>
        <time>2024-06-27T17:13:45.965Z</time>
      </trkpt>
      <trkpt lat="45.49129" lon="5.07899">
        <ele>321.6</ele>
        <time>2024-06-27T17:13:50.351Z</time>
      </trkpt>
      <trkpt lat="45.49138" lon="5.07928">
        <ele>321.1</ele>
        <time>2024-06-27T17:13:54.742Z</time>
      </trkpt>
      <trkpt lat="45.49142" lon="5.07946">
        <ele>321.2</ele>
        <time>2024-06-27T17:13:59.135Z</time>
      </trkpt>
      <trkpt lat="45.49146" lon="5.07964">
        <ele>321.6</ele>
        <time>2024-06-27T17:14:03.531Z</time>
      </trkpt>
      <trkpt lat="45.49149" lon="5.07981">
        <ele>322.4</ele>
        <time>2024-06-27T17:14:07.929Z</time>
      </trkpt>
      <trkpt lat="45.49154" lon="5.08006">
        <ele>322.4</ele>
        <time>2024-06-27T17:14:12.331Z</time>
      </trkpt>
      <trkpt lat="45.49155" lon="5.08014">
        <ele>322.6</ele>
        <time>2024-06-27T17:14:16.734Z</time>
      </trkpt>
      <trkpt lat="45.49161" lon="5.08037">
        <ele>321.8</ele>
        <time>2024-06-27T17:14:21.140Z</time>
      </trkpt>
      <trkpt lat="45.49164" lon="5.08052">
        <ele>321.6</ele>
        <time>2024-06-27T17:14:25.548Z</time>
      </trkpt>
      <trkpt lat="45.49166" lon="5.0806">
        <ele>321.6</ele>
        <time>2024-06-27T17:14:29.957Z</time>
      </trkpt>
      <trkpt lat="45.4917" lon="5.08074">
        <ele>322</ele>
        <time>2024-06-27T17:14:34.369Z</time>
      </trkpt>
      <trkpt lat="45.49175" lon="5.08089">
        <ele>323.3</ele>
        <time>2024-06-27T17:14:38.783Z</time>
      </trkpt>
      <trkpt lat="45.49184" lon="5.08126">
        <ele>325.6</ele>
        <time>2024-06-27T17:14:43.202Z</time>
      </trkpt>
      <trkpt lat="45.49186" lon="5.08133">
        <ele>325.8</ele>
        <time>2024-06-27T17:14:47.622Z</time>
      </trkpt>
      <trkpt lat="45.49192" lon="5.08155">
        <ele>326.4</ele>
        <time>2024-06-27T17:14:52.045Z</time>
      </trkpt>
      <trkpt lat="45.49198" lon="5.08177">
        <ele>326.2</ele>
        <time>2024-06-27T17:14:56.472Z</time>
      </trkpt>
      <trkpt lat="45.49204" lon="5.08199">
        <ele>325.6</ele>
        <time>2024-06-27T17:15:00.902Z</time>
      </trkpt>
      <trkpt lat="45.49214" lon="5.08227">
        <ele>324.7</ele>
        <time>2024-06-27T17:15:05.336Z</time>
      </trkpt>
      <trkpt lat="45.49225" lon="5.08253">
        <ele>324.3</ele>
        <time>2024-06-27T17:15:09.774Z</time>
      </trkpt>
      <trkpt lat="45.49236" lon="5.08269">
        <ele>324.1</ele>
        <time>2024-06-27T17:15:14.215Z</time>
      </trkpt>
      <trkpt lat="45.49245" lon="5.08278">
        <ele>323.8</ele>
        <time>2024-06-27T17:15:18.658Z</time>
      </trkpt>
      <trkpt lat="45.4925" lon="5.08282">
        <ele>323.6</ele>
        <time>2024-06-27T17:15:23.102Z</time>
      </trkpt>
      <trkpt lat="45.49277" lon="5.0831">
        <ele>322.6</ele>
        <time>2024-06-27T17:15:27.553Z</time>
      </trkpt>
      <trkpt lat="45.49295" lon="5.08341">
        <ele>323.7</ele>
        <time>2024-06-27T17:15:32.009Z</time>
      </trkpt>
      <trkpt lat="45.49298" lon="5.08348">
        <ele>323.9</ele>
        <time>2024-06-27T17:15:36.467Z</time>
      </trkpt>
      <trkpt lat="45.4931" lon="5.08375">
        <ele>324.2</ele>
        <time>2024-06-27T17:15:40.929Z</time>
      </trkpt>
      <trkpt lat="45.49316" lon="5.08388">
        <ele>324</ele>
        <time>2024-06-27T17:15:45.393Z</time>
      </trkpt>
      <trkpt lat="45.49321" lon="5.08401">
        <ele>324</ele>
        <time>2024-06-27T17:15:49.859Z</time>
      </trkpt>
      <trkpt lat="45.49327" lon="5.08415">
        <ele>324</ele>
        <time>2024-06-27T17:15:54.327Z</time>
      </trkpt>
      <trkpt lat="45.49341" lon="5.08448">
        <ele>324</ele>
        <time>2024-06-27T17:15:58.801Z</time>
      </trkpt>
      <trkpt lat="45.49352" lon="5.08476">
        <ele>324.6</ele>
        <time>2024-06-27T17:16:03.279Z</time>
      </trkpt>
      <trkpt lat="45.49368" lon="5.08517">
        <ele>326</ele>
        <time>2024-06-27T17:16:07.763Z</time>
      </trkpt>
      <trkpt lat="45.49376" lon="5.08538">
        <ele>325.8</ele>
        <time>2024-06-27T17:16:12.251Z</time>
      </trkpt>
      <trkpt lat="45.49384" lon="5.08558">
        <ele>325.3</ele>
        <time>2024-06-27T17:16:16.742Z</time>
      </trkpt>
      <trkpt lat="45.49389" lon="5.08572">
        <ele>325</ele>
        <time>2024-06-27T17:16:21.235Z</time>
      </trkpt>
      <trkpt lat="45.49391" lon="5.08579">
        <ele>325.2</ele>
        <time>2024-06-27T17:16:25.729Z</time>
      </trkpt>
      <trkpt lat="45.49394" lon="5.08586">
        <ele>325.6</ele>
        <time>2024-06-27T17:16:30.224Z</time>
      </trkpt>
      <trkpt lat="45.49404" lon="5.08613">
        <ele>327.1</ele>
        <time>2024-06-27T17:16:34.723Z</time>
      </trkpt>
      <trkpt lat="45.49417" lon="5.08646">
        <ele>329</ele>
        <time>2024-06-27T17:16:39.227Z</time>
      </trkpt>
      <trkpt lat="45.49421" lon="5.08658">
        <ele>329.3</ele>
        <time>2024-06-27T17:16:43.733Z</time>
      </trkpt>
      <trkpt lat="45.49424" lon="5.08664">
        <ele>329.6</ele>
        <time>2024-06-27T17:16:48.240Z</time>
      </trkpt>
      <trkpt lat="45.49439" lon="5.08709">
        <ele>331.8</ele>
        <time>2024-06-27T17:16:52.754Z</time>
      </trkpt>
      <trkpt lat="45.49442" lon="5.08715">
        <ele>331.8</ele>
        <time>2024-06-27T17:16:57.269Z</time>
      </trkpt>
      <trkpt lat="45.49448" lon="5.08736">
        <ele>331.1</ele>
        <time>2024-06-27T17:17:01.787Z</time>
      </trkpt>
      <trkpt lat="45.49455" lon="5.08755">
        <ele>330.4</ele>
        <time>2024-06-27T17:17:06.308Z</time>
      </trkpt>
      <trkpt lat="45.49462" lon="5.08775">
        <ele>330</ele>
        <time>2024-06-27T17:17:10.832Z</time>
      </trkpt>
      <trkpt lat="45.49464" lon="5.08781">
        <ele>330</ele>
        <time>2024-06-27T17:17:15.357Z</time>
      </trkpt>
      <trkpt lat="45.4947" lon="5.08794">
        <ele>330</ele>
        <time>2024-06-27T17:17:19.884Z</time>
      </trkpt>
      <trkpt lat="45.49473" lon="5.088">
        <ele>330</ele>
        <time>2024-06-27T17:17:24.412Z</time>
      </trkpt>
      <trkpt lat="45.49476" lon="5.08807">
        <ele>330</ele>
        <time>2024-06-27T17:17:28.941Z</time>
      </trkpt>
      <trkpt lat="45.49482" lon="5.0882">
        <ele>330</ele>
        <time>2024-06-27T17:17:33.472Z</time>
      </trkpt>
      <trkpt lat="45.49484" lon="5.08826">
        <ele>330</ele>
        <time>2024-06-27T17:17:38.004Z</time>
      </trkpt>
      <trkpt lat="45.49493" lon="5.08846">
        <ele>330</ele>
        <time>2024-06-27T17:17:42.539Z</time>
      </trkpt>
      <trkpt lat="45.495" lon="5.08866">
        <ele>330</ele>
        <time>2024-06-27T17:17:47.077Z</time>
      </trkpt>
      <trkpt lat="45.49503" lon="5.08872">
        <ele>330</ele>
        <time>2024-06-27T17:17:51.616Z</time>
      </trkpt>
      <trkpt lat="45.49505" lon="5.08879">
        <ele>330</ele>
        <time>2024-06-27T17:17:56.156Z</time>
      </trkpt>
      <trkpt lat="45.49508" lon="5.08886">
        <ele>330</ele>
        <time>2024-06-27T17:18:00.697Z</time>
      </trkpt>
      <trkpt lat="45.49512" lon="5.089">
        <ele>330</ele>
        <time>2024-06-27T17:18:05.240Z</time>
      </trkpt>
      <trkpt lat="45.4952" lon="5.08926">
        <ele>330.7</ele>
        <time>2024-06-27T17:18:09.787Z</time>
      </trkpt>
      <trkpt lat="45.49522" lon="5.08933">
        <ele>330.8</ele>
        <time>2024-06-27T17:18:14.335Z</time>
      </trkpt>
      <trkpt lat="45.49528" lon="5.08952">
        <ele>331.7</ele>
        <time>2024-06-27T17:18:18.886Z</time>
      </trkpt>
      <trkpt lat="45.49535" lon="5.0898">
        <ele>332</ele>
        <time>2024-06-27T17:18:23.441Z</time>
      </trkpt>
      <trkpt lat="45.49544" lon="5.09014">
        <ele>332</ele>
        <time>2024-06-27T17:18:28.001Z</time>
      </trkpt>
      <trkpt lat="45.49548" lon="5.09028">
        <ele>332</ele>
        <time>2024-06-27T17:18:32.563Z</time>
      </trkpt>
      <trkpt lat="45.4955" lon="5.09035">
        <ele>332</ele>
        <time>2024-06-27T17:18:37.126Z</time>
      </trkpt>
      <trkpt lat="45.49553" lon="5.09048">
        <ele>332</ele>
        <time>2024-06-27T17:18:41.691Z</time>
      </trkpt>
      <trkpt lat="45.4957" lon="5.09107">
        <ele>333</ele>
        <time>2024-06-27T17:18:46.265Z</time>
      </trkpt>
      <trkpt lat="45.49572" lon="5.09113">
        <ele>333</ele>
        <time>2024-06-27T17:18:50.840Z</time>
      </trkpt>
      <trkpt lat="45.49582" lon="5.0916">
        <ele>334</ele>
        <time>2024-06-27T17:18:55.421Z</time>
      </trkpt>
      <trkpt lat="45.49585" lon="5.09173">
        <ele>333.9</ele>
        <time>2024-06-27T17:19:00.004Z</time>
      </trkpt>
      <trkpt lat="45.49592" lon="5.09205">
        <ele>333.2</ele>
        <time>2024-06-27T17:19:04.592Z</time>
      </trkpt>
      <trkpt lat="45.49594" lon="5.09212">
        <ele>333</ele>
        <time>2024-06-27T17:19:09.181Z</time>
      </trkpt>
      <trkpt lat="45.49595" lon="5.09218">
        <ele>333</ele>
        <time>2024-06-27T17:19:13.771Z</time>
      </trkpt>
      <trkpt lat="45.496" lon="5.09237">
        <ele>333</ele>
        <time>2024-06-27T17:19:18.364Z</time>
      </trkpt>
      <trkpt lat="45.49608" lon="5.09262">
        <ele>333.8</ele>
        <time>2024-06-27T17:19:22.960Z</time>
      </trkpt>
      <trkpt lat="45.49611" lon="5.09268">
        <ele>334</ele>
        <time>2024-06-27T17:19:27.557Z</time>
      </trkpt>
      <trkpt lat="45.49623" lon="5.093">
        <ele>334.9</ele>
        <time>2024-06-27T17:19:32.159Z</time>
      </trkpt>
      <trkpt lat="45.49636" lon="5.0933">
        <ele>335.6</ele>
        <time>2024-06-27T17:19:36.766Z</time>
      </trkpt>
      <trkpt lat="45.49645" lon="5.09347">
        <ele>335.3</ele>
        <time>2024-06-27T17:19:41.376Z</time>
      </trkpt>
      <trkpt lat="45.49672" lon="5.09389">
        <ele>336.6</ele>
        <time>2024-06-27T17:19:45.994Z</time>
      </trkpt>
      <trkpt lat="45.49705" lon="5.09445">
        <ele>340.7</ele>
        <time>2024-06-27T17:19:50.622Z</time>
      </trkpt>
      <trkpt lat="45.49712" lon="5.09456">
        <ele>341.1</ele>
        <time>2024-06-27T17:19:55.252Z</time>
      </trkpt>
      <trkpt lat="45.49722" lon="5.09473">
        <ele>340.7</ele>
        <time>2024-06-27T17:19:59.885Z</time>
      </trkpt>
      <trkpt lat="45.49735" lon="5.09495">
        <ele>339.3</ele>
        <time>2024-06-27T17:20:04.522Z</time>
      </trkpt>
      <trkpt lat="45.49761" lon="5.09541">
        <ele>337.5</ele>
        <time>2024-06-27T17:20:09.167Z</time>
      </trkpt>
      <trkpt lat="45.49766" lon="5.09553">
        <ele>337.6</ele>
        <time>2024-06-27T17:20:13.813Z</time>
      </trkpt>
      <trkpt lat="45.49769" lon="5.09559">
        <ele>337.7</ele>
        <time>2024-06-27T17:20:18.460Z</time>
      </trkpt>
      <trkpt lat="45.49777" lon="5.09583">
        <ele>338</ele>
        <time>2024-06-27T17:20:23.111Z</time>
      </trkpt>
      <trkpt lat="45.49782" lon="5.09599">
        <ele>338.2</ele>
        <time>2024-06-27T17:20:27.764Z</time>
      </trkpt>
      <trkpt lat="45.49787" lon="5.09613">
        <ele>338.5</ele>
        <time>2024-06-27T17:20:32.420Z</time>
      </trkpt>
      <trkpt lat="45.49792" lon="5.09628">
        <ele>339</ele>
        <time>2024-06-27T17:20:37.078Z</time>
      </trkpt>
      <trkpt lat="45.49805" lon="5.09676">
        <ele>341.5</ele>
        <time>2024-06-27T17:20:41.743Z</time>
      </trkpt>
      <trkpt lat="45.49805" lon="5.09703">
        <ele>342.7</ele>
        <time>2024-06-27T17:20:46.412Z</time>
      </trkpt>
      <trkpt lat="45.49804" lon="5.09709">
        <ele>342.9</ele>
        <time>2024-06-27T17:20:51.081Z</time>
      </trkpt>
      <trkpt lat="45.49802" lon="5.0973">
        <ele>343.6</ele>
        <time>2024-06-27T17:20:55.753Z</time>
      </trkpt>
      <trkpt lat="45.49802" lon="5.09732">
        <ele>343.6</ele>
        <time>2024-06-27T17:21:00.425Z</time>
      </trkpt>
      <trkpt lat="45.498" lon="5.09739">
        <ele>343.8</ele>
        <time>2024-06-27T17:21:05.098Z</time>
      </trkpt>
      <trkpt lat="45.49797" lon="5.09757">
        <ele>343.7</ele>
        <time>2024-06-27T17:21:09.774Z</time>
      </trkpt>
      <trkpt lat="45.49794" lon="5.09787">
        <ele>344</ele>
        <time>2024-06-27T17:21:14.454Z</time>
      </trkpt>
      <trkpt lat="45.49792" lon="5.09799">
        <ele>344</ele>
        <time>2024-06-27T17:21:19.136Z</time>
      </trkpt>
      <trkpt lat="45.49788" lon="5.09838">
        <ele>342.8</ele>
        <time>2024-06-27T17:21:23.823Z</time>
      </trkpt>
      <trkpt lat="45.49786" lon="5.09851">
        <ele>342.3</ele>
        <time>2024-06-27T17:21:28.512Z</time>
      </trkpt>
      <trkpt lat="45.49785" lon="5.09864">
        <ele>342</ele>
        <time>2024-06-27T17:21:33.203Z</time>
      </trkpt>
      <trkpt lat="45.49777" lon="5.09921">
        <ele>341</ele>
        <time>2024-06-27T17:21:37.902Z</time>
      </trkpt>
      <trkpt lat="45.4977" lon="5.0998">
        <ele>342</ele>
        <time>2024-06-27T17:21:42.609Z</time>
      </trkpt>
      <trkpt lat="45.49763" lon="5.10018">
        <ele>342.5</ele>
        <time>2024-06-27T17:21:47.321Z</time>
      </trkpt>
      <trkpt lat="45.49762" lon="5.10024">
        <ele>342.6</ele>
        <time>2024-06-27T17:21:52.034Z</time>
      </trkpt>
      <trkpt lat="45.49759" lon="5.10042">
        <ele>342.7</ele>
        <time>2024-06-27T17:21:56.750Z</time>
      </trkpt>
      <trkpt lat="45.49758" lon="5.10048">
        <ele>342.7</ele>
        <time>2024-06-27T17:22:01.466Z</time>
      </trkpt>
      <trkpt lat="45.49754" lon="5.10066">
        <ele>342.9</ele>
        <time>2024-06-27T17:22:06.185Z</time>
      </trkpt>
      <trkpt lat="45.49752" lon="5.10071">
        <ele>342.9</ele>
        <time>2024-06-27T17:22:10.905Z</time>
      </trkpt>
      <trkpt lat="45.49748" lon="5.1009">
        <ele>343</ele>
        <time>2024-06-27T17:22:15.627Z</time>
      </trkpt>
      <trkpt lat="45.49746" lon="5.10103">
        <ele>343</ele>
        <time>2024-06-27T17:22:20.351Z</time>
      </trkpt>
      <trkpt lat="45.49742" lon="5.10128">
        <ele>343</ele>
        <time>2024-06-27T17:22:25.079Z</time>
      </trkpt>
      <trkpt lat="45.4974" lon="5.10147">
        <ele>343</ele>
        <time>2024-06-27T17:22:29.809Z</time>
      </trkpt>
      <trkpt lat="45.49739" lon="5.10153">
        <ele>343.3</ele>
        <time>2024-06-27T17:22:34.540Z</time>
      </trkpt>
      <trkpt lat="45.49736" lon="5.10178">
        <ele>342.7</ele>
        <time>2024-06-27T17:22:39.275Z</time>
      </trkpt>
      <trkpt lat="45.49735" lon="5.10191">
        <ele>342.5</ele>
        <time>2024-06-27T17:22:44.011Z</time>
      </trkpt>
      <trkpt lat="45.49733" lon="5.10211">
        <ele>342.6</ele>
        <time>2024-06-27T17:22:48.750Z</time>
      </trkpt>
      <trkpt lat="45.49732" lon="5.10218">
        <ele>342.6</ele>
        <time>2024-06-27T17:22:53.490Z</time>
      </trkpt>
      <trkpt lat="45.49728" lon="5.10252">
        <ele>343.3</ele>
        <time>2024-06-27T17:22:58.235Z</time>
      </trkpt>
      <trkpt lat="45.49727" lon="5.10258">
        <ele>343.5</ele>
        <time>2024-06-27T17:23:02.981Z</time>
      </trkpt>
      <trkpt lat="45.49726" lon="5.10265">
        <ele>343.8</ele>
        <time>2024-06-27T17:23:07.728Z</time>
      </trkpt>
      <trkpt lat="45.49719" lon="5.10321">
        <ele>346.1</ele>
        <time>2024-06-27T17:23:12.482Z</time>
      </trkpt>
      <trkpt lat="45.49718" lon="5.10327">
        <ele>346</ele>
        <time>2024-06-27T17:23:17.237Z</time>
      </trkpt>
      <trkpt lat="45.49714" lon="5.10366">
        <ele>345.9</ele>
        <time>2024-06-27T17:23:21.998Z</time>
      </trkpt>
      <trkpt lat="45.49712" lon="5.10378">
        <ele>346.1</ele>
        <time>2024-06-27T17:23:26.760Z</time>
      </trkpt>
      <trkpt lat="45.49707" lon="5.10409">
        <ele>345.8</ele>
        <time>2024-06-27T17:23:31.527Z</time>
      </trkpt>
      <trkpt lat="45.49704" lon="5.10427">
        <ele>346.3</ele>
        <time>2024-06-27T17:23:36.296Z</time>
      </trkpt>
      <trkpt lat="45.49702" lon="5.10432">
        <ele>346.5</ele>
        <time>2024-06-27T17:23:41.066Z</time>
      </trkpt>
      <trkpt lat="45.49699" lon="5.10436">
        <ele>346.8</ele>
        <time>2024-06-27T17:23:45.837Z</time>
      </trkpt>
      <trkpt lat="45.4969" lon="5.10439">
        <ele>347.6</ele>
        <time>2024-06-27T17:23:50.609Z</time>
      </trkpt>
      <trkpt lat="45.49665" lon="5.10437">
        <ele>350.9</ele>
        <time>2024-06-27T17:23:55.386Z</time>
      </trkpt>
      <trkpt lat="45.49657" lon="5.10436">
        <ele>351.9</ele>
        <time>2024-06-27T17:24:00.165Z</time>
      </trkpt>
      <trkpt lat="45.49636" lon="5.10435">
        <ele>354.2</ele>
        <time>2024-06-27T17:24:04.948Z</time>
      </trkpt>
      <trkpt lat="45.49619" lon="5.10434">
        <ele>356.8</ele>
        <time>2024-06-27T17:24:09.734Z</time>
      </trkpt>
      <trkpt lat="45.49603" lon="5.10433">
        <ele>359.2</ele>
        <time>2024-06-27T17:24:14.524Z</time>
      </trkpt>
      <trkpt lat="45.49599" lon="5.10433">
        <ele>359.8</ele>
        <time>2024-06-27T17:24:19.314Z</time>
      </trkpt>
      <trkpt lat="45.49583" lon="5.10429">
        <ele>362.5</ele>
        <time>2024-06-27T17:24:24.107Z</time>
      </trkpt>
      <trkpt lat="45.49577" lon="5.10426">
        <ele>363.9</ele>
        <time>2024-06-27T17:24:28.902Z</time>
      </trkpt>
      <trkpt lat="45.49574" lon="5.10423">
        <ele>364.8</ele>
        <time>2024-06-27T17:24:33.697Z</time>
      </trkpt>
      <trkpt lat="45.49566" lon="5.1041">
        <ele>367.6</ele>
        <time>2024-06-27T17:24:38.495Z</time>
      </trkpt>
      <trkpt lat="45.49564" lon="5.10395">
        <ele>368.8</ele>
        <time>2024-06-27T17:24:43.295Z</time>
      </trkpt>
      <trkpt lat="45.49562" lon="5.10388">
        <ele>369.5</ele>
        <time>2024-06-27T17:24:48.096Z</time>
      </trkpt>
      <trkpt lat="45.49562" lon="5.10381">
        <ele>369.7</ele>
        <time>2024-06-27T17:24:52.898Z</time>
      </trkpt>
      <trkpt lat="45.49559" lon="5.10362">
        <ele>370.9</ele>
        <time>2024-06-27T17:24:57.702Z</time>
      </trkpt>
      <trkpt lat="45.49557" lon="5.10348">
        <ele>371.5</ele>
        <time>2024-06-27T17:25:02.508Z</time>
      </trkpt>
      <trkpt lat="45.49556" lon="5.10326">
        <ele>370.1</ele>
        <time>2024-06-27T17:25:07.317Z</time>
      </trkpt>
      <trkpt lat="45.49555" lon="5.10315">
        <ele>369.6</ele>
        <time>2024-06-27T17:25:12.128Z</time>
      </trkpt>
      <trkpt lat="45.4955" lon="5.10279">
        <ele>370</ele>
        <time>2024-06-27T17:25:16.944Z</time>
      </trkpt>
      <trkpt lat="45.49543" lon="5.10247">
        <ele>371.8</ele>
        <time>2024-06-27T17:25:21.764Z</time>
      </trkpt>
      <trkpt lat="45.49542" lon="5.10238">
        <ele>371.8</ele>
        <time>2024-06-27T17:25:26.586Z</time>
      </trkpt>
      <trkpt lat="45.49541" lon="5.10221">
        <ele>371.9</ele>
        <time>2024-06-27T17:25:31.410Z</time>
      </trkpt>
      <trkpt lat="45.49538" lon="5.10207">
        <ele>372.5</ele>
        <time>2024-06-27T17:25:36.236Z</time>
      </trkpt>
      <trkpt lat="45.49536" lon="5.10193">
        <ele>373.4</ele>
        <time>2024-06-27T17:25:41.064Z</time>
      </trkpt>
      <trkpt lat="45.49535" lon="5.10169">
        <ele>373.3</ele>
        <time>2024-06-27T17:25:45.895Z</time>
      </trkpt>
      <trkpt lat="45.49535" lon="5.10161">
        <ele>373</ele>
        <time>2024-06-27T17:25:50.727Z</time>
      </trkpt>
      <trkpt lat="45.49533" lon="5.10152">
        <ele>373.6</ele>
        <time>2024-06-27T17:25:55.560Z</time>
      </trkpt>
      <trkpt lat="45.49529" lon="5.10129">
        <ele>374.5</ele>
        <time>2024-06-27T17:26:00.397Z</time>
      </trkpt>
      <trkpt lat="45.49526" lon="5.10114">
        <ele>375</ele>
        <time>2024-06-27T17:26:05.236Z</time>
      </trkpt>
      <trkpt lat="45.49524" lon="5.10106">
        <ele>375.3</ele>
        <time>2024-06-27T17:26:10.076Z</time>
      </trkpt>
      <trkpt lat="45.4952" lon="5.10087">
        <ele>375.7</ele>
        <time>2024-06-27T17:26:14.919Z</time>
      </trkpt>
      <trkpt lat="45.49519" lon="5.10083">
        <ele>375.9</ele>
        <time>2024-06-27T17:26:19.762Z</time>
      </trkpt>
      <trkpt lat="45.49514" lon="5.10059">
        <ele>375.5</ele>
        <time>2024-06-27T17:26:24.609Z</time>
      </trkpt>
      <trkpt lat="45.49508" lon="5.10042">
        <ele>375.6</ele>
        <time>2024-06-27T17:26:29.458Z</time>
      </trkpt>
      <trkpt lat="45.49504" lon="5.10035">
        <ele>375.6</ele>
        <time>2024-06-27T17:26:34.308Z</time>
      </trkpt>
      <trkpt lat="45.495" lon="5.10029">
        <ele>375.7</ele>
        <time>2024-06-27T17:26:39.160Z</time>
      </trkpt>
      <trkpt lat="45.49492" lon="5.10022">
        <ele>376.7</ele>
        <time>2024-06-27T17:26:44.013Z</time>
      </trkpt>
      <trkpt lat="45.49473" lon="5.10014">
        <ele>380.1</ele>
        <time>2024-06-27T17:26:48.870Z</time>
      </trkpt>
      <trkpt lat="45.4947" lon="5.10013">
        <ele>380.4</ele>
        <time>2024-06-27T17:26:53.728Z</time>
      </trkpt>
      <trkpt lat="45.4946" lon="5.10013">
        <ele>381.2</ele>
        <time>2024-06-27T17:26:58.588Z</time>
      </trkpt>
      <trkpt lat="45.49447" lon="5.10015">
        <ele>382.5</ele>
        <time>2024-06-27T17:27:03.450Z</time>
      </trkpt>
      <trkpt lat="45.49444" lon="5.10016">
        <ele>382.8</ele>
        <time>2024-06-27T17:27:08.313Z</time>
      </trkpt>
      <trkpt lat="45.49427" lon="5.10028">
        <ele>382.1</ele>
        <time>2024-06-27T17:27:13.180Z</time>
      </trkpt>
      <trkpt lat="45.4942" lon="5.10038">
        <ele>382.6</ele>
        <time>2024-06-27T17:27:18.048Z</time>
      </trkpt>
      <trkpt lat="45.49414" lon="5.10054">
        <ele>382.6</ele>
        <time>2024-06-27T17:27:22.919Z</time>
      </trkpt>
      <trkpt lat="45.49413" lon="5.10059">
        <ele>382.5</ele>
        <time>2024-06-27T17:27:27.791Z</time>
      </trkpt>
      <trkpt lat="45.49406" lon="5.10084">
        <ele>382.2</ele>
        <time>2024-06-27T17:27:32.666Z</time>
      </trkpt>
      <trkpt lat="45.49404" lon="5.10092">
        <ele>382</ele>
        <time>2024-06-27T17:27:37.543Z</time>
      </trkpt>
      <trkpt lat="45.49394" lon="5.10111">
        <ele>380.4</ele>
        <time>2024-06-27T17:27:42.423Z</time>
      </trkpt>
      <trkpt lat="45.4939" lon="5.10118">
        <ele>380.4</ele>
        <time>2024-06-27T17:27:47.304Z</time>
      </trkpt>
      <trkpt lat="45.49382" lon="5.10137">
        <ele>380</ele>
        <time>2024-06-27T17:27:52.188Z</time>
      </trkpt>
      <trkpt lat="45.49377" lon="5.10155">
        <ele>380.1</ele>
        <time>2024-06-27T17:27:57.075Z</time>
      </trkpt>
      <trkpt lat="45.49368" lon="5.1018">
        <ele>381.4</ele>
        <time>2024-06-27T17:28:01.965Z</time>
      </trkpt>
      <trkpt lat="45.49364" lon="5.10188">
        <ele>382.3</ele>
        <time>2024-06-27T17:28:06.857Z</time>
      </trkpt>
      <trkpt lat="45.49349" lon="5.10205">
        <ele>384.5</ele>
        <time>2024-06-27T17:28:11.752Z</time>
      </trkpt>
      <trkpt lat="45.49342" lon="5.10213">
        <ele>385.8</ele>
        <time>2024-06-27T17:28:16.649Z</time>
      </trkpt>
      <trkpt lat="45.49333" lon="5.10221">
        <ele>387.8</ele>
        <time>2024-06-27T17:28:21.548Z</time>
      </trkpt>
      <trkpt lat="45.49316" lon="5.10234">
        <ele>390.7</ele>
        <time>2024-06-27T17:28:26.451Z</time>
      </trkpt>
      <trkpt lat="45.49313" lon="5.10236">
        <ele>391.2</ele>
        <time>2024-06-27T17:28:31.355Z</time>
      </trkpt>
      <trkpt lat="45.49292" lon="5.10249">
        <ele>393.4</ele>
        <time>2024-06-27T17:28:36.263Z</time>
      </trkpt>
      <trkpt lat="45.49287" lon="5.10252">
        <ele>394.1</ele>
        <time>2024-06-27T17:28:41.172Z</time>
      </trkpt>
      <trkpt lat="45.49275" lon="5.10259">
        <ele>396.3</ele>
        <time>2024-06-27T17:28:46.084Z</time>
      </trkpt>
      <trkpt lat="45.49252" lon="5.10271">
        <ele>398.6</ele>
        <time>2024-06-27T17:28:51.000Z</time>
      </trkpt>
      <trkpt lat="45.4924" lon="5.10276">
        <ele>399</ele>
        <time>2024-06-27T17:28:55.919Z</time>
      </trkpt>
      <trkpt lat="45.49224" lon="5.10281">
        <ele>398.7</ele>
        <time>2024-06-27T17:29:00.841Z</time>
      </trkpt>
      <trkpt lat="45.49214" lon="5.10284">
        <ele>398.2</ele>
        <time>2024-06-27T17:29:05.765Z</time>
      </trkpt>
      <trkpt lat="45.49193" lon="5.10291">
        <ele>395.5</ele>
        <time>2024-06-27T17:29:10.693Z</time>
      </trkpt>
      <trkpt lat="45.4919" lon="5.10292">
        <ele>395.4</ele>
        <time>2024-06-27T17:29:15.622Z</time>
      </trkpt>
      <trkpt lat="45.49158" lon="5.10301">
        <ele>395.2</ele>
        <time>2024-06-27T17:29:20.557Z</time>
      </trkpt>
      <trkpt lat="45.49155" lon="5.10302">
        <ele>395.5</ele>
        <time>2024-06-27T17:29:25.493Z</time>
      </trkpt>
      <trkpt lat="45.49149" lon="5.10304">
        <ele>396</ele>
        <time>2024-06-27T17:29:30.430Z</time>
      </trkpt>
      <trkpt lat="45.49139" lon="5.10305">
        <ele>396.1</ele>
        <time>2024-06-27T17:29:35.369Z</time>
      </trkpt>
      <trkpt lat="45.49133" lon="5.10306">
        <ele>396.2</ele>
        <time>2024-06-27T17:29:40.309Z</time>
      </trkpt>
      <trkpt lat="45.49126" lon="5.10306">
        <ele>396.2</ele>
        <time>2024-06-27T17:29:45.250Z</time>
      </trkpt>
      <trkpt lat="45.49107" lon="5.10305">
        <ele>396.6</ele>
        <time>2024-06-27T17:29:50.195Z</time>
      </trkpt>
      <trkpt lat="45.491" lon="5.10304">
        <ele>396.8</ele>
        <time>2024-06-27T17:29:55.141Z</time>
      </trkpt>
      <trkpt lat="45.49081" lon="5.103">
        <ele>396.6</ele>
        <time>2024-06-27T17:30:00.091Z</time>
      </trkpt>
      <trkpt lat="45.49061" lon="5.10295">
        <ele>396.1</ele>
        <time>2024-06-27T17:30:05.045Z</time>
      </trkpt>
      <trkpt lat="45.49051" lon="5.10292">
        <ele>396.1</ele>
        <time>2024-06-27T17:30:10.001Z</time>
      </trkpt>
      <trkpt lat="45.49025" lon="5.10286">
        <ele>397.6</ele>
        <time>2024-06-27T17:30:14.962Z</time>
      </trkpt>
      <trkpt lat="45.49002" lon="5.10281">
        <ele>398.9</ele>
        <time>2024-06-27T17:30:19.928Z</time>
      </trkpt>
      <trkpt lat="45.48995" lon="5.1028">
        <ele>399.6</ele>
        <time>2024-06-27T17:30:24.895Z</time>
      </trkpt>
      <trkpt lat="45.4898" lon="5.10278">
        <ele>401.4</ele>
        <time>2024-06-27T17:30:29.865Z</time>
      </trkpt>
      <trkpt lat="45.48968" lon="5.10276">
        <ele>402.6</ele>
        <time>2024-06-27T17:30:34.837Z</time>
      </trkpt>
      <trkpt lat="45.48946" lon="5.10275">
        <ele>405.5</ele>
        <time>2024-06-27T17:30:39.813Z</time>
      </trkpt>
      <trkpt lat="45.48943" lon="5.10275">
        <ele>405.7</ele>
        <time>2024-06-27T17:30:44.790Z</time>
      </trkpt>
      <trkpt lat="45.4894" lon="5.10275">
        <ele>405.9</ele>
        <time>2024-06-27T17:30:49.768Z</time>
      </trkpt>
      <trkpt lat="45.48915" lon="5.10274">
        <ele>406.8</ele>
        <time>2024-06-27T17:30:54.750Z</time>
      </trkpt>
      <trkpt lat="45.48905" lon="5.10273">
        <ele>407.2</ele>
        <time>2024-06-27T17:30:59.734Z</time>
      </trkpt>
      <trkpt lat="45.48893" lon="5.10274">
        <ele>407.7</ele>
        <time>2024-06-27T17:31:04.721Z</time>
      </trkpt>
      <trkpt lat="45.48879" lon="5.10273">
        <ele>408.7</ele>
        <time>2024-06-27T17:31:09.710Z</time>
      </trkpt>
      <trkpt lat="45.48876" lon="5.10273">
        <ele>408.9</ele>
        <time>2024-06-27T17:31:14.700Z</time>
      </trkpt>
      <trkpt lat="45.48865" lon="5.10273">
        <ele>409.7</ele>
        <time>2024-06-27T17:31:19.692Z</time>
      </trkpt>
      <trkpt lat="45.48859" lon="5.10272">
        <ele>410.1</ele>
        <time>2024-06-27T17:31:24.685Z</time>
      </trkpt>
      <trkpt lat="45.48852" lon="5.10272">
        <ele>410.3</ele>
        <time>2024-06-27T17:31:29.680Z</time>
      </trkpt>
      <trkpt lat="45.48838" lon="5.10272">
        <ele>410.8</ele>
        <time>2024-06-27T17:31:34.677Z</time>
      </trkpt>
      <trkpt lat="45.48827" lon="5.10271">
        <ele>411.4</ele>
        <time>2024-06-27T17:31:39.676Z</time>
      </trkpt>
      <trkpt lat="45.48817" lon="5.10269">
        <ele>411.7</ele>
        <time>2024-06-27T17:31:44.677Z</time>
      </trkpt>
      <trkpt lat="45.48811" lon="5.10266">
        <ele>411.9</ele>
        <time>2024-06-27T17:31:49.680Z</time>
      </trkpt>
      <trkpt lat="45.48804" lon="5.10265">
        <ele>412.3</ele>
        <time>2024-06-27T17:31:54.684Z</time>
      </trkpt>
      <trkpt lat="45.48801" lon="5.10266">
        <ele>412.4</ele>
        <time>2024-06-27T17:31:59.689Z</time>
      </trkpt>
      <trkpt lat="45.48798" lon="5.10269">
        <ele>412.6</ele>
        <time>2024-06-27T17:32:04.694Z</time>
      </trkpt>
      <trkpt lat="45.48792" lon="5.1027">
        <ele>413.1</ele>
        <time>2024-06-27T17:32:09.701Z</time>
      </trkpt>
      <trkpt lat="45.48771" lon="5.10274">
        <ele>414</ele>
        <time>2024-06-27T17:32:14.712Z</time>
      </trkpt>
      <trkpt lat="45.48767" lon="5.10275">
        <ele>414.1</ele>
        <time>2024-06-27T17:32:19.724Z</time>
      </trkpt>
      <trkpt lat="45.48758" lon="5.10277">
        <ele>414.3</ele>
        <time>2024-06-27T17:32:24.737Z</time>
      </trkpt>
      <trkpt lat="45.48749" lon="5.1028">
        <ele>414</ele>
        <time>2024-06-27T17:32:29.752Z</time>
      </trkpt>
      <trkpt lat="45.48744" lon="5.10281">
        <ele>414</ele>
        <time>2024-06-27T17:32:34.768Z</time>
      </trkpt>
      <trkpt lat="45.48718" lon="5.1029">
        <ele>412.3</ele>
        <time>2024-06-27T17:32:39.789Z</time>
      </trkpt>
      <trkpt lat="45.487" lon="5.10295">
        <ele>411.2</ele>
        <time>2024-06-27T17:32:44.814Z</time>
      </trkpt>
      <trkpt lat="45.4865" lon="5.10306">
        <ele>410.6</ele>
        <time>2024-06-27T17:32:49.849Z</time>
      </trkpt>
      <trkpt lat="45.48618" lon="5.10313">
        <ele>411</ele>
        <time>2024-06-27T17:32:54.890Z</time>
      </trkpt>
      <trkpt lat="45.48613" lon="5.10313">
        <ele>411</ele>
        <time>2024-06-27T17:32:59.932Z</time>
      </trkpt>
      <trkpt lat="45.48608" lon="5.10314">
        <ele>411</ele>
        <time>2024-06-27T17:33:04.975Z</time>
      </trkpt>
      <trkpt lat="45.48586" lon="5.10318">
        <ele>410.6</ele>
        <time>2024-06-27T17:33:10.022Z</time>
      </trkpt>
      <trkpt lat="45.4858" lon="5.1032">
        <ele>410.1</ele>
        <time>2024-06-27T17:33:15.070Z</time>
      </trkpt>
      <trkpt lat="45.48575" lon="5.10321">
        <ele>409.9</ele>
        <time>2024-06-27T17:33:20.119Z</time>
      </trkpt>
      <trkpt lat="45.48563" lon="5.10323">
        <ele>409.2</ele>
        <time>2024-06-27T17:33:25.171Z</time>
      </trkpt>
      <trkpt lat="45.48545" lon="5.10325">
        <ele>407.8</ele>
        <time>2024-06-27T17:33:30.226Z</time>
      </trkpt>
      <trkpt lat="45.48538" lon="5.10325">
        <ele>407.3</ele>
        <time>2024-06-27T17:33:35.282Z</time>
      </trkpt>
      <trkpt lat="45.48517" lon="5.10323">
        <ele>406.6</ele>
        <time>2024-06-27T17:33:40.342Z</time>
      </trkpt>
      <trkpt lat="45.48503" lon="5.10319">
        <ele>406.5</ele>
        <time>2024-06-27T17:33:45.405Z</time>
      </trkpt>
      <trkpt lat="45.48495" lon="5.10316">
        <ele>406.2</ele>
        <time>2024-06-27T17:33:50.470Z</time>
      </trkpt>
      <trkpt lat="45.4848" lon="5.10307">
        <ele>405.7</ele>
        <time>2024-06-27T17:33:55.538Z</time>
      </trkpt>
      <trkpt lat="45.48473" lon="5.10303">
        <ele>405.5</ele>
        <time>2024-06-27T17:34:00.608Z</time>
      </trkpt>
      <trkpt lat="45.48465" lon="5.10297">
        <ele>404.8</ele>
        <time>2024-06-27T17:34:05.679Z</time>
      </trkpt>
      <trkpt lat="45.48449" lon="5.10286">
        <ele>403.6</ele>
        <time>2024-06-27T17:34:10.754Z</time>
      </trkpt>
      <trkpt lat="45.48434" lon="5.10277">
        <ele>401.7</ele>
        <time>2024-06-27T17:34:15.832Z</time>
      </trkpt>
      <trkpt lat="45.48426" lon="5.10272">
        <ele>400.5</ele>
        <time>2024-06-27T17:34:20.912Z</time>
      </trkpt>
      <trkpt lat="45.48402" lon="5.10257">
        <ele>398.2</ele>
        <time>2024-06-27T17:34:25.997Z</time>
      </trkpt>
      <trkpt lat="45.48377" lon="5.10248">
        <ele>396.1</ele>
        <time>2024-06-27T17:34:31.087Z</time>
      </trkpt>
      <trkpt lat="45.48368" lon="5.10248">
        <ele>395.2</ele>
        <time>2024-06-27T17:34:36.178Z</time>
      </trkpt>
      <trkpt lat="45.48342" lon="5.10252">
        <ele>393.3</ele>
        <time>2024-06-27T17:34:41.274Z</time>
      </trkpt>
      <trkpt lat="45.4831" lon="5.10264">
        <ele>392.9</ele>
        <time>2024-06-27T17:34:46.377Z</time>
      </trkpt>
      <trkpt lat="45.48294" lon="5.10268">
        <ele>393.4</ele>
        <time>2024-06-27T17:34:51.483Z</time>
      </trkpt>
      <trkpt lat="45.4828" lon="5.10267">
        <ele>393.9</ele>
        <time>2024-06-27T17:34:56.592Z</time>
      </trkpt>
      <trkpt lat="45.48268" lon="5.10263">
        <ele>394.2</ele>
        <time>2024-06-27T17:35:01.703Z</time>
      </trkpt>
      <trkpt lat="45.48253" lon="5.10256">
        <ele>394.5</ele>
        <time>2024-06-27T17:35:06.817Z</time>
      </trkpt>
      <trkpt lat="45.48248" lon="5.10253">
        <ele>394.6</ele>
        <time>2024-06-27T17:35:11.932Z</time>
      </trkpt>
      <trkpt lat="45.48244" lon="5.10251">
        <ele>394.6</ele>
        <time>2024-06-27T17:35:17.048Z</time>
      </trkpt>
      <trkpt lat="45.48231" lon="5.10243">
        <ele>394.8</ele>
        <time>2024-06-27T17:35:22.167Z</time>
      </trkpt>
      <trkpt lat="45.48213" lon="5.10234">
        <ele>395.3</ele>
        <time>2024-06-27T17:35:27.289Z</time>
      </trkpt>
      <trkpt lat="45.48204" lon="5.1023">
        <ele>395.6</ele>
        <time>2024-06-27T17:35:32.413Z</time>
      </trkpt>
      <trkpt lat="45.48196" lon="5.10226">
        <ele>395.9</ele>
        <time>2024-06-27T17:35:37.539Z</time>
      </trkpt>
      <trkpt lat="45.48187" lon="5.10223">
        <ele>396.5</ele>
        <time>2024-06-27T17:35:42.667Z</time>
      </trkpt>
      <trkpt lat="45.48179" lon="5.10219">
        <ele>397.1</ele>
        <time>2024-06-27T17:35:47.796Z</time>
      </trkpt>
      <trkpt lat="45.48167" lon="5.10215">
        <ele>397.9</ele>
        <time>2024-06-27T17:35:52.928Z</time>
      </trkpt>
      <trkpt lat="45.48158" lon="5.10213">
        <ele>398</ele>
        <time>2024-06-27T17:35:58.061Z</time>
      </trkpt>
      <trkpt lat="45.4815" lon="5.10211">
        <ele>398</ele>
        <time>2024-06-27T17:36:03.196Z</time>
      </trkpt>
      <trkpt lat="45.48137" lon="5.10209">
        <ele>398</ele>
        <time>2024-06-27T17:36:08.334Z</time>
      </trkpt>
      <trkpt lat="45.48124" lon="5.10207">
        <ele>398.5</ele>
        <time>2024-06-27T17:36:13.474Z</time>
      </trkpt>
      <trkpt lat="45.48115" lon="5.10207">
        <ele>398.8</ele>
        <time>2024-06-27T17:36:18.616Z</time>
      </trkpt>
      <trkpt lat="45.48103" lon="5.10207">
        <ele>399.4</ele>
        <time>2024-06-27T17:36:23.760Z</time>
      </trkpt>
      <trkpt lat="45.4809" lon="5.1021">
        <ele>399.8</ele>
        <time>2024-06-27T17:36:28.907Z</time>
      </trkpt>
      <trkpt lat="45.48074" lon="5.10214">
        <ele>400.2</ele>
        <time>2024-06-27T17:36:34.057Z</time>
      </trkpt>
      <trkpt lat="45.48061" lon="5.10217">
        <ele>400.6</ele>
        <time>2024-06-27T17:36:39.209Z</time>
      </trkpt>
      <trkpt lat="45.48057" lon="5.10218">
        <ele>400.5</ele>
        <time>2024-06-27T17:36:44.362Z</time>
      </trkpt>
      <trkpt lat="45.4803" lon="5.10227">
        <ele>401.2</ele>
        <time>2024-06-27T17:36:49.521Z</time>
      </trkpt>
      <trkpt lat="45.48022" lon="5.10231">
        <ele>401.5</ele>
        <time>2024-06-27T17:36:54.681Z</time>
      </trkpt>
      <trkpt lat="45.48003" lon="5.10248">
        <ele>402.7</ele>
        <time>2024-06-27T17:36:59.846Z</time>
      </trkpt>
      <trkpt lat="45.47984" lon="5.10285">
        <ele>404.2</ele>
        <time>2024-06-27T17:37:05.017Z</time>
      </trkpt>
      <trkpt lat="45.47969" lon="5.10318">
        <ele>405.9</ele>
        <time>2024-06-27T17:37:10.193Z</time>
      </trkpt>
      <trkpt lat="45.47967" lon="5.10322">
        <ele>406.2</ele>
        <time>2024-06-27T17:37:15.370Z</time>
      </trkpt>
      <trkpt lat="45.47961" lon="5.10335">
        <ele>407.3</ele>
        <time>2024-06-27T17:37:20.549Z</time>
      </trkpt>
      <trkpt lat="45.47958" lon="5.10336">
        <ele>407.5</ele>
        <time>2024-06-27T17:37:25.728Z</time>
      </trkpt>
      <trkpt lat="45.47944" lon="5.10332">
        <ele>407.3</ele>
        <time>2024-06-27T17:37:30.910Z</time>
      </trkpt>
      <trkpt lat="45.47924" lon="5.10326">
        <ele>407.8</ele>
        <time>2024-06-27T17:37:36.096Z</time>
      </trkpt>
      <trkpt lat="45.47904" lon="5.1032">
        <ele>409.1</ele>
        <time>2024-06-27T17:37:41.286Z</time>
      </trkpt>
      <trkpt lat="45.4788" lon="5.10314">
        <ele>411.3</ele>
        <time>2024-06-27T17:37:46.481Z</time>
      </trkpt>
      <trkpt lat="45.47869" lon="5.10308">
        <ele>411.9</ele>
        <time>2024-06-27T17:37:51.678Z</time>
      </trkpt>
      <trkpt lat="45.47858" lon="5.10299">
        <ele>412.3</ele>
        <time>2024-06-27T17:37:56.878Z</time>
      </trkpt>
      <trkpt lat="45.47849" lon="5.10285">
        <ele>412.5</ele>
        <time>2024-06-27T17:38:02.080Z</time>
      </trkpt>
      <trkpt lat="45.47829" lon="5.10241">
        <ele>411.5</ele>
        <time>2024-06-27T17:38:07.289Z</time>
      </trkpt>
      <trkpt lat="45.47815" lon="5.10205">
        <ele>409.8</ele>
        <time>2024-06-27T17:38:12.504Z</time>
      </trkpt>
      <trkpt lat="45.47809" lon="5.10194">
        <ele>409.5</ele>
        <time>2024-06-27T17:38:17.721Z</time>
      </trkpt>
      <trkpt lat="45.47797" lon="5.10173">
        <ele>409.8</ele>
        <time>2024-06-27T17:38:22.941Z</time>
      </trkpt>
      <trkpt lat="45.47794" lon="5.10167">
        <ele>410</ele>
        <time>2024-06-27T17:38:28.162Z</time>
      </trkpt>
      <trkpt lat="45.47784" lon="5.10147">
        <ele>410.4</ele>
        <time>2024-06-27T17:38:33.387Z</time>
      </trkpt>
      <trkpt lat="45.4778" lon="5.10139">
        <ele>410.4</ele>
        <time>2024-06-27T17:38:38.613Z</time>
      </trkpt>
      <trkpt lat="45.47777" lon="5.10131">
        <ele>410.2</ele>
        <time>2024-06-27T17:38:43.840Z</time>
      </trkpt>
      <trkpt lat="45.47773" lon="5.10122">
        <ele>409.5</ele>
        <time>2024-06-27T17:38:49.069Z</time>
      </trkpt>
      <trkpt lat="45.47771" lon="5.10113">
        <ele>409</ele>
        <time>2024-06-27T17:38:54.299Z</time>
      </trkpt>
      <trkpt lat="45.47768" lon="5.10102">
        <ele>408.4</ele>
        <time>2024-06-27T17:38:59.531Z</time>
      </trkpt>
      <trkpt lat="45.47768" lon="5.10092">
        <ele>407.2</ele>
        <time>2024-06-27T17:39:04.764Z</time>
      </trkpt>
      <trkpt lat="45.47768" lon="5.1008">
        <ele>406.2</ele>
        <time>2024-06-27T17:39:09.999Z</time>
      </trkpt>
      <trkpt lat="45.4777" lon="5.10069">
        <ele>405.6</ele>
        <time>2024-06-27T17:39:15.235Z</time>
      </trkpt>
      <trkpt lat="45.47773" lon="5.10057">
        <ele>404.8</ele>
        <time>2024-06-27T17:39:20.473Z</time>
      </trkpt>
      <trkpt lat="45.47784" lon="5.10024">
        <ele>401.1</ele>
        <time>2024-06-27T17:39:25.716Z</time>
      </trkpt>
      <trkpt lat="45.47787" lon="5.10014">
        <ele>400.5</ele>
        <time>2024-06-27T17:39:30.960Z</time>
      </trkpt>
      <trkpt lat="45.47788" lon="5.09994">
        <ele>399.1</ele>
        <time>2024-06-27T17:39:36.207Z</time>
      </trkpt>
      <trkpt lat="45.47784" lon="5.09987">
        <ele>398.3</ele>
        <time>2024-06-27T17:39:41.455Z</time>
      </trkpt>
      <trkpt lat="45.47779" lon="5.09984">
        <ele>397.6</ele>
        <time>2024-06-27T17:39:46.704Z</time>
      </trkpt>
      <trkpt lat="45.47769" lon="5.09989">
        <ele>396.8</ele>
        <time>2024-06-27T17:39:51.955Z</time>
      </trkpt>
      <trkpt lat="45.47764" lon="5.09996">
        <ele>396.6</ele>
        <time>2024-06-27T17:39:57.208Z</time>
      </trkpt>
      <trkpt lat="45.47755" lon="5.10012">
        <ele>396.5</ele>
        <time>2024-06-27T17:40:02.464Z</time>
      </trkpt>
      <trkpt lat="45.4775" lon="5.10021">
        <ele>396.7</ele>
        <time>2024-06-27T17:40:07.721Z</time>
      </trkpt>
      <trkpt lat="45.47735" lon="5.10046">
        <ele>396.5</ele>
        <time>2024-06-27T17:40:12.983Z</time>
      </trkpt>
      <trkpt lat="45.4773" lon="5.10054">
        <ele>396.1</ele>
        <time>2024-06-27T17:40:18.246Z</time>
      </trkpt>
      <trkpt lat="45.47724" lon="5.10061">
        <ele>395.4</ele>
        <time>2024-06-27T17:40:23.511Z</time>
      </trkpt>
      <trkpt lat="45.47717" lon="5.10067">
        <ele>394.6</ele>
        <time>2024-06-27T17:40:28.777Z</time>
      </trkpt>
      <trkpt lat="45.47702" lon="5.10078">
        <ele>393.1</ele>
        <time>2024-06-27T17:40:34.046Z</time>
      </trkpt>
      <trkpt lat="45.47694" lon="5.10082">
        <ele>392.4</ele>
        <time>2024-06-27T17:40:39.317Z</time>
      </trkpt>
      <trkpt lat="45.47668" lon="5.10094">
        <ele>392.5</ele>
        <time>2024-06-27T17:40:44.593Z</time>
      </trkpt>
      <trkpt lat="45.47663" lon="5.10095">
        <ele>392.5</ele>
        <time>2024-06-27T17:40:49.870Z</time>
      </trkpt>
      <trkpt lat="45.4765" lon="5.101">
        <ele>391.8</ele>
        <time>2024-06-27T17:40:55.150Z</time>
      </trkpt>
      <trkpt lat="45.47642" lon="5.10106">
        <ele>392.1</ele>
        <time>2024-06-27T17:41:00.432Z</time>
      </trkpt>
      <trkpt lat="45.4763" lon="5.10119">
        <ele>392.2</ele>
        <time>2024-06-27T17:41:05.717Z</time>
      </trkpt>
      <trkpt lat="45.47622" lon="5.10127">
        <ele>391.6</ele>
        <time>2024-06-27T17:41:11.003Z</time>
      </trkpt>
      <trkpt lat="45.47618" lon="5.10132">
        <ele>391.7</ele>
        <time>2024-06-27T17:41:16.290Z</time>
      </trkpt>
      <trkpt lat="45.47611" lon="5.1014">
        <ele>391</ele>
        <time>2024-06-27T17:41:21.579Z</time>
      </trkpt>
      <trkpt lat="45.47603" lon="5.1015">
        <ele>390.8</ele>
        <time>2024-06-27T17:41:26.870Z</time>
      </trkpt>
      <trkpt lat="45.47591" lon="5.10165">
        <ele>391.2</ele>
        <time>2024-06-27T17:41:32.164Z</time>
      </trkpt>
      <trkpt lat="45.47579" lon="5.1018">
        <ele>391.4</ele>
        <time>2024-06-27T17:41:37.461Z</time>
      </trkpt>
      <trkpt lat="45.47565" lon="5.10201">
        <ele>392</ele>
        <time>2024-06-27T17:41:42.762Z</time>
      </trkpt>
      <trkpt lat="45.47557" lon="5.10211">
        <ele>392.2</ele>
        <time>2024-06-27T17:41:48.066Z</time>
      </trkpt>
      <trkpt lat="45.47533" lon="5.10247">
        <ele>391</ele>
        <time>2024-06-27T17:41:53.376Z</time>
      </trkpt>
      <trkpt lat="45.47517" lon="5.10272">
        <ele>390.2</ele>
        <time>2024-06-27T17:41:58.691Z</time>
      </trkpt>
      <trkpt lat="45.47511" lon="5.10281">
        <ele>391.1</ele>
        <time>2024-06-27T17:42:04.008Z</time>
      </trkpt>
      <trkpt lat="45.47498" lon="5.10298">
        <ele>390.3</ele>
        <time>2024-06-27T17:42:09.328Z</time>
      </trkpt>
      <trkpt lat="45.47499" lon="5.10306">
        <ele>391.2</ele>
        <time>2024-06-27T17:42:14.649Z</time>
      </trkpt>
      <trkpt lat="45.47501" lon="5.10309">
        <ele>392</ele>
        <time>2024-06-27T17:42:19.971Z</time>
      </trkpt>
      <trkpt lat="45.47504" lon="5.1031">
        <ele>392.9</ele>
        <time>2024-06-27T17:42:25.293Z</time>
      </trkpt>
      <trkpt lat="45.47509" lon="5.10312">
        <ele>394.3</ele>
        <time>2024-06-27T17:42:30.616Z</time>
      </trkpt>
      <trkpt lat="45.47512" lon="5.10312">
        <ele>395.1</ele>
        <time>2024-06-27T17:42:35.940Z</time>
      </trkpt>
      <trkpt lat="45.47519" lon="5.10314">
        <ele>397</ele>
        <time>2024-06-27T17:42:41.265Z</time>
      </trkpt>
      <trkpt lat="45.47512" lon="5.10313">
        <ele>395.2</ele>
        <time>2024-06-27T17:42:46.591Z</time>
      </trkpt>
      <trkpt lat="45.4751" lon="5.10312">
        <ele>394.6</ele>
        <time>2024-06-27T17:42:51.918Z</time>
      </trkpt>
      <trkpt lat="45.47497" lon="5.10303">
        <ele>390.7</ele>
        <time>2024-06-27T17:42:57.248Z</time>
      </trkpt>
      <trkpt lat="45.47485" lon="5.10299">
        <ele>389.5</ele>
        <time>2024-06-27T17:43:02.580Z</time>
      </trkpt>
      <trkpt lat="45.47461" lon="5.10299">
        <ele>388.2</ele>
        <time>2024-06-27T17:43:07.917Z</time>
      </trkpt>
      <trkpt lat="45.47434" lon="5.10299">
        <ele>388.2</ele>
        <time>2024-06-27T17:43:13.259Z</time>
      </trkpt>
      <trkpt lat="45.47405" lon="5.10301">
        <ele>389.2</ele>
        <time>2024-06-27T17:43:18.607Z</time>
      </trkpt>
      <trkpt lat="45.47397" lon="5.10302">
        <ele>389.4</ele>
        <time>2024-06-27T17:43:23.956Z</time>
      </trkpt>
      <trkpt lat="45.47393" lon="5.10303">
        <ele>389.5</ele>
        <time>2024-06-27T17:43:29.306Z</time>
      </trkpt>
      <trkpt lat="45.47374" lon="5.10309">
        <ele>390</ele>
        <time>2024-06-27T17:43:34.660Z</time>
      </trkpt>
      <trkpt lat="45.47363" lon="5.10314">
        <ele>390.2</ele>
        <time>2024-06-27T17:43:40.016Z</time>
      </trkpt>
      <trkpt lat="45.47359" lon="5.10316">
        <ele>390.3</ele>
        <time>2024-06-27T17:43:45.373Z</time>
      </trkpt>
      <trkpt lat="45.47345" lon="5.10323">
        <ele>391.1</ele>
        <time>2024-06-27T17:43:50.733Z</time>
      </trkpt>
      <trkpt lat="45.47328" lon="5.10334">
        <ele>391.7</ele>
        <time>2024-06-27T17:43:56.096Z</time>
      </trkpt>
      <trkpt lat="45.47316" lon="5.10348">
        <ele>392.2</ele>
        <time>2024-06-27T17:44:01.462Z</time>
      </trkpt>
      <trkpt lat="45.47308" lon="5.10361">
        <ele>392.4</ele>
        <time>2024-06-27T17:44:06.831Z</time>
      </trkpt>
      <trkpt lat="45.47296" lon="5.10383">
        <ele>392.4</ele>
        <time>2024-06-27T17:44:12.203Z</time>
      </trkpt>
      <trkpt lat="45.47289" lon="5.10396">
        <ele>392.3</ele>
        <time>2024-06-27T17:44:17.578Z</time>
      </trkpt>
      <trkpt lat="45.47286" lon="5.104">
        <ele>392.1</ele>
        <time>2024-06-27T17:44:22.953Z</time>
      </trkpt>
      <trkpt lat="45.47274" lon="5.10422">
        <ele>391.5</ele>
        <time>2024-06-27T17:44:28.332Z</time>
      </trkpt>
      <trkpt lat="45.47271" lon="5.10426">
        <ele>391.5</ele>
        <time>2024-06-27T17:44:33.712Z</time>
      </trkpt>
      <trkpt lat="45.47267" lon="5.10435">
        <ele>390.9</ele>
        <time>2024-06-27T17:44:39.094Z</time>
      </trkpt>
      <trkpt lat="45.47252" lon="5.10461">
        <ele>390.9</ele>
        <time>2024-06-27T17:44:44.480Z</time>
      </trkpt>
      <trkpt lat="45.47245" lon="5.10473">
        <ele>390.9</ele>
        <time>2024-06-27T17:44:49.868Z</time>
      </trkpt>
      <trkpt lat="45.4724" lon="5.10482">
        <ele>391</ele>
        <time>2024-06-27T17:44:55.258Z</time>
      </trkpt>
      <trkpt lat="45.4722" lon="5.10516">
        <ele>394.1</ele>
        <time>2024-06-27T17:45:00.654Z</time>
      </trkpt>
      <trkpt lat="45.47216" lon="5.10524">
        <ele>394.4</ele>
        <time>2024-06-27T17:45:06.051Z</time>
      </trkpt>
      <trkpt lat="45.47209" lon="5.10536">
        <ele>395</ele>
        <time>2024-06-27T17:45:11.450Z</time>
      </trkpt>
      <trkpt lat="45.47198" lon="5.10556">
        <ele>396.3</ele>
        <time>2024-06-27T17:45:16.853Z</time>
      </trkpt>
      <trkpt lat="45.47181" lon="5.10585">
        <ele>395.5</ele>
        <time>2024-06-27T17:45:22.261Z</time>
      </trkpt>
      <trkpt lat="45.47177" lon="5.10594">
        <ele>395.4</ele>
        <time>2024-06-27T17:45:27.670Z</time>
      </trkpt>
      <trkpt lat="45.47164" lon="5.10616">
        <ele>395.5</ele>
        <time>2024-06-27T17:45:33.083Z</time>
      </trkpt>
      <trkpt lat="45.47154" lon="5.10634">
        <ele>396.3</ele>
        <time>2024-06-27T17:45:38.499Z</time>
      </trkpt>
      <trkpt lat="45.47152" lon="5.10639">
        <ele>396.5</ele>
        <time>2024-06-27T17:45:43.916Z</time>
      </trkpt>
      <trkpt lat="45.47134" lon="5.1067">
        <ele>396.8</ele>
        <time>2024-06-27T17:45:49.339Z</time>
      </trkpt>
      <trkpt lat="45.47127" lon="5.10683">
        <ele>396.8</ele>
        <time>2024-06-27T17:45:54.764Z</time>
      </trkpt>
      <trkpt lat="45.47104" lon="5.10724">
        <ele>397.2</ele>
        <time>2024-06-27T17:46:00.196Z</time>
      </trkpt>
      <trkpt lat="45.47094" lon="5.10742">
        <ele>398.1</ele>
        <time>2024-06-27T17:46:05.631Z</time>
      </trkpt>
      <trkpt lat="45.47091" lon="5.10746">
        <ele>398.1</ele>
        <time>2024-06-27T17:46:11.067Z</time>
      </trkpt>
      <trkpt lat="45.47075" lon="5.10776">
        <ele>400.1</ele>
        <time>2024-06-27T17:46:16.508Z</time>
      </trkpt>
      <trkpt lat="45.4707" lon="5.10784">
        <ele>401</ele>
        <time>2024-06-27T17:46:21.950Z</time>
      </trkpt>
      <trkpt lat="45.47064" lon="5.10797">
        <ele>402</ele>
        <time>2024-06-27T17:46:27.395Z</time>
      </trkpt>
      <trkpt lat="45.47045" lon="5.10832">
        <ele>403.7</ele>
        <time>2024-06-27T17:46:32.846Z</time>
      </trkpt>
      <trkpt lat="45.47041" lon="5.10846">
        <ele>404</ele>
        <time>2024-06-27T17:46:38.299Z</time>
      </trkpt>
      <trkpt lat="45.47036" lon="5.10866">
        <ele>404.3</ele>
        <time>2024-06-27T17:46:43.755Z</time>
      </trkpt>
      <trkpt lat="45.47035" lon="5.10871">
        <ele>404.4</ele>
        <time>2024-06-27T17:46:49.211Z</time>
      </trkpt>
      <trkpt lat="45.47033" lon="5.10906">
        <ele>403.6</ele>
        <time>2024-06-27T17:46:54.672Z</time>
      </trkpt>
      <trkpt lat="45.47032" lon="5.10924">
        <ele>403</ele>
        <time>2024-06-27T17:47:00.135Z</time>
      </trkpt>
      <trkpt lat="45.47033" lon="5.10974">
        <ele>403.3</ele>
        <time>2024-06-27T17:47:05.605Z</time>
      </trkpt>
      <trkpt lat="45.47033" lon="5.1098">
        <ele>403.7</ele>
        <time>2024-06-27T17:47:11.076Z</time>
      </trkpt>
      <trkpt lat="45.47032" lon="5.11025">
        <ele>406.5</ele>
        <time>2024-06-27T17:47:16.553Z</time>
      </trkpt>
      <trkpt lat="45.47032" lon="5.11036">
        <ele>406.9</ele>
        <time>2024-06-27T17:47:22.032Z</time>
      </trkpt>
      <trkpt lat="45.47033" lon="5.11082">
        <ele>408.6</ele>
        <time>2024-06-27T17:47:27.517Z</time>
      </trkpt>
      <trkpt lat="45.47032" lon="5.11095">
        <ele>409</ele>
        <time>2024-06-27T17:47:33.004Z</time>
      </trkpt>
      <trkpt lat="45.47032" lon="5.11107">
        <ele>409.2</ele>
        <time>2024-06-27T17:47:38.492Z</time>
      </trkpt>
      <trkpt lat="45.47032" lon="5.11153">
        <ele>409.2</ele>
        <time>2024-06-27T17:47:43.987Z</time>
      </trkpt>
      <trkpt lat="45.47032" lon="5.11158">
        <ele>409</ele>
        <time>2024-06-27T17:47:49.482Z</time>
      </trkpt>
      <trkpt lat="45.47031" lon="5.1118">
        <ele>408.1</ele>
        <time>2024-06-27T17:47:54.980Z</time>
      </trkpt>
      <trkpt lat="45.47031" lon="5.11209">
        <ele>406.9</ele>
        <time>2024-06-27T17:48:00.482Z</time>
      </trkpt>
      <trkpt lat="45.47027" lon="5.11256">
        <ele>406.4</ele>
        <time>2024-06-27T17:48:05.991Z</time>
      </trkpt>
      <trkpt lat="45.47018" lon="5.11309">
        <ele>408.3</ele>
        <time>2024-06-27T17:48:11.507Z</time>
      </trkpt>
      <trkpt lat="45.4701" lon="5.11351">
        <ele>409.6</ele>
        <time>2024-06-27T17:48:17.029Z</time>
      </trkpt>
      <trkpt lat="45.47008" lon="5.11364">
        <ele>410</ele>
        <time>2024-06-27T17:48:22.553Z</time>
      </trkpt>
      <trkpt lat="45.46999" lon="5.11409">
        <ele>411</ele>
        <time>2024-06-27T17:48:28.083Z</time>
      </trkpt>
      <trkpt lat="45.46997" lon="5.11421">
        <ele>410.9</ele>
        <time>2024-06-27T17:48:33.615Z</time>
      </trkpt>
      <trkpt lat="45.46988" lon="5.11467">
        <ele>411.6</ele>
        <time>2024-06-27T17:48:39.153Z</time>
      </trkpt>
      <trkpt lat="45.46987" lon="5.11473">
        <ele>411.6</ele>
        <time>2024-06-27T17:48:44.692Z</time>
      </trkpt>
      <trkpt lat="45.46976" lon="5.11528">
        <ele>411.2</ele>
        <time>2024-06-27T17:48:50.239Z</time>
      </trkpt>
      <trkpt lat="45.46975" lon="5.11535">
        <ele>411.1</ele>
        <time>2024-06-27T17:48:55.787Z</time>
      </trkpt>
      <trkpt lat="45.46969" lon="5.1157">
        <ele>410.9</ele>
        <time>2024-06-27T17:49:01.340Z</time>
      </trkpt>
      <trkpt lat="45.46966" lon="5.11584">
        <ele>411</ele>
        <time>2024-06-27T17:49:06.895Z</time>
      </trkpt>
      <trkpt lat="45.46952" lon="5.11661">
        <ele>413.5</ele>
        <time>2024-06-27T17:49:12.461Z</time>
      </trkpt>
      <trkpt lat="45.46944" lon="5.11702">
        <ele>415.7</ele>
        <time>2024-06-27T17:49:18.033Z</time>
      </trkpt>
      <trkpt lat="45.46938" lon="5.11736">
        <ele>417.1</ele>
        <time>2024-06-27T17:49:23.609Z</time>
      </trkpt>
      <trkpt lat="45.46936" lon="5.11742">
        <ele>417</ele>
        <time>2024-06-27T17:49:29.186Z</time>
      </trkpt>
      <trkpt lat="45.46927" lon="5.11792">
        <ele>416.7</ele>
        <time>2024-06-27T17:49:34.770Z</time>
      </trkpt>
      <trkpt lat="45.46922" lon="5.11816">
        <ele>415.7</ele>
        <time>2024-06-27T17:49:40.358Z</time>
      </trkpt>
      <trkpt lat="45.46917" lon="5.11845">
        <ele>415.8</ele>
        <time>2024-06-27T17:49:45.950Z</time>
      </trkpt>
      <trkpt lat="45.46916" lon="5.11851">
        <ele>416</ele>
        <time>2024-06-27T17:49:51.543Z</time>
      </trkpt>
      <trkpt lat="45.46914" lon="5.11862">
        <ele>415.9</ele>
        <time>2024-06-27T17:49:57.137Z</time>
      </trkpt>
      <trkpt lat="45.46915" lon="5.11868">
        <ele>416</ele>
        <time>2024-06-27T17:50:02.732Z</time>
      </trkpt>
      <trkpt lat="45.46916" lon="5.11872">
        <ele>416</ele>
        <time>2024-06-27T17:50:08.328Z</time>
      </trkpt>
      <trkpt lat="45.46919" lon="5.11877">
        <ele>416</ele>
        <time>2024-06-27T17:50:13.925Z</time>
      </trkpt>
      <trkpt lat="45.46929" lon="5.11889">
        <ele>416.4</ele>
        <time>2024-06-27T17:50:19.524Z</time>
      </trkpt>
      <trkpt lat="45.46938" lon="5.11902">
        <ele>416.8</ele>
        <time>2024-06-27T17:50:25.126Z</time>
      </trkpt>
      <trkpt lat="45.46952" lon="5.11919">
        <ele>416.7</ele>
        <time>2024-06-27T17:50:30.731Z</time>
      </trkpt>
      <trkpt lat="45.46963" lon="5.11932">
        <ele>416.3</ele>
        <time>2024-06-27T17:50:36.339Z</time>
      </trkpt>
      <trkpt lat="45.46975" lon="5.11948">
        <ele>416.2</ele>
        <time>2024-06-27T17:50:41.950Z</time>
      </trkpt>
      <trkpt lat="45.46979" lon="5.11952">
        <ele>416.1</ele>
        <time>2024-06-27T17:50:47.562Z</time>
      </trkpt>
      <trkpt lat="45.47004" lon="5.11982">
        <ele>415.6</ele>
        <time>2024-06-27T17:50:53.180Z</time>
      </trkpt>
      <trkpt lat="45.47007" lon="5.11987">
        <ele>415.6</ele>
        <time>2024-06-27T17:50:58.799Z</time>
      </trkpt>
      <trkpt lat="45.47014" lon="5.11996">
        <ele>415.5</ele>
        <time>2024-06-27T17:51:04.420Z</time>
      </trkpt>
      <trkpt lat="45.47018" lon="5.12">
        <ele>415.3</ele>
        <time>2024-06-27T17:51:10.042Z</time>
      </trkpt>
      <trkpt lat="45.47026" lon="5.12009">
        <ele>415</ele>
        <time>2024-06-27T17:51:15.666Z</time>
      </trkpt>
      <trkpt lat="45.47033" lon="5.12017">
        <ele>414.6</ele>
        <time>2024-06-27T17:51:21.292Z</time>
      </trkpt>
      <trkpt lat="45.47039" lon="5.12026">
        <ele>414.1</ele>
        <time>2024-06-27T17:51:26.919Z</time>
      </trkpt>
      <trkpt lat="45.47067" lon="5.12062">
        <ele>413.2</ele>
        <time>2024-06-27T17:51:32.554Z</time>
      </trkpt>
      <trkpt lat="45.47071" lon="5.12067">
        <ele>413.2</ele>
        <time>2024-06-27T17:51:38.190Z</time>
      </trkpt>
      <trkpt lat="45.471" lon="5.12103">
        <ele>413.5</ele>
        <time>2024-06-27T17:51:43.833Z</time>
      </trkpt>
      <trkpt lat="45.47103" lon="5.12108">
        <ele>413.5</ele>
        <time>2024-06-27T17:51:49.477Z</time>
      </trkpt>
      <trkpt lat="45.47107" lon="5.12113">
        <ele>413.6</ele>
        <time>2024-06-27T17:51:55.122Z</time>
      </trkpt>
      <trkpt lat="45.47128" lon="5.12136">
        <ele>413</ele>
        <time>2024-06-27T17:52:00.772Z</time>
      </trkpt>
      <trkpt lat="45.47136" lon="5.12147">
        <ele>412.8</ele>
        <time>2024-06-27T17:52:06.424Z</time>
      </trkpt>
      <trkpt lat="45.47144" lon="5.12158">
        <ele>412.6</ele>
        <time>2024-06-27T17:52:12.079Z</time>
      </trkpt>
      <trkpt lat="45.47153" lon="5.12169">
        <ele>412.4</ele>
        <time>2024-06-27T17:52:17.736Z</time>
      </trkpt>
      <trkpt lat="45.47177" lon="5.12201">
        <ele>411.8</ele>
        <time>2024-06-27T17:52:23.399Z</time>
      </trkpt>
      <trkpt lat="45.47201" lon="5.12234">
        <ele>411.3</ele>
        <time>2024-06-27T17:52:29.069Z</time>
      </trkpt>
      <trkpt lat="45.47224" lon="5.12266">
        <ele>410.9</ele>
        <time>2024-06-27T17:52:34.745Z</time>
      </trkpt>
      <trkpt lat="45.47254" lon="5.12306">
        <ele>410</ele>
        <time>2024-06-27T17:52:40.429Z</time>
      </trkpt>
      <trkpt lat="45.47273" lon="5.12331">
        <ele>410.3</ele>
        <time>2024-06-27T17:52:46.118Z</time>
      </trkpt>
      <trkpt lat="45.47287" lon="5.12352">
        <ele>410.3</ele>
        <time>2024-06-27T17:52:51.811Z</time>
      </trkpt>
      <trkpt lat="45.47302" lon="5.12372">
        <ele>410</ele>
        <time>2024-06-27T17:52:57.508Z</time>
      </trkpt>
      <trkpt lat="45.47326" lon="5.12405">
        <ele>409.4</ele>
        <time>2024-06-27T17:53:03.211Z</time>
      </trkpt>
      <trkpt lat="45.4734" lon="5.12422">
        <ele>408.7</ele>
        <time>2024-06-27T17:53:08.918Z</time>
      </trkpt>
      <trkpt lat="45.4736" lon="5.12442">
        <ele>408</ele>
        <time>2024-06-27T17:53:14.630Z</time>
      </trkpt>
      <trkpt lat="45.47384" lon="5.12463">
        <ele>408.8</ele>
        <time>2024-06-27T17:53:20.347Z</time>
      </trkpt>
      <trkpt lat="45.47396" lon="5.12474">
        <ele>409.4</ele>
        <time>2024-06-27T17:53:26.067Z</time>
      </trkpt>
      <trkpt lat="45.47405" lon="5.1248">
        <ele>410.2</ele>
        <time>2024-06-27T17:53:31.789Z</time>
      </trkpt>
      <trkpt lat="45.47429" lon="5.12495">
        <ele>411.9</ele>
        <time>2024-06-27T17:53:37.516Z</time>
      </trkpt>
      <trkpt lat="45.47432" lon="5.12497">
        <ele>412.2</ele>
        <time>2024-06-27T17:53:43.244Z</time>
      </trkpt>
      <trkpt lat="45.47442" lon="5.12503">
        <ele>412.9</ele>
        <time>2024-06-27T17:53:48.974Z</time>
      </trkpt>
      <trkpt lat="45.47448" lon="5.12508">
        <ele>413</ele>
        <time>2024-06-27T17:53:54.705Z</time>
      </trkpt>
      <trkpt lat="45.47451" lon="5.12511">
        <ele>413</ele>
        <time>2024-06-27T17:54:00.437Z</time>
      </trkpt>
      <trkpt lat="45.47457" lon="5.12517">
        <ele>413</ele>
        <time>2024-06-27T17:54:06.170Z</time>
      </trkpt>
      <trkpt lat="45.47462" lon="5.12524">
        <ele>413</ele>
        <time>2024-06-27T17:54:11.904Z</time>
      </trkpt>
      <trkpt lat="45.47464" lon="5.12528">
        <ele>413</ele>
        <time>2024-06-27T17:54:17.639Z</time>
      </trkpt>
      <trkpt lat="45.47469" lon="5.12536">
        <ele>413</ele>
        <time>2024-06-27T17:54:23.376Z</time>
      </trkpt>
      <trkpt lat="45.47475" lon="5.12548">
        <ele>413.3</ele>
        <time>2024-06-27T17:54:29.115Z</time>
      </trkpt>
      <trkpt lat="45.47483" lon="5.12566">
        <ele>413.8</ele>
        <time>2024-06-27T17:54:34.856Z</time>
      </trkpt>
      <trkpt lat="45.47487" lon="5.12574">
        <ele>414.2</ele>
        <time>2024-06-27T17:54:40.599Z</time>
      </trkpt>
      <trkpt lat="45.47496" lon="5.12596">
        <ele>415.6</ele>
        <time>2024-06-27T17:54:46.345Z</time>
      </trkpt>
      <trkpt lat="45.47504" lon="5.12612">
        <ele>416.7</ele>
        <time>2024-06-27T17:54:52.094Z</time>
      </trkpt>
      <trkpt lat="45.47506" lon="5.12616">
        <ele>417</ele>
        <time>2024-06-27T17:54:57.844Z</time>
      </trkpt>
      <trkpt lat="45.47511" lon="5.12628">
        <ele>417.8</ele>
        <time>2024-06-27T17:55:03.596Z</time>
      </trkpt>
      <trkpt lat="45.47522" lon="5.12652">
        <ele>419.5</ele>
        <time>2024-06-27T17:55:09.351Z</time>
      </trkpt>
      <trkpt lat="45.47529" lon="5.12668">
        <ele>420.1</ele>
        <time>2024-06-27T17:55:15.109Z</time>
      </trkpt>
      <trkpt lat="45.47535" lon="5.12679">
        <ele>420.3</ele>
        <time>2024-06-27T17:55:20.869Z</time>
      </trkpt>
      <trkpt lat="45.4755" lon="5.12711">
        <ele>421.5</ele>
        <time>2024-06-27T17:55:26.634Z</time>
      </trkpt>
      <trkpt lat="45.47564" lon="5.12745">
        <ele>422.3</ele>
        <time>2024-06-27T17:55:32.405Z</time>
      </trkpt>
      <trkpt lat="45.47568" lon="5.12753">
        <ele>422.5</ele>
        <time>2024-06-27T17:55:38.177Z</time>
      </trkpt>
      <trkpt lat="45.47586" lon="5.12794">
        <ele>422.4</ele>
        <time>2024-06-27T17:55:43.955Z</time>
      </trkpt>
      <trkpt lat="45.47592" lon="5.12808">
        <ele>423</ele>
        <time>2024-06-27T17:55:49.736Z</time>
      </trkpt>
      <trkpt lat="45.47597" lon="5.12816">
        <ele>423.5</ele>
        <time>2024-06-27T17:55:55.518Z</time>
      </trkpt>
      <trkpt lat="45.47612" lon="5.1285">
        <ele>425.1</ele>
        <time>2024-06-27T17:56:01.306Z</time>
      </trkpt>
      <trkpt lat="45.47626" lon="5.1288">
        <ele>424.6</ele>
        <time>2024-06-27T17:56:07.098Z</time>
      </trkpt>
      <trkpt lat="45.47631" lon="5.12892">
        <ele>424.3</ele>
        <time>2024-06-27T17:56:12.892Z</time>
      </trkpt>
      <trkpt lat="45.47635" lon="5.12901">
        <ele>424</ele>
        <time>2024-06-27T17:56:18.688Z</time>
      </trkpt>
      <trkpt lat="45.4765" lon="5.12932">
        <ele>423.8</ele>
        <time>2024-06-27T17:56:24.489Z</time>
      </trkpt>
      <trkpt lat="45.47663" lon="5.12958">
        <ele>424.7</ele>
        <time>2024-06-27T17:56:30.294Z</time>
      </trkpt>
      <trkpt lat="45.47668" lon="5.12969">
        <ele>425.4</ele>
        <time>2024-06-27T17:56:36.101Z</time>
      </trkpt>
      <trkpt lat="45.47673" lon="5.12978">
        <ele>426.3</ele>
        <time>2024-06-27T17:56:41.910Z</time>
      </trkpt>
      <trkpt lat="45.47678" lon="5.1299">
        <ele>427.2</ele>
        <time>2024-06-27T17:56:47.721Z</time>
      </trkpt>
      <trkpt lat="45.4768" lon="5.12995">
        <ele>427.7</ele>
        <time>2024-06-27T17:56:53.532Z</time>
      </trkpt>
      <trkpt lat="45.47685" lon="5.13006">
        <ele>429</ele>
        <time>2024-06-27T17:56:59.345Z</time>
      </trkpt>
      <trkpt lat="45.47686" lon="5.13008">
        <ele>429.3</ele>
        <time>2024-06-27T17:57:05.158Z</time>
      </trkpt>
      <trkpt lat="45.4769" lon="5.13016">
        <ele>430.3</ele>
        <time>2024-06-27T17:57:10.973Z</time>
      </trkpt>
      <trkpt lat="45.47692" lon="5.1302">
        <ele>430.8</ele>
        <time>2024-06-27T17:57:16.788Z</time>
      </trkpt>
      <trkpt lat="45.47697" lon="5.13029">
        <ele>431.6</ele>
        <time>2024-06-27T17:57:22.605Z</time>
      </trkpt>
      <trkpt lat="45.47699" lon="5.13033">
        <ele>431.9</ele>
        <time>2024-06-27T17:57:28.423Z</time>
      </trkpt>
      <trkpt lat="45.47704" lon="5.13042">
        <ele>432.6</ele>
        <time>2024-06-27T17:57:34.242Z</time>
      </trkpt>
      <trkpt lat="45.4771" lon="5.1305">
        <ele>433.2</ele>
        <time>2024-06-27T17:57:40.063Z</time>
      </trkpt>
      <trkpt lat="45.4772" lon="5.13061">
        <ele>433.9</ele>
        <time>2024-06-27T17:57:45.886Z</time>
      </trkpt>
      <trkpt lat="45.47729" lon="5.13068">
        <ele>435.1</ele>
        <time>2024-06-27T17:57:51.711Z</time>
      </trkpt>
      <trkpt lat="45.4774" lon="5.13075">
        <ele>436.7</ele>
        <time>2024-06-27T17:57:57.539Z</time>
      </trkpt>
      <trkpt lat="45.47748" lon="5.1308">
        <ele>437.8</ele>
        <time>2024-06-27T17:58:03.368Z</time>
      </trkpt>
      <trkpt lat="45.47749" lon="5.13081">
        <ele>437.9</ele>
        <time>2024-06-27T17:58:09.198Z</time>
      </trkpt>
      <trkpt lat="45.47751" lon="5.13082">
        <ele>438.2</ele>
        <time>2024-06-27T17:58:15.028Z</time>
      </trkpt>
      <trkpt lat="45.47759" lon="5.13086">
        <ele>439.4</ele>
        <time>2024-06-27T17:58:20.859Z</time>
      </trkpt>
      <trkpt lat="45.4777" lon="5.13092">
        <ele>441</ele>
        <time>2024-06-27T17:58:26.693Z</time>
      </trkpt>
      <trkpt lat="45.47774" lon="5.13094">
        <ele>441.5</ele>
        <time>2024-06-27T17:58:32.528Z</time>
      </trkpt>
      <trkpt lat="45.47785" lon="5.13099">
        <ele>442.8</ele>
        <time>2024-06-27T17:58:38.365Z</time>
      </trkpt>
      <trkpt lat="45.47793" lon="5.13104">
        <ele>443.7</ele>
        <time>2024-06-27T17:58:44.204Z</time>
      </trkpt>
      <trkpt lat="45.478" lon="5.13107">
        <ele>444.5</ele>
        <time>2024-06-27T17:58:50.044Z</time>
      </trkpt>
      <trkpt lat="45.47809" lon="5.13113">
        <ele>445.3</ele>
        <time>2024-06-27T17:58:55.886Z</time>
      </trkpt>
      <trkpt lat="45.47812" lon="5.13114">
        <ele>445.5</ele>
        <time>2024-06-27T17:59:01.728Z</time>
      </trkpt>
      <trkpt lat="45.47832" lon="5.13124">
        <ele>447.1</ele>
        <time>2024-06-27T17:59:07.575Z</time>
      </trkpt>
      <trkpt lat="45.47841" lon="5.13127">
        <ele>448</ele>
        <time>2024-06-27T17:59:13.423Z</time>
      </trkpt>
      <trkpt lat="45.4785" lon="5.13131">
        <ele>448.8</ele>
        <time>2024-06-27T17:59:19.273Z</time>
      </trkpt>
      <trkpt lat="45.4786" lon="5.13136">
        <ele>449.7</ele>
        <time>2024-06-27T17:59:25.125Z</time>
      </trkpt>
      <trkpt lat="45.47862" lon="5.13137">
        <ele>449.9</ele>
        <time>2024-06-27T17:59:30.978Z</time>
      </trkpt>
      <trkpt lat="45.4787" lon="5.13141">
        <ele>450.6</ele>
        <time>2024-06-27T17:59:36.832Z</time>
      </trkpt>
      <trkpt lat="45.47886" lon="5.13149">
        <ele>451.8</ele>
        <time>2024-06-27T17:59:42.690Z</time>
      </trkpt>
      <trkpt lat="45.47899" lon="5.13155">
        <ele>452.8</ele>
        <time>2024-06-27T17:59:48.550Z</time>
      </trkpt>
      <trkpt lat="45.47916" lon="5.13163">
        <ele>454</ele>
        <time>2024-06-27T17:59:54.414Z</time>
      </trkpt>
      <trkpt lat="45.47918" lon="5.13164">
        <ele>454</ele>
        <time>2024-06-27T18:00:00.278Z</time>
      </trkpt>
      <trkpt lat="45.47936" lon="5.13173">
        <ele>454</ele>
        <time>2024-06-27T18:00:06.146Z</time>
      </trkpt>
      <trkpt lat="45.47938" lon="5.13174">
        <ele>454</ele>
        <time>2024-06-27T18:00:12.014Z</time>
      </trkpt>
      <trkpt lat="45.47954" lon="5.13182">
        <ele>454</ele>
        <time>2024-06-27T18:00:17.886Z</time>
      </trkpt>
      <trkpt lat="45.4796" lon="5.13185">
        <ele>454</ele>
        <time>2024-06-27T18:00:23.759Z</time>
      </trkpt>
      <trkpt lat="45.47984" lon="5.13199">
        <ele>454.5</ele>
        <time>2024-06-27T18:00:29.637Z</time>
      </trkpt>
      <trkpt lat="45.48008" lon="5.13213">
        <ele>454.7</ele>
        <time>2024-06-27T18:00:35.520Z</time>
      </trkpt>
      <trkpt lat="45.48013" lon="5.13216">
        <ele>454.7</ele>
        <time>2024-06-27T18:00:41.404Z</time>
      </trkpt>
      <trkpt lat="45.48026" lon="5.13224">
        <ele>454.5</ele>
        <time>2024-06-27T18:00:47.291Z</time>
      </trkpt>
      <trkpt lat="45.48039" lon="5.13232">
        <ele>454.3</ele>
        <time>2024-06-27T18:00:53.180Z</time>
      </trkpt>
      <trkpt lat="45.48052" lon="5.1324">
        <ele>454.1</ele>
        <time>2024-06-27T18:00:59.072Z</time>
      </trkpt>
      <trkpt lat="45.48061" lon="5.13245">
        <ele>453.8</ele>
        <time>2024-06-27T18:01:04.966Z</time>
      </trkpt>
      <trkpt lat="45.48085" lon="5.13261">
        <ele>452.7</ele>
        <time>2024-06-27T18:01:10.865Z</time>
      </trkpt>
      <trkpt lat="45.4809" lon="5.13264">
        <ele>452.6</ele>
        <time>2024-06-27T18:01:16.765Z</time>
      </trkpt>
      <trkpt lat="45.48106" lon="5.13273">
        <ele>452.6</ele>
        <time>2024-06-27T18:01:22.669Z</time>
      </trkpt>
      <trkpt lat="45.48136" lon="5.13295">
        <ele>454</ele>
        <time>2024-06-27T18:01:28.579Z</time>
      </trkpt>
      <trkpt lat="45.48151" lon="5.13307">
        <ele>453.5</ele>
        <time>2024-06-27T18:01:34.492Z</time>
      </trkpt>
      <trkpt lat="45.48177" lon="5.13328">
        <ele>452.2</ele>
        <time>2024-06-27T18:01:40.411Z</time>
      </trkpt>
      <trkpt lat="45.48183" lon="5.13333">
        <ele>451.8</ele>
        <time>2024-06-27T18:01:46.331Z</time>
      </trkpt>
      <trkpt lat="45.48189" lon="5.13339">
        <ele>451.4</ele>
        <time>2024-06-27T18:01:52.253Z</time>
      </trkpt>
      <trkpt lat="45.48195" lon="5.13346">
        <ele>450.9</ele>
        <time>2024-06-27T18:01:58.176Z</time>
      </trkpt>
      <trkpt lat="45.48202" lon="5.13353">
        <ele>450.5</ele>
        <time>2024-06-27T18:02:04.101Z</time>
      </trkpt>
      <trkpt lat="45.48209" lon="5.13361">
        <ele>450.3</ele>
        <time>2024-06-27T18:02:10.028Z</time>
      </trkpt>
      <trkpt lat="45.48217" lon="5.13369">
        <ele>450</ele>
        <time>2024-06-27T18:02:15.957Z</time>
      </trkpt>
      <trkpt lat="45.48225" lon="5.13377">
        <ele>449.7</ele>
        <time>2024-06-27T18:02:21.888Z</time>
      </trkpt>
      <trkpt lat="45.4824" lon="5.1339">
        <ele>449.9</ele>
        <time>2024-06-27T18:02:27.822Z</time>
      </trkpt>
      <trkpt lat="45.48248" lon="5.13394">
        <ele>449.8</ele>
        <time>2024-06-27T18:02:33.758Z</time>
      </trkpt>
      <trkpt lat="45.48256" lon="5.13393">
        <ele>449.3</ele>
        <time>2024-06-27T18:02:39.695Z</time>
      </trkpt>
      <trkpt lat="45.48265" lon="5.1339">
        <ele>448.5</ele>
        <time>2024-06-27T18:02:45.634Z</time>
      </trkpt>
      <trkpt lat="45.48274" lon="5.13384">
        <ele>447</ele>
        <time>2024-06-27T18:02:51.575Z</time>
      </trkpt>
      <trkpt lat="45.48282" lon="5.13378">
        <ele>445.6</ele>
        <time>2024-06-27T18:02:57.518Z</time>
      </trkpt>
      <trkpt lat="45.483" lon="5.13363">
        <ele>442.7</ele>
        <time>2024-06-27T18:03:03.465Z</time>
      </trkpt>
      <trkpt lat="45.48309" lon="5.13356">
        <ele>441.4</ele>
        <time>2024-06-27T18:03:09.414Z</time>
      </trkpt>
      <trkpt lat="45.48318" lon="5.1335">
        <ele>440.5</ele>
        <time>2024-06-27T18:03:15.365Z</time>
      </trkpt>
      <trkpt lat="45.48338" lon="5.13342">
        <ele>439.2</ele>
        <time>2024-06-27T18:03:21.320Z</time>
      </trkpt>
      <trkpt lat="45.48348" lon="5.13339">
        <ele>438.6</ele>
        <time>2024-06-27T18:03:27.277Z</time>
      </trkpt>
      <trkpt lat="45.48358" lon="5.13337">
        <ele>437.7</ele>
        <time>2024-06-27T18:03:33.236Z</time>
      </trkpt>
      <trkpt lat="45.48378" lon="5.13334">
        <ele>435.9</ele>
        <time>2024-06-27T18:03:39.198Z</time>
      </trkpt>
      <trkpt lat="45.48388" lon="5.13335">
        <ele>435.3</ele>
        <time>2024-06-27T18:03:45.162Z</time>
      </trkpt>
      <trkpt lat="45.48398" lon="5.13337">
        <ele>434.1</ele>
        <time>2024-06-27T18:03:51.128Z</time>
      </trkpt>
      <trkpt lat="45.48409" lon="5.13341">
        <ele>433.1</ele>
        <time>2024-06-27T18:03:57.097Z</time>
      </trkpt>
      <trkpt lat="45.48419" lon="5.13346">
        <ele>432</ele>
        <time>2024-06-27T18:04:03.068Z</time>
      </trkpt>
      <trkpt lat="45.48428" lon="5.13353">
        <ele>430.7</ele>
        <time>2024-06-27T18:04:09.041Z</time>
      </trkpt>
      <trkpt lat="45.48437" lon="5.1336">
        <ele>429.5</ele>
        <time>2024-06-27T18:04:15.016Z</time>
      </trkpt>
      <trkpt lat="45.48446" lon="5.13369">
        <ele>428.4</ele>
        <time>2024-06-27T18:04:20.993Z</time>
      </trkpt>
      <trkpt lat="45.48455" lon="5.13378">
        <ele>426.8</ele>
        <time>2024-06-27T18:04:26.972Z</time>
      </trkpt>
      <trkpt lat="45.48464" lon="5.13388">
        <ele>425.6</ele>
        <time>2024-06-27T18:04:32.953Z</time>
      </trkpt>
      <trkpt lat="45.48491" lon="5.13425">
        <ele>421.1</ele>
        <time>2024-06-27T18:04:38.941Z</time>
      </trkpt>
      <trkpt lat="45.485" lon="5.13438">
        <ele>418.9</ele>
        <time>2024-06-27T18:04:44.932Z</time>
      </trkpt>
      <trkpt lat="45.48511" lon="5.13451">
        <ele>415.7</ele>
        <time>2024-06-27T18:04:50.926Z</time>
      </trkpt>
      <trkpt lat="45.48531" lon="5.13476">
        <ele>411.1</ele>
        <time>2024-06-27T18:04:56.925Z</time>
      </trkpt>
      <trkpt lat="45.4854" lon="5.13487">
        <ele>410.5</ele>
        <time>2024-06-27T18:05:02.926Z</time>
      </trkpt>
      <trkpt lat="45.48549" lon="5.13499">
        <ele>409.7</ele>
        <time>2024-06-27T18:05:08.929Z</time>
      </trkpt>
      <trkpt lat="45.48567" lon="5.13522">
        <ele>407.6</ele>
        <time>2024-06-27T18:05:14.937Z</time>
      </trkpt>
      <trkpt lat="45.48576" lon="5.13534">
        <ele>406.2</ele>
        <time>2024-06-27T18:05:20.948Z</time>
      </trkpt>
      <trkpt lat="45.48595" lon="5.13559">
        <ele>405.1</ele>
        <time>2024-06-27T18:05:26.964Z</time>
      </trkpt>
      <trkpt lat="45.48605" lon="5.13571">
        <ele>405.3</ele>
        <time>2024-06-27T18:05:32.982Z</time>
      </trkpt>
      <trkpt lat="45.48623" lon="5.13596">
        <ele>404</ele>
        <time>2024-06-27T18:05:39.005Z</time>
      </trkpt>
      <trkpt lat="45.48633" lon="5.13608">
        <ele>402.7</ele>
        <time>2024-06-27T18:05:45.030Z</time>
      </trkpt>
      <trkpt lat="45.48643" lon="5.13618">
        <ele>401.3</ele>
        <time>2024-06-27T18:05:51.058Z</time>
      </trkpt>
      <trkpt lat="45.48654" lon="5.13626">
        <ele>399.5</ele>
        <time>2024-06-27T18:05:57.088Z</time>
      </trkpt>
      <trkpt lat="45.48665" lon="5.13633">
        <ele>397.4</ele>
        <time>2024-06-27T18:06:03.121Z</time>
      </trkpt>
      <trkpt lat="45.48697" lon="5.13655">
        <ele>394.6</ele>
        <time>2024-06-27T18:06:09.161Z</time>
      </trkpt>
      <trkpt lat="45.48719" lon="5.13673">
        <ele>392.3</ele>
        <time>2024-06-27T18:06:15.205Z</time>
      </trkpt>
      <trkpt lat="45.48729" lon="5.13683">
        <ele>390.7</ele>
        <time>2024-06-27T18:06:21.252Z</time>
      </trkpt>
      <trkpt lat="45.48752" lon="5.13703">
        <ele>387.2</ele>
        <time>2024-06-27T18:06:27.304Z</time>
      </trkpt>
      <trkpt lat="45.48765" lon="5.1371">
        <ele>385.2</ele>
        <time>2024-06-27T18:06:33.359Z</time>
      </trkpt>
      <trkpt lat="45.4879" lon="5.13719">
        <ele>382.3</ele>
        <time>2024-06-27T18:06:39.419Z</time>
      </trkpt>
      <trkpt lat="45.48803" lon="5.13722">
        <ele>381.5</ele>
        <time>2024-06-27T18:06:45.481Z</time>
      </trkpt>
      <trkpt lat="45.48837" lon="5.13724">
        <ele>379.3</ele>
        <time>2024-06-27T18:06:51.550Z</time>
      </trkpt>
      <trkpt lat="45.48848" lon="5.13725">
        <ele>378.9</ele>
        <time>2024-06-27T18:06:57.621Z</time>
      </trkpt>
      <trkpt lat="45.48905" lon="5.1373">
        <ele>378.6</ele>
        <time>2024-06-27T18:07:03.703Z</time>
      </trkpt>
      <trkpt lat="45.48934" lon="5.13737">
        <ele>378.9</ele>
        <time>2024-06-27T18:07:09.791Z</time>
      </trkpt>
      <trkpt lat="45.48949" lon="5.13741">
        <ele>379</ele>
        <time>2024-06-27T18:07:15.882Z</time>
      </trkpt>
      <trkpt lat="45.48949" lon="5.13741">
        <ele>379</ele>
        <time>2024-06-27T18:07:21.973Z</time>
      </trkpt>
      <trkpt lat="45.48954" lon="5.13739">
        <ele>379</ele>
        <time>2024-06-27T18:07:28.065Z</time>
      </trkpt>
      <trkpt lat="45.48965" lon="5.13744">
        <ele>379</ele>
        <time>2024-06-27T18:07:34.159Z</time>
      </trkpt>
      <trkpt lat="45.48977" lon="5.13747">
        <ele>379</ele>
        <time>2024-06-27T18:07:40.255Z</time>
      </trkpt>
      <trkpt lat="45.48986" lon="5.1375">
        <ele>378.9</ele>
        <time>2024-06-27T18:07:46.353Z</time>
      </trkpt>
      <trkpt lat="45.4901" lon="5.13756">
        <ele>378.2</ele>
        <time>2024-06-27T18:07:52.456Z</time>
      </trkpt>
      <trkpt lat="45.4903" lon="5.13762">
        <ele>377.9</ele>
        <time>2024-06-27T18:07:58.563Z</time>
      </trkpt>
      <trkpt lat="45.49057" lon="5.13771">
        <ele>377</ele>
        <time>2024-06-27T18:08:04.675Z</time>
      </trkpt>
      <trkpt lat="45.49062" lon="5.13773">
        <ele>376.9</ele>
        <time>2024-06-27T18:08:10.788Z</time>
      </trkpt>
      <trkpt lat="45.49073" lon="5.13778">
        <ele>376.7</ele>
        <time>2024-06-27T18:08:16.903Z</time>
      </trkpt>
      <trkpt lat="45.49088" lon="5.13785">
        <ele>376.8</ele>
        <time>2024-06-27T18:08:23.021Z</time>
      </trkpt>
      <trkpt lat="45.49098" lon="5.13791">
        <ele>377.4</ele>
        <time>2024-06-27T18:08:29.142Z</time>
      </trkpt>
      <trkpt lat="45.49113" lon="5.138">
        <ele>377.9</ele>
        <time>2024-06-27T18:08:35.266Z</time>
      </trkpt>
      <trkpt lat="45.49133" lon="5.13814">
        <ele>377.3</ele>
        <time>2024-06-27T18:08:41.394Z</time>
      </trkpt>
      <trkpt lat="45.49154" lon="5.1383">
        <ele>376.4</ele>
        <time>2024-06-27T18:08:47.526Z</time>
      </trkpt>
      <trkpt lat="45.49165" lon="5.13838">
        <ele>376.1</ele>
        <time>2024-06-27T18:08:53.661Z</time>
      </trkpt>
      <trkpt lat="45.4917" lon="5.13842">
        <ele>375.7</ele>
        <time>2024-06-27T18:08:59.797Z</time>
      </trkpt>
      <trkpt lat="45.49206" lon="5.1387">
        <ele>373.2</ele>
        <time>2024-06-27T18:09:05.941Z</time>
      </trkpt>
      <trkpt lat="45.49243" lon="5.13905">
        <ele>371.2</ele>
        <time>2024-06-27T18:09:12.094Z</time>
      </trkpt>
      <trkpt lat="45.49252" lon="5.13913">
        <ele>371.2</ele>
        <time>2024-06-27T18:09:18.249Z</time>
      </trkpt>
      <trkpt lat="45.49284" lon="5.13935">
        <ele>372.3</ele>
        <time>2024-06-27T18:09:24.410Z</time>
      </trkpt>
      <trkpt lat="45.49302" lon="5.13946">
        <ele>373.7</ele>
        <time>2024-06-27T18:09:30.575Z</time>
      </trkpt>
      <trkpt lat="45.49312" lon="5.13951">
        <ele>374.4</ele>
        <time>2024-06-27T18:09:36.742Z</time>
      </trkpt>
      <trkpt lat="45.49329" lon="5.13963">
        <ele>375.9</ele>
        <time>2024-06-27T18:09:42.913Z</time>
      </trkpt>
      <trkpt lat="45.49348" lon="5.13977">
        <ele>376.5</ele>
        <time>2024-06-27T18:09:49.088Z</time>
      </trkpt>
      <trkpt lat="45.49359" lon="5.13986">
        <ele>376.9</ele>
        <time>2024-06-27T18:09:55.266Z</time>
      </trkpt>
      <trkpt lat="45.49367" lon="5.13992">
        <ele>377</ele>
        <time>2024-06-27T18:10:01.445Z</time>
      </trkpt>
      <trkpt lat="45.49388" lon="5.14009">
        <ele>377</ele>
        <time>2024-06-27T18:10:07.629Z</time>
      </trkpt>
      <trkpt lat="45.49414" lon="5.14029">
        <ele>376.5</ele>
        <time>2024-06-27T18:10:13.819Z</time>
      </trkpt>
      <trkpt lat="45.49418" lon="5.14032">
        <ele>376.5</ele>
        <time>2024-06-27T18:10:20.010Z</time>
      </trkpt>
      <trkpt lat="45.49432" lon="5.14041">
        <ele>376.8</ele>
        <time>2024-06-27T18:10:26.204Z</time>
      </trkpt>
      <trkpt lat="45.49437" lon="5.14044">
        <ele>376.9</ele>
        <time>2024-06-27T18:10:32.399Z</time>
      </trkpt>
      <trkpt lat="45.49458" lon="5.14054">
        <ele>377</ele>
        <time>2024-06-27T18:10:38.598Z</time>
      </trkpt>
      <trkpt lat="45.49468" lon="5.14057">
        <ele>377</ele>
        <time>2024-06-27T18:10:44.799Z</time>
      </trkpt>
      <trkpt lat="45.49474" lon="5.14061">
        <ele>376.8</ele>
        <time>2024-06-27T18:10:51.001Z</time>
      </trkpt>
      <trkpt lat="45.49481" lon="5.14065">
        <ele>376</ele>
        <time>2024-06-27T18:10:57.205Z</time>
      </trkpt>
      <trkpt lat="45.49483" lon="5.14066">
        <ele>375.8</ele>
        <time>2024-06-27T18:11:03.409Z</time>
      </trkpt>
      <trkpt lat="45.4949" lon="5.14067">
        <ele>375.1</ele>
        <time>2024-06-27T18:11:09.615Z</time>
      </trkpt>
      <trkpt lat="45.495" lon="5.14064">
        <ele>374</ele>
        <time>2024-06-27T18:11:15.822Z</time>
      </trkpt>
      <trkpt lat="45.49515" lon="5.14058">
        <ele>373.4</ele>
        <time>2024-06-27T18:11:22.032Z</time>
      </trkpt>
      <trkpt lat="45.4952" lon="5.14057">
        <ele>373</ele>
        <time>2024-06-27T18:11:28.243Z</time>
      </trkpt>
      <trkpt lat="45.49538" lon="5.14055">
        <ele>372.3</ele>
        <time>2024-06-27T18:11:34.458Z</time>
      </trkpt>
      <trkpt lat="45.49544" lon="5.14055">
        <ele>372.3</ele>
        <time>2024-06-27T18:11:40.674Z</time>
      </trkpt>
      <trkpt lat="45.49581" lon="5.14065">
        <ele>372.9</ele>
        <time>2024-06-27T18:11:46.897Z</time>
      </trkpt>
      <trkpt lat="45.49599" lon="5.14075">
        <ele>372.9</ele>
        <time>2024-06-27T18:11:53.124Z</time>
      </trkpt>
      <trkpt lat="45.49623" lon="5.14088">
        <ele>372</ele>
        <time>2024-06-27T18:11:59.356Z</time>
      </trkpt>
      <trkpt lat="45.49628" lon="5.14089">
        <ele>371.8</ele>
        <time>2024-06-27T18:12:05.589Z</time>
      </trkpt>
      <trkpt lat="45.49639" lon="5.14093">
        <ele>371</ele>
        <time>2024-06-27T18:12:11.824Z</time>
      </trkpt>
      <trkpt lat="45.49643" lon="5.14096">
        <ele>371.2</ele>
        <time>2024-06-27T18:12:18.060Z</time>
      </trkpt>
      <trkpt lat="45.49646" lon="5.14101">
        <ele>371.3</ele>
        <time>2024-06-27T18:12:24.297Z</time>
      </trkpt>
      <trkpt lat="45.49652" lon="5.14113">
        <ele>371.5</ele>
        <time>2024-06-27T18:12:30.536Z</time>
      </trkpt>
      <trkpt lat="45.49655" lon="5.14128">
        <ele>371.6</ele>
        <time>2024-06-27T18:12:36.777Z</time>
      </trkpt>
      <trkpt lat="45.49656" lon="5.14145">
        <ele>371.6</ele>
        <time>2024-06-27T18:12:43.021Z</time>
      </trkpt>
      <trkpt lat="45.4966" lon="5.1418">
        <ele>371.8</ele>
        <time>2024-06-27T18:12:49.269Z</time>
      </trkpt>
      <trkpt lat="45.49663" lon="5.14188">
        <ele>371.9</ele>
        <time>2024-06-27T18:12:55.519Z</time>
      </trkpt>
      <trkpt lat="45.49666" lon="5.14195">
        <ele>372</ele>
        <time>2024-06-27T18:13:01.770Z</time>
      </trkpt>
      <trkpt lat="45.49681" lon="5.14221">
        <ele>373</ele>
        <time>2024-06-27T18:13:08.025Z</time>
      </trkpt>
      <trkpt lat="45.49697" lon="5.14256">
        <ele>373.5</ele>
        <time>2024-06-27T18:13:14.286Z</time>
      </trkpt>
      <trkpt lat="45.49701" lon="5.14271">
        <ele>373.2</ele>
        <time>2024-06-27T18:13:20.549Z</time>
      </trkpt>
      <trkpt lat="45.4971" lon="5.14317">
        <ele>373.1</ele>
        <time>2024-06-27T18:13:26.819Z</time>
      </trkpt>
      <trkpt lat="45.49711" lon="5.14325">
        <ele>373.1</ele>
        <time>2024-06-27T18:13:33.090Z</time>
      </trkpt>
      <trkpt lat="45.49723" lon="5.14387">
        <ele>371.7</ele>
        <time>2024-06-27T18:13:39.370Z</time>
      </trkpt>
      <trkpt lat="45.49728" lon="5.1441">
        <ele>371.1</ele>
        <time>2024-06-27T18:13:45.653Z</time>
      </trkpt>
      <trkpt lat="45.4973" lon="5.14418">
        <ele>371</ele>
        <time>2024-06-27T18:13:51.937Z</time>
      </trkpt>
      <trkpt lat="45.49749" lon="5.14484">
        <ele>370.2</ele>
        <time>2024-06-27T18:13:58.231Z</time>
      </trkpt>
      <trkpt lat="45.49761" lon="5.14519">
        <ele>370.5</ele>
        <time>2024-06-27T18:14:04.530Z</time>
      </trkpt>
      <trkpt lat="45.49771" lon="5.14545">
        <ele>372.5</ele>
        <time>2024-06-27T18:14:10.833Z</time>
      </trkpt>
      <trkpt lat="45.49787" lon="5.14582">
        <ele>375.3</ele>
        <time>2024-06-27T18:14:17.142Z</time>
      </trkpt>
      <trkpt lat="45.4979" lon="5.14588">
        <ele>375.6</ele>
        <time>2024-06-27T18:14:23.452Z</time>
      </trkpt>
      <trkpt lat="45.49799" lon="5.14606">
        <ele>376.2</ele>
        <time>2024-06-27T18:14:29.765Z</time>
      </trkpt>
      <trkpt lat="45.49804" lon="5.14619">
        <ele>376.1</ele>
        <time>2024-06-27T18:14:36.080Z</time>
      </trkpt>
      <trkpt lat="45.49807" lon="5.14624">
        <ele>375.9</ele>
        <time>2024-06-27T18:14:42.396Z</time>
      </trkpt>
      <trkpt lat="45.49842" lon="5.14685">
        <ele>376.3</ele>
        <time>2024-06-27T18:14:48.723Z</time>
      </trkpt>
      <trkpt lat="45.49849" lon="5.14696">
        <ele>377</ele>
        <time>2024-06-27T18:14:55.052Z</time>
      </trkpt>
      <trkpt lat="45.49888" lon="5.14753">
        <ele>378.5</ele>
        <time>2024-06-27T18:15:01.391Z</time>
      </trkpt>
      <trkpt lat="45.49903" lon="5.14771">
        <ele>378.1</ele>
        <time>2024-06-27T18:15:07.734Z</time>
      </trkpt>
      <trkpt lat="45.49923" lon="5.14794">
        <ele>377.5</ele>
        <time>2024-06-27T18:15:14.082Z</time>
      </trkpt>
      <trkpt lat="45.49966" lon="5.14837">
        <ele>377.7</ele>
        <time>2024-06-27T18:15:20.440Z</time>
      </trkpt>
      <trkpt lat="45.49997" lon="5.14867">
        <ele>378</ele>
        <time>2024-06-27T18:15:26.806Z</time>
      </trkpt>
      <trkpt lat="45.50001" lon="5.14871">
        <ele>378</ele>
        <time>2024-06-27T18:15:33.173Z</time>
      </trkpt>
      <trkpt lat="45.50046" lon="5.14912">
        <ele>379</ele>
        <time>2024-06-27T18:15:39.550Z</time>
      </trkpt>
      <trkpt lat="45.50077" lon="5.1494">
        <ele>379.6</ele>
        <time>2024-06-27T18:15:45.934Z</time>
      </trkpt>
      <trkpt lat="45.5009" lon="5.14953">
        <ele>379.8</ele>
        <time>2024-06-27T18:15:52.321Z</time>
      </trkpt>
      <trkpt lat="45.50102" lon="5.14965">
        <ele>380.3</ele>
        <time>2024-06-27T18:15:58.711Z</time>
      </trkpt>
      <trkpt lat="45.50122" lon="5.14984">
        <ele>381.4</ele>
        <time>2024-06-27T18:16:05.106Z</time>
      </trkpt>
      <trkpt lat="45.50126" lon="5.14988">
        <ele>381.5</ele>
        <time>2024-06-27T18:16:11.502Z</time>
      </trkpt>
      <trkpt lat="45.5013" lon="5.14992">
        <ele>381.7</ele>
        <time>2024-06-27T18:16:17.898Z</time>
      </trkpt>
      <trkpt lat="45.50141" lon="5.15003">
        <ele>382</ele>
        <time>2024-06-27T18:16:24.297Z</time>
      </trkpt>
      <trkpt lat="45.5015" lon="5.15013">
        <ele>382</ele>
        <time>2024-06-27T18:16:30.698Z</time>
      </trkpt>
      <trkpt lat="45.50159" lon="5.15021">
        <ele>382</ele>
        <time>2024-06-27T18:16:37.101Z</time>
      </trkpt>
      <trkpt lat="45.50166" lon="5.15028">
        <ele>382</ele>
        <time>2024-06-27T18:16:43.506Z</time>
      </trkpt>
      <trkpt lat="45.50176" lon="5.15037">
        <ele>382.3</ele>
        <time>2024-06-27T18:16:49.913Z</time>
      </trkpt>
      <trkpt lat="45.50183" lon="5.15039">
        <ele>382.6</ele>
        <time>2024-06-27T18:16:56.322Z</time>
      </trkpt>
      <trkpt lat="45.50185" lon="5.15038">
        <ele>382.7</ele>
        <time>2024-06-27T18:17:02.731Z</time>
      </trkpt>
      <trkpt lat="45.50188" lon="5.15038">
        <ele>382.8</ele>
        <time>2024-06-27T18:17:09.141Z</time>
      </trkpt>
      <trkpt lat="45.50191" lon="5.1504">
        <ele>383</ele>
        <time>2024-06-27T18:17:15.551Z</time>
      </trkpt>
      <trkpt lat="45.50194" lon="5.15042">
        <ele>383.1</ele>
        <time>2024-06-27T18:17:21.962Z</time>
      </trkpt>
      <trkpt lat="45.50201" lon="5.15043">
        <ele>384</ele>
        <time>2024-06-27T18:17:28.374Z</time>
      </trkpt>
      <trkpt lat="45.50204" lon="5.15042">
        <ele>384.5</ele>
        <time>2024-06-27T18:17:34.787Z</time>
      </trkpt>
      <trkpt lat="45.50208" lon="5.15039">
        <ele>385.2</ele>
        <time>2024-06-27T18:17:41.201Z</time>
      </trkpt>
      <trkpt lat="45.50213" lon="5.1503">
        <ele>386</ele>
        <time>2024-06-27T18:17:47.616Z</time>
      </trkpt>
      <trkpt lat="45.50213" lon="5.15024">
        <ele>386</ele>
        <time>2024-06-27T18:17:54.032Z</time>
      </trkpt>
      <trkpt lat="45.50214" lon="5.15018">
        <ele>386.1</ele>
        <time>2024-06-27T18:18:00.449Z</time>
      </trkpt>
      <trkpt lat="45.5021" lon="5.14993">
        <ele>386.1</ele>
        <time>2024-06-27T18:18:06.869Z</time>
      </trkpt>
      <trkpt lat="45.50203" lon="5.14953">
        <ele>387</ele>
        <time>2024-06-27T18:18:13.295Z</time>
      </trkpt>
      <trkpt lat="45.50196" lon="5.14904">
        <ele>388.1</ele>
        <time>2024-06-27T18:18:19.728Z</time>
      </trkpt>
      <trkpt lat="45.50195" lon="5.14897">
        <ele>388</ele>
        <time>2024-06-27T18:18:26.162Z</time>
      </trkpt>
      <trkpt lat="45.50192" lon="5.14876">
        <ele>387.9</ele>
        <time>2024-06-27T18:18:32.599Z</time>
      </trkpt>
      <trkpt lat="45.50184" lon="5.14834">
        <ele>387.2</ele>
        <time>2024-06-27T18:18:39.042Z</time>
      </trkpt>
      <trkpt lat="45.50183" lon="5.14827">
        <ele>387.2</ele>
        <time>2024-06-27T18:18:45.486Z</time>
      </trkpt>
      <trkpt lat="45.50177" lon="5.14798">
        <ele>385.8</ele>
        <time>2024-06-27T18:18:51.934Z</time>
      </trkpt>
      <trkpt lat="45.5017" lon="5.14761">
        <ele>385.1</ele>
        <time>2024-06-27T18:18:58.387Z</time>
      </trkpt>
      <trkpt lat="45.50163" lon="5.14719">
        <ele>385.5</ele>
        <time>2024-06-27T18:19:04.846Z</time>
      </trkpt>
      <trkpt lat="45.50163" lon="5.14712">
        <ele>385.7</ele>
        <time>2024-06-27T18:19:11.306Z</time>
      </trkpt>
      <trkpt lat="45.50167" lon="5.14684">
        <ele>386</ele>
        <time>2024-06-27T18:19:17.770Z</time>
      </trkpt>
      <trkpt lat="45.50178" lon="5.14638">
        <ele>387.4</ele>
        <time>2024-06-27T18:19:24.240Z</time>
      </trkpt>
      <trkpt lat="45.50181" lon="5.14625">
        <ele>387.7</ele>
        <time>2024-06-27T18:19:30.712Z</time>
      </trkpt>
      <trkpt lat="45.50183" lon="5.14618">
        <ele>388</ele>
        <time>2024-06-27T18:19:37.185Z</time>
      </trkpt>
      <trkpt lat="45.50189" lon="5.14597">
        <ele>388</ele>
        <time>2024-06-27T18:19:43.661Z</time>
      </trkpt>
      <trkpt lat="45.5019" lon="5.1459">
        <ele>388</ele>
        <time>2024-06-27T18:19:50.138Z</time>
      </trkpt>
      <trkpt lat="45.502" lon="5.14558">
        <ele>388</ele>
        <time>2024-06-27T18:19:56.620Z</time>
      </trkpt>
      <trkpt lat="45.50202" lon="5.14551">
        <ele>387.8</ele>
        <time>2024-06-27T18:20:03.103Z</time>
      </trkpt>
      <trkpt lat="45.50203" lon="5.14543">
        <ele>387.3</ele>
        <time>2024-06-27T18:20:09.587Z</time>
      </trkpt>
      <trkpt lat="45.50211" lon="5.14515">
        <ele>385.1</ele>
        <time>2024-06-27T18:20:16.075Z</time>
      </trkpt>
      <trkpt lat="45.50213" lon="5.14508">
        <ele>384.6</ele>
        <time>2024-06-27T18:20:22.564Z</time>
      </trkpt>
      <trkpt lat="45.50215" lon="5.14501">
        <ele>384.2</ele>
        <time>2024-06-27T18:20:29.054Z</time>
      </trkpt>
      <trkpt lat="45.50218" lon="5.14497">
        <ele>383.7</ele>
        <time>2024-06-27T18:20:35.545Z</time>
      </trkpt>
      <trkpt lat="45.50222" lon="5.14495">
        <ele>383.2</ele>
        <time>2024-06-27T18:20:42.037Z</time>
      </trkpt>
      <trkpt lat="45.50231" lon="5.14499">
        <ele>382.7</ele>
        <time>2024-06-27T18:20:48.531Z</time>
      </trkpt>
      <trkpt lat="45.50239" lon="5.14506">
        <ele>382.4</ele>
        <time>2024-06-27T18:20:55.027Z</time>
      </trkpt>
      <trkpt lat="45.50246" lon="5.14514">
        <ele>382.2</ele>
        <time>2024-06-27T18:21:01.524Z</time>
      </trkpt>
      <trkpt lat="45.50257" lon="5.14528">
        <ele>382.7</ele>
        <time>2024-06-27T18:21:08.024Z</time>
      </trkpt>
      <trkpt lat="45.5027" lon="5.14548">
        <ele>384.2</ele>
        <time>2024-06-27T18:21:14.528Z</time>
      </trkpt>
      <trkpt lat="45.50281" lon="5.14571">
        <ele>386</ele>
        <time>2024-06-27T18:21:21.036Z</time>
      </trkpt>
      <trkpt lat="45.50289" lon="5.14587">
        <ele>386.9</ele>
        <time>2024-06-27T18:21:27.546Z</time>
      </trkpt>
      <trkpt lat="45.50294" lon="5.14598">
        <ele>387.5</ele>
        <time>2024-06-27T18:21:34.058Z</time>
      </trkpt>
      <trkpt lat="45.50302" lon="5.14614">
        <ele>387.9</ele>
        <time>2024-06-27T18:21:40.573Z</time>
      </trkpt>
      <trkpt lat="45.50313" lon="5.14636">
        <ele>388.2</ele>
        <time>2024-06-27T18:21:47.091Z</time>
      </trkpt>
      <trkpt lat="45.50316" lon="5.14641">
        <ele>388.4</ele>
        <time>2024-06-27T18:21:53.610Z</time>
      </trkpt>
      <trkpt lat="45.50319" lon="5.14647">
        <ele>388.6</ele>
        <time>2024-06-27T18:22:00.130Z</time>
      </trkpt>
      <trkpt lat="45.50329" lon="5.1467">
        <ele>389</ele>
        <time>2024-06-27T18:22:06.654Z</time>
      </trkpt>
      <trkpt lat="45.50345" lon="5.14703">
        <ele>388.6</ele>
        <time>2024-06-27T18:22:13.184Z</time>
      </trkpt>
      <trkpt lat="45.50347" lon="5.14709">
        <ele>388.5</ele>
        <time>2024-06-27T18:22:19.714Z</time>
      </trkpt>
      <trkpt lat="45.50358" lon="5.14743">
        <ele>389</ele>
        <time>2024-06-27T18:22:26.250Z</time>
      </trkpt>
      <trkpt lat="45.50366" lon="5.14772">
        <ele>389.2</ele>
        <time>2024-06-27T18:22:32.790Z</time>
      </trkpt>
      <trkpt lat="45.50367" lon="5.14784">
        <ele>389.2</ele>
        <time>2024-06-27T18:22:39.331Z</time>
      </trkpt>
      <trkpt lat="45.50369" lon="5.14795">
        <ele>389.3</ele>
        <time>2024-06-27T18:22:45.874Z</time>
      </trkpt>
      <trkpt lat="45.50372" lon="5.14807">
        <ele>389.8</ele>
        <time>2024-06-27T18:22:52.419Z</time>
      </trkpt>
      <trkpt lat="45.50373" lon="5.14813">
        <ele>390</ele>
        <time>2024-06-27T18:22:58.965Z</time>
      </trkpt>
      <trkpt lat="45.50376" lon="5.14847">
        <ele>391.4</ele>
        <time>2024-06-27T18:23:05.515Z</time>
      </trkpt>
      <trkpt lat="45.50376" lon="5.14852">
        <ele>391.6</ele>
        <time>2024-06-27T18:23:12.066Z</time>
      </trkpt>
      <trkpt lat="45.50382" lon="5.14897">
        <ele>392.1</ele>
        <time>2024-06-27T18:23:18.623Z</time>
      </trkpt>
      <trkpt lat="45.50388" lon="5.14936">
        <ele>392</ele>
        <time>2024-06-27T18:23:25.186Z</time>
      </trkpt>
      <trkpt lat="45.5039" lon="5.14953">
        <ele>392.7</ele>
        <time>2024-06-27T18:23:31.751Z</time>
      </trkpt>
      <trkpt lat="45.50395" lon="5.14993">
        <ele>393.4</ele>
        <time>2024-06-27T18:23:38.321Z</time>
      </trkpt>
      <trkpt lat="45.50396" lon="5.15005">
        <ele>393.5</ele>
        <time>2024-06-27T18:23:44.893Z</time>
      </trkpt>
      <trkpt lat="45.50397" lon="5.15011">
        <ele>393.6</ele>
        <time>2024-06-27T18:23:51.466Z</time>
      </trkpt>
      <trkpt lat="45.50399" lon="5.15029">
        <ele>393.7</ele>
        <time>2024-06-27T18:23:58.041Z</time>
      </trkpt>
      <trkpt lat="45.50401" lon="5.15041">
        <ele>393.9</ele>
        <time>2024-06-27T18:24:04.618Z</time>
      </trkpt>
      <trkpt lat="45.50402" lon="5.15052">
        <ele>394.2</ele>
        <time>2024-06-27T18:24:11.197Z</time>
      </trkpt>
      <trkpt lat="45.50404" lon="5.15064">
        <ele>394.7</ele>
        <time>2024-06-27T18:24:17.777Z</time>
      </trkpt>
      <trkpt lat="45.50405" lon="5.15075">
        <ele>395.2</ele>
        <time>2024-06-27T18:24:24.359Z</time>
      </trkpt>
      <trkpt lat="45.50407" lon="5.15092">
        <ele>396</ele>
        <time>2024-06-27T18:24:30.943Z</time>
      </trkpt>
      <trkpt lat="45.50414" lon="5.15128">
        <ele>397.8</ele>
        <time>2024-06-27T18:24:37.532Z</time>
      </trkpt>
      <trkpt lat="45.50415" lon="5.15142">
        <ele>398.8</ele>
        <time>2024-06-27T18:24:44.123Z</time>
      </trkpt>
      <trkpt lat="45.50415" lon="5.15159">
        <ele>399.9</ele>
        <time>2024-06-27T18:24:50.716Z</time>
      </trkpt>
      <trkpt lat="45.50417" lon="5.15179">
        <ele>400.8</ele>
        <time>2024-06-27T18:24:57.312Z</time>
      </trkpt>
      <trkpt lat="45.50421" lon="5.152">
        <ele>401</ele>
        <time>2024-06-27T18:25:03.911Z</time>
      </trkpt>
      <trkpt lat="45.50424" lon="5.15209">
        <ele>401</ele>
        <time>2024-06-27T18:25:10.511Z</time>
      </trkpt>
      <trkpt lat="45.50425" lon="5.1521">
        <ele>401</ele>
        <time>2024-06-27T18:25:17.112Z</time>
      </trkpt>
      <trkpt lat="45.50427" lon="5.1521">
        <ele>401</ele>
        <time>2024-06-27T18:25:23.713Z</time>
      </trkpt>
      <trkpt lat="45.50434" lon="5.1521">
        <ele>401</ele>
        <time>2024-06-27T18:25:30.315Z</time>
      </trkpt>
      <trkpt lat="45.50435" lon="5.1521">
        <ele>401</ele>
        <time>2024-06-27T18:25:36.918Z</time>
      </trkpt>
      <trkpt lat="45.50446" lon="5.15211">
        <ele>401</ele>
        <time>2024-06-27T18:25:43.523Z</time>
      </trkpt>
      <trkpt lat="45.50448" lon="5.15212">
        <ele>401</ele>
        <time>2024-06-27T18:25:50.128Z</time>
      </trkpt>
      <trkpt lat="45.50454" lon="5.15213">
        <ele>401</ele>
        <time>2024-06-27T18:25:56.734Z</time>
      </trkpt>
      <trkpt lat="45.5046" lon="5.15216">
        <ele>401.2</ele>
        <time>2024-06-27T18:26:03.342Z</time>
      </trkpt>
      <trkpt lat="45.50465" lon="5.15229">
        <ele>402.2</ele>
        <time>2024-06-27T18:26:09.952Z</time>
      </trkpt>
      <trkpt lat="45.5047" lon="5.15242">
        <ele>403</ele>
        <time>2024-06-27T18:26:16.564Z</time>
      </trkpt>
      <trkpt lat="45.50472" lon="5.1525">
        <ele>403.3</ele>
        <time>2024-06-27T18:26:23.177Z</time>
      </trkpt>
      <trkpt lat="45.50475" lon="5.15261">
        <ele>403.8</ele>
        <time>2024-06-27T18:26:29.791Z</time>
      </trkpt>
      <trkpt lat="45.50479" lon="5.15277">
        <ele>404.2</ele>
        <time>2024-06-27T18:26:36.408Z</time>
      </trkpt>
      <trkpt lat="45.50481" lon="5.15285">
        <ele>404.3</ele>
        <time>2024-06-27T18:26:43.026Z</time>
      </trkpt>
      <trkpt lat="45.50484" lon="5.15293">
        <ele>404.4</ele>
        <time>2024-06-27T18:26:49.645Z</time>
      </trkpt>
      <trkpt lat="45.5049" lon="5.15307">
        <ele>405</ele>
        <time>2024-06-27T18:26:56.266Z</time>
      </trkpt>
      <trkpt lat="45.50492" lon="5.1531">
        <ele>405.2</ele>
        <time>2024-06-27T18:27:02.888Z</time>
      </trkpt>
      <trkpt lat="45.505" lon="5.15322">
        <ele>405.9</ele>
        <time>2024-06-27T18:27:09.512Z</time>
      </trkpt>
      <trkpt lat="45.5051" lon="5.15334">
        <ele>406.7</ele>
        <time>2024-06-27T18:27:16.139Z</time>
      </trkpt>
      <trkpt lat="45.50512" lon="5.15336">
        <ele>406.9</ele>
        <time>2024-06-27T18:27:22.766Z</time>
      </trkpt>
      <trkpt lat="45.50529" lon="5.15356">
        <ele>408.2</ele>
        <time>2024-06-27T18:27:29.397Z</time>
      </trkpt>
      <trkpt lat="45.50536" lon="5.15366">
        <ele>409.1</ele>
        <time>2024-06-27T18:27:36.030Z</time>
      </trkpt>
      <trkpt lat="45.50545" lon="5.15378">
        <ele>410.2</ele>
        <time>2024-06-27T18:27:42.666Z</time>
      </trkpt>
      <trkpt lat="45.50561" lon="5.15399">
        <ele>411</ele>
        <time>2024-06-27T18:27:49.306Z</time>
      </trkpt>
      <trkpt lat="45.50568" lon="5.15409">
        <ele>411.1</ele>
        <time>2024-06-27T18:27:55.948Z</time>
      </trkpt>
      <trkpt lat="45.50576" lon="5.15418">
        <ele>411.4</ele>
        <time>2024-06-27T18:28:02.592Z</time>
      </trkpt>
      <trkpt lat="45.50596" lon="5.15432">
        <ele>411</ele>
        <time>2024-06-27T18:28:09.240Z</time>
      </trkpt>
      <trkpt lat="45.5061" lon="5.15448">
        <ele>411</ele>
        <time>2024-06-27T18:28:15.892Z</time>
      </trkpt>
      <trkpt lat="45.50613" lon="5.15452">
        <ele>411.1</ele>
        <time>2024-06-27T18:28:22.544Z</time>
      </trkpt>
      <trkpt lat="45.50632" lon="5.15477">
        <ele>411</ele>
        <time>2024-06-27T18:28:29.201Z</time>
      </trkpt>
      <trkpt lat="45.50639" lon="5.15484">
        <ele>410.8</ele>
        <time>2024-06-27T18:28:35.860Z</time>
      </trkpt>
      <trkpt lat="45.50647" lon="5.15491">
        <ele>410.7</ele>
        <time>2024-06-27T18:28:42.521Z</time>
      </trkpt>
      <trkpt lat="45.50651" lon="5.15495">
        <ele>410.6</ele>
        <time>2024-06-27T18:28:49.183Z</time>
      </trkpt>
      <trkpt lat="45.50656" lon="5.155">
        <ele>410.4</ele>
        <time>2024-06-27T18:28:55.846Z</time>
      </trkpt>
      <trkpt lat="45.50661" lon="5.15504">
        <ele>410.2</ele>
        <time>2024-06-27T18:29:02.510Z</time>
      </trkpt>
      <trkpt lat="45.50676" lon="5.15518">
        <ele>409.7</ele>
        <time>2024-06-27T18:29:09.178Z</time>
      </trkpt>
      <trkpt lat="45.50681" lon="5.15523">
        <ele>409.5</ele>
        <time>2024-06-27T18:29:15.847Z</time>
      </trkpt>
      <trkpt lat="45.50686" lon="5.15527">
        <ele>409.3</ele>
        <time>2024-06-27T18:29:22.517Z</time>
      </trkpt>
      <trkpt lat="45.50712" lon="5.15552">
        <ele>408.8</ele>
        <time>2024-06-27T18:29:29.193Z</time>
      </trkpt>
      <trkpt lat="45.5073" lon="5.15568">
        <ele>409.6</ele>
        <time>2024-06-27T18:29:35.873Z</time>
      </trkpt>
      <trkpt lat="45.5074" lon="5.15576">
        <ele>410.2</ele>
        <time>2024-06-27T18:29:42.555Z</time>
      </trkpt>
      <trkpt lat="45.5075" lon="5.15582">
        <ele>410.6</ele>
        <time>2024-06-27T18:29:49.239Z</time>
      </trkpt>
      <trkpt lat="45.50753" lon="5.15584">
        <ele>410.7</ele>
        <time>2024-06-27T18:29:55.924Z</time>
      </trkpt>
      <trkpt lat="45.50761" lon="5.15587">
        <ele>411</ele>
        <time>2024-06-27T18:30:02.611Z</time>
      </trkpt>
      <trkpt lat="45.50764" lon="5.15588">
        <ele>411</ele>
        <time>2024-06-27T18:30:09.298Z</time>
      </trkpt>
      <trkpt lat="45.50779" lon="5.15595">
        <ele>411.3</ele>
        <time>2024-06-27T18:30:15.988Z</time>
      </trkpt>
      <trkpt lat="45.50783" lon="5.15597">
        <ele>411.5</ele>
        <time>2024-06-27T18:30:22.679Z</time>
      </trkpt>
      <trkpt lat="45.50791" lon="5.156">
        <ele>411.8</ele>
        <time>2024-06-27T18:30:29.372Z</time>
      </trkpt>
      <trkpt lat="45.50821" lon="5.15617">
        <ele>413.7</ele>
        <time>2024-06-27T18:30:36.071Z</time>
      </trkpt>
      <trkpt lat="45.50835" lon="5.15628">
        <ele>414.9</ele>
        <time>2024-06-27T18:30:42.773Z</time>
      </trkpt>
      <trkpt lat="45.50845" lon="5.15636">
        <ele>415.3</ele>
        <time>2024-06-27T18:30:49.477Z</time>
      </trkpt>
      <trkpt lat="45.50855" lon="5.15646">
        <ele>416</ele>
        <time>2024-06-27T18:30:56.184Z</time>
      </trkpt>
      <trkpt lat="45.50868" lon="5.15663">
        <ele>417.6</ele>
        <time>2024-06-27T18:31:02.894Z</time>
      </trkpt>
      <trkpt lat="45.5088" lon="5.1568">
        <ele>419.5</ele>
        <time>2024-06-27T18:31:09.607Z</time>
      </trkpt>
      <trkpt lat="45.50891" lon="5.15693">
        <ele>420.2</ele>
        <time>2024-06-27T18:31:16.323Z</time>
      </trkpt>
      <trkpt lat="45.50909" lon="5.1571">
        <ele>420.2</ele>
        <time>2024-06-27T18:31:23.043Z</time>
      </trkpt>
      <trkpt lat="45.50928" lon="5.15724">
        <ele>420</ele>
        <time>2024-06-27T18:31:29.768Z</time>
      </trkpt>
      <trkpt lat="45.5095" lon="5.1573">
        <ele>418.9</ele>
        <time>2024-06-27T18:31:36.497Z</time>
      </trkpt>
      <trkpt lat="45.50958" lon="5.15731">
        <ele>419</ele>
        <time>2024-06-27T18:31:43.227Z</time>
      </trkpt>
      <trkpt lat="45.50985" lon="5.15734">
        <ele>420.9</ele>
        <time>2024-06-27T18:31:49.963Z</time>
      </trkpt>
      <trkpt lat="45.50996" lon="5.15734">
        <ele>422</ele>
        <time>2024-06-27T18:31:56.701Z</time>
      </trkpt>
      <trkpt lat="45.51018" lon="5.15733">
        <ele>421.6</ele>
        <time>2024-06-27T18:32:03.443Z</time>
      </trkpt>
      <trkpt lat="45.51054" lon="5.15731">
        <ele>420.9</ele>
        <time>2024-06-27T18:32:10.192Z</time>
      </trkpt>
      <trkpt lat="45.51085" lon="5.15729">
        <ele>422.7</ele>
        <time>2024-06-27T18:32:16.947Z</time>
      </trkpt>
      <trkpt lat="45.51093" lon="5.15729">
        <ele>423.3</ele>
        <time>2024-06-27T18:32:23.703Z</time>
      </trkpt>
      <trkpt lat="45.51106" lon="5.15732">
        <ele>424.4</ele>
        <time>2024-06-27T18:32:30.462Z</time>
      </trkpt>
      <trkpt lat="45.51112" lon="5.15737">
        <ele>425.1</ele>
        <time>2024-06-27T18:32:37.222Z</time>
      </trkpt>
      <trkpt lat="45.51124" lon="5.15754">
        <ele>426.8</ele>
        <time>2024-06-27T18:32:43.986Z</time>
      </trkpt>
      <trkpt lat="45.51133" lon="5.15768">
        <ele>428.3</ele>
        <time>2024-06-27T18:32:50.752Z</time>
      </trkpt>
      <trkpt lat="45.51142" lon="5.15788">
        <ele>429.8</ele>
        <time>2024-06-27T18:32:57.522Z</time>
      </trkpt>
      <trkpt lat="45.51148" lon="5.15799">
        <ele>430.5</ele>
        <time>2024-06-27T18:33:04.293Z</time>
      </trkpt>
      <trkpt lat="45.51167" lon="5.15824">
        <ele>433</ele>
        <time>2024-06-27T18:33:11.069Z</time>
      </trkpt>
      <trkpt lat="45.5118" lon="5.15837">
        <ele>434</ele>
        <time>2024-06-27T18:33:17.849Z</time>
      </trkpt>
      <trkpt lat="45.51188" lon="5.15845">
        <ele>434.5</ele>
        <time>2024-06-27T18:33:24.630Z</time>
      </trkpt>
      <trkpt lat="45.51199" lon="5.15854">
        <ele>435.1</ele>
        <time>2024-06-27T18:33:31.414Z</time>
      </trkpt>
      <trkpt lat="45.51207" lon="5.1586">
        <ele>435.3</ele>
        <time>2024-06-27T18:33:38.200Z</time>
      </trkpt>
      <trkpt lat="45.5121" lon="5.15862">
        <ele>435.4</ele>
        <time>2024-06-27T18:33:44.986Z</time>
      </trkpt>
      <trkpt lat="45.51231" lon="5.15878">
        <ele>435.9</ele>
        <time>2024-06-27T18:33:51.777Z</time>
      </trkpt>
      <trkpt lat="45.5124" lon="5.15886">
        <ele>436.9</ele>
        <time>2024-06-27T18:33:58.570Z</time>
      </trkpt>
      <trkpt lat="45.51253" lon="5.15891">
        <ele>437.7</ele>
        <time>2024-06-27T18:34:05.365Z</time>
      </trkpt>
      <trkpt lat="45.51265" lon="5.15895">
        <ele>438.2</ele>
        <time>2024-06-27T18:34:12.163Z</time>
      </trkpt>
      <trkpt lat="45.51275" lon="5.15895">
        <ele>439.2</ele>
        <time>2024-06-27T18:34:18.963Z</time>
      </trkpt>
      <trkpt lat="45.51281" lon="5.15894">
        <ele>439.7</ele>
        <time>2024-06-27T18:34:25.764Z</time>
      </trkpt>
      <trkpt lat="45.51294" lon="5.15894">
        <ele>440.8</ele>
        <time>2024-06-27T18:34:32.568Z</time>
      </trkpt>
      <trkpt lat="45.51313" lon="5.15901">
        <ele>443.7</ele>
        <time>2024-06-27T18:34:39.375Z</time>
      </trkpt>
      <trkpt lat="45.51336" lon="5.15913">
        <ele>447.9</ele>
        <time>2024-06-27T18:34:46.187Z</time>
      </trkpt>
      <trkpt lat="45.51354" lon="5.15918">
        <ele>449.6</ele>
        <time>2024-06-27T18:34:53.003Z</time>
      </trkpt>
      <trkpt lat="45.51357" lon="5.15918">
        <ele>449.8</ele>
        <time>2024-06-27T18:34:59.819Z</time>
      </trkpt>
      <trkpt lat="45.51371" lon="5.15915">
        <ele>450.2</ele>
        <time>2024-06-27T18:35:06.638Z</time>
      </trkpt>
      <trkpt lat="45.51373" lon="5.15914">
        <ele>450.3</ele>
        <time>2024-06-27T18:35:13.457Z</time>
      </trkpt>
      <trkpt lat="45.51381" lon="5.15911">
        <ele>450.7</ele>
        <time>2024-06-27T18:35:20.278Z</time>
      </trkpt>
      <trkpt lat="45.51391" lon="5.15909">
        <ele>451.2</ele>
        <time>2024-06-27T18:35:27.101Z</time>
      </trkpt>
      <trkpt lat="45.51393" lon="5.15909">
        <ele>451.3</ele>
        <time>2024-06-27T18:35:33.924Z</time>
      </trkpt>
      <trkpt lat="45.51399" lon="5.15909">
        <ele>451.8</ele>
        <time>2024-06-27T18:35:40.748Z</time>
      </trkpt>
      <trkpt lat="45.51413" lon="5.15911">
        <ele>452.8</ele>
        <time>2024-06-27T18:35:47.575Z</time>
      </trkpt>
      <trkpt lat="45.51435" lon="5.1592">
        <ele>454.9</ele>
        <time>2024-06-27T18:35:54.407Z</time>
      </trkpt>
      <trkpt lat="45.51462" lon="5.15938">
        <ele>457.5</ele>
        <time>2024-06-27T18:36:01.244Z</time>
      </trkpt>
      <trkpt lat="45.51488" lon="5.15964">
        <ele>460.6</ele>
        <time>2024-06-27T18:36:08.088Z</time>
      </trkpt>
      <trkpt lat="45.5149" lon="5.15968">
        <ele>460.8</ele>
        <time>2024-06-27T18:36:14.932Z</time>
      </trkpt>
      <trkpt lat="45.51516" lon="5.15996">
        <ele>459</ele>
        <time>2024-06-27T18:36:21.782Z</time>
      </trkpt>
      <trkpt lat="45.51528" lon="5.16013">
        <ele>456.2</ele>
        <time>2024-06-27T18:36:28.636Z</time>
      </trkpt>
      <trkpt lat="45.51538" lon="5.16026">
        <ele>455.8</ele>
        <time>2024-06-27T18:36:35.492Z</time>
      </trkpt>
      <trkpt lat="45.51557" lon="5.16046">
        <ele>456.1</ele>
        <time>2024-06-27T18:36:42.353Z</time>
      </trkpt>
      <trkpt lat="45.51584" lon="5.16071">
        <ele>461.7</ele>
        <time>2024-06-27T18:36:49.220Z</time>
      </trkpt>
      <trkpt lat="45.51611" lon="5.16088">
        <ele>463</ele>
        <time>2024-06-27T18:36:56.093Z</time>
      </trkpt>
      <trkpt lat="45.51614" lon="5.1609">
        <ele>463.2</ele>
        <time>2024-06-27T18:37:02.967Z</time>
      </trkpt>
      <trkpt lat="45.51637" lon="5.16097">
        <ele>464.7</ele>
        <time>2024-06-27T18:37:09.845Z</time>
      </trkpt>
      <trkpt lat="45.51662" lon="5.16106">
        <ele>465.2</ele>
        <time>2024-06-27T18:37:16.728Z</time>
      </trkpt>
      <trkpt lat="45.51668" lon="5.16107">
        <ele>465.2</ele>
        <time>2024-06-27T18:37:23.612Z</time>
      </trkpt>
      <trkpt lat="45.51678" lon="5.1611">
        <ele>464.9</ele>
        <time>2024-06-27T18:37:30.498Z</time>
      </trkpt>
      <trkpt lat="45.51681" lon="5.16111">
        <ele>464.8</ele>
        <time>2024-06-27T18:37:37.385Z</time>
      </trkpt>
      <trkpt lat="45.51696" lon="5.16116">
        <ele>464.5</ele>
        <time>2024-06-27T18:37:44.275Z</time>
      </trkpt>
      <trkpt lat="45.51702" lon="5.16117">
        <ele>464.6</ele>
        <time>2024-06-27T18:37:51.166Z</time>
      </trkpt>
      <trkpt lat="45.51715" lon="5.16122">
        <ele>464.7</ele>
        <time>2024-06-27T18:37:58.060Z</time>
      </trkpt>
      <trkpt lat="45.51728" lon="5.16128">
        <ele>466</ele>
        <time>2024-06-27T18:38:04.956Z</time>
      </trkpt>
      <trkpt lat="45.5173" lon="5.1613">
        <ele>466.3</ele>
        <time>2024-06-27T18:38:11.853Z</time>
      </trkpt>
      <trkpt lat="45.51746" lon="5.16145">
        <ele>469.8</ele>
        <time>2024-06-27T18:38:18.753Z</time>
      </trkpt>
      <trkpt lat="45.51751" lon="5.16151">
        <ele>470.8</ele>
        <time>2024-06-27T18:38:25.655Z</time>
      </trkpt>
      <trkpt lat="45.51755" lon="5.16158">
        <ele>471</ele>
        <time>2024-06-27T18:38:32.558Z</time>
      </trkpt>
      <trkpt lat="45.5176" lon="5.16164">
        <ele>471.2</ele>
        <time>2024-06-27T18:38:39.462Z</time>
      </trkpt>
      <trkpt lat="45.51774" lon="5.16187">
        <ele>472.6</ele>
        <time>2024-06-27T18:38:46.370Z</time>
      </trkpt>
      <trkpt lat="45.51777" lon="5.16191">
        <ele>472.9</ele>
        <time>2024-06-27T18:38:53.279Z</time>
      </trkpt>
      <trkpt lat="45.51792" lon="5.16215">
        <ele>474.8</ele>
        <time>2024-06-27T18:39:00.193Z</time>
      </trkpt>
      <trkpt lat="45.51809" lon="5.16234">
        <ele>475.1</ele>
        <time>2024-06-27T18:39:07.111Z</time>
      </trkpt>
      <trkpt lat="45.51812" lon="5.16237">
        <ele>475.2</ele>
        <time>2024-06-27T18:39:14.029Z</time>
      </trkpt>
      <trkpt lat="45.5183" lon="5.16255">
        <ele>474.8</ele>
        <time>2024-06-27T18:39:20.952Z</time>
      </trkpt>
      <trkpt lat="45.5184" lon="5.16267">
        <ele>474.9</ele>
        <time>2024-06-27T18:39:27.877Z</time>
      </trkpt>
      <trkpt lat="45.51845" lon="5.16273">
        <ele>475.3</ele>
        <time>2024-06-27T18:39:34.803Z</time>
      </trkpt>
      <trkpt lat="45.51858" lon="5.16295">
        <ele>477</ele>
        <time>2024-06-27T18:39:41.733Z</time>
      </trkpt>
      <trkpt lat="45.51868" lon="5.16317">
        <ele>479.5</ele>
        <time>2024-06-27T18:39:48.667Z</time>
      </trkpt>
      <trkpt lat="45.51871" lon="5.16324">
        <ele>480.3</ele>
        <time>2024-06-27T18:39:55.602Z</time>
      </trkpt>
      <trkpt lat="45.51877" lon="5.16341">
        <ele>480.1</ele>
        <time>2024-06-27T18:40:02.540Z</time>
      </trkpt>
      <trkpt lat="45.5188" lon="5.16352">
        <ele>481</ele>
        <time>2024-06-27T18:40:09.479Z</time>
      </trkpt>
      <trkpt lat="45.51887" lon="5.16373">
        <ele>480.3</ele>
        <time>2024-06-27T18:40:16.421Z</time>
      </trkpt>
      <trkpt lat="45.51889" lon="5.16377">
        <ele>480</ele>
        <time>2024-06-27T18:40:23.364Z</time>
      </trkpt>
      <trkpt lat="45.51893" lon="5.16387">
        <ele>480.3</ele>
        <time>2024-06-27T18:40:30.309Z</time>
      </trkpt>
      <trkpt lat="45.51898" lon="5.16401">
        <ele>480.9</ele>
        <time>2024-06-27T18:40:37.256Z</time>
      </trkpt>
      <trkpt lat="45.519" lon="5.1641">
        <ele>481.3</ele>
        <time>2024-06-27T18:40:44.204Z</time>
      </trkpt>
      <trkpt lat="45.51902" lon="5.16421">
        <ele>481.6</ele>
        <time>2024-06-27T18:40:51.154Z</time>
      </trkpt>
      <trkpt lat="45.51904" lon="5.16434">
        <ele>482.3</ele>
        <time>2024-06-27T18:40:58.105Z</time>
      </trkpt>
      <trkpt lat="45.51905" lon="5.16441">
        <ele>482.5</ele>
        <time>2024-06-27T18:41:05.057Z</time>
      </trkpt>
      <trkpt lat="45.51906" lon="5.16459">
        <ele>482.8</ele>
        <time>2024-06-27T18:41:12.012Z</time>
      </trkpt>
      <trkpt lat="45.51906" lon="5.16469">
        <ele>482.8</ele>
        <time>2024-06-27T18:41:18.968Z</time>
      </trkpt>
      <trkpt lat="45.51905" lon="5.16493">
        <ele>482.9</ele>
        <time>2024-06-27T18:41:25.927Z</time>
      </trkpt>
      <trkpt lat="45.51905" lon="5.16496">
        <ele>482.9</ele>
        <time>2024-06-27T18:41:32.887Z</time>
      </trkpt>
      <trkpt lat="45.51901" lon="5.16519">
        <ele>483.8</ele>
        <time>2024-06-27T18:41:39.850Z</time>
      </trkpt>
      <trkpt lat="45.519" lon="5.16526">
        <ele>484.1</ele>
        <time>2024-06-27T18:41:46.814Z</time>
      </trkpt>
      <trkpt lat="45.51896" lon="5.16545">
        <ele>485.2</ele>
        <time>2024-06-27T18:41:53.781Z</time>
      </trkpt>
      <trkpt lat="45.51894" lon="5.16556">
        <ele>486</ele>
        <time>2024-06-27T18:42:00.749Z</time>
      </trkpt>
      <trkpt lat="45.51891" lon="5.16566">
        <ele>486.6</ele>
        <time>2024-06-27T18:42:07.719Z</time>
      </trkpt>
      <trkpt lat="45.51888" lon="5.16585">
        <ele>487.4</ele>
        <time>2024-06-27T18:42:14.692Z</time>
      </trkpt>
      <trkpt lat="45.51887" lon="5.16589">
        <ele>487.6</ele>
        <time>2024-06-27T18:42:21.665Z</time>
      </trkpt>
      <trkpt lat="45.51881" lon="5.16613">
        <ele>489.9</ele>
        <time>2024-06-27T18:42:28.642Z</time>
      </trkpt>
      <trkpt lat="45.5188" lon="5.16617">
        <ele>490.5</ele>
        <time>2024-06-27T18:42:35.619Z</time>
      </trkpt>
      <trkpt lat="45.5187" lon="5.16647">
        <ele>492.7</ele>
        <time>2024-06-27T18:42:42.601Z</time>
      </trkpt>
      <trkpt lat="45.51859" lon="5.16676">
        <ele>495</ele>
        <time>2024-06-27T18:42:49.587Z</time>
      </trkpt>
      <trkpt lat="45.51852" lon="5.16699">
        <ele>495.7</ele>
        <time>2024-06-27T18:42:56.576Z</time>
      </trkpt>
      <trkpt lat="45.51851" lon="5.16708">
        <ele>495.4</ele>
        <time>2024-06-27T18:43:03.567Z</time>
      </trkpt>
      <trkpt lat="45.51847" lon="5.16735">
        <ele>494.4</ele>
        <time>2024-06-27T18:43:10.562Z</time>
      </trkpt>
      <trkpt lat="45.51845" lon="5.16744">
        <ele>493.8</ele>
        <time>2024-06-27T18:43:17.558Z</time>
      </trkpt>
      <trkpt lat="45.51845" lon="5.16749">
        <ele>493.8</ele>
        <time>2024-06-27T18:43:24.554Z</time>
      </trkpt>
      <trkpt lat="45.51846" lon="5.16778">
        <ele>493</ele>
        <time>2024-06-27T18:43:31.554Z</time>
      </trkpt>
      <trkpt lat="45.51855" lon="5.16815">
        <ele>492.6</ele>
        <time>2024-06-27T18:43:38.560Z</time>
      </trkpt>
      <trkpt lat="45.51857" lon="5.16819">
        <ele>492.7</ele>
        <time>2024-06-27T18:43:45.566Z</time>
      </trkpt>
      <trkpt lat="45.51866" lon="5.16838">
        <ele>493.3</ele>
        <time>2024-06-27T18:43:52.576Z</time>
      </trkpt>
      <trkpt lat="45.51871" lon="5.16844">
        <ele>493.7</ele>
        <time>2024-06-27T18:43:59.587Z</time>
      </trkpt>
      <trkpt lat="45.51888" lon="5.16867">
        <ele>494.4</ele>
        <time>2024-06-27T18:44:06.602Z</time>
      </trkpt>
      <trkpt lat="45.5189" lon="5.1687">
        <ele>494.4</ele>
        <time>2024-06-27T18:44:13.618Z</time>
      </trkpt>
      <trkpt lat="45.51911" lon="5.16895">
        <ele>495</ele>
        <time>2024-06-27T18:44:20.639Z</time>
      </trkpt>
      <trkpt lat="45.51919" lon="5.16905">
        <ele>495</ele>
        <time>2024-06-27T18:44:27.662Z</time>
      </trkpt>
      <trkpt lat="45.51939" lon="5.16929">
        <ele>494.2</ele>
        <time>2024-06-27T18:44:34.690Z</time>
      </trkpt>
      <trkpt lat="45.51944" lon="5.16935">
        <ele>494</ele>
        <time>2024-06-27T18:44:41.720Z</time>
      </trkpt>
      <trkpt lat="45.51956" lon="5.16957">
        <ele>493.2</ele>
        <time>2024-06-27T18:44:48.753Z</time>
      </trkpt>
      <trkpt lat="45.51958" lon="5.1696">
        <ele>493.1</ele>
        <time>2024-06-27T18:44:55.787Z</time>
      </trkpt>
      <trkpt lat="45.51964" lon="5.16972">
        <ele>492.6</ele>
        <time>2024-06-27T18:45:02.823Z</time>
      </trkpt>
      <trkpt lat="45.51976" lon="5.16994">
        <ele>492</ele>
        <time>2024-06-27T18:45:09.863Z</time>
      </trkpt>
      <trkpt lat="45.51982" lon="5.17004">
        <ele>492.1</ele>
        <time>2024-06-27T18:45:16.905Z</time>
      </trkpt>
      <trkpt lat="45.51992" lon="5.1702">
        <ele>492.4</ele>
        <time>2024-06-27T18:45:23.950Z</time>
      </trkpt>
      <trkpt lat="45.52005" lon="5.17028">
        <ele>492.5</ele>
        <time>2024-06-27T18:45:30.997Z</time>
      </trkpt>
      <trkpt lat="45.52009" lon="5.17026">
        <ele>492.6</ele>
        <time>2024-06-27T18:45:38.045Z</time>
      </trkpt>
      <trkpt lat="45.52016" lon="5.1702">
        <ele>492.6</ele>
        <time>2024-06-27T18:45:45.095Z</time>
      </trkpt>
      <trkpt lat="45.52027" lon="5.17012">
        <ele>492.7</ele>
        <time>2024-06-27T18:45:52.147Z</time>
      </trkpt>
      <trkpt lat="45.52035" lon="5.17006">
        <ele>492.8</ele>
        <time>2024-06-27T18:45:59.201Z</time>
      </trkpt>
      <trkpt lat="45.52039" lon="5.17001">
        <ele>492.7</ele>
        <time>2024-06-27T18:46:06.256Z</time>
      </trkpt>
      <trkpt lat="45.52046" lon="5.16996">
        <ele>492.8</ele>
        <time>2024-06-27T18:46:13.312Z</time>
      </trkpt>
      <trkpt lat="45.5205" lon="5.16993">
        <ele>492.9</ele>
        <time>2024-06-27T18:46:20.369Z</time>
      </trkpt>
      <trkpt lat="45.52052" lon="5.16991">
        <ele>492.9</ele>
        <time>2024-06-27T18:46:27.427Z</time>
      </trkpt>
      <trkpt lat="45.52054" lon="5.1699">
        <ele>492.9</ele>
        <time>2024-06-27T18:46:34.485Z</time>
      </trkpt>
      <trkpt lat="45.5206" lon="5.16986">
        <ele>493.3</ele>
        <time>2024-06-27T18:46:41.544Z</time>
      </trkpt>
      <trkpt lat="45.52065" lon="5.16984">
        <ele>493.6</ele>
        <time>2024-06-27T18:46:48.604Z</time>
      </trkpt>
      <trkpt lat="45.52069" lon="5.16982">
        <ele>493.9</ele>
        <time>2024-06-27T18:46:55.665Z</time>
      </trkpt>
      <trkpt lat="45.52085" lon="5.16976">
        <ele>495</ele>
        <time>2024-06-27T18:47:02.729Z</time>
      </trkpt>
      <trkpt lat="45.52091" lon="5.16972">
        <ele>495.3</ele>
        <time>2024-06-27T18:47:09.795Z</time>
      </trkpt>
      <trkpt lat="45.52097" lon="5.16972">
        <ele>495.5</ele>
        <time>2024-06-27T18:47:16.862Z</time>
      </trkpt>
      <trkpt lat="45.52099" lon="5.16972">
        <ele>495.5</ele>
        <time>2024-06-27T18:47:23.929Z</time>
      </trkpt>
      <trkpt lat="45.52121" lon="5.1697">
        <ele>495.7</ele>
        <time>2024-06-27T18:47:31.000Z</time>
      </trkpt>
      <trkpt lat="45.52139" lon="5.16967">
        <ele>495.9</ele>
        <time>2024-06-27T18:47:38.075Z</time>
      </trkpt>
      <trkpt lat="45.5215" lon="5.16966">
        <ele>495.2</ele>
        <time>2024-06-27T18:47:45.152Z</time>
      </trkpt>
      <trkpt lat="45.52156" lon="5.16966">
        <ele>494.8</ele>
        <time>2024-06-27T18:47:52.230Z</time>
      </trkpt>
      <trkpt lat="45.52168" lon="5.16966">
        <ele>493.9</ele>
        <time>2024-06-27T18:47:59.311Z</time>
      </trkpt>
      <trkpt lat="45.52174" lon="5.16967">
        <ele>493.4</ele>
        <time>2024-06-27T18:48:06.393Z</time>
      </trkpt>
      <trkpt lat="45.52181" lon="5.16967">
        <ele>492.9</ele>
        <time>2024-06-27T18:48:13.476Z</time>
      </trkpt>
      <trkpt lat="45.52189" lon="5.16968">
        <ele>492.3</ele>
        <time>2024-06-27T18:48:20.561Z</time>
      </trkpt>
      <trkpt lat="45.52196" lon="5.16968">
        <ele>491.8</ele>
        <time>2024-06-27T18:48:27.647Z</time>
      </trkpt>
      <trkpt lat="45.52219" lon="5.16968">
        <ele>489.4</ele>
        <time>2024-06-27T18:48:34.737Z</time>
      </trkpt>
      <trkpt lat="45.52243" lon="5.16968">
        <ele>488.5</ele>
        <time>2024-06-27T18:48:41.832Z</time>
      </trkpt>
      <trkpt lat="45.52252" lon="5.16968">
        <ele>488.2</ele>
        <time>2024-06-27T18:48:48.929Z</time>
      </trkpt>
      <trkpt lat="45.52261" lon="5.16967">
        <ele>488.1</ele>
        <time>2024-06-27T18:48:56.028Z</time>
      </trkpt>
      <trkpt lat="45.52287" lon="5.16964">
        <ele>488</ele>
        <time>2024-06-27T18:49:03.132Z</time>
      </trkpt>
      <trkpt lat="45.52329" lon="5.1696">
        <ele>487.1</ele>
        <time>2024-06-27T18:49:10.244Z</time>
      </trkpt>
      <trkpt lat="45.52336" lon="5.16959">
        <ele>487</ele>
        <time>2024-06-27T18:49:17.357Z</time>
      </trkpt>
      <trkpt lat="45.52372" lon="5.16956">
        <ele>486.6</ele>
        <time>2024-06-27T18:49:24.477Z</time>
      </trkpt>
      <trkpt lat="45.5238" lon="5.16956">
        <ele>486.3</ele>
        <time>2024-06-27T18:49:31.599Z</time>
      </trkpt>
      <trkpt lat="45.52387" lon="5.16957">
        <ele>486.1</ele>
        <time>2024-06-27T18:49:38.722Z</time>
      </trkpt>
      <trkpt lat="45.52411" lon="5.16961">
        <ele>485.2</ele>
        <time>2024-06-27T18:49:45.850Z</time>
      </trkpt>
      <trkpt lat="45.52419" lon="5.16962">
        <ele>484.8</ele>
        <time>2024-06-27T18:49:52.979Z</time>
      </trkpt>
      <trkpt lat="45.52428" lon="5.16963">
        <ele>484.2</ele>
        <time>2024-06-27T18:50:00.110Z</time>
      </trkpt>
      <trkpt lat="45.52437" lon="5.16963">
        <ele>483.6</ele>
        <time>2024-06-27T18:50:07.243Z</time>
      </trkpt>
      <trkpt lat="45.52446" lon="5.16963">
        <ele>482.9</ele>
        <time>2024-06-27T18:50:14.378Z</time>
      </trkpt>
      <trkpt lat="45.52465" lon="5.16958">
        <ele>481.6</ele>
        <time>2024-06-27T18:50:21.516Z</time>
      </trkpt>
      <trkpt lat="45.52496" lon="5.16943">
        <ele>478.6</ele>
        <time>2024-06-27T18:50:28.661Z</time>
      </trkpt>
      <trkpt lat="45.52506" lon="5.16934">
        <ele>477.8</ele>
        <time>2024-06-27T18:50:35.808Z</time>
      </trkpt>
      <trkpt lat="45.52515" lon="5.16925">
        <ele>477.1</ele>
        <time>2024-06-27T18:50:42.957Z</time>
      </trkpt>
      <trkpt lat="45.52524" lon="5.16916">
        <ele>475.9</ele>
        <time>2024-06-27T18:50:50.108Z</time>
      </trkpt>
      <trkpt lat="45.52543" lon="5.16898">
        <ele>474.5</ele>
        <time>2024-06-27T18:50:57.264Z</time>
      </trkpt>
      <trkpt lat="45.52553" lon="5.1689">
        <ele>474.1</ele>
        <time>2024-06-27T18:51:04.422Z</time>
      </trkpt>
      <trkpt lat="45.52563" lon="5.16883">
        <ele>474</ele>
        <time>2024-06-27T18:51:11.582Z</time>
      </trkpt>
      <trkpt lat="45.52594" lon="5.16864">
        <ele>474.4</ele>
        <time>2024-06-27T18:51:18.749Z</time>
      </trkpt>
      <trkpt lat="45.52604" lon="5.16857">
        <ele>474.7</ele>
        <time>2024-06-27T18:51:25.918Z</time>
      </trkpt>
      <trkpt lat="45.52612" lon="5.1685">
        <ele>475</ele>
        <time>2024-06-27T18:51:33.089Z</time>
      </trkpt>
      <trkpt lat="45.52621" lon="5.16843">
        <ele>475</ele>
        <time>2024-06-27T18:51:40.261Z</time>
      </trkpt>
      <trkpt lat="45.52646" lon="5.16827">
        <ele>474.7</ele>
        <time>2024-06-27T18:51:47.439Z</time>
      </trkpt>
      <trkpt lat="45.52654" lon="5.16822">
        <ele>474.5</ele>
        <time>2024-06-27T18:51:54.618Z</time>
      </trkpt>
      <trkpt lat="45.52662" lon="5.16818">
        <ele>474.2</ele>
        <time>2024-06-27T18:52:01.799Z</time>
      </trkpt>
      <trkpt lat="45.52689" lon="5.16803">
        <ele>473.8</ele>
        <time>2024-06-27T18:52:08.986Z</time>
      </trkpt>
      <trkpt lat="45.52695" lon="5.168">
        <ele>473.9</ele>
        <time>2024-06-27T18:52:16.174Z</time>
      </trkpt>
      <trkpt lat="45.52705" lon="5.16801">
        <ele>473.8</ele>
        <time>2024-06-27T18:52:23.364Z</time>
      </trkpt>
      <trkpt lat="45.5271" lon="5.16805">
        <ele>473.7</ele>
        <time>2024-06-27T18:52:30.555Z</time>
      </trkpt>
      <trkpt lat="45.52717" lon="5.16814">
        <ele>473.4</ele>
        <time>2024-06-27T18:52:37.748Z</time>
      </trkpt>
      <trkpt lat="45.52727" lon="5.16825">
        <ele>473.3</ele>
        <time>2024-06-27T18:52:44.943Z</time>
      </trkpt>
      <trkpt lat="45.52732" lon="5.1683">
        <ele>473.6</ele>
        <time>2024-06-27T18:52:52.139Z</time>
      </trkpt>
      <trkpt lat="45.52742" lon="5.1684">
        <ele>474.4</ele>
        <time>2024-06-27T18:52:59.338Z</time>
      </trkpt>
      <trkpt lat="45.52747" lon="5.16845">
        <ele>474.7</ele>
        <time>2024-06-27T18:53:06.538Z</time>
      </trkpt>
      <trkpt lat="45.52757" lon="5.16852">
        <ele>475.2</ele>
        <time>2024-06-27T18:53:13.740Z</time>
      </trkpt>
      <trkpt lat="45.52762" lon="5.16855">
        <ele>475.5</ele>
        <time>2024-06-27T18:53:20.943Z</time>
      </trkpt>
      <trkpt lat="45.52776" lon="5.16862">
        <ele>476.3</ele>
        <time>2024-06-27T18:53:28.149Z</time>
      </trkpt>
      <trkpt lat="45.52786" lon="5.16866">
        <ele>476.5</ele>
        <time>2024-06-27T18:53:35.357Z</time>
      </trkpt>
      <trkpt lat="45.52794" lon="5.16869">
        <ele>476.6</ele>
        <time>2024-06-27T18:53:42.567Z</time>
      </trkpt>
      <trkpt lat="45.52807" lon="5.16875">
        <ele>476.8</ele>
        <time>2024-06-27T18:53:49.779Z</time>
      </trkpt>
      <trkpt lat="45.52835" lon="5.16889">
        <ele>477</ele>
        <time>2024-06-27T18:53:56.997Z</time>
      </trkpt>
      <trkpt lat="45.52857" lon="5.16908">
        <ele>476.2</ele>
        <time>2024-06-27T18:54:04.220Z</time>
      </trkpt>
      <trkpt lat="45.52861" lon="5.16913">
        <ele>475.8</ele>
        <time>2024-06-27T18:54:11.444Z</time>
      </trkpt>
      <trkpt lat="45.52883" lon="5.16936">
        <ele>474.2</ele>
        <time>2024-06-27T18:54:18.673Z</time>
      </trkpt>
      <trkpt lat="45.52895" lon="5.16947">
        <ele>473.4</ele>
        <time>2024-06-27T18:54:25.905Z</time>
      </trkpt>
      <trkpt lat="45.52909" lon="5.16958">
        <ele>472.5</ele>
        <time>2024-06-27T18:54:33.140Z</time>
      </trkpt>
      <trkpt lat="45.52916" lon="5.16963">
        <ele>472.1</ele>
        <time>2024-06-27T18:54:40.377Z</time>
      </trkpt>
      <trkpt lat="45.5293" lon="5.16974">
        <ele>470.7</ele>
        <time>2024-06-27T18:54:47.617Z</time>
      </trkpt>
      <trkpt lat="45.52943" lon="5.16984">
        <ele>469.4</ele>
        <time>2024-06-27T18:54:54.860Z</time>
      </trkpt>
      <trkpt lat="45.5295" lon="5.16989">
        <ele>468.9</ele>
        <time>2024-06-27T18:55:02.104Z</time>
      </trkpt>
      <trkpt lat="45.52963" lon="5.16998">
        <ele>468.1</ele>
        <time>2024-06-27T18:55:09.351Z</time>
      </trkpt>
      <trkpt lat="45.52985" lon="5.17013">
        <ele>466.3</ele>
        <time>2024-06-27T18:55:16.603Z</time>
      </trkpt>
      <trkpt lat="45.52991" lon="5.17015">
        <ele>465.8</ele>
        <time>2024-06-27T18:55:23.856Z</time>
      </trkpt>
      <trkpt lat="45.52996" lon="5.17017">
        <ele>465.4</ele>
        <time>2024-06-27T18:55:31.110Z</time>
      </trkpt>
      <trkpt lat="45.5301" lon="5.17019">
        <ele>464.3</ele>
        <time>2024-06-27T18:55:38.367Z</time>
      </trkpt>
      <trkpt lat="45.53043" lon="5.17023">
        <ele>462</ele>
        <time>2024-06-27T18:55:45.630Z</time>
      </trkpt>
      <trkpt lat="45.53052" lon="5.17023">
        <ele>461.3</ele>
        <time>2024-06-27T18:55:52.895Z</time>
      </trkpt>
      <trkpt lat="45.5307" lon="5.17022">
        <ele>461.4</ele>
        <time>2024-06-27T18:56:00.163Z</time>
      </trkpt>
      <trkpt lat="45.53088" lon="5.1702">
        <ele>461.9</ele>
        <time>2024-06-27T18:56:07.435Z</time>
      </trkpt>
      <trkpt lat="45.53106" lon="5.17017">
        <ele>461.3</ele>
        <time>2024-06-27T18:56:14.710Z</time>
      </trkpt>
      <trkpt lat="45.53115" lon="5.17016">
        <ele>461</ele>
        <time>2024-06-27T18:56:21.987Z</time>
      </trkpt>
      <trkpt lat="45.53132" lon="5.17014">
        <ele>459.9</ele>
        <time>2024-06-27T18:56:29.267Z</time>
      </trkpt>
      <trkpt lat="45.53156" lon="5.17007">
        <ele>460.2</ele>
        <time>2024-06-27T18:56:36.552Z</time>
      </trkpt>
      <trkpt lat="45.53163" lon="5.17005">
        <ele>459.5</ele>
        <time>2024-06-27T18:56:43.839Z</time>
      </trkpt>
      <trkpt lat="45.5317" lon="5.17003">
        <ele>458.7</ele>
        <time>2024-06-27T18:56:51.127Z</time>
      </trkpt>
      <trkpt lat="45.53184" lon="5.17001">
        <ele>457.4</ele>
        <time>2024-06-27T18:56:58.418Z</time>
      </trkpt>
      <trkpt lat="45.53191" lon="5.17">
        <ele>457</ele>
        <time>2024-06-27T18:57:05.710Z</time>
      </trkpt>
      <trkpt lat="45.53199" lon="5.16999">
        <ele>456.4</ele>
        <time>2024-06-27T18:57:13.004Z</time>
      </trkpt>
      <trkpt lat="45.53208" lon="5.16998">
        <ele>455.4</ele>
        <time>2024-06-27T18:57:20.299Z</time>
      </trkpt>
      <trkpt lat="45.53225" lon="5.16995">
        <ele>453.1</ele>
        <time>2024-06-27T18:57:27.598Z</time>
      </trkpt>
      <trkpt lat="45.53234" lon="5.16992">
        <ele>452</ele>
        <time>2024-06-27T18:57:34.898Z</time>
      </trkpt>
      <trkpt lat="45.53251" lon="5.16986">
        <ele>449.6</ele>
        <time>2024-06-27T18:57:42.202Z</time>
      </trkpt>
      <trkpt lat="45.53265" lon="5.1698">
        <ele>447.7</ele>
        <time>2024-06-27T18:57:49.509Z</time>
      </trkpt>
      <trkpt lat="45.53278" lon="5.16969">
        <ele>445.5</ele>
        <time>2024-06-27T18:57:56.819Z</time>
      </trkpt>
      <trkpt lat="45.53287" lon="5.16954">
        <ele>442.9</ele>
        <time>2024-06-27T18:58:04.131Z</time>
      </trkpt>
      <trkpt lat="45.5329" lon="5.16946">
        <ele>441.8</ele>
        <time>2024-06-27T18:58:11.445Z</time>
      </trkpt>
      <trkpt lat="45.53293" lon="5.16937">
        <ele>441.5</ele>
        <time>2024-06-27T18:58:18.760Z</time>
      </trkpt>
      <trkpt lat="45.53296" lon="5.16928">
        <ele>441.1</ele>
        <time>2024-06-27T18:58:26.076Z</time>
      </trkpt>
      <trkpt lat="45.53305" lon="5.16902">
        <ele>441.2</ele>
        <time>2024-06-27T18:58:33.396Z</time>
      </trkpt>
      <trkpt lat="45.53308" lon="5.16895">
        <ele>440.9</ele>
        <time>2024-06-27T18:58:40.717Z</time>
      </trkpt>
      <trkpt lat="45.53315" lon="5.16883">
        <ele>440.7</ele>
        <time>2024-06-27T18:58:48.040Z</time>
      </trkpt>
      <trkpt lat="45.53323" lon="5.16884">
        <ele>440.4</ele>
        <time>2024-06-27T18:58:55.365Z</time>
      </trkpt>
      <trkpt lat="45.53327" lon="5.16886">
        <ele>440.3</ele>
        <time>2024-06-27T18:59:02.691Z</time>
      </trkpt>
      <trkpt lat="45.5333" lon="5.16889">
        <ele>440.2</ele>
        <time>2024-06-27T18:59:10.018Z</time>
      </trkpt>
      <trkpt lat="45.53334" lon="5.16893">
        <ele>440</ele>
        <time>2024-06-27T18:59:17.345Z</time>
      </trkpt>
      <trkpt lat="45.53348" lon="5.16902">
        <ele>439</ele>
        <time>2024-06-27T18:59:24.675Z</time>
      </trkpt>
      <trkpt lat="45.53381" lon="5.16932">
        <ele>436</ele>
        <time>2024-06-27T18:59:32.013Z</time>
      </trkpt>
      <trkpt lat="45.53389" lon="5.1694">
        <ele>435.1</ele>
        <time>2024-06-27T18:59:39.353Z</time>
      </trkpt>
      <trkpt lat="45.53402" lon="5.16952">
        <ele>434.6</ele>
        <time>2024-06-27T18:59:46.696Z</time>
      </trkpt>
      <trkpt lat="45.53427" lon="5.16975">
        <ele>434.5</ele>
        <time>2024-06-27T18:59:54.045Z</time>
      </trkpt>
      <trkpt lat="45.5344" lon="5.16986">
        <ele>434.8</ele>
        <time>2024-06-27T19:00:01.397Z</time>
      </trkpt>
      <trkpt lat="45.53453" lon="5.16997">
        <ele>434.7</ele>
        <time>2024-06-27T19:00:08.751Z</time>
      </trkpt>
      <trkpt lat="45.53473" lon="5.17018">
        <ele>434</ele>
        <time>2024-06-27T19:00:16.110Z</time>
      </trkpt>
      <trkpt lat="45.53476" lon="5.17023">
        <ele>433.6</ele>
        <time>2024-06-27T19:00:23.470Z</time>
      </trkpt>
      <trkpt lat="45.53478" lon="5.17029">
        <ele>433.3</ele>
        <time>2024-06-27T19:00:30.831Z</time>
      </trkpt>
      <trkpt lat="45.53481" lon="5.17042">
        <ele>432.9</ele>
        <time>2024-06-27T19:00:38.194Z</time>
      </trkpt>
      <trkpt lat="45.53482" lon="5.17049">
        <ele>432.7</ele>
        <time>2024-06-27T19:00:45.558Z</time>
      </trkpt>
      <trkpt lat="45.53482" lon="5.17057">
        <ele>432.7</ele>
        <time>2024-06-27T19:00:52.923Z</time>
      </trkpt>
      <trkpt lat="45.53481" lon="5.17073">
        <ele>432.2</ele>
        <time>2024-06-27T19:01:00.290Z</time>
      </trkpt>
      <trkpt lat="45.5348" lon="5.17091">
        <ele>431.9</ele>
        <time>2024-06-27T19:01:07.660Z</time>
      </trkpt>
      <trkpt lat="45.5348" lon="5.17101">
        <ele>431.5</ele>
        <time>2024-06-27T19:01:15.031Z</time>
      </trkpt>
      <trkpt lat="45.53481" lon="5.1711">
        <ele>431.4</ele>
        <time>2024-06-27T19:01:22.403Z</time>
      </trkpt>
      <trkpt lat="45.53483" lon="5.17119">
        <ele>431.3</ele>
        <time>2024-06-27T19:01:29.777Z</time>
      </trkpt>
      <trkpt lat="45.53485" lon="5.17128">
        <ele>431.1</ele>
        <time>2024-06-27T19:01:37.152Z</time>
      </trkpt>
      <trkpt lat="45.53487" lon="5.17137">
        <ele>431</ele>
        <time>2024-06-27T19:01:44.528Z</time>
      </trkpt>
      <trkpt lat="45.53493" lon="5.17167">
        <ele>430.9</ele>
        <time>2024-06-27T19:01:51.908Z</time>
      </trkpt>
      <trkpt lat="45.53497" lon="5.17178">
        <ele>430.4</ele>
        <time>2024-06-27T19:01:59.290Z</time>
      </trkpt>
      <trkpt lat="45.53499" lon="5.17179">
        <ele>430.2</ele>
        <time>2024-06-27T19:02:06.672Z</time>
      </trkpt>
      <trkpt lat="45.53501" lon="5.17177">
        <ele>430</ele>
        <time>2024-06-27T19:02:14.055Z</time>
      </trkpt>
      <trkpt lat="45.53502" lon="5.17168">
        <ele>430</ele>
        <time>2024-06-27T19:02:21.439Z</time>
      </trkpt>
      <trkpt lat="45.53501" lon="5.17141">
        <ele>430</ele>
        <time>2024-06-27T19:02:28.827Z</time>
      </trkpt>
      <trkpt lat="45.535" lon="5.17133">
        <ele>430.1</ele>
        <time>2024-06-27T19:02:36.216Z</time>
      </trkpt>
      <trkpt lat="45.535" lon="5.17125">
        <ele>430.1</ele>
        <time>2024-06-27T19:02:43.606Z</time>
      </trkpt>
      <trkpt lat="45.53502" lon="5.17107">
        <ele>430</ele>
        <time>2024-06-27T19:02:50.999Z</time>
      </trkpt>
      <trkpt lat="45.53504" lon="5.17099">
        <ele>430</ele>
        <time>2024-06-27T19:02:58.393Z</time>
      </trkpt>
      <trkpt lat="45.53508" lon="5.17091">
        <ele>430</ele>
        <time>2024-06-27T19:03:05.788Z</time>
      </trkpt>
      <trkpt lat="45.53516" lon="5.17074">
        <ele>429.5</ele>
        <time>2024-06-27T19:03:13.186Z</time>
      </trkpt>
      <trkpt lat="45.53525" lon="5.17059">
        <ele>428.3</ele>
        <time>2024-06-27T19:03:20.587Z</time>
      </trkpt>
      <trkpt lat="45.5353" lon="5.17051">
        <ele>427.4</ele>
        <time>2024-06-27T19:03:27.989Z</time>
      </trkpt>
      <trkpt lat="45.53535" lon="5.17043">
        <ele>427.1</ele>
        <time>2024-06-27T19:03:35.392Z</time>
      </trkpt>
      <trkpt lat="45.53554" lon="5.17025">
        <ele>426.5</ele>
        <time>2024-06-27T19:03:42.800Z</time>
      </trkpt>
      <trkpt lat="45.5359" lon="5.17007">
        <ele>422.7</ele>
        <time>2024-06-27T19:03:50.215Z</time>
      </trkpt>
      <trkpt lat="45.53605" lon="5.17005">
        <ele>421.6</ele>
        <time>2024-06-27T19:03:57.633Z</time>
      </trkpt>
      <trkpt lat="45.53612" lon="5.17006">
        <ele>421.3</ele>
        <time>2024-06-27T19:04:05.053Z</time>
      </trkpt>
      <trkpt lat="45.53618" lon="5.17008">
        <ele>420.2</ele>
        <time>2024-06-27T19:04:12.474Z</time>
      </trkpt>
      <trkpt lat="45.53625" lon="5.17011">
        <ele>419.1</ele>
        <time>2024-06-27T19:04:19.896Z</time>
      </trkpt>
      <trkpt lat="45.5363" lon="5.17015">
        <ele>418.7</ele>
        <time>2024-06-27T19:04:27.319Z</time>
      </trkpt>
      <trkpt lat="45.53635" lon="5.17022">
        <ele>418.7</ele>
        <time>2024-06-27T19:04:34.744Z</time>
      </trkpt>
      <trkpt lat="45.53644" lon="5.17037">
        <ele>418.3</ele>
        <time>2024-06-27T19:04:42.171Z</time>
      </trkpt>
      <trkpt lat="45.53657" lon="5.17061">
        <ele>419.1</ele>
        <time>2024-06-27T19:04:49.602Z</time>
      </trkpt>
      <trkpt lat="45.53665" lon="5.17075">
        <ele>420</ele>
        <time>2024-06-27T19:04:57.036Z</time>
      </trkpt>
      <trkpt lat="45.53672" lon="5.17089">
        <ele>421</ele>
        <time>2024-06-27T19:05:04.472Z</time>
      </trkpt>
      <trkpt lat="45.53683" lon="5.17108">
        <ele>421</ele>
        <time>2024-06-27T19:05:11.912Z</time>
      </trkpt>
      <trkpt lat="45.53686" lon="5.17114">
        <ele>420.9</ele>
        <time>2024-06-27T19:05:19.353Z</time>
      </trkpt>
      <trkpt lat="45.53692" lon="5.17126">
        <ele>420.7</ele>
        <time>2024-06-27T19:05:26.796Z</time>
      </trkpt>
      <trkpt lat="45.53698" lon="5.17137">
        <ele>420.2</ele>
        <time>2024-06-27T19:05:34.241Z</time>
      </trkpt>
      <trkpt lat="45.53701" lon="5.17143">
        <ele>420.2</ele>
        <time>2024-06-27T19:05:41.686Z</time>
      </trkpt>
      <trkpt lat="45.53707" lon="5.17154">
        <ele>420.1</ele>
        <time>2024-06-27T19:05:49.133Z</time>
      </trkpt>
      <trkpt lat="45.53709" lon="5.1716">
        <ele>420.3</ele>
        <time>2024-06-27T19:05:56.581Z</time>
      </trkpt>
      <trkpt lat="45.53715" lon="5.17171">
        <ele>420.2</ele>
        <time>2024-06-27T19:06:04.031Z</time>
      </trkpt>
      <trkpt lat="45.53721" lon="5.17182">
        <ele>420.1</ele>
        <time>2024-06-27T19:06:11.483Z</time>
      </trkpt>
      <trkpt lat="45.5373" lon="5.17198">
        <ele>419.9</ele>
        <time>2024-06-27T19:06:18.938Z</time>
      </trkpt>
      <trkpt lat="45.53738" lon="5.17214">
        <ele>419.9</ele>
        <time>2024-06-27T19:06:26.396Z</time>
      </trkpt>
      <trkpt lat="45.53741" lon="5.17219">
        <ele>419.7</ele>
        <time>2024-06-27T19:06:33.854Z</time>
      </trkpt>
      <trkpt lat="45.53749" lon="5.17234">
        <ele>419</ele>
        <time>2024-06-27T19:06:41.315Z</time>
      </trkpt>
      <trkpt lat="45.53761" lon="5.17255">
        <ele>418.4</ele>
        <time>2024-06-27T19:06:48.780Z</time>
      </trkpt>
      <trkpt lat="45.53763" lon="5.1726">
        <ele>418.4</ele>
        <time>2024-06-27T19:06:56.246Z</time>
      </trkpt>
      <trkpt lat="45.53766" lon="5.17266">
        <ele>418.3</ele>
        <time>2024-06-27T19:07:03.712Z</time>
      </trkpt>
      <trkpt lat="45.53781" lon="5.17293">
        <ele>417.9</ele>
        <time>2024-06-27T19:07:11.183Z</time>
      </trkpt>
      <trkpt lat="45.5379" lon="5.17309">
        <ele>418</ele>
        <time>2024-06-27T19:07:18.657Z</time>
      </trkpt>
      <trkpt lat="45.538" lon="5.17325">
        <ele>417.9</ele>
        <time>2024-06-27T19:07:26.134Z</time>
      </trkpt>
      <trkpt lat="45.53819" lon="5.17367">
        <ele>415.5</ele>
        <time>2024-06-27T19:07:33.618Z</time>
      </trkpt>
      <trkpt lat="45.53823" lon="5.17379">
        <ele>415</ele>
        <time>2024-06-27T19:07:41.103Z</time>
      </trkpt>
      <trkpt lat="45.53825" lon="5.17385">
        <ele>415</ele>
        <time>2024-06-27T19:07:48.589Z</time>
      </trkpt>
      <trkpt lat="45.53832" lon="5.17425">
        <ele>415.6</ele>
        <time>2024-06-27T19:07:56.081Z</time>
      </trkpt>
      <trkpt lat="45.53832" lon="5.17432">
        <ele>415.9</ele>
        <time>2024-06-27T19:08:03.574Z</time>
      </trkpt>
      <trkpt lat="45.53833" lon="5.17465">
        <ele>417.1</ele>
        <time>2024-06-27T19:08:11.071Z</time>
      </trkpt>
      <trkpt lat="45.53834" lon="5.17523">
        <ele>420</ele>
        <time>2024-06-27T19:08:18.576Z</time>
      </trkpt>
      <trkpt lat="45.53836" lon="5.17538">
        <ele>419.9</ele>
        <time>2024-06-27T19:08:26.083Z</time>
      </trkpt>
      <trkpt lat="45.53846" lon="5.17588">
        <ele>419.7</ele>
        <time>2024-06-27T19:08:33.597Z</time>
      </trkpt>
      <trkpt lat="45.53865" lon="5.17643">
        <ele>419.3</ele>
        <time>2024-06-27T19:08:41.120Z</time>
      </trkpt>
      <trkpt lat="45.53889" lon="5.17693">
        <ele>418.1</ele>
        <time>2024-06-27T19:08:48.651Z</time>
      </trkpt>
      <trkpt lat="45.53893" lon="5.17699">
        <ele>417.9</ele>
        <time>2024-06-27T19:08:56.183Z</time>
      </trkpt>
      <trkpt lat="45.53899" lon="5.17712">
        <ele>417.7</ele>
        <time>2024-06-27T19:09:03.717Z</time>
      </trkpt>
      <trkpt lat="45.53924" lon="5.17761">
        <ele>418.5</ele>
        <time>2024-06-27T19:09:11.260Z</time>
      </trkpt>
      <trkpt lat="45.53931" lon="5.17773">
        <ele>418.7</ele>
        <time>2024-06-27T19:09:18.805Z</time>
      </trkpt>
      <trkpt lat="45.53968" lon="5.17829">
        <ele>418.2</ele>
        <time>2024-06-27T19:09:26.360Z</time>
      </trkpt>
      <trkpt lat="45.53999" lon="5.17874">
        <ele>419.7</ele>
        <time>2024-06-27T19:09:33.924Z</time>
      </trkpt>
      <trkpt lat="45.54021" lon="5.17927">
        <ele>420.7</ele>
        <time>2024-06-27T19:09:41.496Z</time>
      </trkpt>
      <trkpt lat="45.54032" lon="5.17961">
        <ele>421.1</ele>
        <time>2024-06-27T19:09:49.073Z</time>
      </trkpt>
      <trkpt lat="45.5404" lon="5.17989">
        <ele>421.8</ele>
        <time>2024-06-27T19:09:56.654Z</time>
      </trkpt>
      <trkpt lat="45.54042" lon="5.17997">
        <ele>422.2</ele>
        <time>2024-06-27T19:10:04.236Z</time>
      </trkpt>
      <trkpt lat="45.54043" lon="5.18004">
        <ele>422.5</ele>
        <time>2024-06-27T19:10:11.819Z</time>
      </trkpt>
      <trkpt lat="45.54053" lon="5.1804">
        <ele>423.7</ele>
        <time>2024-06-27T19:10:19.408Z</time>
      </trkpt>
      <trkpt lat="45.54057" lon="5.18054">
        <ele>424</ele>
        <time>2024-06-27T19:10:26.999Z</time>
      </trkpt>
      <trkpt lat="45.54066" lon="5.18082">
        <ele>424.6</ele>
        <time>2024-06-27T19:10:34.594Z</time>
      </trkpt>
      <trkpt lat="45.54074" lon="5.18101">
        <ele>425.2</ele>
        <time>2024-06-27T19:10:42.192Z</time>
      </trkpt>
      <trkpt lat="45.54077" lon="5.18108">
        <ele>425.5</ele>
        <time>2024-06-27T19:10:49.791Z</time>
      </trkpt>
      <trkpt lat="45.54088" lon="5.18143">
        <ele>426</ele>
        <time>2024-06-27T19:10:57.395Z</time>
      </trkpt>
      <trkpt lat="45.54102" lon="5.18185">
        <ele>424.7</ele>
        <time>2024-06-27T19:11:05.006Z</time>
      </trkpt>
      <trkpt lat="45.54107" lon="5.182">
        <ele>424.3</ele>
        <time>2024-06-27T19:11:12.619Z</time>
      </trkpt>
      <trkpt lat="45.54108" lon="5.18207">
        <ele>424.1</ele>
        <time>2024-06-27T19:11:20.233Z</time>
      </trkpt>
      <trkpt lat="45.54112" lon="5.18223">
        <ele>424</ele>
        <time>2024-06-27T19:11:27.849Z</time>
      </trkpt>
      <trkpt lat="45.54113" lon="5.1823">
        <ele>424</ele>
        <time>2024-06-27T19:11:35.466Z</time>
      </trkpt>
      <trkpt lat="45.54119" lon="5.18269">
        <ele>424.3</ele>
        <time>2024-06-27T19:11:43.088Z</time>
      </trkpt>
      <trkpt lat="45.54122" lon="5.18293">
        <ele>423.9</ele>
        <time>2024-06-27T19:11:50.714Z</time>
      </trkpt>
      <trkpt lat="45.54132" lon="5.18342">
        <ele>423.6</ele>
        <time>2024-06-27T19:11:58.347Z</time>
      </trkpt>
      <trkpt lat="45.54156" lon="5.18416">
        <ele>421.7</ele>
        <time>2024-06-27T19:12:05.991Z</time>
      </trkpt>
      <trkpt lat="45.54176" lon="5.18477">
        <ele>424.2</ele>
        <time>2024-06-27T19:12:13.644Z</time>
      </trkpt>
      <trkpt lat="45.54178" lon="5.18483">
        <ele>424.3</ele>
        <time>2024-06-27T19:12:21.298Z</time>
      </trkpt>
      <trkpt lat="45.54186" lon="5.18516">
        <ele>425.7</ele>
        <time>2024-06-27T19:12:28.957Z</time>
      </trkpt>
      <trkpt lat="45.54189" lon="5.18536">
        <ele>426.3</ele>
        <time>2024-06-27T19:12:36.618Z</time>
      </trkpt>
      <trkpt lat="45.5419" lon="5.18556">
        <ele>427.1</ele>
        <time>2024-06-27T19:12:44.282Z</time>
      </trkpt>
      <trkpt lat="45.5419" lon="5.18591">
        <ele>427.8</ele>
        <time>2024-06-27T19:12:51.951Z</time>
      </trkpt>
      <trkpt lat="45.54189" lon="5.18606">
        <ele>428</ele>
        <time>2024-06-27T19:12:59.622Z</time>
      </trkpt>
      <trkpt lat="45.54185" lon="5.18676">
        <ele>427.9</ele>
        <time>2024-06-27T19:13:07.303Z</time>
      </trkpt>
      <trkpt lat="45.54184" lon="5.18719">
        <ele>426.3</ele>
        <time>2024-06-27T19:13:14.989Z</time>
      </trkpt>
      <trkpt lat="45.54182" lon="5.18763">
        <ele>425.7</ele>
        <time>2024-06-27T19:13:22.681Z</time>
      </trkpt>
      <trkpt lat="45.54182" lon="5.18772">
        <ele>425.6</ele>
        <time>2024-06-27T19:13:30.375Z</time>
      </trkpt>
      <trkpt lat="45.54181" lon="5.18805">
        <ele>426.1</ele>
        <time>2024-06-27T19:13:38.073Z</time>
      </trkpt>
      <trkpt lat="45.54181" lon="5.18848">
        <ele>426.5</ele>
        <time>2024-06-27T19:13:45.777Z</time>
      </trkpt>
      <trkpt lat="45.54183" lon="5.18881">
        <ele>425.8</ele>
        <time>2024-06-27T19:13:53.486Z</time>
      </trkpt>
      <trkpt lat="45.54184" lon="5.18923">
        <ele>426.2</ele>
        <time>2024-06-27T19:14:01.200Z</time>
      </trkpt>
      <trkpt lat="45.54187" lon="5.1899">
        <ele>427.3</ele>
        <time>2024-06-27T19:14:08.923Z</time>
      </trkpt>
      <trkpt lat="45.54188" lon="5.19016">
        <ele>426.7</ele>
        <time>2024-06-27T19:14:16.650Z</time>
      </trkpt>
      <trkpt lat="45.54192" lon="5.1909">
        <ele>424.8</ele>
        <time>2024-06-27T19:14:24.387Z</time>
      </trkpt>
      <trkpt lat="45.54192" lon="5.19099">
        <ele>424.5</ele>
        <time>2024-06-27T19:14:32.125Z</time>
      </trkpt>
      <trkpt lat="45.54194" lon="5.19137">
        <ele>424.1</ele>
        <time>2024-06-27T19:14:39.868Z</time>
      </trkpt>
      <trkpt lat="45.54196" lon="5.19193">
        <ele>424.3</ele>
        <time>2024-06-27T19:14:47.619Z</time>
      </trkpt>
      <trkpt lat="45.54199" lon="5.19262">
        <ele>424</ele>
        <time>2024-06-27T19:14:55.379Z</time>
      </trkpt>
      <trkpt lat="45.54199" lon="5.19289">
        <ele>424</ele>
        <time>2024-06-27T19:15:03.143Z</time>
      </trkpt>
      <trkpt lat="45.54198" lon="5.19323">
        <ele>424.9</ele>
        <time>2024-06-27T19:15:10.912Z</time>
      </trkpt>
      <trkpt lat="45.54203" lon="5.19357">
        <ele>425.7</ele>
        <time>2024-06-27T19:15:18.685Z</time>
      </trkpt>
      <trkpt lat="45.54203" lon="5.19366">
        <ele>425.7</ele>
        <time>2024-06-27T19:15:26.460Z</time>
      </trkpt>
      <trkpt lat="45.54203" lon="5.19383">
        <ele>425.7</ele>
        <time>2024-06-27T19:15:34.237Z</time>
      </trkpt>
      <trkpt lat="45.54203" lon="5.194">
        <ele>425.7</ele>
        <time>2024-06-27T19:15:42.016Z</time>
      </trkpt>
      <trkpt lat="45.54201" lon="5.19416">
        <ele>425.8</ele>
        <time>2024-06-27T19:15:49.798Z</time>
      </trkpt>
      <trkpt lat="45.54201" lon="5.19433">
        <ele>425.8</ele>
        <time>2024-06-27T19:15:57.582Z</time>
      </trkpt>
      <trkpt lat="45.542" lon="5.19449">
        <ele>426.3</ele>
        <time>2024-06-27T19:16:05.368Z</time>
      </trkpt>
      <trkpt lat="45.54201" lon="5.19466">
        <ele>426.9</ele>
        <time>2024-06-27T19:16:13.156Z</time>
      </trkpt>
      <trkpt lat="45.54201" lon="5.19474">
        <ele>427</ele>
        <time>2024-06-27T19:16:20.945Z</time>
      </trkpt>
      <trkpt lat="45.54203" lon="5.1949">
        <ele>427</ele>
        <time>2024-06-27T19:16:28.737Z</time>
      </trkpt>
      <trkpt lat="45.54207" lon="5.19513">
        <ele>427.4</ele>
        <time>2024-06-27T19:16:36.532Z</time>
      </trkpt>
      <trkpt lat="45.54213" lon="5.19533">
        <ele>427.6</ele>
        <time>2024-06-27T19:16:44.330Z</time>
      </trkpt>
      <trkpt lat="45.54219" lon="5.19551">
        <ele>428.1</ele>
        <time>2024-06-27T19:16:52.130Z</time>
      </trkpt>
      <trkpt lat="45.54223" lon="5.19563">
        <ele>429.1</ele>
        <time>2024-06-27T19:16:59.932Z</time>
      </trkpt>
      <trkpt lat="45.54229" lon="5.1958">
        <ele>429.8</ele>
        <time>2024-06-27T19:17:07.737Z</time>
      </trkpt>
      <trkpt lat="45.54234" lon="5.19603">
        <ele>429.6</ele>
        <time>2024-06-27T19:17:15.545Z</time>
      </trkpt>
      <trkpt lat="45.54241" lon="5.19634">
        <ele>430</ele>
        <time>2024-06-27T19:17:23.358Z</time>
      </trkpt>
      <trkpt lat="45.54245" lon="5.1965">
        <ele>430</ele>
        <time>2024-06-27T19:17:31.173Z</time>
      </trkpt>
      <trkpt lat="45.54249" lon="5.19666">
        <ele>429.6</ele>
        <time>2024-06-27T19:17:38.990Z</time>
      </trkpt>
      <trkpt lat="45.54254" lon="5.19687">
        <ele>429.2</ele>
        <time>2024-06-27T19:17:46.810Z</time>
      </trkpt>
      <trkpt lat="45.5426" lon="5.19711">
        <ele>428.7</ele>
        <time>2024-06-27T19:17:54.634Z</time>
      </trkpt>
      <trkpt lat="45.54273" lon="5.19774">
        <ele>432.5</ele>
        <time>2024-06-27T19:18:02.467Z</time>
      </trkpt>
      <trkpt lat="45.54275" lon="5.19785">
        <ele>433.1</ele>
        <time>2024-06-27T19:18:10.301Z</time>
      </trkpt>
      <trkpt lat="45.54283" lon="5.19826">
        <ele>434.4</ele>
        <time>2024-06-27T19:18:18.141Z</time>
      </trkpt>
      <trkpt lat="45.54291" lon="5.19862">
        <ele>434</ele>
        <time>2024-06-27T19:18:25.986Z</time>
      </trkpt>
      <trkpt lat="45.54299" lon="5.19887">
        <ele>433.7</ele>
        <time>2024-06-27T19:18:33.835Z</time>
      </trkpt>
      <trkpt lat="45.54314" lon="5.19943">
        <ele>435.8</ele>
        <time>2024-06-27T19:18:41.692Z</time>
      </trkpt>
      <trkpt lat="45.54315" lon="5.19949">
        <ele>435.9</ele>
        <time>2024-06-27T19:18:49.550Z</time>
      </trkpt>
      <trkpt lat="45.54318" lon="5.19976">
        <ele>436.2</ele>
        <time>2024-06-27T19:18:57.412Z</time>
      </trkpt>
      <trkpt lat="45.54318" lon="5.19997">
        <ele>435.6</ele>
        <time>2024-06-27T19:19:05.276Z</time>
      </trkpt>
      <trkpt lat="45.54311" lon="5.20038">
        <ele>435.5</ele>
        <time>2024-06-27T19:19:13.146Z</time>
      </trkpt>
      <trkpt lat="45.54307" lon="5.20056">
        <ele>435.6</ele>
        <time>2024-06-27T19:19:21.019Z</time>
      </trkpt>
      <trkpt lat="45.54301" lon="5.20075">
        <ele>436</ele>
        <time>2024-06-27T19:19:28.894Z</time>
      </trkpt>
      <trkpt lat="45.54295" lon="5.20109">
        <ele>436.8</ele>
        <time>2024-06-27T19:19:36.774Z</time>
      </trkpt>
      <trkpt lat="45.54294" lon="5.20116">
        <ele>437.1</ele>
        <time>2024-06-27T19:19:44.655Z</time>
      </trkpt>
      <trkpt lat="45.54294" lon="5.20158">
        <ele>438.7</ele>
        <time>2024-06-27T19:19:52.542Z</time>
      </trkpt>
      <trkpt lat="45.54293" lon="5.20172">
        <ele>439.5</ele>
        <time>2024-06-27T19:20:00.431Z</time>
      </trkpt>
      <trkpt lat="45.54293" lon="5.20179">
        <ele>439.8</ele>
        <time>2024-06-27T19:20:08.321Z</time>
      </trkpt>
      <trkpt lat="45.54292" lon="5.20201">
        <ele>440.3</ele>
        <time>2024-06-27T19:20:16.214Z</time>
      </trkpt>
      <trkpt lat="45.54292" lon="5.20209">
        <ele>440.3</ele>
        <time>2024-06-27T19:20:24.108Z</time>
      </trkpt>
      <trkpt lat="45.54292" lon="5.2024">
        <ele>439.8</ele>
        <time>2024-06-27T19:20:32.006Z</time>
      </trkpt>
      <trkpt lat="45.54294" lon="5.20292">
        <ele>439</ele>
        <time>2024-06-27T19:20:39.911Z</time>
      </trkpt>
      <trkpt lat="45.54299" lon="5.2035">
        <ele>439.6</ele>
        <time>2024-06-27T19:20:47.824Z</time>
      </trkpt>
      <trkpt lat="45.543" lon="5.20357">
        <ele>439.8</ele>
        <time>2024-06-27T19:20:55.738Z</time>
      </trkpt>
      <trkpt lat="45.54303" lon="5.20371">
        <ele>440.3</ele>
        <time>2024-06-27T19:21:03.654Z</time>
      </trkpt>
      <trkpt lat="45.54305" lon="5.20384">
        <ele>440.7</ele>
        <time>2024-06-27T19:21:11.572Z</time>
      </trkpt>
      <trkpt lat="45.54309" lon="5.20402">
        <ele>441.3</ele>
        <time>2024-06-27T19:21:19.493Z</time>
      </trkpt>
      <trkpt lat="45.54311" lon="5.20408">
        <ele>441.6</ele>
        <time>2024-06-27T19:21:27.414Z</time>
      </trkpt>
      <trkpt lat="45.54321" lon="5.20447">
        <ele>442.2</ele>
        <time>2024-06-27T19:21:35.341Z</time>
      </trkpt>
      <trkpt lat="45.54324" lon="5.20458">
        <ele>442.2</ele>
        <time>2024-06-27T19:21:43.270Z</time>
      </trkpt>
      <trkpt lat="45.54326" lon="5.20464">
        <ele>442.4</ele>
        <time>2024-06-27T19:21:51.200Z</time>
      </trkpt>
      <trkpt lat="45.54334" lon="5.2049">
        <ele>441.1</ele>
        <time>2024-06-27T19:21:59.133Z</time>
      </trkpt>
      <trkpt lat="45.5435" lon="5.20536">
        <ele>440.6</ele>
        <time>2024-06-27T19:22:07.073Z</time>
      </trkpt>
      <trkpt lat="45.54352" lon="5.20541">
        <ele>440.8</ele>
        <time>2024-06-27T19:22:15.014Z</time>
      </trkpt>
      <trkpt lat="45.54359" lon="5.20551">
        <ele>441</ele>
        <time>2024-06-27T19:22:22.957Z</time>
      </trkpt>
      <trkpt lat="45.54366" lon="5.2056">
        <ele>441</ele>
        <time>2024-06-27T19:22:30.902Z</time>
      </trkpt>
      <trkpt lat="45.5437" lon="5.20564">
        <ele>441</ele>
        <time>2024-06-27T19:22:38.848Z</time>
      </trkpt>
      <trkpt lat="45.54399" lon="5.20594">
        <ele>441.4</ele>
        <time>2024-06-27T19:22:46.801Z</time>
      </trkpt>
      <trkpt lat="45.54404" lon="5.20598">
        <ele>441.3</ele>
        <time>2024-06-27T19:22:54.755Z</time>
      </trkpt>
      <trkpt lat="45.54445" lon="5.20633">
        <ele>443</ele>
        <time>2024-06-27T19:23:02.718Z</time>
      </trkpt>
      <trkpt lat="45.54484" lon="5.20667">
        <ele>442.8</ele>
        <time>2024-06-27T19:23:10.690Z</time>
      </trkpt>
      <trkpt lat="45.54494" lon="5.20675">
        <ele>442.6</ele>
        <time>2024-06-27T19:23:18.664Z</time>
      </trkpt>
      <trkpt lat="45.54527" lon="5.20704">
        <ele>441.7</ele>
        <time>2024-06-27T19:23:26.646Z</time>
      </trkpt>
      <trkpt lat="45.54541" lon="5.20716">
        <ele>441.4</ele>
        <time>2024-06-27T19:23:34.631Z</time>
      </trkpt>
      <trkpt lat="45.54565" lon="5.20737">
        <ele>441.5</ele>
        <time>2024-06-27T19:23:42.621Z</time>
      </trkpt>
      <trkpt lat="45.54579" lon="5.20749">
        <ele>441.5</ele>
        <time>2024-06-27T19:23:50.615Z</time>
      </trkpt>
      <trkpt lat="45.54584" lon="5.20754">
        <ele>441.5</ele>
        <time>2024-06-27T19:23:58.610Z</time>
      </trkpt>
      <trkpt lat="45.54594" lon="5.20762">
        <ele>441.6</ele>
        <time>2024-06-27T19:24:06.607Z</time>
      </trkpt>
      <trkpt lat="45.54613" lon="5.20779">
        <ele>442</ele>
        <time>2024-06-27T19:24:14.608Z</time>
      </trkpt>
      <trkpt lat="45.54632" lon="5.20796">
        <ele>442.7</ele>
        <time>2024-06-27T19:24:22.614Z</time>
      </trkpt>
      <trkpt lat="45.54651" lon="5.20812">
        <ele>443</ele>
        <time>2024-06-27T19:24:30.624Z</time>
      </trkpt>
      <trkpt lat="45.54656" lon="5.20816">
        <ele>443</ele>
        <time>2024-06-27T19:24:38.635Z</time>
      </trkpt>
      <trkpt lat="45.54693" lon="5.20851">
        <ele>443.9</ele>
        <time>2024-06-27T19:24:46.655Z</time>
      </trkpt>
      <trkpt lat="45.54721" lon="5.20876">
        <ele>445.7</ele>
        <time>2024-06-27T19:24:54.681Z</time>
      </trkpt>
      <trkpt lat="45.54731" lon="5.20884">
        <ele>446.3</ele>
        <time>2024-06-27T19:25:02.709Z</time>
      </trkpt>
      <trkpt lat="45.5474" lon="5.20892">
        <ele>446.6</ele>
        <time>2024-06-27T19:25:10.739Z</time>
      </trkpt>
      <trkpt lat="45.54781" lon="5.20928">
        <ele>447.3</ele>
        <time>2024-06-27T19:25:18.779Z</time>
      </trkpt>
      <trkpt lat="45.54785" lon="5.20933">
        <ele>447.1</ele>
        <time>2024-06-27T19:25:26.820Z</time>
      </trkpt>
      <trkpt lat="45.5479" lon="5.20937">
        <ele>447</ele>
        <time>2024-06-27T19:25:34.862Z</time>
      </trkpt>
      <trkpt lat="45.54812" lon="5.20955">
        <ele>446.5</ele>
        <time>2024-06-27T19:25:42.909Z</time>
      </trkpt>
      <trkpt lat="45.54816" lon="5.2096">
        <ele>446.5</ele>
        <time>2024-06-27T19:25:50.957Z</time>
      </trkpt>
      <trkpt lat="45.54819" lon="5.20966">
        <ele>446.4</ele>
        <time>2024-06-27T19:25:59.006Z</time>
      </trkpt>
      <trkpt lat="45.54821" lon="5.2098">
        <ele>446.4</ele>
        <time>2024-06-27T19:26:07.057Z</time>
      </trkpt>
      <trkpt lat="45.54822" lon="5.21035">
        <ele>445.5</ele>
        <time>2024-06-27T19:26:15.115Z</time>
      </trkpt>
      <trkpt lat="45.54821" lon="5.21107">
        <ele>447.1</ele>
        <time>2024-06-27T19:26:23.183Z</time>
      </trkpt>
      <trkpt lat="45.54821" lon="5.21123">
        <ele>447.5</ele>
        <time>2024-06-27T19:26:31.253Z</time>
      </trkpt>
      <trkpt lat="45.54824" lon="5.21176">
        <ele>447.4</ele>
        <time>2024-06-27T19:26:39.330Z</time>
      </trkpt>
      <trkpt lat="45.54826" lon="5.21191">
        <ele>447.3</ele>
        <time>2024-06-27T19:26:47.410Z</time>
      </trkpt>
      <trkpt lat="45.54837" lon="5.21243">
        <ele>447.2</ele>
        <time>2024-06-27T19:26:55.497Z</time>
      </trkpt>
      <trkpt lat="45.54856" lon="5.21313">
        <ele>450.8</ele>
        <time>2024-06-27T19:27:03.594Z</time>
      </trkpt>
      <trkpt lat="45.54862" lon="5.21361">
        <ele>450</ele>
        <time>2024-06-27T19:27:11.698Z</time>
      </trkpt>
      <trkpt lat="45.54863" lon="5.21375">
        <ele>450</ele>
        <time>2024-06-27T19:27:19.804Z</time>
      </trkpt>
      <trkpt lat="45.54868" lon="5.21442">
        <ele>449</ele>
        <time>2024-06-27T19:27:27.919Z</time>
      </trkpt>
      <trkpt lat="45.54868" lon="5.21451">
        <ele>448.7</ele>
        <time>2024-06-27T19:27:36.035Z</time>
      </trkpt>
      <trkpt lat="45.54869" lon="5.2146">
        <ele>448.4</ele>
        <time>2024-06-27T19:27:44.152Z</time>
      </trkpt>
      <trkpt lat="45.5487" lon="5.215">
        <ele>447</ele>
        <time>2024-06-27T19:27:52.275Z</time>
      </trkpt>
      <trkpt lat="45.54871" lon="5.21512">
        <ele>447</ele>
        <time>2024-06-27T19:28:00.399Z</time>
      </trkpt>
      <trkpt lat="45.54871" lon="5.21524">
        <ele>446.9</ele>
        <time>2024-06-27T19:28:08.525Z</time>
      </trkpt>
      <trkpt lat="45.54868" lon="5.21549">
        <ele>445.1</ele>
        <time>2024-06-27T19:28:16.655Z</time>
      </trkpt>
      <trkpt lat="45.54862" lon="5.21576">
        <ele>443</ele>
        <time>2024-06-27T19:28:24.788Z</time>
      </trkpt>
      <trkpt lat="45.54858" lon="5.21589">
        <ele>442.5</ele>
        <time>2024-06-27T19:28:32.923Z</time>
      </trkpt>
      <trkpt lat="45.54854" lon="5.21602">
        <ele>441.8</ele>
        <time>2024-06-27T19:28:41.060Z</time>
      </trkpt>
      <trkpt lat="45.5485" lon="5.21615">
        <ele>440.7</ele>
        <time>2024-06-27T19:28:49.199Z</time>
      </trkpt>
      <trkpt lat="45.54839" lon="5.21652">
        <ele>439.8</ele>
        <time>2024-06-27T19:28:57.344Z</time>
      </trkpt>
      <trkpt lat="45.54832" lon="5.21676">
        <ele>440.1</ele>
        <time>2024-06-27T19:29:05.492Z</time>
      </trkpt>
      <trkpt lat="45.54824" lon="5.21709">
        <ele>440.6</ele>
        <time>2024-06-27T19:29:13.645Z</time>
      </trkpt>
      <trkpt lat="45.54819" lon="5.21729">
        <ele>441.7</ele>
        <time>2024-06-27T19:29:21.801Z</time>
      </trkpt>
      <trkpt lat="45.54817" lon="5.21738">
        <ele>442.1</ele>
        <time>2024-06-27T19:29:29.958Z</time>
      </trkpt>
      <trkpt lat="45.54807" lon="5.21773">
        <ele>443</ele>
        <time>2024-06-27T19:29:38.120Z</time>
      </trkpt>
      <trkpt lat="45.54804" lon="5.21789">
        <ele>443.1</ele>
        <time>2024-06-27T19:29:46.285Z</time>
      </trkpt>
      <trkpt lat="45.54802" lon="5.21798">
        <ele>443.2</ele>
        <time>2024-06-27T19:29:54.451Z</time>
      </trkpt>
      <trkpt lat="45.54802" lon="5.21815">
        <ele>443.2</ele>
        <time>2024-06-27T19:30:02.619Z</time>
      </trkpt>
      <trkpt lat="45.54802" lon="5.21823">
        <ele>443.2</ele>
        <time>2024-06-27T19:30:10.788Z</time>
      </trkpt>
      <trkpt lat="45.54803" lon="5.21831">
        <ele>443.1</ele>
        <time>2024-06-27T19:30:18.958Z</time>
      </trkpt>
      <trkpt lat="45.54807" lon="5.21847">
        <ele>443</ele>
        <time>2024-06-27T19:30:27.131Z</time>
      </trkpt>
      <trkpt lat="45.54812" lon="5.21862">
        <ele>442.8</ele>
        <time>2024-06-27T19:30:35.306Z</time>
      </trkpt>
      <trkpt lat="45.54825" lon="5.219">
        <ele>443</ele>
        <time>2024-06-27T19:30:43.487Z</time>
      </trkpt>
      <trkpt lat="45.54828" lon="5.21908">
        <ele>443</ele>
        <time>2024-06-27T19:30:51.669Z</time>
      </trkpt>
      <trkpt lat="45.54833" lon="5.21924">
        <ele>443.5</ele>
        <time>2024-06-27T19:30:59.853Z</time>
      </trkpt>
      <trkpt lat="45.54843" lon="5.21963">
        <ele>445.2</ele>
        <time>2024-06-27T19:31:08.043Z</time>
      </trkpt>
      <trkpt lat="45.54844" lon="5.21971">
        <ele>445.3</ele>
        <time>2024-06-27T19:31:16.234Z</time>
      </trkpt>
      <trkpt lat="45.54846" lon="5.21979">
        <ele>445.4</ele>
        <time>2024-06-27T19:31:24.426Z</time>
      </trkpt>
      <trkpt lat="45.54857" lon="5.22047">
        <ele>447</ele>
        <time>2024-06-27T19:31:32.628Z</time>
      </trkpt>
      <trkpt lat="45.54865" lon="5.22101">
        <ele>449.8</ele>
        <time>2024-06-27T19:31:40.837Z</time>
      </trkpt>
      <trkpt lat="45.54867" lon="5.22116">
        <ele>450.3</ele>
        <time>2024-06-27T19:31:49.048Z</time>
      </trkpt>
      <trkpt lat="45.54876" lon="5.22171">
        <ele>450</ele>
        <time>2024-06-27T19:31:57.267Z</time>
      </trkpt>
      <trkpt lat="45.54878" lon="5.22193">
        <ele>448.4</ele>
        <time>2024-06-27T19:32:05.489Z</time>
      </trkpt>
      <trkpt lat="45.54879" lon="5.222">
        <ele>447.8</ele>
        <time>2024-06-27T19:32:13.712Z</time>
      </trkpt>
      <trkpt lat="45.54879" lon="5.22208">
        <ele>446.9</ele>
        <time>2024-06-27T19:32:21.936Z</time>
      </trkpt>
      <trkpt lat="45.5488" lon="5.22216">
        <ele>446.2</ele>
        <time>2024-06-27T19:32:30.161Z</time>
      </trkpt>
      <trkpt lat="45.54881" lon="5.22223">
        <ele>445.7</ele>
        <time>2024-06-27T19:32:38.387Z</time>
      </trkpt>
      <trkpt lat="45.54884" lon="5.22264">
        <ele>443.3</ele>
        <time>2024-06-27T19:32:46.619Z</time>
      </trkpt>
      <trkpt lat="45.54885" lon="5.2228">
        <ele>443.2</ele>
        <time>2024-06-27T19:32:54.853Z</time>
      </trkpt>
      <trkpt lat="45.54886" lon="5.22287">
        <ele>443.4</ele>
        <time>2024-06-27T19:33:03.088Z</time>
      </trkpt>
      <trkpt lat="45.54888" lon="5.22307">
        <ele>443.7</ele>
        <time>2024-06-27T19:33:11.326Z</time>
      </trkpt>
      <trkpt lat="45.54888" lon="5.22314">
        <ele>443.7</ele>
        <time>2024-06-27T19:33:19.564Z</time>
      </trkpt>
      <trkpt lat="45.54888" lon="5.22319">
        <ele>443.7</ele>
        <time>2024-06-27T19:33:27.803Z</time>
      </trkpt>
      <trkpt lat="45.54889" lon="5.22325">
        <ele>443.9</ele>
        <time>2024-06-27T19:33:36.043Z</time>
      </trkpt>
      <trkpt lat="45.54889" lon="5.22341">
        <ele>444.5</ele>
        <time>2024-06-27T19:33:44.285Z</time>
      </trkpt>
      <trkpt lat="45.54891" lon="5.22345">
        <ele>444.7</ele>
        <time>2024-06-27T19:33:52.528Z</time>
      </trkpt>
      <trkpt lat="45.54894" lon="5.22349">
        <ele>444.7</ele>
        <time>2024-06-27T19:34:00.772Z</time>
      </trkpt>
      <trkpt lat="45.54898" lon="5.22352">
        <ele>444.7</ele>
        <time>2024-06-27T19:34:09.016Z</time>
      </trkpt>
      <trkpt lat="45.54906" lon="5.22351">
        <ele>444.3</ele>
        <time>2024-06-27T19:34:17.262Z</time>
      </trkpt>
      <trkpt lat="45.54913" lon="5.22345">
        <ele>444.1</ele>
        <time>2024-06-27T19:34:25.510Z</time>
      </trkpt>
      <trkpt lat="45.54924" lon="5.22337">
        <ele>444.6</ele>
        <time>2024-06-27T19:34:33.760Z</time>
      </trkpt>
      <trkpt lat="45.54927" lon="5.22335">
        <ele>444.7</ele>
        <time>2024-06-27T19:34:42.011Z</time>
      </trkpt>
      <trkpt lat="45.54931" lon="5.22332">
        <ele>444.8</ele>
        <time>2024-06-27T19:34:50.262Z</time>
      </trkpt>
      <trkpt lat="45.54937" lon="5.22326">
        <ele>445</ele>
        <time>2024-06-27T19:34:58.515Z</time>
      </trkpt>
      <trkpt lat="45.54947" lon="5.22317">
        <ele>445.7</ele>
        <time>2024-06-27T19:35:06.770Z</time>
      </trkpt>
      <trkpt lat="45.54959" lon="5.22303">
        <ele>447.1</ele>
        <time>2024-06-27T19:35:15.028Z</time>
      </trkpt>
      <trkpt lat="45.54963" lon="5.223">
        <ele>447.5</ele>
        <time>2024-06-27T19:35:23.287Z</time>
      </trkpt>
      <trkpt lat="45.54976" lon="5.22286">
        <ele>448</ele>
        <time>2024-06-27T19:35:31.549Z</time>
      </trkpt>
      <trkpt lat="45.5499" lon="5.22272">
        <ele>448</ele>
        <time>2024-06-27T19:35:39.815Z</time>
      </trkpt>
      <trkpt lat="45.54998" lon="5.22265">
        <ele>448.1</ele>
        <time>2024-06-27T19:35:48.082Z</time>
      </trkpt>
      <trkpt lat="45.55026" lon="5.22238">
        <ele>448</ele>
        <time>2024-06-27T19:35:56.356Z</time>
      </trkpt>
      <trkpt lat="45.55053" lon="5.22212">
        <ele>448.1</ele>
        <time>2024-06-27T19:36:04.636Z</time>
      </trkpt>
      <trkpt lat="45.55081" lon="5.22183">
        <ele>448.3</ele>
        <time>2024-06-27T19:36:12.923Z</time>
      </trkpt>
      <trkpt lat="45.55086" lon="5.2218">
        <ele>448.2</ele>
        <time>2024-06-27T19:36:21.211Z</time>
      </trkpt>
      <trkpt lat="45.55106" lon="5.22172">
        <ele>447.9</ele>
        <time>2024-06-27T19:36:29.503Z</time>
      </trkpt>
      <trkpt lat="45.55117" lon="5.22168">
        <ele>447.3</ele>
        <time>2024-06-27T19:36:37.797Z</time>
      </trkpt>
      <trkpt lat="45.55128" lon="5.22164">
        <ele>447.2</ele>
        <time>2024-06-27T19:36:46.093Z</time>
      </trkpt>
      <trkpt lat="45.55139" lon="5.2216">
        <ele>447</ele>
        <time>2024-06-27T19:36:54.392Z</time>
      </trkpt>
      <trkpt lat="45.55156" lon="5.22155">
        <ele>446.7</ele>
        <time>2024-06-27T19:37:02.694Z</time>
      </trkpt>
      <trkpt lat="45.55168" lon="5.22152">
        <ele>446.7</ele>
        <time>2024-06-27T19:37:10.998Z</time>
      </trkpt>
      <trkpt lat="45.55179" lon="5.2215">
        <ele>446.7</ele>
        <time>2024-06-27T19:37:19.305Z</time>
      </trkpt>
      <trkpt lat="45.5521" lon="5.22147">
        <ele>445.6</ele>
        <time>2024-06-27T19:37:27.617Z</time>
      </trkpt>
      <trkpt lat="45.55222" lon="5.22148">
        <ele>445.6</ele>
        <time>2024-06-27T19:37:35.932Z</time>
      </trkpt>
      <trkpt lat="45.55228" lon="5.2215">
        <ele>445.7</ele>
        <time>2024-06-27T19:37:44.248Z</time>
      </trkpt>
      <trkpt lat="45.55252" lon="5.22159">
        <ele>446</ele>
        <time>2024-06-27T19:37:52.569Z</time>
      </trkpt>
      <trkpt lat="45.55276" lon="5.22167">
        <ele>445.4</ele>
        <time>2024-06-27T19:38:00.895Z</time>
      </trkpt>
      <trkpt lat="45.55329" lon="5.22188">
        <ele>446.3</ele>
        <time>2024-06-27T19:38:09.231Z</time>
      </trkpt>
      <trkpt lat="45.55335" lon="5.2219">
        <ele>446.1</ele>
        <time>2024-06-27T19:38:17.568Z</time>
      </trkpt>
      <trkpt lat="45.55341" lon="5.22193">
        <ele>446</ele>
        <time>2024-06-27T19:38:25.907Z</time>
      </trkpt>
      <trkpt lat="45.55353" lon="5.22199">
        <ele>445.6</ele>
        <time>2024-06-27T19:38:34.248Z</time>
      </trkpt>
      <trkpt lat="45.55365" lon="5.22207">
        <ele>445.2</ele>
        <time>2024-06-27T19:38:42.592Z</time>
      </trkpt>
      <trkpt lat="45.5537" lon="5.22213">
        <ele>445.1</ele>
        <time>2024-06-27T19:38:50.937Z</time>
      </trkpt>
      <trkpt lat="45.55374" lon="5.22219">
        <ele>444.9</ele>
        <time>2024-06-27T19:38:59.283Z</time>
      </trkpt>
      <trkpt lat="45.55385" lon="5.22242">
        <ele>444.6</ele>
        <time>2024-06-27T19:39:07.633Z</time>
      </trkpt>
      <trkpt lat="45.5541" lon="5.22295">
        <ele>445.5</ele>
        <time>2024-06-27T19:39:15.991Z</time>
      </trkpt>
      <trkpt lat="45.55414" lon="5.22301">
        <ele>445.4</ele>
        <time>2024-06-27T19:39:24.351Z</time>
      </trkpt>
      <trkpt lat="45.55424" lon="5.22313">
        <ele>445.5</ele>
        <time>2024-06-27T19:39:32.713Z</time>
      </trkpt>
      <trkpt lat="45.55438" lon="5.22329">
        <ele>446</ele>
        <time>2024-06-27T19:39:41.079Z</time>
      </trkpt>
      <trkpt lat="45.55444" lon="5.22333">
        <ele>446</ele>
        <time>2024-06-27T19:39:49.446Z</time>
      </trkpt>
      <trkpt lat="45.5545" lon="5.22335">
        <ele>445.9</ele>
        <time>2024-06-27T19:39:57.814Z</time>
      </trkpt>
      <trkpt lat="45.55456" lon="5.22336">
        <ele>445.6</ele>
        <time>2024-06-27T19:40:06.183Z</time>
      </trkpt>
      <trkpt lat="45.55468" lon="5.22334">
        <ele>445.2</ele>
        <time>2024-06-27T19:40:14.555Z</time>
      </trkpt>
      <trkpt lat="45.55474" lon="5.22332">
        <ele>445</ele>
        <time>2024-06-27T19:40:22.928Z</time>
      </trkpt>
      <trkpt lat="45.5548" lon="5.22329">
        <ele>444.8</ele>
        <time>2024-06-27T19:40:31.302Z</time>
      </trkpt>
      <trkpt lat="45.55517" lon="5.22318">
        <ele>442.9</ele>
        <time>2024-06-27T19:40:39.683Z</time>
      </trkpt>
      <trkpt lat="45.55523" lon="5.22319">
        <ele>442.8</ele>
        <time>2024-06-27T19:40:48.066Z</time>
      </trkpt>
      <trkpt lat="45.55543" lon="5.22319">
        <ele>444</ele>
        <time>2024-06-27T19:40:56.452Z</time>
      </trkpt>
      <trkpt lat="45.55549" lon="5.22316">
        <ele>444.5</ele>
        <time>2024-06-27T19:41:04.840Z</time>
      </trkpt>
      <trkpt lat="45.55555" lon="5.22313">
        <ele>445.6</ele>
        <time>2024-06-27T19:41:13.229Z</time>
      </trkpt>
      <trkpt lat="45.5556" lon="5.22308">
        <ele>446.5</ele>
        <time>2024-06-27T19:41:21.619Z</time>
      </trkpt>
      <trkpt lat="45.5557" lon="5.22296">
        <ele>447.5</ele>
        <time>2024-06-27T19:41:30.011Z</time>
      </trkpt>
      <trkpt lat="45.55575" lon="5.22291">
        <ele>447.9</ele>
        <time>2024-06-27T19:41:38.405Z</time>
      </trkpt>
      <trkpt lat="45.55579" lon="5.22285">
        <ele>448.3</ele>
        <time>2024-06-27T19:41:46.800Z</time>
      </trkpt>
      <trkpt lat="45.55584" lon="5.22279">
        <ele>448.6</ele>
        <time>2024-06-27T19:41:55.196Z</time>
      </trkpt>
      <trkpt lat="45.55594" lon="5.22267">
        <ele>447.8</ele>
        <time>2024-06-27T19:42:03.595Z</time>
      </trkpt>
      <trkpt lat="45.55598" lon="5.22261">
        <ele>447.4</ele>
        <time>2024-06-27T19:42:11.995Z</time>
      </trkpt>
      <trkpt lat="45.55608" lon="5.22251">
        <ele>446.4</ele>
        <time>2024-06-27T19:42:20.397Z</time>
      </trkpt>
      <trkpt lat="45.55618" lon="5.22242">
        <ele>445.6</ele>
        <time>2024-06-27T19:42:28.802Z</time>
      </trkpt>
      <trkpt lat="45.5563" lon="5.22236">
        <ele>445</ele>
        <time>2024-06-27T19:42:37.209Z</time>
      </trkpt>
      <trkpt lat="45.55636" lon="5.22235">
        <ele>444.6</ele>
        <time>2024-06-27T19:42:45.617Z</time>
      </trkpt>
      <trkpt lat="45.55641" lon="5.22234">
        <ele>444.3</ele>
        <time>2024-06-27T19:42:54.026Z</time>
      </trkpt>
      <trkpt lat="45.55647" lon="5.22235">
        <ele>444</ele>
        <time>2024-06-27T19:43:02.436Z</time>
      </trkpt>
      <trkpt lat="45.55652" lon="5.22238">
        <ele>443.7</ele>
        <time>2024-06-27T19:43:10.847Z</time>
      </trkpt>
      <trkpt lat="45.55657" lon="5.22242">
        <ele>443.4</ele>
        <time>2024-06-27T19:43:19.259Z</time>
      </trkpt>
      <trkpt lat="45.55661" lon="5.22248">
        <ele>443.1</ele>
        <time>2024-06-27T19:43:27.672Z</time>
      </trkpt>
      <trkpt lat="45.5567" lon="5.22261">
        <ele>442.4</ele>
        <time>2024-06-27T19:43:36.088Z</time>
      </trkpt>
      <trkpt lat="45.55674" lon="5.22268">
        <ele>442.3</ele>
        <time>2024-06-27T19:43:44.505Z</time>
      </trkpt>
      <trkpt lat="45.55678" lon="5.22274">
        <ele>442.1</ele>
        <time>2024-06-27T19:43:52.923Z</time>
      </trkpt>
      <trkpt lat="45.55707" lon="5.22324">
        <ele>440.1</ele>
        <time>2024-06-27T19:44:01.350Z</time>
      </trkpt>
      <trkpt lat="45.55722" lon="5.22353">
        <ele>440</ele>
        <time>2024-06-27T19:44:09.782Z</time>
      </trkpt>
      <trkpt lat="45.5573" lon="5.22379">
        <ele>441.1</ele>
        <time>2024-06-27T19:44:18.218Z</time>
      </trkpt>
      <trkpt lat="45.55736" lon="5.22408">
        <ele>440.4</ele>
        <time>2024-06-27T19:44:26.658Z</time>
      </trkpt>
      <trkpt lat="45.55736" lon="5.22427">
        <ele>439.7</ele>
        <time>2024-06-27T19:44:35.101Z</time>
      </trkpt>
      <trkpt lat="45.55736" lon="5.22437">
        <ele>439.3</ele>
        <time>2024-06-27T19:44:43.545Z</time>
      </trkpt>
      <trkpt lat="45.55737" lon="5.22457">
        <ele>439.2</ele>
        <time>2024-06-27T19:44:51.992Z</time>
      </trkpt>
      <trkpt lat="45.5574" lon="5.22466">
        <ele>439.6</ele>
        <time>2024-06-27T19:45:00.440Z</time>
      </trkpt>
      <trkpt lat="45.55745" lon="5.22473">
        <ele>439.8</ele>
        <time>2024-06-27T19:45:08.889Z</time>
      </trkpt>
      <trkpt lat="45.5575" lon="5.22478">
        <ele>439.9</ele>
        <time>2024-06-27T19:45:17.340Z</time>
      </trkpt>
      <trkpt lat="45.55755" lon="5.22483">
        <ele>440.2</ele>
        <time>2024-06-27T19:45:25.792Z</time>
      </trkpt>
      <trkpt lat="45.55759" lon="5.22496">
        <ele>440.5</ele>
        <time>2024-06-27T19:45:34.246Z</time>
      </trkpt>
      <trkpt lat="45.55756" lon="5.2251">
        <ele>440.8</ele>
        <time>2024-06-27T19:45:42.702Z</time>
      </trkpt>
      <trkpt lat="45.55753" lon="5.22517">
        <ele>440.9</ele>
        <time>2024-06-27T19:45:51.159Z</time>
      </trkpt>
      <trkpt lat="45.55749" lon="5.22532">
        <ele>440.9</ele>
        <time>2024-06-27T19:45:59.618Z</time>
      </trkpt>
      <trkpt lat="45.55745" lon="5.22556">
        <ele>440.5</ele>
        <time>2024-06-27T19:46:08.080Z</time>
      </trkpt>
      <trkpt lat="45.55744" lon="5.22565">
        <ele>440.1</ele>
        <time>2024-06-27T19:46:16.544Z</time>
      </trkpt>
      <trkpt lat="45.55742" lon="5.22592">
        <ele>439.1</ele>
        <time>2024-06-27T19:46:25.011Z</time>
      </trkpt>
      <trkpt lat="45.55741" lon="5.22602">
        <ele>439</ele>
        <time>2024-06-27T19:46:33.480Z</time>
      </trkpt>
      <trkpt lat="45.55739" lon="5.22621">
        <ele>438.4</ele>
        <time>2024-06-27T19:46:41.951Z</time>
      </trkpt>
      <trkpt lat="45.55738" lon="5.22629">
        <ele>438.1</ele>
        <time>2024-06-27T19:46:50.423Z</time>
      </trkpt>
      <trkpt lat="45.55737" lon="5.22649">
        <ele>437.2</ele>
        <time>2024-06-27T19:46:58.898Z</time>
      </trkpt>
      <trkpt lat="45.5574" lon="5.22659">
        <ele>436.6</ele>
        <time>2024-06-27T19:47:07.375Z</time>
      </trkpt>
      <trkpt lat="45.55742" lon="5.22664">
        <ele>436.3</ele>
        <time>2024-06-27T19:47:15.852Z</time>
      </trkpt>
      <trkpt lat="45.55745" lon="5.22668">
        <ele>436.1</ele>
        <time>2024-06-27T19:47:24.330Z</time>
      </trkpt>
      <trkpt lat="45.55749" lon="5.2267">
        <ele>436.1</ele>
        <time>2024-06-27T19:47:32.809Z</time>
      </trkpt>
      <trkpt lat="45.55757" lon="5.22674">
        <ele>436.3</ele>
        <time>2024-06-27T19:47:41.290Z</time>
      </trkpt>
      <trkpt lat="45.5577" lon="5.2268">
        <ele>436.8</ele>
        <time>2024-06-27T19:47:49.773Z</time>
      </trkpt>
      <trkpt lat="45.55783" lon="5.22686">
        <ele>437.3</ele>
        <time>2024-06-27T19:47:58.259Z</time>
      </trkpt>
      <trkpt lat="45.55792" lon="5.22689">
        <ele>437.8</ele>
        <time>2024-06-27T19:48:06.747Z</time>
      </trkpt>
      <trkpt lat="45.55814" lon="5.22698">
        <ele>438.8</ele>
        <time>2024-06-27T19:48:15.239Z</time>
      </trkpt>
      <trkpt lat="45.55818" lon="5.22699">
        <ele>439</ele>
        <time>2024-06-27T19:48:23.732Z</time>
      </trkpt>
      <trkpt lat="45.55831" lon="5.22704">
        <ele>439.2</ele>
        <time>2024-06-27T19:48:32.228Z</time>
      </trkpt>
      <trkpt lat="45.55836" lon="5.22706">
        <ele>439.3</ele>
        <time>2024-06-27T19:48:40.725Z</time>
      </trkpt>
      <trkpt lat="45.5586" lon="5.22714">
        <ele>439.9</ele>
        <time>2024-06-27T19:48:49.226Z</time>
      </trkpt>
      <trkpt lat="45.55878" lon="5.22721">
        <ele>439.8</ele>
        <time>2024-06-27T19:48:57.731Z</time>
      </trkpt>
      <trkpt lat="45.55889" lon="5.22724">
        <ele>439.7</ele>
        <time>2024-06-27T19:49:06.238Z</time>
      </trkpt>
      <trkpt lat="45.55892" lon="5.22725">
        <ele>439.7</ele>
        <time>2024-06-27T19:49:14.746Z</time>
      </trkpt>
      <trkpt lat="45.55905" lon="5.2273">
        <ele>440</ele>
        <time>2024-06-27T19:49:23.256Z</time>
      </trkpt>
      <trkpt lat="45.55908" lon="5.22731">
        <ele>440</ele>
        <time>2024-06-27T19:49:31.767Z</time>
      </trkpt>
      <trkpt lat="45.55914" lon="5.22732">
        <ele>440.2</ele>
        <time>2024-06-27T19:49:40.279Z</time>
      </trkpt>
      <trkpt lat="45.5593" lon="5.22736">
        <ele>441.1</ele>
        <time>2024-06-27T19:49:48.794Z</time>
      </trkpt>
      <trkpt lat="45.55933" lon="5.22736">
        <ele>441.3</ele>
        <time>2024-06-27T19:49:57.310Z</time>
      </trkpt>
      <trkpt lat="45.55945" lon="5.22739">
        <ele>442</ele>
        <time>2024-06-27T19:50:05.828Z</time>
      </trkpt>
      <trkpt lat="45.55958" lon="5.2274">
        <ele>442.9</ele>
        <time>2024-06-27T19:50:14.349Z</time>
      </trkpt>
      <trkpt lat="45.55978" lon="5.22739">
        <ele>444.1</ele>
        <time>2024-06-27T19:50:22.874Z</time>
      </trkpt>
      <trkpt lat="45.55981" lon="5.22738">
        <ele>444.3</ele>
        <time>2024-06-27T19:50:31.399Z</time>
      </trkpt>
      <trkpt lat="45.56011" lon="5.22736">
        <ele>445</ele>
        <time>2024-06-27T19:50:39.930Z</time>
      </trkpt>
      <trkpt lat="45.56038" lon="5.22738">
        <ele>445.3</ele>
        <time>2024-06-27T19:50:48.466Z</time>
      </trkpt>
      <trkpt lat="45.56042" lon="5.22738">
        <ele>445.5</ele>
        <time>2024-06-27T19:50:57.003Z</time>
      </trkpt>
      <trkpt lat="45.56053" lon="5.22739">
        <ele>445.8</ele>
        <time>2024-06-27T19:51:05.542Z</time>
      </trkpt>
      <trkpt lat="45.56065" lon="5.22742">
        <ele>446.9</ele>
        <time>2024-06-27T19:51:14.084Z</time>
      </trkpt>
      <trkpt lat="45.56068" lon="5.22743">
        <ele>447.1</ele>
        <time>2024-06-27T19:51:22.626Z</time>
      </trkpt>
      <trkpt lat="45.56089" lon="5.22746">
        <ele>449.2</ele>
        <time>2024-06-27T19:51:31.172Z</time>
      </trkpt>
      <trkpt lat="45.56095" lon="5.22748">
        <ele>449.5</ele>
        <time>2024-06-27T19:51:39.719Z</time>
      </trkpt>
      <trkpt lat="45.56112" lon="5.22752">
        <ele>450.6</ele>
        <time>2024-06-27T19:51:48.270Z</time>
      </trkpt>
      <trkpt lat="45.56114" lon="5.22753">
        <ele>450.7</ele>
        <time>2024-06-27T19:51:56.821Z</time>
      </trkpt>
      <trkpt lat="45.56128" lon="5.22759">
        <ele>451</ele>
        <time>2024-06-27T19:52:05.375Z</time>
      </trkpt>
      <trkpt lat="45.56137" lon="5.22759">
        <ele>451.3</ele>
        <time>2024-06-27T19:52:13.931Z</time>
      </trkpt>
      <trkpt lat="45.5616" lon="5.22743">
        <ele>453.4</ele>
        <time>2024-06-27T19:52:22.492Z</time>
      </trkpt>
      <trkpt lat="45.56185" lon="5.22723">
        <ele>454.6</ele>
        <time>2024-06-27T19:52:31.058Z</time>
      </trkpt>
      <trkpt lat="45.56201" lon="5.22712">
        <ele>455.1</ele>
        <time>2024-06-27T19:52:39.628Z</time>
      </trkpt>
      <trkpt lat="45.56205" lon="5.22709">
        <ele>455.1</ele>
        <time>2024-06-27T19:52:48.199Z</time>
      </trkpt>
      <trkpt lat="45.56213" lon="5.22702">
        <ele>455.2</ele>
        <time>2024-06-27T19:52:56.771Z</time>
      </trkpt>
      <trkpt lat="45.56217" lon="5.22699">
        <ele>455.5</ele>
        <time>2024-06-27T19:53:05.344Z</time>
      </trkpt>
      <trkpt lat="45.56241" lon="5.2268">
        <ele>457.2</ele>
        <time>2024-06-27T19:53:13.923Z</time>
      </trkpt>
      <trkpt lat="45.56249" lon="5.22674">
        <ele>458.2</ele>
        <time>2024-06-27T19:53:22.503Z</time>
      </trkpt>
      <trkpt lat="45.56272" lon="5.22657">
        <ele>459.1</ele>
        <time>2024-06-27T19:53:31.088Z</time>
      </trkpt>
      <trkpt lat="45.56275" lon="5.22654">
        <ele>459.2</ele>
        <time>2024-06-27T19:53:39.674Z</time>
      </trkpt>
      <trkpt lat="45.56279" lon="5.22651">
        <ele>459.3</ele>
        <time>2024-06-27T19:53:48.261Z</time>
      </trkpt>
      <trkpt lat="45.56282" lon="5.22648">
        <ele>459.3</ele>
        <time>2024-06-27T19:53:56.849Z</time>
      </trkpt>
      <trkpt lat="45.56297" lon="5.22638">
        <ele>459.1</ele>
        <time>2024-06-27T19:54:05.440Z</time>
      </trkpt>
      <trkpt lat="45.56304" lon="5.22632">
        <ele>459.1</ele>
        <time>2024-06-27T19:54:14.032Z</time>
      </trkpt>
      <trkpt lat="45.56321" lon="5.22619">
        <ele>459.9</ele>
        <time>2024-06-27T19:54:22.628Z</time>
      </trkpt>
      <trkpt lat="45.56326" lon="5.22615">
        <ele>459.9</ele>
        <time>2024-06-27T19:54:31.225Z</time>
      </trkpt>
      <trkpt lat="45.56337" lon="5.22617">
        <ele>459.8</ele>
        <time>2024-06-27T19:54:39.824Z</time>
      </trkpt>
      <trkpt lat="45.56341" lon="5.2262">
        <ele>460.3</ele>
        <time>2024-06-27T19:54:48.424Z</time>
      </trkpt>
      <trkpt lat="45.56352" lon="5.22635">
        <ele>461.6</ele>
        <time>2024-06-27T19:54:57.027Z</time>
      </trkpt>
      <trkpt lat="45.56355" lon="5.22641">
        <ele>462.2</ele>
        <time>2024-06-27T19:55:05.631Z</time>
      </trkpt>
      <trkpt lat="45.56358" lon="5.22646">
        <ele>462.8</ele>
        <time>2024-06-27T19:55:14.236Z</time>
      </trkpt>
      <trkpt lat="45.56363" lon="5.2266">
        <ele>464</ele>
        <time>2024-06-27T19:55:22.843Z</time>
      </trkpt>
      <trkpt lat="45.56364" lon="5.22668">
        <ele>464.2</ele>
        <time>2024-06-27T19:55:31.451Z</time>
      </trkpt>
      <trkpt lat="45.56364" lon="5.22675">
        <ele>464.2</ele>
        <time>2024-06-27T19:55:40.060Z</time>
      </trkpt>
      <trkpt lat="45.56366" lon="5.22704">
        <ele>463.3</ele>
        <time>2024-06-27T19:55:48.673Z</time>
      </trkpt>
      <trkpt lat="45.56367" lon="5.22711">
        <ele>463</ele>
        <time>2024-06-27T19:55:57.287Z</time>
      </trkpt>
      <trkpt lat="45.56369" lon="5.22729">
        <ele>462.6</ele>
        <time>2024-06-27T19:56:05.904Z</time>
      </trkpt>
      <trkpt lat="45.56375" lon="5.22754">
        <ele>462.3</ele>
        <time>2024-06-27T19:56:14.524Z</time>
      </trkpt>
      <trkpt lat="45.56381" lon="5.22772">
        <ele>462.5</ele>
        <time>2024-06-27T19:56:23.147Z</time>
      </trkpt>
      <trkpt lat="45.56393" lon="5.22796">
        <ele>462.3</ele>
        <time>2024-06-27T19:56:31.774Z</time>
      </trkpt>
      <trkpt lat="45.56408" lon="5.22827">
        <ele>460.8</ele>
        <time>2024-06-27T19:56:40.406Z</time>
      </trkpt>
      <trkpt lat="45.5642" lon="5.22853">
        <ele>461.3</ele>
        <time>2024-06-27T19:56:49.042Z</time>
      </trkpt>
      <trkpt lat="45.5643" lon="5.22882">
        <ele>463.2</ele>
        <time>2024-06-27T19:56:57.683Z</time>
      </trkpt>
      <trkpt lat="45.56438" lon="5.22905">
        <ele>463.3</ele>
        <time>2024-06-27T19:57:06.327Z</time>
      </trkpt>
      <trkpt lat="45.5645" lon="5.22942">
        <ele>463.1</ele>
        <time>2024-06-27T19:57:14.977Z</time>
      </trkpt>
      <trkpt lat="45.56454" lon="5.22957">
        <ele>462.8</ele>
        <time>2024-06-27T19:57:23.629Z</time>
      </trkpt>
      <trkpt lat="45.56464" lon="5.23003">
        <ele>462.6</ele>
        <time>2024-06-27T19:57:32.288Z</time>
      </trkpt>
      <trkpt lat="45.56466" lon="5.23018">
        <ele>462.5</ele>
        <time>2024-06-27T19:57:40.949Z</time>
      </trkpt>
      <trkpt lat="45.56469" lon="5.23055">
        <ele>462.2</ele>
        <time>2024-06-27T19:57:49.615Z</time>
      </trkpt>
      <trkpt lat="45.56469" lon="5.2308">
        <ele>461.6</ele>
        <time>2024-06-27T19:57:58.284Z</time>
      </trkpt>
      <trkpt lat="45.5647" lon="5.23126">
        <ele>461.7</ele>
        <time>2024-06-27T19:58:06.959Z</time>
      </trkpt>
      <trkpt lat="45.5647" lon="5.23146">
        <ele>462.2</ele>
        <time>2024-06-27T19:58:15.637Z</time>
      </trkpt>
      <trkpt lat="45.56466" lon="5.23209">
        <ele>461.1</ele>
        <time>2024-06-27T19:58:24.324Z</time>
      </trkpt>
      <trkpt lat="45.56454" lon="5.2327">
        <ele>460</ele>
        <time>2024-06-27T19:58:33.019Z</time>
      </trkpt>
      <trkpt lat="45.56452" lon="5.23279">
        <ele>460.3</ele>
        <time>2024-06-27T19:58:41.716Z</time>
      </trkpt>
      <trkpt lat="45.56439" lon="5.23325">
        <ele>461.4</ele>
        <time>2024-06-27T19:58:50.419Z</time>
      </trkpt>
      <trkpt lat="45.56435" lon="5.23333">
        <ele>461.2</ele>
        <time>2024-06-27T19:58:59.124Z</time>
      </trkpt>
      <trkpt lat="45.56411" lon="5.23377">
        <ele>462.6</ele>
        <time>2024-06-27T19:59:07.836Z</time>
      </trkpt>
      <trkpt lat="45.56407" lon="5.23384">
        <ele>462.7</ele>
        <time>2024-06-27T19:59:16.550Z</time>
      </trkpt>
      <trkpt lat="45.56395" lon="5.23414">
        <ele>463.5</ele>
        <time>2024-06-27T19:59:25.268Z</time>
      </trkpt>
      <trkpt lat="45.56393" lon="5.23422">
        <ele>463.6</ele>
        <time>2024-06-27T19:59:33.987Z</time>
      </trkpt>
      <trkpt lat="45.56391" lon="5.2343">
        <ele>463.8</ele>
        <time>2024-06-27T19:59:42.708Z</time>
      </trkpt>
      <trkpt lat="45.56382" lon="5.23471">
        <ele>463.8</ele>
        <time>2024-06-27T19:59:51.434Z</time>
      </trkpt>
      <trkpt lat="45.56378" lon="5.23489">
        <ele>463.1</ele>
        <time>2024-06-27T20:00:00.163Z</time>
      </trkpt>
      <trkpt lat="45.56368" lon="5.23538">
        <ele>461.4</ele>
        <time>2024-06-27T20:00:08.899Z</time>
      </trkpt>
      <trkpt lat="45.56348" lon="5.2361">
        <ele>460.7</ele>
        <time>2024-06-27T20:00:17.645Z</time>
      </trkpt>
      <trkpt lat="45.56339" lon="5.23632">
        <ele>460.1</ele>
        <time>2024-06-27T20:00:26.395Z</time>
      </trkpt>
      <trkpt lat="45.56329" lon="5.23652">
        <ele>459.3</ele>
        <time>2024-06-27T20:00:35.148Z</time>
      </trkpt>
      <trkpt lat="45.56326" lon="5.23659">
        <ele>459.3</ele>
        <time>2024-06-27T20:00:43.902Z</time>
      </trkpt>
      <trkpt lat="45.56313" lon="5.23685">
        <ele>459.1</ele>
        <time>2024-06-27T20:00:52.661Z</time>
      </trkpt>
      <trkpt lat="45.56292" lon="5.23734">
        <ele>459.6</ele>
        <time>2024-06-27T20:01:01.427Z</time>
      </trkpt>
      <trkpt lat="45.56279" lon="5.23784">
        <ele>460</ele>
        <time>2024-06-27T20:01:10.201Z</time>
      </trkpt>
      <trkpt lat="45.56275" lon="5.23811">
        <ele>459.5</ele>
        <time>2024-06-27T20:01:18.979Z</time>
      </trkpt>
      <trkpt lat="45.56273" lon="5.2384">
        <ele>458.7</ele>
        <time>2024-06-27T20:01:27.760Z</time>
      </trkpt>
      <trkpt lat="45.56276" lon="5.2389">
        <ele>458.1</ele>
        <time>2024-06-27T20:01:36.548Z</time>
      </trkpt>
      <trkpt lat="45.56286" lon="5.23941">
        <ele>457.9</ele>
        <time>2024-06-27T20:01:45.344Z</time>
      </trkpt>
      <trkpt lat="45.56291" lon="5.23961">
        <ele>457.1</ele>
        <time>2024-06-27T20:01:54.142Z</time>
      </trkpt>
      <trkpt lat="45.563" lon="5.23989">
        <ele>457</ele>
        <time>2024-06-27T20:02:02.945Z</time>
      </trkpt>
      <trkpt lat="45.56321" lon="5.24055">
        <ele>456.5</ele>
        <time>2024-06-27T20:02:11.757Z</time>
      </trkpt>
      <trkpt lat="45.56323" lon="5.24066">
        <ele>456.6</ele>
        <time>2024-06-27T20:02:20.571Z</time>
      </trkpt>
      <trkpt lat="45.56331" lon="5.24099">
        <ele>456</ele>
        <time>2024-06-27T20:02:29.390Z</time>
      </trkpt>
      <trkpt lat="45.56336" lon="5.24122">
        <ele>455.3</ele>
        <time>2024-06-27T20:02:38.212Z</time>
      </trkpt>
      <trkpt lat="45.56339" lon="5.24134">
        <ele>454.8</ele>
        <time>2024-06-27T20:02:47.036Z</time>
      </trkpt>
      <trkpt lat="45.56347" lon="5.24171">
        <ele>453.2</ele>
        <time>2024-06-27T20:02:55.865Z</time>
      </trkpt>
      <trkpt lat="45.56353" lon="5.24196">
        <ele>452</ele>
        <time>2024-06-27T20:03:04.698Z</time>
      </trkpt>
      <trkpt lat="45.56358" lon="5.2422">
        <ele>452</ele>
        <time>2024-06-27T20:03:13.534Z</time>
      </trkpt>
      <trkpt lat="45.5636" lon="5.24232">
        <ele>452.5</ele>
        <time>2024-06-27T20:03:22.372Z</time>
      </trkpt>
      <trkpt lat="45.56372" lon="5.24283">
        <ele>455.1</ele>
        <time>2024-06-27T20:03:31.217Z</time>
      </trkpt>
      <trkpt lat="45.56379" lon="5.24316">
        <ele>455.6</ele>
        <time>2024-06-27T20:03:40.067Z</time>
      </trkpt>
      <trkpt lat="45.56383" lon="5.24332">
        <ele>455.5</ele>
        <time>2024-06-27T20:03:48.919Z</time>
      </trkpt>
      <trkpt lat="45.56392" lon="5.24379">
        <ele>455.1</ele>
        <time>2024-06-27T20:03:57.778Z</time>
      </trkpt>
      <trkpt lat="45.56395" lon="5.24395">
        <ele>455.6</ele>
        <time>2024-06-27T20:04:06.639Z</time>
      </trkpt>
      <trkpt lat="45.56403" lon="5.24437">
        <ele>456.4</ele>
        <time>2024-06-27T20:04:15.506Z</time>
      </trkpt>
      <trkpt lat="45.56411" lon="5.24479">
        <ele>456</ele>
        <time>2024-06-27T20:04:24.379Z</time>
      </trkpt>
      <trkpt lat="45.56425" lon="5.24554">
        <ele>456</ele>
        <time>2024-06-27T20:04:33.262Z</time>
      </trkpt>
      <trkpt lat="45.5643" lon="5.24578">
        <ele>456.6</ele>
        <time>2024-06-27T20:04:42.149Z</time>
      </trkpt>
      <trkpt lat="45.56446" lon="5.24643">
        <ele>457.6</ele>
        <time>2024-06-27T20:04:51.045Z</time>
      </trkpt>
      <trkpt lat="45.56457" lon="5.24676">
        <ele>456</ele>
        <time>2024-06-27T20:04:59.946Z</time>
      </trkpt>
      <trkpt lat="45.56467" lon="5.247">
        <ele>455.3</ele>
        <time>2024-06-27T20:05:08.851Z</time>
      </trkpt>
      <trkpt lat="45.56495" lon="5.24773">
        <ele>454.5</ele>
        <time>2024-06-27T20:05:17.767Z</time>
      </trkpt>
      <trkpt lat="45.56512" lon="5.2485">
        <ele>455.9</ele>
        <time>2024-06-27T20:05:26.694Z</time>
      </trkpt>
      <trkpt lat="45.56517" lon="5.24876">
        <ele>457</ele>
        <time>2024-06-27T20:05:35.625Z</time>
      </trkpt>
      <trkpt lat="45.56526" lon="5.24917">
        <ele>458</ele>
        <time>2024-06-27T20:05:44.562Z</time>
      </trkpt>
      <trkpt lat="45.56535" lon="5.24979">
        <ele>458.5</ele>
        <time>2024-06-27T20:05:53.507Z</time>
      </trkpt>
      <trkpt lat="45.56535" lon="5.24987">
        <ele>458.8</ele>
        <time>2024-06-27T20:06:02.453Z</time>
      </trkpt>
      <trkpt lat="45.56538" lon="5.25026">
        <ele>459.3</ele>
        <time>2024-06-27T20:06:11.405Z</time>
      </trkpt>
      <trkpt lat="45.56538" lon="5.25065">
        <ele>459.6</ele>
        <time>2024-06-27T20:06:20.362Z</time>
      </trkpt>
      <trkpt lat="45.56535" lon="5.25102">
        <ele>460</ele>
        <time>2024-06-27T20:06:29.324Z</time>
      </trkpt>
      <trkpt lat="45.56532" lon="5.25125">
        <ele>460.1</ele>
        <time>2024-06-27T20:06:38.289Z</time>
      </trkpt>
      <trkpt lat="45.56521" lon="5.25206">
        <ele>458.7</ele>
        <time>2024-06-27T20:06:47.265Z</time>
      </trkpt>
      <trkpt lat="45.5652" lon="5.25214">
        <ele>458.7</ele>
        <time>2024-06-27T20:06:56.243Z</time>
      </trkpt>
      <trkpt lat="45.56515" lon="5.25247">
        <ele>459.6</ele>
        <time>2024-06-27T20:07:05.225Z</time>
      </trkpt>
      <trkpt lat="45.5651" lon="5.25289">
        <ele>460.3</ele>
        <time>2024-06-27T20:07:14.213Z</time>
      </trkpt>
      <trkpt lat="45.56506" lon="5.25346">
        <ele>459.6</ele>
        <time>2024-06-27T20:07:23.209Z</time>
      </trkpt>
      <trkpt lat="45.56505" lon="5.25395">
        <ele>459.1</ele>
        <time>2024-06-27T20:07:32.211Z</time>
      </trkpt>
      <trkpt lat="45.56504" lon="5.25434">
        <ele>459.9</ele>
        <time>2024-06-27T20:07:41.219Z</time>
      </trkpt>
      <trkpt lat="45.56503" lon="5.25493">
        <ele>459</ele>
        <time>2024-06-27T20:07:50.235Z</time>
      </trkpt>
      <trkpt lat="45.56502" lon="5.25523">
        <ele>457.9</ele>
        <time>2024-06-27T20:07:59.255Z</time>
      </trkpt>
      <trkpt lat="45.56502" lon="5.25542">
        <ele>457.3</ele>
        <time>2024-06-27T20:08:08.277Z</time>
      </trkpt>
      <trkpt lat="45.56504" lon="5.25603">
        <ele>457.2</ele>
        <time>2024-06-27T20:08:17.308Z</time>
      </trkpt>
      <trkpt lat="45.56508" lon="5.25634">
        <ele>457.2</ele>
        <time>2024-06-27T20:08:26.343Z</time>
      </trkpt>
      <trkpt lat="45.56509" lon="5.25645">
        <ele>456.8</ele>
        <time>2024-06-27T20:08:35.379Z</time>
      </trkpt>
      <trkpt lat="45.56516" lon="5.25687">
        <ele>456</ele>
        <time>2024-06-27T20:08:44.421Z</time>
      </trkpt>
      <trkpt lat="45.56518" lon="5.25698">
        <ele>455.8</ele>
        <time>2024-06-27T20:08:53.465Z</time>
      </trkpt>
      <trkpt lat="45.56531" lon="5.25764">
        <ele>454.4</ele>
        <time>2024-06-27T20:09:02.518Z</time>
      </trkpt>
      <trkpt lat="45.56535" lon="5.25786">
        <ele>453.9</ele>
        <time>2024-06-27T20:09:11.574Z</time>
      </trkpt>
      <trkpt lat="45.5654" lon="5.25808">
        <ele>453.4</ele>
        <time>2024-06-27T20:09:20.634Z</time>
      </trkpt>
      <trkpt lat="45.56543" lon="5.2582">
        <ele>453.5</ele>
        <time>2024-06-27T20:09:29.695Z</time>
      </trkpt>
      <trkpt lat="45.56556" lon="5.25889">
        <ele>454.2</ele>
        <time>2024-06-27T20:09:38.766Z</time>
      </trkpt>
      <trkpt lat="45.56568" lon="5.25946">
        <ele>454.2</ele>
        <time>2024-06-27T20:09:47.845Z</time>
      </trkpt>
      <trkpt lat="45.5657" lon="5.25957">
        <ele>453.9</ele>
        <time>2024-06-27T20:09:56.926Z</time>
      </trkpt>
      <trkpt lat="45.56573" lon="5.25967">
        <ele>453.4</ele>
        <time>2024-06-27T20:10:06.008Z</time>
      </trkpt>
      <trkpt lat="45.56576" lon="5.25977">
        <ele>452.9</ele>
        <time>2024-06-27T20:10:15.092Z</time>
      </trkpt>
      <trkpt lat="45.56588" lon="5.26006">
        <ele>452</ele>
        <time>2024-06-27T20:10:24.180Z</time>
      </trkpt>
      <trkpt lat="45.56597" lon="5.26035">
        <ele>452</ele>
        <time>2024-06-27T20:10:33.272Z</time>
      </trkpt>
      <trkpt lat="45.56616" lon="5.26079">
        <ele>451.6</ele>
        <time>2024-06-27T20:10:42.372Z</time>
      </trkpt>
      <trkpt lat="45.5662" lon="5.26089">
        <ele>450.8</ele>
        <time>2024-06-27T20:10:51.473Z</time>
      </trkpt>
      <trkpt lat="45.56627" lon="5.2611">
        <ele>449.7</ele>
        <time>2024-06-27T20:11:00.577Z</time>
      </trkpt>
      <trkpt lat="45.56633" lon="5.26134">
        <ele>449.3</ele>
        <time>2024-06-27T20:11:09.685Z</time>
      </trkpt>
      <trkpt lat="45.56646" lon="5.26194">
        <ele>448.8</ele>
        <time>2024-06-27T20:11:18.801Z</time>
      </trkpt>
      <trkpt lat="45.5667" lon="5.26257">
        <ele>445.5</ele>
        <time>2024-06-27T20:11:27.927Z</time>
      </trkpt>
      <trkpt lat="45.56682" lon="5.26289">
        <ele>443.7</ele>
        <time>2024-06-27T20:11:37.058Z</time>
      </trkpt>
      <trkpt lat="45.56693" lon="5.26321">
        <ele>442.2</ele>
        <time>2024-06-27T20:11:46.194Z</time>
      </trkpt>
      <trkpt lat="45.56696" lon="5.2633">
        <ele>441.9</ele>
        <time>2024-06-27T20:11:55.331Z</time>
      </trkpt>
      <trkpt lat="45.56703" lon="5.26346">
        <ele>441.3</ele>
        <time>2024-06-27T20:12:04.471Z</time>
      </trkpt>
      <trkpt lat="45.56707" lon="5.26353">
        <ele>441.1</ele>
        <time>2024-06-27T20:12:13.612Z</time>
      </trkpt>
      <trkpt lat="45.56712" lon="5.26359">
        <ele>440.8</ele>
        <time>2024-06-27T20:12:22.754Z</time>
      </trkpt>
      <trkpt lat="45.56719" lon="5.2637">
        <ele>440.4</ele>
        <time>2024-06-27T20:12:31.898Z</time>
      </trkpt>
      <trkpt lat="45.5672" lon="5.26376">
        <ele>440.2</ele>
        <time>2024-06-27T20:12:41.043Z</time>
      </trkpt>
      <trkpt lat="45.5672" lon="5.26381">
        <ele>440</ele>
        <time>2024-06-27T20:12:50.189Z</time>
      </trkpt>
      <trkpt lat="45.56719" lon="5.26389">
        <ele>439.8</ele>
        <time>2024-06-27T20:12:59.336Z</time>
      </trkpt>
      <trkpt lat="45.56721" lon="5.26396">
        <ele>439.5</ele>
        <time>2024-06-27T20:13:08.484Z</time>
      </trkpt>
      <trkpt lat="45.56724" lon="5.26397">
        <ele>439.5</ele>
        <time>2024-06-27T20:13:17.632Z</time>
      </trkpt>
      <trkpt lat="45.56725" lon="5.26397">
        <ele>439.5</ele>
        <time>2024-06-27T20:13:26.781Z</time>
      </trkpt>
    </trkseg>
  </trk>
</gpx>